<?xml version="1.0" encoding="UTF-8" standalone="no" ?>
<gpx xmlns="http://www.topografix.com/GPX/1/1" xmlns:xsi="http://www.w3.org/2001/XMLSchema-instance" xsi:schemaLocation="http://www.topografix.com/GPX/1/1 http://www.topografix.com/GPX/1/1/gpx.xsd" version="1.1" creator="VisuGPX - https://www.visugpx.com">
  <metadata>
    <name>La Tourelloise 2017</name>
  </metadata>
  <trk>
    <name><![CDATA[La Tourelloise ]]></name>
    <extensions>
      <line xmlns="http://www.topografix.com/GPX/gpx_style/0/2">
        <color>0000FF</color>
        <width>4</width>
      </line>
    </extensions>
    <trkseg>
      <trkpt lat="45.80535" lon="4.72097">
        <ele>307.5</ele>
        <time>2017-10-01T06:21:56Z</time>
      </trkpt>
      <trkpt lat="45.80535" lon="4.72093">
        <ele>307.9</ele>
        <time>2017-10-01T06:21:58Z</time>
      </trkpt>
      <trkpt lat="45.80534" lon="4.72086">
        <ele>308.3</ele>
        <time>2017-10-01T06:22:01Z</time>
      </trkpt>
      <trkpt lat="45.80534" lon="4.7207">
        <ele>309</ele>
        <time>2017-10-01T06:22:07Z</time>
      </trkpt>
      <trkpt lat="45.80538" lon="4.72059">
        <ele>309</ele>
        <time>2017-10-01T06:22:12Z</time>
      </trkpt>
      <trkpt lat="45.80538" lon="4.72045">
        <ele>309</ele>
        <time>2017-10-01T06:22:17Z</time>
      </trkpt>
      <trkpt lat="45.80538" lon="4.7203">
        <ele>309</ele>
        <time>2017-10-01T06:22:23Z</time>
      </trkpt>
      <trkpt lat="45.80543" lon="4.72015">
        <ele>309</ele>
        <time>2017-10-01T06:22:28Z</time>
      </trkpt>
      <trkpt lat="45.80547" lon="4.72007">
        <ele>309</ele>
        <time>2017-10-01T06:22:33Z</time>
      </trkpt>
      <trkpt lat="45.8055" lon="4.72003">
        <ele>309</ele>
        <time>2017-10-01T06:22:34Z</time>
      </trkpt>
      <trkpt lat="45.80551" lon="4.72">
        <ele>308.9</ele>
        <time>2017-10-01T06:22:35Z</time>
      </trkpt>
      <trkpt lat="45.80544" lon="4.71997">
        <ele>308.9</ele>
        <time>2017-10-01T06:22:38Z</time>
      </trkpt>
      <trkpt lat="45.80526" lon="4.7199">
        <ele>308.7</ele>
        <time>2017-10-01T06:22:45Z</time>
      </trkpt>
      <trkpt lat="45.80509" lon="4.71987">
        <ele>308.6</ele>
        <time>2017-10-01T06:22:51Z</time>
      </trkpt>
      <trkpt lat="45.80495" lon="4.71982">
        <ele>308.4</ele>
        <time>2017-10-01T06:22:56Z</time>
      </trkpt>
      <trkpt lat="45.8049" lon="4.7198">
        <ele>308.4</ele>
        <time>2017-10-01T06:22:58Z</time>
      </trkpt>
      <trkpt lat="45.80488" lon="4.71978">
        <ele>308.4</ele>
        <time>2017-10-01T06:22:59Z</time>
      </trkpt>
      <trkpt lat="45.80473" lon="4.71973">
        <ele>308.2</ele>
        <time>2017-10-01T06:23:04Z</time>
      </trkpt>
      <trkpt lat="45.8047" lon="4.71971">
        <ele>308.1</ele>
        <time>2017-10-01T06:23:05Z</time>
      </trkpt>
      <trkpt lat="45.8045" lon="4.71965">
        <ele>307.8</ele>
        <time>2017-10-01T06:23:11Z</time>
      </trkpt>
      <trkpt lat="45.80424" lon="4.7196">
        <ele>306.1</ele>
        <time>2017-10-01T06:23:19Z</time>
      </trkpt>
      <trkpt lat="45.80414" lon="4.71958">
        <ele>305.8</ele>
        <time>2017-10-01T06:23:22Z</time>
      </trkpt>
      <trkpt lat="45.80403" lon="4.71957">
        <ele>305.4</ele>
        <time>2017-10-01T06:23:25Z</time>
      </trkpt>
      <trkpt lat="45.80399" lon="4.71956">
        <ele>305.4</ele>
        <time>2017-10-01T06:23:26Z</time>
      </trkpt>
      <trkpt lat="45.80387" lon="4.71956">
        <ele>305.2</ele>
        <time>2017-10-01T06:23:29Z</time>
      </trkpt>
      <trkpt lat="45.80375" lon="4.71959">
        <ele>305</ele>
        <time>2017-10-01T06:23:32Z</time>
      </trkpt>
      <trkpt lat="45.80371" lon="4.7196">
        <ele>305</ele>
        <time>2017-10-01T06:23:33Z</time>
      </trkpt>
      <trkpt lat="45.80363" lon="4.71964">
        <ele>305</ele>
        <time>2017-10-01T06:23:35Z</time>
      </trkpt>
      <trkpt lat="45.80348" lon="4.71971">
        <ele>304.9</ele>
        <time>2017-10-01T06:23:39Z</time>
      </trkpt>
      <trkpt lat="45.80326" lon="4.7199">
        <ele>304.7</ele>
        <time>2017-10-01T06:23:45Z</time>
      </trkpt>
      <trkpt lat="45.80318" lon="4.71998">
        <ele>304.5</ele>
        <time>2017-10-01T06:23:47Z</time>
      </trkpt>
      <trkpt lat="45.80296" lon="4.72021">
        <ele>303.6</ele>
        <time>2017-10-01T06:23:53Z</time>
      </trkpt>
      <trkpt lat="45.80265" lon="4.72052">
        <ele>303</ele>
        <time>2017-10-01T06:24:01Z</time>
      </trkpt>
      <trkpt lat="45.80257" lon="4.7206">
        <ele>302.5</ele>
        <time>2017-10-01T06:24:03Z</time>
      </trkpt>
      <trkpt lat="45.80253" lon="4.72064">
        <ele>302.2</ele>
        <time>2017-10-01T06:24:04Z</time>
      </trkpt>
      <trkpt lat="45.80245" lon="4.72073">
        <ele>301.8</ele>
        <time>2017-10-01T06:24:06Z</time>
      </trkpt>
      <trkpt lat="45.80241" lon="4.72077">
        <ele>301.7</ele>
        <time>2017-10-01T06:24:07Z</time>
      </trkpt>
      <trkpt lat="45.80237" lon="4.72082">
        <ele>301.5</ele>
        <time>2017-10-01T06:24:08Z</time>
      </trkpt>
      <trkpt lat="45.80208" lon="4.72113">
        <ele>300.1</ele>
        <time>2017-10-01T06:24:15Z</time>
      </trkpt>
      <trkpt lat="45.80205" lon="4.72117">
        <ele>300</ele>
        <time>2017-10-01T06:24:16Z</time>
      </trkpt>
      <trkpt lat="45.802" lon="4.7212">
        <ele>300</ele>
        <time>2017-10-01T06:24:17Z</time>
      </trkpt>
      <trkpt lat="45.80197" lon="4.72123">
        <ele>300</ele>
        <time>2017-10-01T06:24:18Z</time>
      </trkpt>
      <trkpt lat="45.80188" lon="4.72131">
        <ele>299.9</ele>
        <time>2017-10-01T06:24:21Z</time>
      </trkpt>
      <trkpt lat="45.80183" lon="4.72137">
        <ele>299.9</ele>
        <time>2017-10-01T06:24:23Z</time>
      </trkpt>
      <trkpt lat="45.80168" lon="4.72155">
        <ele>299.8</ele>
        <time>2017-10-01T06:24:28Z</time>
      </trkpt>
      <trkpt lat="45.80165" lon="4.72159">
        <ele>299.8</ele>
        <time>2017-10-01T06:24:29Z</time>
      </trkpt>
      <trkpt lat="45.80159" lon="4.72167">
        <ele>299</ele>
        <time>2017-10-01T06:24:33Z</time>
      </trkpt>
      <trkpt lat="45.80155" lon="4.72168">
        <ele>299</ele>
        <time>2017-10-01T06:24:35Z</time>
      </trkpt>
      <trkpt lat="45.80152" lon="4.72163">
        <ele>299</ele>
        <time>2017-10-01T06:24:37Z</time>
      </trkpt>
      <trkpt lat="45.80149" lon="4.72149">
        <ele>298</ele>
        <time>2017-10-01T06:24:43Z</time>
      </trkpt>
      <trkpt lat="45.8015" lon="4.72143">
        <ele>298.8</ele>
        <time>2017-10-01T06:24:45Z</time>
      </trkpt>
      <trkpt lat="45.80152" lon="4.72134">
        <ele>299.4</ele>
        <time>2017-10-01T06:24:48Z</time>
      </trkpt>
      <trkpt lat="45.80165" lon="4.72105">
        <ele>301.2</ele>
        <time>2017-10-01T06:24:56Z</time>
      </trkpt>
      <trkpt lat="45.80174" lon="4.72087">
        <ele>302.5</ele>
        <time>2017-10-01T06:25:02Z</time>
      </trkpt>
      <trkpt lat="45.80178" lon="4.72087">
        <ele>302.6</ele>
        <time>2017-10-01T06:25:04Z</time>
      </trkpt>
      <trkpt lat="45.8018" lon="4.72087">
        <ele>302.7</ele>
        <time>2017-10-01T06:25:05Z</time>
      </trkpt>
      <trkpt lat="45.80181" lon="4.72088">
        <ele>302.6</ele>
        <time>2017-10-01T06:25:06Z</time>
      </trkpt>
      <trkpt lat="45.80188" lon="4.72084">
        <ele>302.8</ele>
        <time>2017-10-01T06:25:11Z</time>
      </trkpt>
      <trkpt lat="45.80189" lon="4.72082">
        <ele>302.9</ele>
        <time>2017-10-01T06:25:12Z</time>
      </trkpt>
      <trkpt lat="45.80187" lon="4.72059">
        <ele>302.8</ele>
        <time>2017-10-01T06:25:17Z</time>
      </trkpt>
      <trkpt lat="45.80182" lon="4.72034">
        <ele>300.9</ele>
        <time>2017-10-01T06:25:22Z</time>
      </trkpt>
      <trkpt lat="45.80171" lon="4.71997">
        <ele>298.7</ele>
        <time>2017-10-01T06:25:30Z</time>
      </trkpt>
      <trkpt lat="45.8016" lon="4.71976">
        <ele>297.2</ele>
        <time>2017-10-01T06:25:35Z</time>
      </trkpt>
      <trkpt lat="45.80157" lon="4.71972">
        <ele>296.9</ele>
        <time>2017-10-01T06:25:36Z</time>
      </trkpt>
      <trkpt lat="45.80155" lon="4.71968">
        <ele>296.4</ele>
        <time>2017-10-01T06:25:37Z</time>
      </trkpt>
      <trkpt lat="45.80149" lon="4.71959">
        <ele>295.7</ele>
        <time>2017-10-01T06:25:39Z</time>
      </trkpt>
      <trkpt lat="45.80142" lon="4.71952">
        <ele>295.3</ele>
        <time>2017-10-01T06:25:41Z</time>
      </trkpt>
      <trkpt lat="45.80136" lon="4.7195">
        <ele>295.1</ele>
        <time>2017-10-01T06:25:43Z</time>
      </trkpt>
      <trkpt lat="45.8013" lon="4.71952">
        <ele>294.8</ele>
        <time>2017-10-01T06:25:45Z</time>
      </trkpt>
      <trkpt lat="45.80121" lon="4.71955">
        <ele>294.3</ele>
        <time>2017-10-01T06:25:48Z</time>
      </trkpt>
      <trkpt lat="45.80118" lon="4.71956">
        <ele>294.2</ele>
        <time>2017-10-01T06:25:49Z</time>
      </trkpt>
      <trkpt lat="45.8011" lon="4.71958">
        <ele>293.9</ele>
        <time>2017-10-01T06:25:51Z</time>
      </trkpt>
      <trkpt lat="45.80102" lon="4.71958">
        <ele>293.8</ele>
        <time>2017-10-01T06:25:53Z</time>
      </trkpt>
      <trkpt lat="45.80092" lon="4.71954">
        <ele>293.5</ele>
        <time>2017-10-01T06:25:56Z</time>
      </trkpt>
      <trkpt lat="45.80086" lon="4.71946">
        <ele>292.9</ele>
        <time>2017-10-01T06:25:58Z</time>
      </trkpt>
      <trkpt lat="45.80082" lon="4.71939">
        <ele>292.4</ele>
        <time>2017-10-01T06:26:00Z</time>
      </trkpt>
      <trkpt lat="45.80081" lon="4.71937">
        <ele>292.4</ele>
        <time>2017-10-01T06:26:01Z</time>
      </trkpt>
      <trkpt lat="45.80075" lon="4.71928">
        <ele>291.9</ele>
        <time>2017-10-01T06:26:08Z</time>
      </trkpt>
      <trkpt lat="45.80072" lon="4.71926">
        <ele>291.6</ele>
        <time>2017-10-01T06:26:09Z</time>
      </trkpt>
      <trkpt lat="45.8007" lon="4.71923">
        <ele>291.4</ele>
        <time>2017-10-01T06:26:10Z</time>
      </trkpt>
      <trkpt lat="45.80064" lon="4.71918">
        <ele>290.9</ele>
        <time>2017-10-01T06:26:12Z</time>
      </trkpt>
      <trkpt lat="45.80059" lon="4.71911">
        <ele>290.2</ele>
        <time>2017-10-01T06:26:14Z</time>
      </trkpt>
      <trkpt lat="45.80055" lon="4.71906">
        <ele>289.7</ele>
        <time>2017-10-01T06:26:16Z</time>
      </trkpt>
      <trkpt lat="45.80048" lon="4.71901">
        <ele>288.4</ele>
        <time>2017-10-01T06:26:18Z</time>
      </trkpt>
      <trkpt lat="45.80045" lon="4.71898">
        <ele>288</ele>
        <time>2017-10-01T06:26:19Z</time>
      </trkpt>
      <trkpt lat="45.80042" lon="4.71894">
        <ele>287.4</ele>
        <time>2017-10-01T06:26:20Z</time>
      </trkpt>
      <trkpt lat="45.80035" lon="4.71885">
        <ele>286.2</ele>
        <time>2017-10-01T06:26:22Z</time>
      </trkpt>
      <trkpt lat="45.80027" lon="4.71876">
        <ele>285.9</ele>
        <time>2017-10-01T06:26:24Z</time>
      </trkpt>
      <trkpt lat="45.80021" lon="4.71867">
        <ele>285.8</ele>
        <time>2017-10-01T06:26:26Z</time>
      </trkpt>
      <trkpt lat="45.80019" lon="4.71864">
        <ele>285.6</ele>
        <time>2017-10-01T06:26:27Z</time>
      </trkpt>
      <trkpt lat="45.80019" lon="4.71861">
        <ele>285.4</ele>
        <time>2017-10-01T06:26:28Z</time>
      </trkpt>
      <trkpt lat="45.80017" lon="4.71857">
        <ele>284.9</ele>
        <time>2017-10-01T06:26:30Z</time>
      </trkpt>
      <trkpt lat="45.80016" lon="4.71855">
        <ele>284.9</ele>
        <time>2017-10-01T06:26:31Z</time>
      </trkpt>
      <trkpt lat="45.80014" lon="4.71853">
        <ele>284.3</ele>
        <time>2017-10-01T06:26:32Z</time>
      </trkpt>
      <trkpt lat="45.80012" lon="4.7185">
        <ele>284.2</ele>
        <time>2017-10-01T06:26:33Z</time>
      </trkpt>
      <trkpt lat="45.80008" lon="4.71848">
        <ele>283.2</ele>
        <time>2017-10-01T06:26:35Z</time>
      </trkpt>
      <trkpt lat="45.80004" lon="4.71849">
        <ele>282.8</ele>
        <time>2017-10-01T06:26:37Z</time>
      </trkpt>
      <trkpt lat="45.79997" lon="4.7185">
        <ele>282.2</ele>
        <time>2017-10-01T06:26:39Z</time>
      </trkpt>
      <trkpt lat="45.79992" lon="4.71849">
        <ele>281.6</ele>
        <time>2017-10-01T06:26:40Z</time>
      </trkpt>
      <trkpt lat="45.79989" lon="4.71848">
        <ele>281.2</ele>
        <time>2017-10-01T06:26:41Z</time>
      </trkpt>
      <trkpt lat="45.79985" lon="4.71847">
        <ele>280.8</ele>
        <time>2017-10-01T06:26:42Z</time>
      </trkpt>
      <trkpt lat="45.79981" lon="4.71846">
        <ele>280</ele>
        <time>2017-10-01T06:26:43Z</time>
      </trkpt>
      <trkpt lat="45.79973" lon="4.71844">
        <ele>279</ele>
        <time>2017-10-01T06:26:45Z</time>
      </trkpt>
      <trkpt lat="45.79966" lon="4.71842">
        <ele>278</ele>
        <time>2017-10-01T06:26:47Z</time>
      </trkpt>
      <trkpt lat="45.79963" lon="4.7184">
        <ele>277.3</ele>
        <time>2017-10-01T06:26:48Z</time>
      </trkpt>
      <trkpt lat="45.79959" lon="4.71839">
        <ele>276.8</ele>
        <time>2017-10-01T06:26:49Z</time>
      </trkpt>
      <trkpt lat="45.79952" lon="4.71837">
        <ele>275.8</ele>
        <time>2017-10-01T06:26:51Z</time>
      </trkpt>
      <trkpt lat="45.79946" lon="4.71834">
        <ele>274.8</ele>
        <time>2017-10-01T06:26:53Z</time>
      </trkpt>
      <trkpt lat="45.79931" lon="4.71825">
        <ele>273</ele>
        <time>2017-10-01T06:26:58Z</time>
      </trkpt>
      <trkpt lat="45.79926" lon="4.71821">
        <ele>272.3</ele>
        <time>2017-10-01T06:27:00Z</time>
      </trkpt>
      <trkpt lat="45.79917" lon="4.71817">
        <ele>270.5</ele>
        <time>2017-10-01T06:27:06Z</time>
      </trkpt>
      <trkpt lat="45.79913" lon="4.71814">
        <ele>269.6</ele>
        <time>2017-10-01T06:27:08Z</time>
      </trkpt>
      <trkpt lat="45.79908" lon="4.71796">
        <ele>267.9</ele>
        <time>2017-10-01T06:27:25Z</time>
      </trkpt>
      <trkpt lat="45.79909" lon="4.71794">
        <ele>267.7</ele>
        <time>2017-10-01T06:27:26Z</time>
      </trkpt>
      <trkpt lat="45.79911" lon="4.71788">
        <ele>267</ele>
        <time>2017-10-01T06:27:28Z</time>
      </trkpt>
      <trkpt lat="45.79915" lon="4.7178">
        <ele>266.3</ele>
        <time>2017-10-01T06:27:30Z</time>
      </trkpt>
      <trkpt lat="45.79919" lon="4.71773">
        <ele>265.3</ele>
        <time>2017-10-01T06:27:32Z</time>
      </trkpt>
      <trkpt lat="45.79922" lon="4.71769">
        <ele>265</ele>
        <time>2017-10-01T06:27:33Z</time>
      </trkpt>
      <trkpt lat="45.79934" lon="4.71749">
        <ele>266.2</ele>
        <time>2017-10-01T06:27:38Z</time>
      </trkpt>
      <trkpt lat="45.79949" lon="4.7173">
        <ele>266.1</ele>
        <time>2017-10-01T06:27:41Z</time>
      </trkpt>
      <trkpt lat="45.79967" lon="4.71706">
        <ele>266</ele>
        <time>2017-10-01T06:27:44Z</time>
      </trkpt>
      <trkpt lat="45.79983" lon="4.71684">
        <ele>265.8</ele>
        <time>2017-10-01T06:27:47Z</time>
      </trkpt>
      <trkpt lat="45.80019" lon="4.71635">
        <ele>265.5</ele>
        <time>2017-10-01T06:27:54Z</time>
      </trkpt>
      <trkpt lat="45.8005" lon="4.71594">
        <ele>269.6</ele>
        <time>2017-10-01T06:28:01Z</time>
      </trkpt>
      <trkpt lat="45.80063" lon="4.71571">
        <ele>269</ele>
        <time>2017-10-01T06:28:06Z</time>
      </trkpt>
      <trkpt lat="45.80064" lon="4.71567">
        <ele>268.1</ele>
        <time>2017-10-01T06:28:07Z</time>
      </trkpt>
      <trkpt lat="45.8007" lon="4.71555">
        <ele>266.2</ele>
        <time>2017-10-01T06:28:10Z</time>
      </trkpt>
      <trkpt lat="45.80079" lon="4.71547">
        <ele>265.2</ele>
        <time>2017-10-01T06:28:13Z</time>
      </trkpt>
      <trkpt lat="45.80091" lon="4.71537">
        <ele>265</ele>
        <time>2017-10-01T06:28:17Z</time>
      </trkpt>
      <trkpt lat="45.80115" lon="4.71515">
        <ele>267.2</ele>
        <time>2017-10-01T06:28:24Z</time>
      </trkpt>
      <trkpt lat="45.80146" lon="4.71488">
        <ele>265.8</ele>
        <time>2017-10-01T06:28:32Z</time>
      </trkpt>
      <trkpt lat="45.80185" lon="4.71453">
        <ele>269.1</ele>
        <time>2017-10-01T06:28:42Z</time>
      </trkpt>
      <trkpt lat="45.80202" lon="4.71434">
        <ele>268.7</ele>
        <time>2017-10-01T06:28:48Z</time>
      </trkpt>
      <trkpt lat="45.80206" lon="4.7143">
        <ele>268.7</ele>
        <time>2017-10-01T06:28:50Z</time>
      </trkpt>
      <trkpt lat="45.80212" lon="4.71431">
        <ele>268.5</ele>
        <time>2017-10-01T06:28:52Z</time>
      </trkpt>
      <trkpt lat="45.80217" lon="4.71428">
        <ele>268.3</ele>
        <time>2017-10-01T06:28:54Z</time>
      </trkpt>
      <trkpt lat="45.80218" lon="4.71426">
        <ele>268.3</ele>
        <time>2017-10-01T06:28:55Z</time>
      </trkpt>
      <trkpt lat="45.80219" lon="4.71419">
        <ele>268.3</ele>
        <time>2017-10-01T06:28:59Z</time>
      </trkpt>
      <trkpt lat="45.80218" lon="4.71414">
        <ele>268.2</ele>
        <time>2017-10-01T06:29:00Z</time>
      </trkpt>
      <trkpt lat="45.8022" lon="4.71396">
        <ele>267.3</ele>
        <time>2017-10-01T06:29:05Z</time>
      </trkpt>
      <trkpt lat="45.80223" lon="4.71382">
        <ele>266.9</ele>
        <time>2017-10-01T06:29:11Z</time>
      </trkpt>
      <trkpt lat="45.80223" lon="4.71379">
        <ele>266.8</ele>
        <time>2017-10-01T06:29:12Z</time>
      </trkpt>
      <trkpt lat="45.80215" lon="4.71356">
        <ele>265.2</ele>
        <time>2017-10-01T06:29:15Z</time>
      </trkpt>
      <trkpt lat="45.8022" lon="4.71341">
        <ele>265.4</ele>
        <time>2017-10-01T06:29:18Z</time>
      </trkpt>
      <trkpt lat="45.80222" lon="4.71336">
        <ele>265.8</ele>
        <time>2017-10-01T06:29:19Z</time>
      </trkpt>
      <trkpt lat="45.80235" lon="4.71308">
        <ele>266.7</ele>
        <time>2017-10-01T06:29:25Z</time>
      </trkpt>
      <trkpt lat="45.80248" lon="4.7128">
        <ele>268</ele>
        <time>2017-10-01T06:29:31Z</time>
      </trkpt>
      <trkpt lat="45.80263" lon="4.71246">
        <ele>269.6</ele>
        <time>2017-10-01T06:29:38Z</time>
      </trkpt>
      <trkpt lat="45.80267" lon="4.71241">
        <ele>269.8</ele>
        <time>2017-10-01T06:29:39Z</time>
      </trkpt>
      <trkpt lat="45.80281" lon="4.71213">
        <ele>268.9</ele>
        <time>2017-10-01T06:29:44Z</time>
      </trkpt>
      <trkpt lat="45.8029" lon="4.71188">
        <ele>267.3</ele>
        <time>2017-10-01T06:29:49Z</time>
      </trkpt>
      <trkpt lat="45.80302" lon="4.71159">
        <ele>266.9</ele>
        <time>2017-10-01T06:29:55Z</time>
      </trkpt>
      <trkpt lat="45.80312" lon="4.71132">
        <ele>266.7</ele>
        <time>2017-10-01T06:30:00Z</time>
      </trkpt>
      <trkpt lat="45.80324" lon="4.71104">
        <ele>267.9</ele>
        <time>2017-10-01T06:30:06Z</time>
      </trkpt>
      <trkpt lat="45.80345" lon="4.71077">
        <ele>268.5</ele>
        <time>2017-10-01T06:30:12Z</time>
      </trkpt>
      <trkpt lat="45.80361" lon="4.71048">
        <ele>268.5</ele>
        <time>2017-10-01T06:30:18Z</time>
      </trkpt>
      <trkpt lat="45.80363" lon="4.71024">
        <ele>269.1</ele>
        <time>2017-10-01T06:30:22Z</time>
      </trkpt>
      <trkpt lat="45.80364" lon="4.71018">
        <ele>269.3</ele>
        <time>2017-10-01T06:30:23Z</time>
      </trkpt>
      <trkpt lat="45.80372" lon="4.70996">
        <ele>270.2</ele>
        <time>2017-10-01T06:30:27Z</time>
      </trkpt>
      <trkpt lat="45.80385" lon="4.70971">
        <ele>271</ele>
        <time>2017-10-01T06:30:33Z</time>
      </trkpt>
      <trkpt lat="45.80403" lon="4.70968">
        <ele>270.8</ele>
        <time>2017-10-01T06:30:39Z</time>
      </trkpt>
      <trkpt lat="45.80423" lon="4.70959">
        <ele>270.4</ele>
        <time>2017-10-01T06:30:45Z</time>
      </trkpt>
      <trkpt lat="45.80426" lon="4.70957">
        <ele>270.3</ele>
        <time>2017-10-01T06:30:46Z</time>
      </trkpt>
      <trkpt lat="45.80441" lon="4.70945">
        <ele>270.5</ele>
        <time>2017-10-01T06:30:51Z</time>
      </trkpt>
      <trkpt lat="45.80446" lon="4.70938">
        <ele>269.8</ele>
        <time>2017-10-01T06:30:53Z</time>
      </trkpt>
      <trkpt lat="45.80449" lon="4.70926">
        <ele>268.6</ele>
        <time>2017-10-01T06:30:55Z</time>
      </trkpt>
      <trkpt lat="45.80451" lon="4.70913">
        <ele>267.7</ele>
        <time>2017-10-01T06:30:57Z</time>
      </trkpt>
      <trkpt lat="45.8045" lon="4.70889">
        <ele>267.8</ele>
        <time>2017-10-01T06:31:00Z</time>
      </trkpt>
      <trkpt lat="45.80442" lon="4.70861">
        <ele>271</ele>
        <time>2017-10-01T06:31:03Z</time>
      </trkpt>
      <trkpt lat="45.80439" lon="4.70852">
        <ele>272.9</ele>
        <time>2017-10-01T06:31:04Z</time>
      </trkpt>
      <trkpt lat="45.80432" lon="4.70836">
        <ele>276.8</ele>
        <time>2017-10-01T06:31:06Z</time>
      </trkpt>
      <trkpt lat="45.80422" lon="4.70825">
        <ele>279.5</ele>
        <time>2017-10-01T06:31:08Z</time>
      </trkpt>
      <trkpt lat="45.80417" lon="4.70823">
        <ele>280.9</ele>
        <time>2017-10-01T06:31:09Z</time>
      </trkpt>
      <trkpt lat="45.8041" lon="4.70823">
        <ele>281.5</ele>
        <time>2017-10-01T06:31:11Z</time>
      </trkpt>
      <trkpt lat="45.80405" lon="4.70829">
        <ele>281.2</ele>
        <time>2017-10-01T06:31:14Z</time>
      </trkpt>
      <trkpt lat="45.80404" lon="4.70831">
        <ele>281.3</ele>
        <time>2017-10-01T06:31:15Z</time>
      </trkpt>
      <trkpt lat="45.80402" lon="4.70834">
        <ele>281.5</ele>
        <time>2017-10-01T06:31:16Z</time>
      </trkpt>
      <trkpt lat="45.80401" lon="4.70836">
        <ele>281.5</ele>
        <time>2017-10-01T06:31:17Z</time>
      </trkpt>
      <trkpt lat="45.80397" lon="4.70841">
        <ele>282.2</ele>
        <time>2017-10-01T06:31:19Z</time>
      </trkpt>
      <trkpt lat="45.80393" lon="4.70845">
        <ele>282.3</ele>
        <time>2017-10-01T06:31:21Z</time>
      </trkpt>
      <trkpt lat="45.80391" lon="4.70846">
        <ele>282.3</ele>
        <time>2017-10-01T06:31:22Z</time>
      </trkpt>
      <trkpt lat="45.80389" lon="4.70848">
        <ele>282.4</ele>
        <time>2017-10-01T06:31:23Z</time>
      </trkpt>
      <trkpt lat="45.80384" lon="4.70852">
        <ele>282.9</ele>
        <time>2017-10-01T06:31:25Z</time>
      </trkpt>
      <trkpt lat="45.8038" lon="4.70857">
        <ele>282.9</ele>
        <time>2017-10-01T06:31:27Z</time>
      </trkpt>
      <trkpt lat="45.80375" lon="4.70863">
        <ele>283.4</ele>
        <time>2017-10-01T06:31:29Z</time>
      </trkpt>
      <trkpt lat="45.8037" lon="4.70868">
        <ele>283.1</ele>
        <time>2017-10-01T06:31:31Z</time>
      </trkpt>
      <trkpt lat="45.80366" lon="4.70874">
        <ele>282.7</ele>
        <time>2017-10-01T06:31:33Z</time>
      </trkpt>
      <trkpt lat="45.80361" lon="4.70881">
        <ele>281.8</ele>
        <time>2017-10-01T06:31:36Z</time>
      </trkpt>
      <trkpt lat="45.80353" lon="4.70894">
        <ele>280.7</ele>
        <time>2017-10-01T06:31:40Z</time>
      </trkpt>
      <trkpt lat="45.80346" lon="4.70902">
        <ele>281.5</ele>
        <time>2017-10-01T06:31:43Z</time>
      </trkpt>
      <trkpt lat="45.80338" lon="4.70909">
        <ele>282.4</ele>
        <time>2017-10-01T06:31:46Z</time>
      </trkpt>
      <trkpt lat="45.80326" lon="4.70917">
        <ele>284.2</ele>
        <time>2017-10-01T06:31:51Z</time>
      </trkpt>
      <trkpt lat="45.80321" lon="4.70921">
        <ele>285.3</ele>
        <time>2017-10-01T06:31:53Z</time>
      </trkpt>
      <trkpt lat="45.80314" lon="4.70928">
        <ele>286</ele>
        <time>2017-10-01T06:31:56Z</time>
      </trkpt>
      <trkpt lat="45.80309" lon="4.70934">
        <ele>287</ele>
        <time>2017-10-01T06:31:58Z</time>
      </trkpt>
      <trkpt lat="45.80307" lon="4.70937">
        <ele>287.3</ele>
        <time>2017-10-01T06:31:59Z</time>
      </trkpt>
      <trkpt lat="45.80294" lon="4.70949">
        <ele>288.5</ele>
        <time>2017-10-01T06:32:04Z</time>
      </trkpt>
      <trkpt lat="45.80291" lon="4.70951">
        <ele>288.8</ele>
        <time>2017-10-01T06:32:05Z</time>
      </trkpt>
      <trkpt lat="45.80277" lon="4.70956">
        <ele>288.8</ele>
        <time>2017-10-01T06:32:10Z</time>
      </trkpt>
      <trkpt lat="45.80258" lon="4.70957">
        <ele>288.8</ele>
        <time>2017-10-01T06:32:17Z</time>
      </trkpt>
      <trkpt lat="45.80253" lon="4.70956">
        <ele>289</ele>
        <time>2017-10-01T06:32:19Z</time>
      </trkpt>
      <trkpt lat="45.80235" lon="4.7095">
        <ele>291</ele>
        <time>2017-10-01T06:32:25Z</time>
      </trkpt>
      <trkpt lat="45.80215" lon="4.70944">
        <ele>293.4</ele>
        <time>2017-10-01T06:32:32Z</time>
      </trkpt>
      <trkpt lat="45.8021" lon="4.70943">
        <ele>294.2</ele>
        <time>2017-10-01T06:32:34Z</time>
      </trkpt>
      <trkpt lat="45.80194" lon="4.70942">
        <ele>295.8</ele>
        <time>2017-10-01T06:32:40Z</time>
      </trkpt>
      <trkpt lat="45.80177" lon="4.70938">
        <ele>296.9</ele>
        <time>2017-10-01T06:32:46Z</time>
      </trkpt>
      <trkpt lat="45.80154" lon="4.70937">
        <ele>296.3</ele>
        <time>2017-10-01T06:32:54Z</time>
      </trkpt>
      <trkpt lat="45.80141" lon="4.70935">
        <ele>295.7</ele>
        <time>2017-10-01T06:32:58Z</time>
      </trkpt>
      <trkpt lat="45.80121" lon="4.70935">
        <ele>296.5</ele>
        <time>2017-10-01T06:33:05Z</time>
      </trkpt>
      <trkpt lat="45.80104" lon="4.70935">
        <ele>299.3</ele>
        <time>2017-10-01T06:33:12Z</time>
      </trkpt>
      <trkpt lat="45.80089" lon="4.70937">
        <ele>302.5</ele>
        <time>2017-10-01T06:33:18Z</time>
      </trkpt>
      <trkpt lat="45.80071" lon="4.70936">
        <ele>305.4</ele>
        <time>2017-10-01T06:33:25Z</time>
      </trkpt>
      <trkpt lat="45.80062" lon="4.70933">
        <ele>306.4</ele>
        <time>2017-10-01T06:33:30Z</time>
      </trkpt>
      <trkpt lat="45.80061" lon="4.7093">
        <ele>306.3</ele>
        <time>2017-10-01T06:33:31Z</time>
      </trkpt>
      <trkpt lat="45.80065" lon="4.70922">
        <ele>305.8</ele>
        <time>2017-10-01T06:33:34Z</time>
      </trkpt>
      <trkpt lat="45.80067" lon="4.70919">
        <ele>305.4</ele>
        <time>2017-10-01T06:33:35Z</time>
      </trkpt>
      <trkpt lat="45.8007" lon="4.70916">
        <ele>304.9</ele>
        <time>2017-10-01T06:33:36Z</time>
      </trkpt>
      <trkpt lat="45.80079" lon="4.70902">
        <ele>303.2</ele>
        <time>2017-10-01T06:33:40Z</time>
      </trkpt>
      <trkpt lat="45.80081" lon="4.70898">
        <ele>302.8</ele>
        <time>2017-10-01T06:33:41Z</time>
      </trkpt>
      <trkpt lat="45.80088" lon="4.70875">
        <ele>301.6</ele>
        <time>2017-10-01T06:33:46Z</time>
      </trkpt>
      <trkpt lat="45.8009" lon="4.7086">
        <ele>301.4</ele>
        <time>2017-10-01T06:33:49Z</time>
      </trkpt>
      <trkpt lat="45.80092" lon="4.70845">
        <ele>301.2</ele>
        <time>2017-10-01T06:33:52Z</time>
      </trkpt>
      <trkpt lat="45.80093" lon="4.70831">
        <ele>301</ele>
        <time>2017-10-01T06:33:55Z</time>
      </trkpt>
      <trkpt lat="45.80097" lon="4.70789">
        <ele>301.4</ele>
        <time>2017-10-01T06:34:03Z</time>
      </trkpt>
      <trkpt lat="45.80098" lon="4.70783">
        <ele>301.5</ele>
        <time>2017-10-01T06:34:04Z</time>
      </trkpt>
      <trkpt lat="45.80102" lon="4.70744">
        <ele>303</ele>
        <time>2017-10-01T06:34:11Z</time>
      </trkpt>
      <trkpt lat="45.80102" lon="4.70737">
        <ele>303.2</ele>
        <time>2017-10-01T06:34:12Z</time>
      </trkpt>
      <trkpt lat="45.80094" lon="4.70706">
        <ele>303.5</ele>
        <time>2017-10-01T06:34:17Z</time>
      </trkpt>
      <trkpt lat="45.80083" lon="4.70669">
        <ele>303</ele>
        <time>2017-10-01T06:34:24Z</time>
      </trkpt>
      <trkpt lat="45.80076" lon="4.70649">
        <ele>302.1</ele>
        <time>2017-10-01T06:34:30Z</time>
      </trkpt>
      <trkpt lat="45.80072" lon="4.70645">
        <ele>301.9</ele>
        <time>2017-10-01T06:36:53Z</time>
      </trkpt>
      <trkpt lat="45.80071" lon="4.70644">
        <ele>301.9</ele>
        <time>2017-10-01T06:36:54Z</time>
      </trkpt>
      <trkpt lat="45.80068" lon="4.70638">
        <ele>301.8</ele>
        <time>2017-10-01T06:36:57Z</time>
      </trkpt>
      <trkpt lat="45.80065" lon="4.70632">
        <ele>301.8</ele>
        <time>2017-10-01T06:36:59Z</time>
      </trkpt>
      <trkpt lat="45.80061" lon="4.70626">
        <ele>301.8</ele>
        <time>2017-10-01T06:37:01Z</time>
      </trkpt>
      <trkpt lat="45.80057" lon="4.70619">
        <ele>302</ele>
        <time>2017-10-01T06:37:03Z</time>
      </trkpt>
      <trkpt lat="45.80053" lon="4.70611">
        <ele>302.3</ele>
        <time>2017-10-01T06:37:05Z</time>
      </trkpt>
      <trkpt lat="45.80033" lon="4.70572">
        <ele>305.4</ele>
        <time>2017-10-01T06:37:14Z</time>
      </trkpt>
      <trkpt lat="45.80025" lon="4.70554">
        <ele>306.6</ele>
        <time>2017-10-01T06:37:18Z</time>
      </trkpt>
      <trkpt lat="45.8002" lon="4.70539">
        <ele>307.2</ele>
        <time>2017-10-01T06:37:21Z</time>
      </trkpt>
      <trkpt lat="45.80017" lon="4.70529">
        <ele>307.6</ele>
        <time>2017-10-01T06:37:23Z</time>
      </trkpt>
      <trkpt lat="45.80013" lon="4.70508">
        <ele>308.4</ele>
        <time>2017-10-01T06:37:27Z</time>
      </trkpt>
      <trkpt lat="45.80012" lon="4.70503">
        <ele>308.7</ele>
        <time>2017-10-01T06:37:28Z</time>
      </trkpt>
      <trkpt lat="45.80012" lon="4.70492">
        <ele>309</ele>
        <time>2017-10-01T06:37:30Z</time>
      </trkpt>
      <trkpt lat="45.80012" lon="4.70486">
        <ele>309</ele>
        <time>2017-10-01T06:37:31Z</time>
      </trkpt>
      <trkpt lat="45.80014" lon="4.70474">
        <ele>309.7</ele>
        <time>2017-10-01T06:37:33Z</time>
      </trkpt>
      <trkpt lat="45.80016" lon="4.70457">
        <ele>310.6</ele>
        <time>2017-10-01T06:37:36Z</time>
      </trkpt>
      <trkpt lat="45.8002" lon="4.70442">
        <ele>311</ele>
        <time>2017-10-01T06:37:39Z</time>
      </trkpt>
      <trkpt lat="45.80023" lon="4.70431">
        <ele>311.3</ele>
        <time>2017-10-01T06:37:41Z</time>
      </trkpt>
      <trkpt lat="45.80025" lon="4.70425">
        <ele>311.4</ele>
        <time>2017-10-01T06:37:42Z</time>
      </trkpt>
      <trkpt lat="45.8003" lon="4.70409">
        <ele>311.7</ele>
        <time>2017-10-01T06:37:45Z</time>
      </trkpt>
      <trkpt lat="45.80033" lon="4.70399">
        <ele>311.8</ele>
        <time>2017-10-01T06:37:47Z</time>
      </trkpt>
      <trkpt lat="45.80037" lon="4.70384">
        <ele>312</ele>
        <time>2017-10-01T06:37:50Z</time>
      </trkpt>
      <trkpt lat="45.8004" lon="4.70374">
        <ele>312.2</ele>
        <time>2017-10-01T06:37:52Z</time>
      </trkpt>
      <trkpt lat="45.80043" lon="4.70363">
        <ele>312.4</ele>
        <time>2017-10-01T06:37:54Z</time>
      </trkpt>
      <trkpt lat="45.80054" lon="4.70338">
        <ele>312.9</ele>
        <time>2017-10-01T06:37:59Z</time>
      </trkpt>
      <trkpt lat="45.80059" lon="4.70328">
        <ele>313.1</ele>
        <time>2017-10-01T06:38:01Z</time>
      </trkpt>
      <trkpt lat="45.80062" lon="4.70324">
        <ele>313.3</ele>
        <time>2017-10-01T06:38:02Z</time>
      </trkpt>
      <trkpt lat="45.80069" lon="4.7031">
        <ele>314.1</ele>
        <time>2017-10-01T06:38:05Z</time>
      </trkpt>
      <trkpt lat="45.80075" lon="4.70298">
        <ele>314.7</ele>
        <time>2017-10-01T06:38:07Z</time>
      </trkpt>
      <trkpt lat="45.80084" lon="4.70275">
        <ele>315.7</ele>
        <time>2017-10-01T06:38:11Z</time>
      </trkpt>
      <trkpt lat="45.80088" lon="4.70264">
        <ele>316</ele>
        <time>2017-10-01T06:38:13Z</time>
      </trkpt>
      <trkpt lat="45.80092" lon="4.70253">
        <ele>316.3</ele>
        <time>2017-10-01T06:38:15Z</time>
      </trkpt>
      <trkpt lat="45.80103" lon="4.7023">
        <ele>316.9</ele>
        <time>2017-10-01T06:38:20Z</time>
      </trkpt>
      <trkpt lat="45.80104" lon="4.70221">
        <ele>317</ele>
        <time>2017-10-01T06:38:22Z</time>
      </trkpt>
      <trkpt lat="45.801" lon="4.70211">
        <ele>316.9</ele>
        <time>2017-10-01T06:38:24Z</time>
      </trkpt>
      <trkpt lat="45.80099" lon="4.70206">
        <ele>316.9</ele>
        <time>2017-10-01T06:38:25Z</time>
      </trkpt>
      <trkpt lat="45.80091" lon="4.70185">
        <ele>316.8</ele>
        <time>2017-10-01T06:38:29Z</time>
      </trkpt>
      <trkpt lat="45.80089" lon="4.70179">
        <ele>316.8</ele>
        <time>2017-10-01T06:38:30Z</time>
      </trkpt>
      <trkpt lat="45.80087" lon="4.70173">
        <ele>316.8</ele>
        <time>2017-10-01T06:38:31Z</time>
      </trkpt>
      <trkpt lat="45.80078" lon="4.70158">
        <ele>316.8</ele>
        <time>2017-10-01T06:38:34Z</time>
      </trkpt>
      <trkpt lat="45.80072" lon="4.70146">
        <ele>316.7</ele>
        <time>2017-10-01T06:38:36Z</time>
      </trkpt>
      <trkpt lat="45.80056" lon="4.70126">
        <ele>316.6</ele>
        <time>2017-10-01T06:38:41Z</time>
      </trkpt>
      <trkpt lat="45.8004" lon="4.70121">
        <ele>316.5</ele>
        <time>2017-10-01T06:38:45Z</time>
      </trkpt>
      <trkpt lat="45.80036" lon="4.70121">
        <ele>316.5</ele>
        <time>2017-10-01T06:38:46Z</time>
      </trkpt>
      <trkpt lat="45.80014" lon="4.70124">
        <ele>316.4</ele>
        <time>2017-10-01T06:38:51Z</time>
      </trkpt>
      <trkpt lat="45.80009" lon="4.70124">
        <ele>316.4</ele>
        <time>2017-10-01T06:38:52Z</time>
      </trkpt>
      <trkpt lat="45.79991" lon="4.70125">
        <ele>316.3</ele>
        <time>2017-10-01T06:38:56Z</time>
      </trkpt>
      <trkpt lat="45.79977" lon="4.70128">
        <ele>316.2</ele>
        <time>2017-10-01T06:38:59Z</time>
      </trkpt>
      <trkpt lat="45.79949" lon="4.7013">
        <ele>316.1</ele>
        <time>2017-10-01T06:39:04Z</time>
      </trkpt>
      <trkpt lat="45.79945" lon="4.70129">
        <ele>316</ele>
        <time>2017-10-01T06:39:05Z</time>
      </trkpt>
      <trkpt lat="45.79931" lon="4.70111">
        <ele>316</ele>
        <time>2017-10-01T06:39:09Z</time>
      </trkpt>
      <trkpt lat="45.79924" lon="4.701">
        <ele>315.9</ele>
        <time>2017-10-01T06:39:11Z</time>
      </trkpt>
      <trkpt lat="45.79913" lon="4.70081">
        <ele>315.9</ele>
        <time>2017-10-01T06:39:15Z</time>
      </trkpt>
      <trkpt lat="45.7991" lon="4.70076">
        <ele>315.9</ele>
        <time>2017-10-01T06:39:16Z</time>
      </trkpt>
      <trkpt lat="45.79904" lon="4.70067">
        <ele>315.9</ele>
        <time>2017-10-01T06:39:18Z</time>
      </trkpt>
      <trkpt lat="45.79894" lon="4.70047">
        <ele>315.8</ele>
        <time>2017-10-01T06:39:22Z</time>
      </trkpt>
      <trkpt lat="45.79892" lon="4.70041">
        <ele>315.8</ele>
        <time>2017-10-01T06:39:23Z</time>
      </trkpt>
      <trkpt lat="45.7988" lon="4.70006">
        <ele>315.7</ele>
        <time>2017-10-01T06:39:30Z</time>
      </trkpt>
      <trkpt lat="45.79879" lon="4.70001">
        <ele>315.7</ele>
        <time>2017-10-01T06:39:31Z</time>
      </trkpt>
      <trkpt lat="45.7988" lon="4.69976">
        <ele>315.6</ele>
        <time>2017-10-01T06:39:36Z</time>
      </trkpt>
      <trkpt lat="45.7988" lon="4.69971">
        <ele>315.6</ele>
        <time>2017-10-01T06:39:37Z</time>
      </trkpt>
      <trkpt lat="45.79883" lon="4.69945">
        <ele>315.6</ele>
        <time>2017-10-01T06:39:42Z</time>
      </trkpt>
      <trkpt lat="45.79886" lon="4.69923">
        <ele>315.6</ele>
        <time>2017-10-01T06:39:46Z</time>
      </trkpt>
      <trkpt lat="45.79889" lon="4.69912">
        <ele>315.6</ele>
        <time>2017-10-01T06:39:48Z</time>
      </trkpt>
      <trkpt lat="45.79892" lon="4.69896">
        <ele>315.7</ele>
        <time>2017-10-01T06:39:51Z</time>
      </trkpt>
      <trkpt lat="45.79896" lon="4.6988">
        <ele>315.8</ele>
        <time>2017-10-01T06:39:54Z</time>
      </trkpt>
      <trkpt lat="45.79905" lon="4.69846">
        <ele>316.7</ele>
        <time>2017-10-01T06:40:01Z</time>
      </trkpt>
      <trkpt lat="45.79906" lon="4.69841">
        <ele>316.7</ele>
        <time>2017-10-01T06:40:02Z</time>
      </trkpt>
      <trkpt lat="45.79909" lon="4.69823">
        <ele>317</ele>
        <time>2017-10-01T06:40:06Z</time>
      </trkpt>
      <trkpt lat="45.79918" lon="4.69788">
        <ele>317.5</ele>
        <time>2017-10-01T06:40:13Z</time>
      </trkpt>
      <trkpt lat="45.7992" lon="4.69779">
        <ele>317.7</ele>
        <time>2017-10-01T06:40:15Z</time>
      </trkpt>
      <trkpt lat="45.7992" lon="4.69764">
        <ele>318.1</ele>
        <time>2017-10-01T06:40:18Z</time>
      </trkpt>
      <trkpt lat="45.7992" lon="4.69758">
        <ele>318.1</ele>
        <time>2017-10-01T06:40:19Z</time>
      </trkpt>
      <trkpt lat="45.7992" lon="4.69741">
        <ele>318.3</ele>
        <time>2017-10-01T06:40:22Z</time>
      </trkpt>
      <trkpt lat="45.7992" lon="4.69724">
        <ele>318.4</ele>
        <time>2017-10-01T06:40:25Z</time>
      </trkpt>
      <trkpt lat="45.79922" lon="4.69682">
        <ele>318.6</ele>
        <time>2017-10-01T06:40:32Z</time>
      </trkpt>
      <trkpt lat="45.79921" lon="4.69664">
        <ele>318.7</ele>
        <time>2017-10-01T06:40:35Z</time>
      </trkpt>
      <trkpt lat="45.79921" lon="4.69658">
        <ele>318.8</ele>
        <time>2017-10-01T06:40:36Z</time>
      </trkpt>
      <trkpt lat="45.79921" lon="4.6964">
        <ele>319.1</ele>
        <time>2017-10-01T06:40:39Z</time>
      </trkpt>
      <trkpt lat="45.79928" lon="4.69588">
        <ele>320.1</ele>
        <time>2017-10-01T06:40:48Z</time>
      </trkpt>
      <trkpt lat="45.79935" lon="4.69541">
        <ele>321.9</ele>
        <time>2017-10-01T06:40:56Z</time>
      </trkpt>
      <trkpt lat="45.79939" lon="4.69493">
        <ele>322.7</ele>
        <time>2017-10-01T06:41:04Z</time>
      </trkpt>
      <trkpt lat="45.79942" lon="4.69445">
        <ele>323</ele>
        <time>2017-10-01T06:41:12Z</time>
      </trkpt>
      <trkpt lat="45.79941" lon="4.69423">
        <ele>323</ele>
        <time>2017-10-01T06:41:16Z</time>
      </trkpt>
      <trkpt lat="45.79939" lon="4.6942">
        <ele>323.1</ele>
        <time>2017-10-01T06:41:17Z</time>
      </trkpt>
      <trkpt lat="45.79921" lon="4.69413">
        <ele>324.4</ele>
        <time>2017-10-01T06:41:22Z</time>
      </trkpt>
      <trkpt lat="45.79917" lon="4.6941">
        <ele>324.6</ele>
        <time>2017-10-01T06:41:23Z</time>
      </trkpt>
      <trkpt lat="45.79901" lon="4.69392">
        <ele>325.6</ele>
        <time>2017-10-01T06:41:28Z</time>
      </trkpt>
      <trkpt lat="45.79873" lon="4.69357">
        <ele>326</ele>
        <time>2017-10-01T06:41:37Z</time>
      </trkpt>
      <trkpt lat="45.79849" lon="4.69316">
        <ele>328</ele>
        <time>2017-10-01T06:41:46Z</time>
      </trkpt>
      <trkpt lat="45.79847" lon="4.69312">
        <ele>328</ele>
        <time>2017-10-01T06:41:47Z</time>
      </trkpt>
      <trkpt lat="45.79832" lon="4.69283">
        <ele>328.3</ele>
        <time>2017-10-01T06:41:53Z</time>
      </trkpt>
      <trkpt lat="45.79816" lon="4.6925">
        <ele>328.6</ele>
        <time>2017-10-01T06:42:00Z</time>
      </trkpt>
      <trkpt lat="45.79797" lon="4.69215">
        <ele>328.9</ele>
        <time>2017-10-01T06:42:08Z</time>
      </trkpt>
      <trkpt lat="45.79786" lon="4.69196">
        <ele>329.1</ele>
        <time>2017-10-01T06:42:13Z</time>
      </trkpt>
      <trkpt lat="45.7978" lon="4.69189">
        <ele>329.2</ele>
        <time>2017-10-01T06:42:15Z</time>
      </trkpt>
      <trkpt lat="45.7976" lon="4.69174">
        <ele>329.5</ele>
        <time>2017-10-01T06:42:21Z</time>
      </trkpt>
      <trkpt lat="45.79756" lon="4.69172">
        <ele>329.5</ele>
        <time>2017-10-01T06:42:22Z</time>
      </trkpt>
      <trkpt lat="45.79725" lon="4.69151">
        <ele>329.9</ele>
        <time>2017-10-01T06:42:30Z</time>
      </trkpt>
      <trkpt lat="45.7969" lon="4.6913">
        <ele>330.3</ele>
        <time>2017-10-01T06:42:38Z</time>
      </trkpt>
      <trkpt lat="45.7968" lon="4.69124">
        <ele>330.4</ele>
        <time>2017-10-01T06:42:40Z</time>
      </trkpt>
      <trkpt lat="45.79638" lon="4.6909">
        <ele>331.1</ele>
        <time>2017-10-01T06:42:49Z</time>
      </trkpt>
      <trkpt lat="45.7963" lon="4.69078">
        <ele>331.4</ele>
        <time>2017-10-01T06:42:51Z</time>
      </trkpt>
      <trkpt lat="45.79616" lon="4.69053">
        <ele>331.8</ele>
        <time>2017-10-01T06:42:55Z</time>
      </trkpt>
      <trkpt lat="45.79596" lon="4.69029">
        <ele>332.2</ele>
        <time>2017-10-01T06:43:00Z</time>
      </trkpt>
      <trkpt lat="45.79586" lon="4.6902">
        <ele>332.3</ele>
        <time>2017-10-01T06:43:03Z</time>
      </trkpt>
      <trkpt lat="45.79577" lon="4.69017">
        <ele>332.4</ele>
        <time>2017-10-01T06:43:05Z</time>
      </trkpt>
      <trkpt lat="45.79573" lon="4.69017">
        <ele>332.5</ele>
        <time>2017-10-01T06:43:06Z</time>
      </trkpt>
      <trkpt lat="45.79556" lon="4.69015">
        <ele>332.8</ele>
        <time>2017-10-01T06:43:10Z</time>
      </trkpt>
      <trkpt lat="45.79543" lon="4.69014">
        <ele>333</ele>
        <time>2017-10-01T06:43:13Z</time>
      </trkpt>
      <trkpt lat="45.79538" lon="4.69014">
        <ele>333</ele>
        <time>2017-10-01T06:43:14Z</time>
      </trkpt>
      <trkpt lat="45.7952" lon="4.69013">
        <ele>333.3</ele>
        <time>2017-10-01T06:43:18Z</time>
      </trkpt>
      <trkpt lat="45.79512" lon="4.69013">
        <ele>333.5</ele>
        <time>2017-10-01T06:43:20Z</time>
      </trkpt>
      <trkpt lat="45.79499" lon="4.69012">
        <ele>333.8</ele>
        <time>2017-10-01T06:43:23Z</time>
      </trkpt>
      <trkpt lat="45.79491" lon="4.69012">
        <ele>334.1</ele>
        <time>2017-10-01T06:43:25Z</time>
      </trkpt>
      <trkpt lat="45.7948" lon="4.69008">
        <ele>334.8</ele>
        <time>2017-10-01T06:43:28Z</time>
      </trkpt>
      <trkpt lat="45.79475" lon="4.69">
        <ele>335.5</ele>
        <time>2017-10-01T06:43:30Z</time>
      </trkpt>
      <trkpt lat="45.79471" lon="4.68979">
        <ele>336.3</ele>
        <time>2017-10-01T06:43:34Z</time>
      </trkpt>
      <trkpt lat="45.79472" lon="4.68939">
        <ele>336.6</ele>
        <time>2017-10-01T06:43:41Z</time>
      </trkpt>
      <trkpt lat="45.79472" lon="4.68933">
        <ele>336.7</ele>
        <time>2017-10-01T06:43:42Z</time>
      </trkpt>
      <trkpt lat="45.79472" lon="4.68917">
        <ele>336.8</ele>
        <time>2017-10-01T06:43:45Z</time>
      </trkpt>
      <trkpt lat="45.79474" lon="4.68892">
        <ele>337</ele>
        <time>2017-10-01T06:43:50Z</time>
      </trkpt>
      <trkpt lat="45.79475" lon="4.68883">
        <ele>337</ele>
        <time>2017-10-01T06:43:52Z</time>
      </trkpt>
      <trkpt lat="45.79477" lon="4.68869">
        <ele>337</ele>
        <time>2017-10-01T06:43:55Z</time>
      </trkpt>
      <trkpt lat="45.79478" lon="4.68855">
        <ele>336.8</ele>
        <time>2017-10-01T06:43:58Z</time>
      </trkpt>
      <trkpt lat="45.79481" lon="4.68808">
        <ele>336</ele>
        <time>2017-10-01T06:44:06Z</time>
      </trkpt>
      <trkpt lat="45.79487" lon="4.68763">
        <ele>337.8</ele>
        <time>2017-10-01T06:44:14Z</time>
      </trkpt>
      <trkpt lat="45.79504" lon="4.68722">
        <ele>340.3</ele>
        <time>2017-10-01T06:44:22Z</time>
      </trkpt>
      <trkpt lat="45.79513" lon="4.68703">
        <ele>342</ele>
        <time>2017-10-01T06:44:26Z</time>
      </trkpt>
      <trkpt lat="45.79522" lon="4.68685">
        <ele>343.6</ele>
        <time>2017-10-01T06:44:30Z</time>
      </trkpt>
      <trkpt lat="45.79524" lon="4.6868">
        <ele>344</ele>
        <time>2017-10-01T06:44:31Z</time>
      </trkpt>
      <trkpt lat="45.79542" lon="4.68645">
        <ele>346.2</ele>
        <time>2017-10-01T06:44:39Z</time>
      </trkpt>
      <trkpt lat="45.79542" lon="4.6863">
        <ele>347.7</ele>
        <time>2017-10-01T06:44:42Z</time>
      </trkpt>
      <trkpt lat="45.79539" lon="4.68627">
        <ele>348.2</ele>
        <time>2017-10-01T06:44:43Z</time>
      </trkpt>
      <trkpt lat="45.79526" lon="4.68618">
        <ele>349.2</ele>
        <time>2017-10-01T06:44:47Z</time>
      </trkpt>
      <trkpt lat="45.79519" lon="4.68615">
        <ele>349.7</ele>
        <time>2017-10-01T06:44:49Z</time>
      </trkpt>
      <trkpt lat="45.79489" lon="4.68597">
        <ele>352.2</ele>
        <time>2017-10-01T06:44:57Z</time>
      </trkpt>
      <trkpt lat="45.79458" lon="4.68581">
        <ele>347.7</ele>
        <time>2017-10-01T06:45:04Z</time>
      </trkpt>
      <trkpt lat="45.79424" lon="4.68564">
        <ele>344.6</ele>
        <time>2017-10-01T06:45:10Z</time>
      </trkpt>
      <trkpt lat="45.79419" lon="4.6856">
        <ele>344.4</ele>
        <time>2017-10-01T06:45:11Z</time>
      </trkpt>
      <trkpt lat="45.79396" lon="4.6854">
        <ele>342.9</ele>
        <time>2017-10-01T06:45:16Z</time>
      </trkpt>
      <trkpt lat="45.79378" lon="4.68524">
        <ele>342.3</ele>
        <time>2017-10-01T06:45:20Z</time>
      </trkpt>
      <trkpt lat="45.79374" lon="4.6852">
        <ele>342.2</ele>
        <time>2017-10-01T06:45:21Z</time>
      </trkpt>
      <trkpt lat="45.79369" lon="4.68515">
        <ele>342</ele>
        <time>2017-10-01T06:45:22Z</time>
      </trkpt>
      <trkpt lat="45.79352" lon="4.685">
        <ele>341.3</ele>
        <time>2017-10-01T06:45:25Z</time>
      </trkpt>
      <trkpt lat="45.7934" lon="4.68486">
        <ele>340.2</ele>
        <time>2017-10-01T06:45:27Z</time>
      </trkpt>
      <trkpt lat="45.79334" lon="4.68478">
        <ele>339.6</ele>
        <time>2017-10-01T06:45:28Z</time>
      </trkpt>
      <trkpt lat="45.79317" lon="4.68454">
        <ele>337.5</ele>
        <time>2017-10-01T06:45:31Z</time>
      </trkpt>
      <trkpt lat="45.79307" lon="4.68437">
        <ele>335.7</ele>
        <time>2017-10-01T06:45:33Z</time>
      </trkpt>
      <trkpt lat="45.793" lon="4.68416">
        <ele>333.6</ele>
        <time>2017-10-01T06:45:35Z</time>
      </trkpt>
      <trkpt lat="45.79297" lon="4.68398">
        <ele>333.3</ele>
        <time>2017-10-01T06:45:37Z</time>
      </trkpt>
      <trkpt lat="45.79297" lon="4.6839">
        <ele>333.4</ele>
        <time>2017-10-01T06:45:38Z</time>
      </trkpt>
      <trkpt lat="45.79297" lon="4.68382">
        <ele>333.4</ele>
        <time>2017-10-01T06:45:39Z</time>
      </trkpt>
      <trkpt lat="45.79293" lon="4.68375">
        <ele>333.4</ele>
        <time>2017-10-01T06:45:40Z</time>
      </trkpt>
      <trkpt lat="45.79289" lon="4.68367">
        <ele>333.3</ele>
        <time>2017-10-01T06:45:41Z</time>
      </trkpt>
      <trkpt lat="45.79278" lon="4.68353">
        <ele>333</ele>
        <time>2017-10-01T06:45:43Z</time>
      </trkpt>
      <trkpt lat="45.79265" lon="4.68347">
        <ele>333</ele>
        <time>2017-10-01T06:45:45Z</time>
      </trkpt>
      <trkpt lat="45.7925" lon="4.68344">
        <ele>346.7</ele>
        <time>2017-10-01T06:45:47Z</time>
      </trkpt>
      <trkpt lat="45.79231" lon="4.6834">
        <ele>351.4</ele>
        <time>2017-10-01T06:45:50Z</time>
      </trkpt>
      <trkpt lat="45.79226" lon="4.68337">
        <ele>351.8</ele>
        <time>2017-10-01T06:45:52Z</time>
      </trkpt>
      <trkpt lat="45.79222" lon="4.68334">
        <ele>352.1</ele>
        <time>2017-10-01T06:45:54Z</time>
      </trkpt>
      <trkpt lat="45.79215" lon="4.68329">
        <ele>352.8</ele>
        <time>2017-10-01T06:45:58Z</time>
      </trkpt>
      <trkpt lat="45.79212" lon="4.68321">
        <ele>353.4</ele>
        <time>2017-10-01T06:46:03Z</time>
      </trkpt>
      <trkpt lat="45.79212" lon="4.6832">
        <ele>353.5</ele>
        <time>2017-10-01T06:46:04Z</time>
      </trkpt>
      <trkpt lat="45.79195" lon="4.68269">
        <ele>356.5</ele>
        <time>2017-10-01T06:46:33Z</time>
      </trkpt>
      <trkpt lat="45.79192" lon="4.68262">
        <ele>357</ele>
        <time>2017-10-01T06:46:36Z</time>
      </trkpt>
      <trkpt lat="45.79191" lon="4.68256">
        <ele>357.5</ele>
        <time>2017-10-01T06:46:42Z</time>
      </trkpt>
      <trkpt lat="45.792" lon="4.68247">
        <ele>358.3</ele>
        <time>2017-10-01T06:47:08Z</time>
      </trkpt>
      <trkpt lat="45.79204" lon="4.68238">
        <ele>358.7</ele>
        <time>2017-10-01T06:47:13Z</time>
      </trkpt>
      <trkpt lat="45.79205" lon="4.68233">
        <ele>358.8</ele>
        <time>2017-10-01T06:47:15Z</time>
      </trkpt>
      <trkpt lat="45.79205" lon="4.6823">
        <ele>358.8</ele>
        <time>2017-10-01T06:47:17Z</time>
      </trkpt>
      <trkpt lat="45.79206" lon="4.68222">
        <ele>359</ele>
        <time>2017-10-01T06:47:20Z</time>
      </trkpt>
      <trkpt lat="45.79205" lon="4.68219">
        <ele>359.1</ele>
        <time>2017-10-01T06:47:21Z</time>
      </trkpt>
      <trkpt lat="45.79206" lon="4.68218">
        <ele>359.2</ele>
        <time>2017-10-01T06:47:22Z</time>
      </trkpt>
      <trkpt lat="45.79206" lon="4.68215">
        <ele>359.3</ele>
        <time>2017-10-01T06:47:23Z</time>
      </trkpt>
      <trkpt lat="45.79206" lon="4.68213">
        <ele>359.4</ele>
        <time>2017-10-01T06:47:24Z</time>
      </trkpt>
      <trkpt lat="45.79206" lon="4.68208">
        <ele>359.4</ele>
        <time>2017-10-01T06:47:26Z</time>
      </trkpt>
      <trkpt lat="45.79206" lon="4.68205">
        <ele>359.5</ele>
        <time>2017-10-01T06:47:27Z</time>
      </trkpt>
      <trkpt lat="45.79206" lon="4.68198">
        <ele>359.8</ele>
        <time>2017-10-01T06:47:30Z</time>
      </trkpt>
      <trkpt lat="45.79204" lon="4.68194">
        <ele>360</ele>
        <time>2017-10-01T06:47:32Z</time>
      </trkpt>
      <trkpt lat="45.79203" lon="4.68191">
        <ele>360.1</ele>
        <time>2017-10-01T06:47:35Z</time>
      </trkpt>
      <trkpt lat="45.79201" lon="4.68189">
        <ele>360.1</ele>
        <time>2017-10-01T06:47:36Z</time>
      </trkpt>
      <trkpt lat="45.79198" lon="4.68184">
        <ele>360.2</ele>
        <time>2017-10-01T06:47:39Z</time>
      </trkpt>
      <trkpt lat="45.79195" lon="4.6818">
        <ele>360.4</ele>
        <time>2017-10-01T06:47:41Z</time>
      </trkpt>
      <trkpt lat="45.79193" lon="4.68178">
        <ele>360.5</ele>
        <time>2017-10-01T06:47:42Z</time>
      </trkpt>
      <trkpt lat="45.79192" lon="4.68177">
        <ele>360.6</ele>
        <time>2017-10-01T06:47:43Z</time>
      </trkpt>
      <trkpt lat="45.79183" lon="4.68171">
        <ele>360.8</ele>
        <time>2017-10-01T06:47:47Z</time>
      </trkpt>
      <trkpt lat="45.7918" lon="4.68169">
        <ele>360.8</ele>
        <time>2017-10-01T06:47:48Z</time>
      </trkpt>
      <trkpt lat="45.7916" lon="4.68154">
        <ele>361.2</ele>
        <time>2017-10-01T06:47:56Z</time>
      </trkpt>
      <trkpt lat="45.79138" lon="4.68139">
        <ele>361</ele>
        <time>2017-10-01T06:48:03Z</time>
      </trkpt>
      <trkpt lat="45.79129" lon="4.68132">
        <ele>361</ele>
        <time>2017-10-01T06:48:06Z</time>
      </trkpt>
      <trkpt lat="45.7912" lon="4.68124">
        <ele>360.9</ele>
        <time>2017-10-01T06:48:09Z</time>
      </trkpt>
      <trkpt lat="45.79103" lon="4.68119">
        <ele>360.8</ele>
        <time>2017-10-01T06:48:14Z</time>
      </trkpt>
      <trkpt lat="45.79101" lon="4.68118">
        <ele>360.8</ele>
        <time>2017-10-01T06:48:15Z</time>
      </trkpt>
      <trkpt lat="45.79097" lon="4.68116">
        <ele>360.8</ele>
        <time>2017-10-01T06:48:18Z</time>
      </trkpt>
      <trkpt lat="45.79095" lon="4.68116">
        <ele>360.8</ele>
        <time>2017-10-01T06:48:19Z</time>
      </trkpt>
      <trkpt lat="45.79093" lon="4.68113">
        <ele>360.9</ele>
        <time>2017-10-01T06:48:21Z</time>
      </trkpt>
      <trkpt lat="45.79088" lon="4.6811">
        <ele>361.2</ele>
        <time>2017-10-01T06:48:24Z</time>
      </trkpt>
      <trkpt lat="45.79085" lon="4.68107">
        <ele>361.5</ele>
        <time>2017-10-01T06:48:26Z</time>
      </trkpt>
      <trkpt lat="45.79083" lon="4.68106">
        <ele>361.7</ele>
        <time>2017-10-01T06:48:27Z</time>
      </trkpt>
      <trkpt lat="45.7908" lon="4.68102">
        <ele>362.1</ele>
        <time>2017-10-01T06:48:29Z</time>
      </trkpt>
      <trkpt lat="45.79074" lon="4.68096">
        <ele>362.7</ele>
        <time>2017-10-01T06:48:33Z</time>
      </trkpt>
      <trkpt lat="45.79071" lon="4.68094">
        <ele>363</ele>
        <time>2017-10-01T06:48:35Z</time>
      </trkpt>
      <trkpt lat="45.79069" lon="4.68093">
        <ele>363.2</ele>
        <time>2017-10-01T06:48:36Z</time>
      </trkpt>
      <trkpt lat="45.79065" lon="4.68093">
        <ele>363.6</ele>
        <time>2017-10-01T06:48:39Z</time>
      </trkpt>
      <trkpt lat="45.7906" lon="4.68098">
        <ele>364</ele>
        <time>2017-10-01T06:48:43Z</time>
      </trkpt>
      <trkpt lat="45.79055" lon="4.68108">
        <ele>364.6</ele>
        <time>2017-10-01T06:48:47Z</time>
      </trkpt>
      <trkpt lat="45.79042" lon="4.68127">
        <ele>365.1</ele>
        <time>2017-10-01T06:48:54Z</time>
      </trkpt>
      <trkpt lat="45.79035" lon="4.68143">
        <ele>365.5</ele>
        <time>2017-10-01T06:48:59Z</time>
      </trkpt>
      <trkpt lat="45.79033" lon="4.68148">
        <ele>365.7</ele>
        <time>2017-10-01T06:49:01Z</time>
      </trkpt>
      <trkpt lat="45.79025" lon="4.6816">
        <ele>365.9</ele>
        <time>2017-10-01T06:49:06Z</time>
      </trkpt>
      <trkpt lat="45.79012" lon="4.68166">
        <ele>366.2</ele>
        <time>2017-10-01T06:49:12Z</time>
      </trkpt>
      <trkpt lat="45.79002" lon="4.68161">
        <ele>366.5</ele>
        <time>2017-10-01T06:49:17Z</time>
      </trkpt>
      <trkpt lat="45.78997" lon="4.68159">
        <ele>366.6</ele>
        <time>2017-10-01T06:49:20Z</time>
      </trkpt>
      <trkpt lat="45.78995" lon="4.68158">
        <ele>366.7</ele>
        <time>2017-10-01T06:49:21Z</time>
      </trkpt>
      <trkpt lat="45.7899" lon="4.68156">
        <ele>366.9</ele>
        <time>2017-10-01T06:49:24Z</time>
      </trkpt>
      <trkpt lat="45.78983" lon="4.68154">
        <ele>367.1</ele>
        <time>2017-10-01T06:49:27Z</time>
      </trkpt>
      <trkpt lat="45.78973" lon="4.68153">
        <ele>367.6</ele>
        <time>2017-10-01T06:49:32Z</time>
      </trkpt>
      <trkpt lat="45.78966" lon="4.68151">
        <ele>367.9</ele>
        <time>2017-10-01T06:49:35Z</time>
      </trkpt>
      <trkpt lat="45.78945" lon="4.68145">
        <ele>368.5</ele>
        <time>2017-10-01T06:49:43Z</time>
      </trkpt>
      <trkpt lat="45.78925" lon="4.68139">
        <ele>368.8</ele>
        <time>2017-10-01T06:49:50Z</time>
      </trkpt>
      <trkpt lat="45.78923" lon="4.68139">
        <ele>368.8</ele>
        <time>2017-10-01T06:49:51Z</time>
      </trkpt>
      <trkpt lat="45.78903" lon="4.68133">
        <ele>368.8</ele>
        <time>2017-10-01T06:49:57Z</time>
      </trkpt>
      <trkpt lat="45.78881" lon="4.68118">
        <ele>368.5</ele>
        <time>2017-10-01T06:50:03Z</time>
      </trkpt>
      <trkpt lat="45.78859" lon="4.68097">
        <ele>368</ele>
        <time>2017-10-01T06:50:09Z</time>
      </trkpt>
      <trkpt lat="45.78857" lon="4.68098">
        <ele>368</ele>
        <time>2017-10-01T06:50:10Z</time>
      </trkpt>
      <trkpt lat="45.78854" lon="4.68106">
        <ele>367.9</ele>
        <time>2017-10-01T06:50:12Z</time>
      </trkpt>
      <trkpt lat="45.78857" lon="4.68116">
        <ele>367.7</ele>
        <time>2017-10-01T06:50:14Z</time>
      </trkpt>
      <trkpt lat="45.78858" lon="4.68118">
        <ele>367.4</ele>
        <time>2017-10-01T06:50:15Z</time>
      </trkpt>
      <trkpt lat="45.78859" lon="4.68121">
        <ele>367.2</ele>
        <time>2017-10-01T06:50:16Z</time>
      </trkpt>
      <trkpt lat="45.78861" lon="4.68127">
        <ele>366.8</ele>
        <time>2017-10-01T06:50:18Z</time>
      </trkpt>
      <trkpt lat="45.78863" lon="4.68137">
        <ele>366.1</ele>
        <time>2017-10-01T06:50:20Z</time>
      </trkpt>
      <trkpt lat="45.78863" lon="4.68148">
        <ele>364.1</ele>
        <time>2017-10-01T06:50:22Z</time>
      </trkpt>
      <trkpt lat="45.7886" lon="4.68168">
        <ele>361.6</ele>
        <time>2017-10-01T06:50:25Z</time>
      </trkpt>
      <trkpt lat="45.78857" lon="4.6818">
        <ele>359.7</ele>
        <time>2017-10-01T06:50:27Z</time>
      </trkpt>
      <trkpt lat="45.78854" lon="4.68183">
        <ele>359</ele>
        <time>2017-10-01T06:50:28Z</time>
      </trkpt>
      <trkpt lat="45.7885" lon="4.68185">
        <ele>358</ele>
        <time>2017-10-01T06:50:29Z</time>
      </trkpt>
      <trkpt lat="45.78842" lon="4.68184">
        <ele>356.3</ele>
        <time>2017-10-01T06:50:31Z</time>
      </trkpt>
      <trkpt lat="45.78833" lon="4.68186">
        <ele>354.1</ele>
        <time>2017-10-01T06:50:33Z</time>
      </trkpt>
      <trkpt lat="45.78829" lon="4.68187">
        <ele>353.5</ele>
        <time>2017-10-01T06:50:34Z</time>
      </trkpt>
      <trkpt lat="45.78826" lon="4.68186">
        <ele>352.8</ele>
        <time>2017-10-01T06:50:35Z</time>
      </trkpt>
      <trkpt lat="45.7882" lon="4.68186">
        <ele>351.2</ele>
        <time>2017-10-01T06:50:37Z</time>
      </trkpt>
      <trkpt lat="45.78813" lon="4.68186">
        <ele>349.3</ele>
        <time>2017-10-01T06:50:39Z</time>
      </trkpt>
      <trkpt lat="45.78807" lon="4.68183">
        <ele>347.8</ele>
        <time>2017-10-01T06:50:41Z</time>
      </trkpt>
      <trkpt lat="45.78801" lon="4.6818">
        <ele>346.4</ele>
        <time>2017-10-01T06:50:43Z</time>
      </trkpt>
      <trkpt lat="45.78795" lon="4.68176">
        <ele>345</ele>
        <time>2017-10-01T06:50:45Z</time>
      </trkpt>
      <trkpt lat="45.7879" lon="4.68172">
        <ele>344.2</ele>
        <time>2017-10-01T06:50:47Z</time>
      </trkpt>
      <trkpt lat="45.78784" lon="4.68166">
        <ele>344</ele>
        <time>2017-10-01T06:50:49Z</time>
      </trkpt>
      <trkpt lat="45.7878" lon="4.68164">
        <ele>344.3</ele>
        <time>2017-10-01T06:50:50Z</time>
      </trkpt>
      <trkpt lat="45.78775" lon="4.68159">
        <ele>344.9</ele>
        <time>2017-10-01T06:50:51Z</time>
      </trkpt>
      <trkpt lat="45.7877" lon="4.68154">
        <ele>345.7</ele>
        <time>2017-10-01T06:50:52Z</time>
      </trkpt>
      <trkpt lat="45.78759" lon="4.68144">
        <ele>347.7</ele>
        <time>2017-10-01T06:50:54Z</time>
      </trkpt>
      <trkpt lat="45.78746" lon="4.68134">
        <ele>348.4</ele>
        <time>2017-10-01T06:50:56Z</time>
      </trkpt>
      <trkpt lat="45.78732" lon="4.68126">
        <ele>347.7</ele>
        <time>2017-10-01T06:50:58Z</time>
      </trkpt>
      <trkpt lat="45.78719" lon="4.6812">
        <ele>346.5</ele>
        <time>2017-10-01T06:51:00Z</time>
      </trkpt>
      <trkpt lat="45.78707" lon="4.68114">
        <ele>345.2</ele>
        <time>2017-10-01T06:51:02Z</time>
      </trkpt>
      <trkpt lat="45.78702" lon="4.68112">
        <ele>344.5</ele>
        <time>2017-10-01T06:51:03Z</time>
      </trkpt>
      <trkpt lat="45.78698" lon="4.6811">
        <ele>344</ele>
        <time>2017-10-01T06:51:04Z</time>
      </trkpt>
      <trkpt lat="45.78694" lon="4.68107">
        <ele>343.5</ele>
        <time>2017-10-01T06:51:05Z</time>
      </trkpt>
      <trkpt lat="45.7869" lon="4.68104">
        <ele>343.1</ele>
        <time>2017-10-01T06:51:06Z</time>
      </trkpt>
      <trkpt lat="45.78683" lon="4.681">
        <ele>342.5</ele>
        <time>2017-10-01T06:51:08Z</time>
      </trkpt>
      <trkpt lat="45.78675" lon="4.68095">
        <ele>342.2</ele>
        <time>2017-10-01T06:51:10Z</time>
      </trkpt>
      <trkpt lat="45.78667" lon="4.6809">
        <ele>342.3</ele>
        <time>2017-10-01T06:51:12Z</time>
      </trkpt>
      <trkpt lat="45.78661" lon="4.68087">
        <ele>342.6</ele>
        <time>2017-10-01T06:51:13Z</time>
      </trkpt>
      <trkpt lat="45.78656" lon="4.68085">
        <ele>343.1</ele>
        <time>2017-10-01T06:51:14Z</time>
      </trkpt>
      <trkpt lat="45.78646" lon="4.68081">
        <ele>343.9</ele>
        <time>2017-10-01T06:51:16Z</time>
      </trkpt>
      <trkpt lat="45.78638" lon="4.68085">
        <ele>344.4</ele>
        <time>2017-10-01T06:51:18Z</time>
      </trkpt>
      <trkpt lat="45.78635" lon="4.68088">
        <ele>344.5</ele>
        <time>2017-10-01T06:51:19Z</time>
      </trkpt>
      <trkpt lat="45.78633" lon="4.68095">
        <ele>344.7</ele>
        <time>2017-10-01T06:51:21Z</time>
      </trkpt>
      <trkpt lat="45.78633" lon="4.68098">
        <ele>344.8</ele>
        <time>2017-10-01T06:51:22Z</time>
      </trkpt>
      <trkpt lat="45.78634" lon="4.68102">
        <ele>344.9</ele>
        <time>2017-10-01T06:51:23Z</time>
      </trkpt>
      <trkpt lat="45.78634" lon="4.68106">
        <ele>345</ele>
        <time>2017-10-01T06:51:24Z</time>
      </trkpt>
      <trkpt lat="45.78634" lon="4.6811">
        <ele>345</ele>
        <time>2017-10-01T06:51:25Z</time>
      </trkpt>
      <trkpt lat="45.78637" lon="4.68121">
        <ele>345</ele>
        <time>2017-10-01T06:51:27Z</time>
      </trkpt>
      <trkpt lat="45.78639" lon="4.68134">
        <ele>344.7</ele>
        <time>2017-10-01T06:51:29Z</time>
      </trkpt>
      <trkpt lat="45.78641" lon="4.68147">
        <ele>344.5</ele>
        <time>2017-10-01T06:51:31Z</time>
      </trkpt>
      <trkpt lat="45.78646" lon="4.6816">
        <ele>344.2</ele>
        <time>2017-10-01T06:51:33Z</time>
      </trkpt>
      <trkpt lat="45.78651" lon="4.68171">
        <ele>343.9</ele>
        <time>2017-10-01T06:51:35Z</time>
      </trkpt>
      <trkpt lat="45.78658" lon="4.68182">
        <ele>343.6</ele>
        <time>2017-10-01T06:51:37Z</time>
      </trkpt>
      <trkpt lat="45.78663" lon="4.68191">
        <ele>343.4</ele>
        <time>2017-10-01T06:51:39Z</time>
      </trkpt>
      <trkpt lat="45.78667" lon="4.68204">
        <ele>343.2</ele>
        <time>2017-10-01T06:51:41Z</time>
      </trkpt>
      <trkpt lat="45.78667" lon="4.68218">
        <ele>342.9</ele>
        <time>2017-10-01T06:51:43Z</time>
      </trkpt>
      <trkpt lat="45.78664" lon="4.68241">
        <ele>342.8</ele>
        <time>2017-10-01T06:51:48Z</time>
      </trkpt>
      <trkpt lat="45.78661" lon="4.68251">
        <ele>342.9</ele>
        <time>2017-10-01T06:51:51Z</time>
      </trkpt>
      <trkpt lat="45.78661" lon="4.68257">
        <ele>343</ele>
        <time>2017-10-01T06:51:53Z</time>
      </trkpt>
      <trkpt lat="45.7866" lon="4.68262">
        <ele>343.1</ele>
        <time>2017-10-01T06:51:55Z</time>
      </trkpt>
      <trkpt lat="45.78658" lon="4.68274">
        <ele>343.6</ele>
        <time>2017-10-01T06:51:59Z</time>
      </trkpt>
      <trkpt lat="45.78655" lon="4.6828">
        <ele>343.9</ele>
        <time>2017-10-01T06:52:02Z</time>
      </trkpt>
      <trkpt lat="45.78653" lon="4.68282">
        <ele>344</ele>
        <time>2017-10-01T06:52:03Z</time>
      </trkpt>
      <trkpt lat="45.78647" lon="4.68285">
        <ele>344.4</ele>
        <time>2017-10-01T06:52:07Z</time>
      </trkpt>
      <trkpt lat="45.78645" lon="4.68286">
        <ele>344.7</ele>
        <time>2017-10-01T06:52:09Z</time>
      </trkpt>
      <trkpt lat="45.78639" lon="4.68287">
        <ele>345.2</ele>
        <time>2017-10-01T06:52:12Z</time>
      </trkpt>
      <trkpt lat="45.78633" lon="4.68289">
        <ele>345.8</ele>
        <time>2017-10-01T06:52:16Z</time>
      </trkpt>
      <trkpt lat="45.78626" lon="4.68292">
        <ele>346.5</ele>
        <time>2017-10-01T06:52:20Z</time>
      </trkpt>
      <trkpt lat="45.78624" lon="4.68293">
        <ele>346.7</ele>
        <time>2017-10-01T06:52:21Z</time>
      </trkpt>
      <trkpt lat="45.78623" lon="4.68294">
        <ele>346.8</ele>
        <time>2017-10-01T06:52:22Z</time>
      </trkpt>
      <trkpt lat="45.78615" lon="4.68297">
        <ele>347.7</ele>
        <time>2017-10-01T06:52:28Z</time>
      </trkpt>
      <trkpt lat="45.78613" lon="4.68296">
        <ele>347.9</ele>
        <time>2017-10-01T06:52:30Z</time>
      </trkpt>
      <trkpt lat="45.78611" lon="4.68296">
        <ele>348.1</ele>
        <time>2017-10-01T06:52:31Z</time>
      </trkpt>
      <trkpt lat="45.7861" lon="4.68296">
        <ele>348.2</ele>
        <time>2017-10-01T06:52:32Z</time>
      </trkpt>
      <trkpt lat="45.78606" lon="4.68297">
        <ele>348.5</ele>
        <time>2017-10-01T06:52:34Z</time>
      </trkpt>
      <trkpt lat="45.78603" lon="4.68298">
        <ele>348.8</ele>
        <time>2017-10-01T06:52:36Z</time>
      </trkpt>
      <trkpt lat="45.78601" lon="4.68299">
        <ele>348.9</ele>
        <time>2017-10-01T06:52:37Z</time>
      </trkpt>
      <trkpt lat="45.78594" lon="4.68301">
        <ele>349.6</ele>
        <time>2017-10-01T06:52:41Z</time>
      </trkpt>
      <trkpt lat="45.78591" lon="4.683">
        <ele>350</ele>
        <time>2017-10-01T06:52:43Z</time>
      </trkpt>
      <trkpt lat="45.78589" lon="4.683">
        <ele>350.1</ele>
        <time>2017-10-01T06:52:44Z</time>
      </trkpt>
      <trkpt lat="45.78586" lon="4.68301">
        <ele>350.4</ele>
        <time>2017-10-01T06:52:46Z</time>
      </trkpt>
      <trkpt lat="45.78581" lon="4.68302">
        <ele>350.9</ele>
        <time>2017-10-01T06:52:49Z</time>
      </trkpt>
      <trkpt lat="45.78576" lon="4.68302">
        <ele>351.5</ele>
        <time>2017-10-01T06:52:52Z</time>
      </trkpt>
      <trkpt lat="45.78574" lon="4.68302">
        <ele>351.7</ele>
        <time>2017-10-01T06:52:53Z</time>
      </trkpt>
      <trkpt lat="45.78566" lon="4.68303">
        <ele>352.7</ele>
        <time>2017-10-01T06:52:58Z</time>
      </trkpt>
      <trkpt lat="45.78554" lon="4.68304">
        <ele>354</ele>
        <time>2017-10-01T06:53:05Z</time>
      </trkpt>
      <trkpt lat="45.78551" lon="4.68304">
        <ele>354.3</ele>
        <time>2017-10-01T06:53:07Z</time>
      </trkpt>
      <trkpt lat="45.78547" lon="4.68305">
        <ele>354.7</ele>
        <time>2017-10-01T06:53:09Z</time>
      </trkpt>
      <trkpt lat="45.78538" lon="4.68306">
        <ele>355.7</ele>
        <time>2017-10-01T06:53:15Z</time>
      </trkpt>
      <trkpt lat="45.78528" lon="4.68307">
        <ele>356.8</ele>
        <time>2017-10-01T06:53:21Z</time>
      </trkpt>
      <trkpt lat="45.78522" lon="4.68308">
        <ele>357.3</ele>
        <time>2017-10-01T06:53:25Z</time>
      </trkpt>
      <trkpt lat="45.7852" lon="4.68308">
        <ele>357.5</ele>
        <time>2017-10-01T06:53:26Z</time>
      </trkpt>
      <trkpt lat="45.78509" lon="4.68309">
        <ele>358.5</ele>
        <time>2017-10-01T06:53:33Z</time>
      </trkpt>
      <trkpt lat="45.78501" lon="4.6831">
        <ele>359.2</ele>
        <time>2017-10-01T06:53:38Z</time>
      </trkpt>
      <trkpt lat="45.78495" lon="4.68309">
        <ele>359.7</ele>
        <time>2017-10-01T06:53:42Z</time>
      </trkpt>
      <trkpt lat="45.7849" lon="4.6831">
        <ele>360.2</ele>
        <time>2017-10-01T06:53:46Z</time>
      </trkpt>
      <trkpt lat="45.78487" lon="4.6831">
        <ele>360.5</ele>
        <time>2017-10-01T06:53:48Z</time>
      </trkpt>
      <trkpt lat="45.78485" lon="4.6831">
        <ele>360.7</ele>
        <time>2017-10-01T06:53:49Z</time>
      </trkpt>
      <trkpt lat="45.78481" lon="4.68311">
        <ele>361.1</ele>
        <time>2017-10-01T06:53:52Z</time>
      </trkpt>
      <trkpt lat="45.78478" lon="4.68311">
        <ele>361.4</ele>
        <time>2017-10-01T06:53:54Z</time>
      </trkpt>
      <trkpt lat="45.78475" lon="4.68311">
        <ele>361.7</ele>
        <time>2017-10-01T06:53:56Z</time>
      </trkpt>
      <trkpt lat="45.78473" lon="4.68312">
        <ele>361.8</ele>
        <time>2017-10-01T06:53:57Z</time>
      </trkpt>
      <trkpt lat="45.78472" lon="4.68313">
        <ele>362</ele>
        <time>2017-10-01T06:53:58Z</time>
      </trkpt>
      <trkpt lat="45.78469" lon="4.68318">
        <ele>362.5</ele>
        <time>2017-10-01T06:54:01Z</time>
      </trkpt>
      <trkpt lat="45.78468" lon="4.68335">
        <ele>361.7</ele>
        <time>2017-10-01T06:54:05Z</time>
      </trkpt>
      <trkpt lat="45.78469" lon="4.68339">
        <ele>361.4</ele>
        <time>2017-10-01T06:54:06Z</time>
      </trkpt>
      <trkpt lat="45.78473" lon="4.68353">
        <ele>360.4</ele>
        <time>2017-10-01T06:54:10Z</time>
      </trkpt>
      <trkpt lat="45.78476" lon="4.68359">
        <ele>359.7</ele>
        <time>2017-10-01T06:54:13Z</time>
      </trkpt>
      <trkpt lat="45.78478" lon="4.68362">
        <ele>359.4</ele>
        <time>2017-10-01T06:54:15Z</time>
      </trkpt>
      <trkpt lat="45.78479" lon="4.68364">
        <ele>359.2</ele>
        <time>2017-10-01T06:54:16Z</time>
      </trkpt>
      <trkpt lat="45.78481" lon="4.68368">
        <ele>358.8</ele>
        <time>2017-10-01T06:54:19Z</time>
      </trkpt>
      <trkpt lat="45.78483" lon="4.6837">
        <ele>358.6</ele>
        <time>2017-10-01T06:54:21Z</time>
      </trkpt>
      <trkpt lat="45.78484" lon="4.68372">
        <ele>358.4</ele>
        <time>2017-10-01T06:54:23Z</time>
      </trkpt>
      <trkpt lat="45.78486" lon="4.68374">
        <ele>358.2</ele>
        <time>2017-10-01T06:54:25Z</time>
      </trkpt>
      <trkpt lat="45.78489" lon="4.68378">
        <ele>357.7</ele>
        <time>2017-10-01T06:54:29Z</time>
      </trkpt>
      <trkpt lat="45.78491" lon="4.6838">
        <ele>357.5</ele>
        <time>2017-10-01T06:54:30Z</time>
      </trkpt>
      <trkpt lat="45.78498" lon="4.68389">
        <ele>356.5</ele>
        <time>2017-10-01T06:54:36Z</time>
      </trkpt>
      <trkpt lat="45.78503" lon="4.68396">
        <ele>355.8</ele>
        <time>2017-10-01T06:54:39Z</time>
      </trkpt>
      <trkpt lat="45.78508" lon="4.68403">
        <ele>354.3</ele>
        <time>2017-10-01T06:54:41Z</time>
      </trkpt>
      <trkpt lat="45.78511" lon="4.68406">
        <ele>353.7</ele>
        <time>2017-10-01T06:54:42Z</time>
      </trkpt>
      <trkpt lat="45.7852" lon="4.68417">
        <ele>351.4</ele>
        <time>2017-10-01T06:54:45Z</time>
      </trkpt>
      <trkpt lat="45.78528" lon="4.68424">
        <ele>350.5</ele>
        <time>2017-10-01T06:54:47Z</time>
      </trkpt>
      <trkpt lat="45.78534" lon="4.68429">
        <ele>349.9</ele>
        <time>2017-10-01T06:54:49Z</time>
      </trkpt>
      <trkpt lat="45.78534" lon="4.68432">
        <ele>349.3</ele>
        <time>2017-10-01T06:54:50Z</time>
      </trkpt>
      <trkpt lat="45.78534" lon="4.68435">
        <ele>348.1</ele>
        <time>2017-10-01T06:54:51Z</time>
      </trkpt>
      <trkpt lat="45.78526" lon="4.68445">
        <ele>346.3</ele>
        <time>2017-10-01T06:54:53Z</time>
      </trkpt>
      <trkpt lat="45.78523" lon="4.68449">
        <ele>345.5</ele>
        <time>2017-10-01T06:54:54Z</time>
      </trkpt>
      <trkpt lat="45.78513" lon="4.68459">
        <ele>343.4</ele>
        <time>2017-10-01T06:54:56Z</time>
      </trkpt>
      <trkpt lat="45.78508" lon="4.68465">
        <ele>342.1</ele>
        <time>2017-10-01T06:54:57Z</time>
      </trkpt>
      <trkpt lat="45.78505" lon="4.68473">
        <ele>341.7</ele>
        <time>2017-10-01T06:54:58Z</time>
      </trkpt>
      <trkpt lat="45.78507" lon="4.68496">
        <ele>341.2</ele>
        <time>2017-10-01T06:55:01Z</time>
      </trkpt>
      <trkpt lat="45.78514" lon="4.68509">
        <ele>341.2</ele>
        <time>2017-10-01T06:55:04Z</time>
      </trkpt>
      <trkpt lat="45.78519" lon="4.68519">
        <ele>341.5</ele>
        <time>2017-10-01T06:55:07Z</time>
      </trkpt>
      <trkpt lat="45.78521" lon="4.68526">
        <ele>341.8</ele>
        <time>2017-10-01T06:55:09Z</time>
      </trkpt>
      <trkpt lat="45.7853" lon="4.68545">
        <ele>342.5</ele>
        <time>2017-10-01T06:55:16Z</time>
      </trkpt>
      <trkpt lat="45.78533" lon="4.68559">
        <ele>342.8</ele>
        <time>2017-10-01T06:55:20Z</time>
      </trkpt>
      <trkpt lat="45.78536" lon="4.68565">
        <ele>342.9</ele>
        <time>2017-10-01T06:55:22Z</time>
      </trkpt>
      <trkpt lat="45.78534" lon="4.6857">
        <ele>342.9</ele>
        <time>2017-10-01T06:55:28Z</time>
      </trkpt>
      <trkpt lat="45.78526" lon="4.68566">
        <ele>344.3</ele>
        <time>2017-10-01T06:55:32Z</time>
      </trkpt>
      <trkpt lat="45.78516" lon="4.6856">
        <ele>345.4</ele>
        <time>2017-10-01T06:55:38Z</time>
      </trkpt>
      <trkpt lat="45.78503" lon="4.68557">
        <ele>346.7</ele>
        <time>2017-10-01T06:55:44Z</time>
      </trkpt>
      <trkpt lat="45.78486" lon="4.68552">
        <ele>348.5</ele>
        <time>2017-10-01T06:55:51Z</time>
      </trkpt>
      <trkpt lat="45.78476" lon="4.68547">
        <ele>349.7</ele>
        <time>2017-10-01T06:55:56Z</time>
      </trkpt>
      <trkpt lat="45.7847" lon="4.68546">
        <ele>350.4</ele>
        <time>2017-10-01T06:55:59Z</time>
      </trkpt>
      <trkpt lat="45.78468" lon="4.68546">
        <ele>350.6</ele>
        <time>2017-10-01T06:56:00Z</time>
      </trkpt>
      <trkpt lat="45.78461" lon="4.68545">
        <ele>351.5</ele>
        <time>2017-10-01T06:56:04Z</time>
      </trkpt>
      <trkpt lat="45.78457" lon="4.68545">
        <ele>352</ele>
        <time>2017-10-01T06:56:06Z</time>
      </trkpt>
      <trkpt lat="45.78453" lon="4.68543">
        <ele>352.5</ele>
        <time>2017-10-01T06:56:08Z</time>
      </trkpt>
      <trkpt lat="45.78447" lon="4.68541">
        <ele>353.2</ele>
        <time>2017-10-01T06:56:11Z</time>
      </trkpt>
      <trkpt lat="45.78443" lon="4.6854">
        <ele>353.7</ele>
        <time>2017-10-01T06:56:13Z</time>
      </trkpt>
      <trkpt lat="45.78442" lon="4.68539">
        <ele>353.9</ele>
        <time>2017-10-01T06:56:14Z</time>
      </trkpt>
      <trkpt lat="45.78433" lon="4.68537">
        <ele>355</ele>
        <time>2017-10-01T06:56:19Z</time>
      </trkpt>
      <trkpt lat="45.7842" lon="4.68534">
        <ele>356.7</ele>
        <time>2017-10-01T06:56:27Z</time>
      </trkpt>
      <trkpt lat="45.78417" lon="4.68533">
        <ele>357.1</ele>
        <time>2017-10-01T06:56:29Z</time>
      </trkpt>
      <trkpt lat="45.78413" lon="4.68531">
        <ele>357.6</ele>
        <time>2017-10-01T06:56:31Z</time>
      </trkpt>
      <trkpt lat="45.78407" lon="4.6853">
        <ele>358.4</ele>
        <time>2017-10-01T06:56:35Z</time>
      </trkpt>
      <trkpt lat="45.78402" lon="4.6853">
        <ele>359.1</ele>
        <time>2017-10-01T06:56:38Z</time>
      </trkpt>
      <trkpt lat="45.784" lon="4.6853">
        <ele>359.3</ele>
        <time>2017-10-01T06:56:39Z</time>
      </trkpt>
      <trkpt lat="45.78388" lon="4.68527">
        <ele>361.1</ele>
        <time>2017-10-01T06:56:47Z</time>
      </trkpt>
      <trkpt lat="45.78387" lon="4.68527">
        <ele>361.3</ele>
        <time>2017-10-01T06:56:48Z</time>
      </trkpt>
      <trkpt lat="45.78377" lon="4.68522">
        <ele>362.7</ele>
        <time>2017-10-01T06:56:54Z</time>
      </trkpt>
      <trkpt lat="45.78376" lon="4.68522">
        <ele>362.9</ele>
        <time>2017-10-01T06:56:55Z</time>
      </trkpt>
      <trkpt lat="45.7837" lon="4.68521">
        <ele>363.8</ele>
        <time>2017-10-01T06:56:59Z</time>
      </trkpt>
      <trkpt lat="45.78366" lon="4.6852">
        <ele>364.3</ele>
        <time>2017-10-01T06:57:01Z</time>
      </trkpt>
      <trkpt lat="45.7836" lon="4.68519">
        <ele>365.1</ele>
        <time>2017-10-01T06:57:05Z</time>
      </trkpt>
      <trkpt lat="45.78354" lon="4.68516">
        <ele>366</ele>
        <time>2017-10-01T06:57:09Z</time>
      </trkpt>
      <trkpt lat="45.78353" lon="4.68516">
        <ele>366.2</ele>
        <time>2017-10-01T06:57:10Z</time>
      </trkpt>
      <trkpt lat="45.78344" lon="4.68512">
        <ele>367.6</ele>
        <time>2017-10-01T06:57:16Z</time>
      </trkpt>
      <trkpt lat="45.78341" lon="4.68512">
        <ele>368</ele>
        <time>2017-10-01T06:57:18Z</time>
      </trkpt>
      <trkpt lat="45.78336" lon="4.68511">
        <ele>368.7</ele>
        <time>2017-10-01T06:57:21Z</time>
      </trkpt>
      <trkpt lat="45.78331" lon="4.68511">
        <ele>369.5</ele>
        <time>2017-10-01T06:57:24Z</time>
      </trkpt>
      <trkpt lat="45.78319" lon="4.68507">
        <ele>371.3</ele>
        <time>2017-10-01T06:57:32Z</time>
      </trkpt>
      <trkpt lat="45.78317" lon="4.68507">
        <ele>371.5</ele>
        <time>2017-10-01T06:57:33Z</time>
      </trkpt>
      <trkpt lat="45.78306" lon="4.68504">
        <ele>373.1</ele>
        <time>2017-10-01T06:57:40Z</time>
      </trkpt>
      <trkpt lat="45.78301" lon="4.68502">
        <ele>373.7</ele>
        <time>2017-10-01T06:57:43Z</time>
      </trkpt>
      <trkpt lat="45.78296" lon="4.68502">
        <ele>374.4</ele>
        <time>2017-10-01T06:57:46Z</time>
      </trkpt>
      <trkpt lat="45.78288" lon="4.685">
        <ele>375.4</ele>
        <time>2017-10-01T06:57:51Z</time>
      </trkpt>
      <trkpt lat="45.78283" lon="4.685">
        <ele>376.1</ele>
        <time>2017-10-01T06:57:54Z</time>
      </trkpt>
      <trkpt lat="45.78273" lon="4.68499">
        <ele>377.3</ele>
        <time>2017-10-01T06:58:00Z</time>
      </trkpt>
      <trkpt lat="45.7827" lon="4.68497">
        <ele>377.8</ele>
        <time>2017-10-01T06:58:02Z</time>
      </trkpt>
      <trkpt lat="45.78263" lon="4.68495">
        <ele>378.6</ele>
        <time>2017-10-01T06:58:06Z</time>
      </trkpt>
      <trkpt lat="45.78258" lon="4.68494">
        <ele>379.3</ele>
        <time>2017-10-01T06:58:09Z</time>
      </trkpt>
      <trkpt lat="45.78253" lon="4.68494">
        <ele>380</ele>
        <time>2017-10-01T06:58:12Z</time>
      </trkpt>
      <trkpt lat="45.78248" lon="4.68493">
        <ele>380.7</ele>
        <time>2017-10-01T06:58:16Z</time>
      </trkpt>
      <trkpt lat="45.78243" lon="4.68493">
        <ele>381.4</ele>
        <time>2017-10-01T06:58:20Z</time>
      </trkpt>
      <trkpt lat="45.78236" lon="4.68492">
        <ele>382.2</ele>
        <time>2017-10-01T06:58:24Z</time>
      </trkpt>
      <trkpt lat="45.78233" lon="4.68491">
        <ele>382.6</ele>
        <time>2017-10-01T06:58:26Z</time>
      </trkpt>
      <trkpt lat="45.78227" lon="4.68489">
        <ele>383.4</ele>
        <time>2017-10-01T06:58:30Z</time>
      </trkpt>
      <trkpt lat="45.78223" lon="4.68487">
        <ele>384.1</ele>
        <time>2017-10-01T06:58:33Z</time>
      </trkpt>
      <trkpt lat="45.7822" lon="4.68485">
        <ele>384.5</ele>
        <time>2017-10-01T06:58:35Z</time>
      </trkpt>
      <trkpt lat="45.78216" lon="4.68484">
        <ele>385</ele>
        <time>2017-10-01T06:58:38Z</time>
      </trkpt>
      <trkpt lat="45.78213" lon="4.68484">
        <ele>385.4</ele>
        <time>2017-10-01T06:58:40Z</time>
      </trkpt>
      <trkpt lat="45.78208" lon="4.68483">
        <ele>386.2</ele>
        <time>2017-10-01T06:58:44Z</time>
      </trkpt>
      <trkpt lat="45.78202" lon="4.68481">
        <ele>387</ele>
        <time>2017-10-01T06:58:48Z</time>
      </trkpt>
      <trkpt lat="45.78195" lon="4.68478">
        <ele>388</ele>
        <time>2017-10-01T06:58:52Z</time>
      </trkpt>
      <trkpt lat="45.78188" lon="4.68476">
        <ele>389.1</ele>
        <time>2017-10-01T06:58:56Z</time>
      </trkpt>
      <trkpt lat="45.78174" lon="4.68477">
        <ele>391.2</ele>
        <time>2017-10-01T06:59:05Z</time>
      </trkpt>
      <trkpt lat="45.78166" lon="4.68476">
        <ele>392.3</ele>
        <time>2017-10-01T06:59:10Z</time>
      </trkpt>
      <trkpt lat="45.78164" lon="4.68476">
        <ele>392.6</ele>
        <time>2017-10-01T06:59:11Z</time>
      </trkpt>
      <trkpt lat="45.78161" lon="4.68475">
        <ele>393.1</ele>
        <time>2017-10-01T06:59:13Z</time>
      </trkpt>
      <trkpt lat="45.78158" lon="4.68474">
        <ele>393.6</ele>
        <time>2017-10-01T06:59:15Z</time>
      </trkpt>
      <trkpt lat="45.78153" lon="4.68472">
        <ele>394.4</ele>
        <time>2017-10-01T06:59:18Z</time>
      </trkpt>
      <trkpt lat="45.78148" lon="4.68472">
        <ele>395.1</ele>
        <time>2017-10-01T06:59:21Z</time>
      </trkpt>
      <trkpt lat="45.78143" lon="4.68471">
        <ele>395.8</ele>
        <time>2017-10-01T06:59:24Z</time>
      </trkpt>
      <trkpt lat="45.78138" lon="4.6847">
        <ele>396.4</ele>
        <time>2017-10-01T06:59:27Z</time>
      </trkpt>
      <trkpt lat="45.78131" lon="4.68468">
        <ele>397.4</ele>
        <time>2017-10-01T06:59:31Z</time>
      </trkpt>
      <trkpt lat="45.7813" lon="4.68468">
        <ele>397.6</ele>
        <time>2017-10-01T06:59:32Z</time>
      </trkpt>
      <trkpt lat="45.78125" lon="4.68468">
        <ele>398.2</ele>
        <time>2017-10-01T06:59:35Z</time>
      </trkpt>
      <trkpt lat="45.7812" lon="4.68466">
        <ele>398.8</ele>
        <time>2017-10-01T06:59:38Z</time>
      </trkpt>
      <trkpt lat="45.78115" lon="4.68465">
        <ele>399.4</ele>
        <time>2017-10-01T06:59:41Z</time>
      </trkpt>
      <trkpt lat="45.78114" lon="4.68465">
        <ele>399.5</ele>
        <time>2017-10-01T06:59:42Z</time>
      </trkpt>
      <trkpt lat="45.78109" lon="4.68464">
        <ele>400.1</ele>
        <time>2017-10-01T06:59:45Z</time>
      </trkpt>
      <trkpt lat="45.78104" lon="4.68463">
        <ele>400.7</ele>
        <time>2017-10-01T06:59:48Z</time>
      </trkpt>
      <trkpt lat="45.78101" lon="4.68461">
        <ele>401.1</ele>
        <time>2017-10-01T06:59:50Z</time>
      </trkpt>
      <trkpt lat="45.78099" lon="4.68461">
        <ele>401.2</ele>
        <time>2017-10-01T06:59:51Z</time>
      </trkpt>
      <trkpt lat="45.78093" lon="4.6846">
        <ele>402</ele>
        <time>2017-10-01T06:59:55Z</time>
      </trkpt>
      <trkpt lat="45.78087" lon="4.68459">
        <ele>402.5</ele>
        <time>2017-10-01T06:59:58Z</time>
      </trkpt>
      <trkpt lat="45.78086" lon="4.68458">
        <ele>402.7</ele>
        <time>2017-10-01T06:59:59Z</time>
      </trkpt>
      <trkpt lat="45.7808" lon="4.68456">
        <ele>403.4</ele>
        <time>2017-10-01T07:00:03Z</time>
      </trkpt>
      <trkpt lat="45.78073" lon="4.68455">
        <ele>404</ele>
        <time>2017-10-01T07:00:07Z</time>
      </trkpt>
      <trkpt lat="45.78072" lon="4.68454">
        <ele>404.2</ele>
        <time>2017-10-01T07:00:08Z</time>
      </trkpt>
      <trkpt lat="45.78067" lon="4.68453">
        <ele>404.7</ele>
        <time>2017-10-01T07:00:11Z</time>
      </trkpt>
      <trkpt lat="45.78059" lon="4.6845">
        <ele>405.4</ele>
        <time>2017-10-01T07:00:16Z</time>
      </trkpt>
      <trkpt lat="45.78056" lon="4.68449">
        <ele>405.8</ele>
        <time>2017-10-01T07:00:18Z</time>
      </trkpt>
      <trkpt lat="45.78049" lon="4.68447">
        <ele>406.4</ele>
        <time>2017-10-01T07:00:22Z</time>
      </trkpt>
      <trkpt lat="45.78041" lon="4.68443">
        <ele>407.1</ele>
        <time>2017-10-01T07:00:27Z</time>
      </trkpt>
      <trkpt lat="45.7804" lon="4.68442">
        <ele>407.3</ele>
        <time>2017-10-01T07:00:28Z</time>
      </trkpt>
      <trkpt lat="45.78035" lon="4.6844">
        <ele>407.7</ele>
        <time>2017-10-01T07:00:31Z</time>
      </trkpt>
      <trkpt lat="45.78027" lon="4.68437">
        <ele>408.2</ele>
        <time>2017-10-01T07:00:36Z</time>
      </trkpt>
      <trkpt lat="45.78025" lon="4.68435">
        <ele>408.4</ele>
        <time>2017-10-01T07:00:38Z</time>
      </trkpt>
      <trkpt lat="45.7802" lon="4.6843">
        <ele>408.7</ele>
        <time>2017-10-01T07:00:42Z</time>
      </trkpt>
      <trkpt lat="45.7802" lon="4.68429">
        <ele>408.7</ele>
        <time>2017-10-01T07:00:43Z</time>
      </trkpt>
      <trkpt lat="45.78018" lon="4.68429">
        <ele>408.8</ele>
        <time>2017-10-01T07:00:44Z</time>
      </trkpt>
      <trkpt lat="45.78016" lon="4.68433">
        <ele>409</ele>
        <time>2017-10-01T07:00:48Z</time>
      </trkpt>
      <trkpt lat="45.78017" lon="4.68435">
        <ele>409</ele>
        <time>2017-10-01T07:00:50Z</time>
      </trkpt>
      <trkpt lat="45.78018" lon="4.68436">
        <ele>409.1</ele>
        <time>2017-10-01T07:00:51Z</time>
      </trkpt>
      <trkpt lat="45.7802" lon="4.68432">
        <ele>409.3</ele>
        <time>2017-10-01T07:03:11Z</time>
      </trkpt>
      <trkpt lat="45.78023" lon="4.68434">
        <ele>409.6</ele>
        <time>2017-10-01T07:03:15Z</time>
      </trkpt>
      <trkpt lat="45.78022" lon="4.68436">
        <ele>409.7</ele>
        <time>2017-10-01T07:03:16Z</time>
      </trkpt>
      <trkpt lat="45.78017" lon="4.68437">
        <ele>410.2</ele>
        <time>2017-10-01T07:03:20Z</time>
      </trkpt>
      <trkpt lat="45.78016" lon="4.68434">
        <ele>410.4</ele>
        <time>2017-10-01T07:03:22Z</time>
      </trkpt>
      <trkpt lat="45.78011" lon="4.6843">
        <ele>410.9</ele>
        <time>2017-10-01T07:03:25Z</time>
      </trkpt>
      <trkpt lat="45.78006" lon="4.68427">
        <ele>411.3</ele>
        <time>2017-10-01T07:03:28Z</time>
      </trkpt>
      <trkpt lat="45.77995" lon="4.68421">
        <ele>412.1</ele>
        <time>2017-10-01T07:03:35Z</time>
      </trkpt>
      <trkpt lat="45.77981" lon="4.68417">
        <ele>412.7</ele>
        <time>2017-10-01T07:03:43Z</time>
      </trkpt>
      <trkpt lat="45.77974" lon="4.68413">
        <ele>412.8</ele>
        <time>2017-10-01T07:03:46Z</time>
      </trkpt>
      <trkpt lat="45.77962" lon="4.68406">
        <ele>413</ele>
        <time>2017-10-01T07:03:51Z</time>
      </trkpt>
      <trkpt lat="45.77955" lon="4.68404">
        <ele>413.1</ele>
        <time>2017-10-01T07:03:54Z</time>
      </trkpt>
      <trkpt lat="45.77945" lon="4.684">
        <ele>413.3</ele>
        <time>2017-10-01T07:03:59Z</time>
      </trkpt>
      <trkpt lat="45.77943" lon="4.684">
        <ele>413.3</ele>
        <time>2017-10-01T07:04:00Z</time>
      </trkpt>
      <trkpt lat="45.77933" lon="4.68396">
        <ele>413.4</ele>
        <time>2017-10-01T07:04:05Z</time>
      </trkpt>
      <trkpt lat="45.77924" lon="4.68391">
        <ele>413.4</ele>
        <time>2017-10-01T07:04:09Z</time>
      </trkpt>
      <trkpt lat="45.77916" lon="4.68386">
        <ele>413.2</ele>
        <time>2017-10-01T07:04:13Z</time>
      </trkpt>
      <trkpt lat="45.77908" lon="4.6838">
        <ele>413</ele>
        <time>2017-10-01T07:04:17Z</time>
      </trkpt>
      <trkpt lat="45.77901" lon="4.68377">
        <ele>412.9</ele>
        <time>2017-10-01T07:04:20Z</time>
      </trkpt>
      <trkpt lat="45.77893" lon="4.68374">
        <ele>412.9</ele>
        <time>2017-10-01T07:04:24Z</time>
      </trkpt>
      <trkpt lat="45.77878" lon="4.68365">
        <ele>412.9</ele>
        <time>2017-10-01T07:04:32Z</time>
      </trkpt>
      <trkpt lat="45.77857" lon="4.68353">
        <ele>412.7</ele>
        <time>2017-10-01T07:04:41Z</time>
      </trkpt>
      <trkpt lat="45.77836" lon="4.68334">
        <ele>412.3</ele>
        <time>2017-10-01T07:04:48Z</time>
      </trkpt>
      <trkpt lat="45.77809" lon="4.6831">
        <ele>411.6</ele>
        <time>2017-10-01T07:04:55Z</time>
      </trkpt>
      <trkpt lat="45.77806" lon="4.68306">
        <ele>411.4</ele>
        <time>2017-10-01T07:04:56Z</time>
      </trkpt>
      <trkpt lat="45.77789" lon="4.6829">
        <ele>410.9</ele>
        <time>2017-10-01T07:05:00Z</time>
      </trkpt>
      <trkpt lat="45.77775" lon="4.68277">
        <ele>410.3</ele>
        <time>2017-10-01T07:05:03Z</time>
      </trkpt>
      <trkpt lat="45.77764" lon="4.68265">
        <ele>410.1</ele>
        <time>2017-10-01T07:05:06Z</time>
      </trkpt>
      <trkpt lat="45.77761" lon="4.68261">
        <ele>410</ele>
        <time>2017-10-01T07:05:07Z</time>
      </trkpt>
      <trkpt lat="45.77754" lon="4.68255">
        <ele>409.1</ele>
        <time>2017-10-01T07:05:09Z</time>
      </trkpt>
      <trkpt lat="45.77743" lon="4.68249">
        <ele>408.4</ele>
        <time>2017-10-01T07:05:11Z</time>
      </trkpt>
      <trkpt lat="45.77725" lon="4.68237">
        <ele>406.7</ele>
        <time>2017-10-01T07:05:14Z</time>
      </trkpt>
      <trkpt lat="45.77711" lon="4.68229">
        <ele>405.5</ele>
        <time>2017-10-01T07:05:16Z</time>
      </trkpt>
      <trkpt lat="45.77704" lon="4.68225">
        <ele>404.8</ele>
        <time>2017-10-01T07:05:17Z</time>
      </trkpt>
      <trkpt lat="45.77681" lon="4.68214">
        <ele>402.3</ele>
        <time>2017-10-01T07:05:20Z</time>
      </trkpt>
      <trkpt lat="45.77665" lon="4.68208">
        <ele>401.2</ele>
        <time>2017-10-01T07:05:22Z</time>
      </trkpt>
      <trkpt lat="45.77649" lon="4.68201">
        <ele>399.4</ele>
        <time>2017-10-01T07:05:24Z</time>
      </trkpt>
      <trkpt lat="45.77634" lon="4.68199">
        <ele>397.6</ele>
        <time>2017-10-01T07:05:26Z</time>
      </trkpt>
      <trkpt lat="45.77627" lon="4.68201">
        <ele>396.9</ele>
        <time>2017-10-01T07:05:27Z</time>
      </trkpt>
      <trkpt lat="45.77612" lon="4.68207">
        <ele>395.2</ele>
        <time>2017-10-01T07:05:29Z</time>
      </trkpt>
      <trkpt lat="45.77604" lon="4.68211">
        <ele>394.3</ele>
        <time>2017-10-01T07:05:30Z</time>
      </trkpt>
      <trkpt lat="45.77596" lon="4.68215">
        <ele>393.4</ele>
        <time>2017-10-01T07:05:31Z</time>
      </trkpt>
      <trkpt lat="45.77579" lon="4.68224">
        <ele>391.7</ele>
        <time>2017-10-01T07:05:33Z</time>
      </trkpt>
      <trkpt lat="45.77562" lon="4.68234">
        <ele>389.8</ele>
        <time>2017-10-01T07:05:35Z</time>
      </trkpt>
      <trkpt lat="45.77543" lon="4.68243">
        <ele>388.3</ele>
        <time>2017-10-01T07:05:37Z</time>
      </trkpt>
      <trkpt lat="45.77525" lon="4.68253">
        <ele>386.2</ele>
        <time>2017-10-01T07:05:39Z</time>
      </trkpt>
      <trkpt lat="45.77505" lon="4.6826">
        <ele>383.7</ele>
        <time>2017-10-01T07:05:41Z</time>
      </trkpt>
      <trkpt lat="45.77496" lon="4.68264">
        <ele>382.6</ele>
        <time>2017-10-01T07:05:42Z</time>
      </trkpt>
      <trkpt lat="45.77486" lon="4.68268">
        <ele>381.6</ele>
        <time>2017-10-01T07:05:43Z</time>
      </trkpt>
      <trkpt lat="45.77476" lon="4.68271">
        <ele>380.8</ele>
        <time>2017-10-01T07:05:44Z</time>
      </trkpt>
      <trkpt lat="45.77456" lon="4.68277">
        <ele>379.6</ele>
        <time>2017-10-01T07:05:46Z</time>
      </trkpt>
      <trkpt lat="45.77441" lon="4.68278">
        <ele>378.8</ele>
        <time>2017-10-01T07:05:48Z</time>
      </trkpt>
      <trkpt lat="45.77433" lon="4.68274">
        <ele>378.5</ele>
        <time>2017-10-01T07:05:49Z</time>
      </trkpt>
      <trkpt lat="45.77427" lon="4.68269">
        <ele>378.1</ele>
        <time>2017-10-01T07:05:50Z</time>
      </trkpt>
      <trkpt lat="45.77412" lon="4.68258">
        <ele>376.9</ele>
        <time>2017-10-01T07:05:52Z</time>
      </trkpt>
      <trkpt lat="45.77406" lon="4.68251">
        <ele>375.9</ele>
        <time>2017-10-01T07:05:53Z</time>
      </trkpt>
      <trkpt lat="45.774" lon="4.68244">
        <ele>375</ele>
        <time>2017-10-01T07:05:54Z</time>
      </trkpt>
      <trkpt lat="45.77389" lon="4.68231">
        <ele>373.8</ele>
        <time>2017-10-01T07:05:56Z</time>
      </trkpt>
      <trkpt lat="45.7738" lon="4.68217">
        <ele>373.2</ele>
        <time>2017-10-01T07:05:58Z</time>
      </trkpt>
      <trkpt lat="45.77377" lon="4.6821">
        <ele>372.9</ele>
        <time>2017-10-01T07:05:59Z</time>
      </trkpt>
      <trkpt lat="45.77375" lon="4.68204">
        <ele>372.7</ele>
        <time>2017-10-01T07:06:00Z</time>
      </trkpt>
      <trkpt lat="45.77372" lon="4.68195">
        <ele>372.1</ele>
        <time>2017-10-01T07:06:01Z</time>
      </trkpt>
      <trkpt lat="45.77369" lon="4.68187">
        <ele>371.4</ele>
        <time>2017-10-01T07:06:02Z</time>
      </trkpt>
      <trkpt lat="45.77358" lon="4.68161">
        <ele>369.8</ele>
        <time>2017-10-01T07:06:05Z</time>
      </trkpt>
      <trkpt lat="45.77354" lon="4.68152">
        <ele>369.7</ele>
        <time>2017-10-01T07:06:06Z</time>
      </trkpt>
      <trkpt lat="45.77346" lon="4.68135">
        <ele>369.4</ele>
        <time>2017-10-01T07:06:08Z</time>
      </trkpt>
      <trkpt lat="45.77327" lon="4.68101">
        <ele>367.3</ele>
        <time>2017-10-01T07:06:12Z</time>
      </trkpt>
      <trkpt lat="45.77303" lon="4.68068">
        <ele>363.9</ele>
        <time>2017-10-01T07:06:16Z</time>
      </trkpt>
      <trkpt lat="45.77297" lon="4.68059">
        <ele>362.6</ele>
        <time>2017-10-01T07:06:17Z</time>
      </trkpt>
      <trkpt lat="45.77291" lon="4.68051">
        <ele>361.4</ele>
        <time>2017-10-01T07:06:18Z</time>
      </trkpt>
      <trkpt lat="45.77281" lon="4.68034">
        <ele>357.9</ele>
        <time>2017-10-01T07:06:20Z</time>
      </trkpt>
      <trkpt lat="45.77279" lon="4.68026">
        <ele>356.6</ele>
        <time>2017-10-01T07:06:21Z</time>
      </trkpt>
      <trkpt lat="45.77277" lon="4.68018">
        <ele>355.2</ele>
        <time>2017-10-01T07:06:22Z</time>
      </trkpt>
      <trkpt lat="45.77272" lon="4.68004">
        <ele>354.6</ele>
        <time>2017-10-01T07:06:24Z</time>
      </trkpt>
      <trkpt lat="45.7727" lon="4.67997">
        <ele>354.4</ele>
        <time>2017-10-01T07:06:25Z</time>
      </trkpt>
      <trkpt lat="45.77268" lon="4.67989">
        <ele>354.4</ele>
        <time>2017-10-01T07:06:26Z</time>
      </trkpt>
      <trkpt lat="45.77263" lon="4.6797">
        <ele>354.3</ele>
        <time>2017-10-01T07:06:28Z</time>
      </trkpt>
      <trkpt lat="45.77259" lon="4.67961">
        <ele>354.2</ele>
        <time>2017-10-01T07:06:29Z</time>
      </trkpt>
      <trkpt lat="45.77256" lon="4.6795">
        <ele>354.2</ele>
        <time>2017-10-01T07:06:30Z</time>
      </trkpt>
      <trkpt lat="45.77249" lon="4.67928">
        <ele>354.6</ele>
        <time>2017-10-01T07:06:32Z</time>
      </trkpt>
      <trkpt lat="45.77242" lon="4.67906">
        <ele>355.3</ele>
        <time>2017-10-01T07:06:34Z</time>
      </trkpt>
      <trkpt lat="45.77237" lon="4.67883">
        <ele>356.1</ele>
        <time>2017-10-01T07:06:36Z</time>
      </trkpt>
      <trkpt lat="45.77233" lon="4.67849">
        <ele>357.5</ele>
        <time>2017-10-01T07:06:39Z</time>
      </trkpt>
      <trkpt lat="45.7723" lon="4.67839">
        <ele>358</ele>
        <time>2017-10-01T07:06:40Z</time>
      </trkpt>
      <trkpt lat="45.77223" lon="4.6781">
        <ele>359.6</ele>
        <time>2017-10-01T07:06:43Z</time>
      </trkpt>
      <trkpt lat="45.77215" lon="4.67779">
        <ele>361.7</ele>
        <time>2017-10-01T07:06:47Z</time>
      </trkpt>
      <trkpt lat="45.77214" lon="4.67772">
        <ele>362.1</ele>
        <time>2017-10-01T07:06:48Z</time>
      </trkpt>
      <trkpt lat="45.77213" lon="4.67766">
        <ele>362.5</ele>
        <time>2017-10-01T07:06:49Z</time>
      </trkpt>
      <trkpt lat="45.77211" lon="4.6775">
        <ele>363.4</ele>
        <time>2017-10-01T07:06:52Z</time>
      </trkpt>
      <trkpt lat="45.77211" lon="4.67746">
        <ele>363.7</ele>
        <time>2017-10-01T07:06:53Z</time>
      </trkpt>
      <trkpt lat="45.77211" lon="4.67738">
        <ele>364.1</ele>
        <time>2017-10-01T07:06:55Z</time>
      </trkpt>
      <trkpt lat="45.7721" lon="4.6773">
        <ele>364.4</ele>
        <time>2017-10-01T07:06:57Z</time>
      </trkpt>
      <trkpt lat="45.77207" lon="4.67721">
        <ele>364.9</ele>
        <time>2017-10-01T07:07:00Z</time>
      </trkpt>
      <trkpt lat="45.77204" lon="4.67712">
        <ele>365.4</ele>
        <time>2017-10-01T07:07:03Z</time>
      </trkpt>
      <trkpt lat="45.77202" lon="4.67703">
        <ele>365.8</ele>
        <time>2017-10-01T07:07:06Z</time>
      </trkpt>
      <trkpt lat="45.77201" lon="4.677">
        <ele>365.9</ele>
        <time>2017-10-01T07:07:07Z</time>
      </trkpt>
      <trkpt lat="45.77199" lon="4.67695">
        <ele>366.2</ele>
        <time>2017-10-01T07:07:09Z</time>
      </trkpt>
      <trkpt lat="45.77197" lon="4.67686">
        <ele>366.6</ele>
        <time>2017-10-01T07:07:12Z</time>
      </trkpt>
      <trkpt lat="45.77195" lon="4.67676">
        <ele>367</ele>
        <time>2017-10-01T07:07:15Z</time>
      </trkpt>
      <trkpt lat="45.77194" lon="4.67674">
        <ele>367.2</ele>
        <time>2017-10-01T07:07:16Z</time>
      </trkpt>
      <trkpt lat="45.77192" lon="4.67667">
        <ele>367.5</ele>
        <time>2017-10-01T07:07:18Z</time>
      </trkpt>
      <trkpt lat="45.77187" lon="4.67652">
        <ele>368.2</ele>
        <time>2017-10-01T07:07:23Z</time>
      </trkpt>
      <trkpt lat="45.77185" lon="4.67645">
        <ele>368.4</ele>
        <time>2017-10-01T07:07:25Z</time>
      </trkpt>
      <trkpt lat="45.77179" lon="4.67626">
        <ele>369.2</ele>
        <time>2017-10-01T07:07:31Z</time>
      </trkpt>
      <trkpt lat="45.77177" lon="4.67616">
        <ele>369.6</ele>
        <time>2017-10-01T07:07:34Z</time>
      </trkpt>
      <trkpt lat="45.77174" lon="4.67607">
        <ele>370</ele>
        <time>2017-10-01T07:07:37Z</time>
      </trkpt>
      <trkpt lat="45.77169" lon="4.67589">
        <ele>370.5</ele>
        <time>2017-10-01T07:07:42Z</time>
      </trkpt>
      <trkpt lat="45.77164" lon="4.67571">
        <ele>370.7</ele>
        <time>2017-10-01T07:07:48Z</time>
      </trkpt>
      <trkpt lat="45.77162" lon="4.67561">
        <ele>370.8</ele>
        <time>2017-10-01T07:07:51Z</time>
      </trkpt>
      <trkpt lat="45.7716" lon="4.67551">
        <ele>371</ele>
        <time>2017-10-01T07:07:54Z</time>
      </trkpt>
      <trkpt lat="45.77155" lon="4.67535">
        <ele>372</ele>
        <time>2017-10-01T07:07:59Z</time>
      </trkpt>
      <trkpt lat="45.77152" lon="4.67523">
        <ele>372.6</ele>
        <time>2017-10-01T07:08:02Z</time>
      </trkpt>
      <trkpt lat="45.77148" lon="4.67505">
        <ele>373.2</ele>
        <time>2017-10-01T07:08:07Z</time>
      </trkpt>
      <trkpt lat="45.77145" lon="4.67492">
        <ele>373.6</ele>
        <time>2017-10-01T07:08:11Z</time>
      </trkpt>
      <trkpt lat="45.77141" lon="4.67474">
        <ele>373.9</ele>
        <time>2017-10-01T07:08:16Z</time>
      </trkpt>
      <trkpt lat="45.77141" lon="4.67471">
        <ele>373.9</ele>
        <time>2017-10-01T07:08:17Z</time>
      </trkpt>
      <trkpt lat="45.77137" lon="4.67439">
        <ele>372.2</ele>
        <time>2017-10-01T07:08:26Z</time>
      </trkpt>
      <trkpt lat="45.77136" lon="4.67415">
        <ele>370.3</ele>
        <time>2017-10-01T07:08:33Z</time>
      </trkpt>
      <trkpt lat="45.77137" lon="4.67412">
        <ele>370</ele>
        <time>2017-10-01T07:08:34Z</time>
      </trkpt>
      <trkpt lat="45.77136" lon="4.67385">
        <ele>367.6</ele>
        <time>2017-10-01T07:08:42Z</time>
      </trkpt>
      <trkpt lat="45.77138" lon="4.67357">
        <ele>365.5</ele>
        <time>2017-10-01T07:08:47Z</time>
      </trkpt>
      <trkpt lat="45.77139" lon="4.67341">
        <ele>364.4</ele>
        <time>2017-10-01T07:08:49Z</time>
      </trkpt>
      <trkpt lat="45.7714" lon="4.67313">
        <ele>363.5</ele>
        <time>2017-10-01T07:08:52Z</time>
      </trkpt>
      <trkpt lat="45.77141" lon="4.6728">
        <ele>363.1</ele>
        <time>2017-10-01T07:08:55Z</time>
      </trkpt>
      <trkpt lat="45.77141" lon="4.67247">
        <ele>362.7</ele>
        <time>2017-10-01T07:08:58Z</time>
      </trkpt>
      <trkpt lat="45.77141" lon="4.67235">
        <ele>362.5</ele>
        <time>2017-10-01T07:08:59Z</time>
      </trkpt>
      <trkpt lat="45.77142" lon="4.67201">
        <ele>362.4</ele>
        <time>2017-10-01T07:09:02Z</time>
      </trkpt>
      <trkpt lat="45.77145" lon="4.67179">
        <ele>364</ele>
        <time>2017-10-01T07:09:04Z</time>
      </trkpt>
      <trkpt lat="45.77147" lon="4.67169">
        <ele>364.3</ele>
        <time>2017-10-01T07:09:05Z</time>
      </trkpt>
      <trkpt lat="45.77148" lon="4.67159">
        <ele>364.7</ele>
        <time>2017-10-01T07:09:06Z</time>
      </trkpt>
      <trkpt lat="45.77153" lon="4.67122">
        <ele>365.5</ele>
        <time>2017-10-01T07:09:10Z</time>
      </trkpt>
      <trkpt lat="45.77153" lon="4.67113">
        <ele>365.7</ele>
        <time>2017-10-01T07:09:11Z</time>
      </trkpt>
      <trkpt lat="45.77158" lon="4.67087">
        <ele>366.1</ele>
        <time>2017-10-01T07:09:14Z</time>
      </trkpt>
      <trkpt lat="45.77169" lon="4.6704">
        <ele>367.1</ele>
        <time>2017-10-01T07:09:20Z</time>
      </trkpt>
      <trkpt lat="45.77182" lon="4.66994">
        <ele>367.7</ele>
        <time>2017-10-01T07:09:27Z</time>
      </trkpt>
      <trkpt lat="45.77184" lon="4.66988">
        <ele>367.8</ele>
        <time>2017-10-01T07:09:28Z</time>
      </trkpt>
      <trkpt lat="45.77194" lon="4.66959">
        <ele>368.3</ele>
        <time>2017-10-01T07:09:33Z</time>
      </trkpt>
      <trkpt lat="45.77207" lon="4.66919">
        <ele>369.4</ele>
        <time>2017-10-01T07:09:40Z</time>
      </trkpt>
      <trkpt lat="45.77209" lon="4.66913">
        <ele>369.6</ele>
        <time>2017-10-01T07:09:41Z</time>
      </trkpt>
      <trkpt lat="45.77223" lon="4.66876">
        <ele>370.4</ele>
        <time>2017-10-01T07:09:47Z</time>
      </trkpt>
      <trkpt lat="45.77242" lon="4.66835">
        <ele>371.8</ele>
        <time>2017-10-01T07:09:53Z</time>
      </trkpt>
      <trkpt lat="45.7725" lon="4.66813">
        <ele>372.9</ele>
        <time>2017-10-01T07:09:56Z</time>
      </trkpt>
      <trkpt lat="45.77254" lon="4.66794">
        <ele>373.6</ele>
        <time>2017-10-01T07:09:59Z</time>
      </trkpt>
      <trkpt lat="45.77256" lon="4.66789">
        <ele>374</ele>
        <time>2017-10-01T07:10:00Z</time>
      </trkpt>
      <trkpt lat="45.77264" lon="4.66783">
        <ele>374</ele>
        <time>2017-10-01T07:10:03Z</time>
      </trkpt>
      <trkpt lat="45.77271" lon="4.66784">
        <ele>374</ele>
        <time>2017-10-01T07:10:06Z</time>
      </trkpt>
      <trkpt lat="45.77274" lon="4.66783">
        <ele>374</ele>
        <time>2017-10-01T07:10:07Z</time>
      </trkpt>
      <trkpt lat="45.77281" lon="4.66783">
        <ele>374.2</ele>
        <time>2017-10-01T07:10:10Z</time>
      </trkpt>
      <trkpt lat="45.77288" lon="4.66783">
        <ele>374.3</ele>
        <time>2017-10-01T07:10:13Z</time>
      </trkpt>
      <trkpt lat="45.77293" lon="4.66783">
        <ele>374.1</ele>
        <time>2017-10-01T07:10:15Z</time>
      </trkpt>
      <trkpt lat="45.77295" lon="4.66783">
        <ele>374</ele>
        <time>2017-10-01T07:10:16Z</time>
      </trkpt>
      <trkpt lat="45.773" lon="4.66783">
        <ele>373.6</ele>
        <time>2017-10-01T07:10:18Z</time>
      </trkpt>
      <trkpt lat="45.77305" lon="4.66783">
        <ele>373.4</ele>
        <time>2017-10-01T07:10:21Z</time>
      </trkpt>
      <trkpt lat="45.77304" lon="4.66782">
        <ele>373.4</ele>
        <time>2017-10-01T07:10:23Z</time>
      </trkpt>
      <trkpt lat="45.77293" lon="4.66784">
        <ele>374.1</ele>
        <time>2017-10-01T07:10:27Z</time>
      </trkpt>
      <trkpt lat="45.77288" lon="4.66781">
        <ele>374.3</ele>
        <time>2017-10-01T07:10:29Z</time>
      </trkpt>
      <trkpt lat="45.77286" lon="4.66779">
        <ele>374.3</ele>
        <time>2017-10-01T07:10:30Z</time>
      </trkpt>
      <trkpt lat="45.77285" lon="4.66775">
        <ele>375.6</ele>
        <time>2017-10-01T07:10:32Z</time>
      </trkpt>
      <trkpt lat="45.77286" lon="4.66769">
        <ele>375.9</ele>
        <time>2017-10-01T07:10:34Z</time>
      </trkpt>
      <trkpt lat="45.77289" lon="4.66757">
        <ele>376.3</ele>
        <time>2017-10-01T07:10:37Z</time>
      </trkpt>
      <trkpt lat="45.77291" lon="4.66748">
        <ele>376.6</ele>
        <time>2017-10-01T07:10:39Z</time>
      </trkpt>
      <trkpt lat="45.77295" lon="4.66722">
        <ele>377.5</ele>
        <time>2017-10-01T07:10:45Z</time>
      </trkpt>
      <trkpt lat="45.77303" lon="4.66688">
        <ele>379.5</ele>
        <time>2017-10-01T07:10:52Z</time>
      </trkpt>
      <trkpt lat="45.77299" lon="4.66661">
        <ele>380.4</ele>
        <time>2017-10-01T07:10:57Z</time>
      </trkpt>
      <trkpt lat="45.77297" lon="4.66652">
        <ele>380.7</ele>
        <time>2017-10-01T07:10:59Z</time>
      </trkpt>
      <trkpt lat="45.77293" lon="4.6662">
        <ele>383.2</ele>
        <time>2017-10-01T07:11:06Z</time>
      </trkpt>
      <trkpt lat="45.77296" lon="4.66613">
        <ele>383.5</ele>
        <time>2017-10-01T07:11:09Z</time>
      </trkpt>
      <trkpt lat="45.77298" lon="4.66611">
        <ele>383.6</ele>
        <time>2017-10-01T07:11:10Z</time>
      </trkpt>
      <trkpt lat="45.773" lon="4.6661">
        <ele>383.7</ele>
        <time>2017-10-01T07:11:11Z</time>
      </trkpt>
      <trkpt lat="45.77305" lon="4.66608">
        <ele>384</ele>
        <time>2017-10-01T07:11:13Z</time>
      </trkpt>
      <trkpt lat="45.77315" lon="4.66603">
        <ele>384.8</ele>
        <time>2017-10-01T07:11:17Z</time>
      </trkpt>
      <trkpt lat="45.77323" lon="4.66599">
        <ele>385.7</ele>
        <time>2017-10-01T07:11:21Z</time>
      </trkpt>
      <trkpt lat="45.77326" lon="4.66599">
        <ele>386.1</ele>
        <time>2017-10-01T07:11:23Z</time>
      </trkpt>
      <trkpt lat="45.7733" lon="4.66598">
        <ele>386.8</ele>
        <time>2017-10-01T07:11:25Z</time>
      </trkpt>
      <trkpt lat="45.77336" lon="4.66595">
        <ele>387.9</ele>
        <time>2017-10-01T07:11:29Z</time>
      </trkpt>
      <trkpt lat="45.77337" lon="4.66594">
        <ele>388.3</ele>
        <time>2017-10-01T07:11:30Z</time>
      </trkpt>
      <trkpt lat="45.77345" lon="4.66589">
        <ele>391.3</ele>
        <time>2017-10-01T07:11:36Z</time>
      </trkpt>
      <trkpt lat="45.77347" lon="4.66587">
        <ele>391.9</ele>
        <time>2017-10-01T07:11:37Z</time>
      </trkpt>
      <trkpt lat="45.77348" lon="4.66585">
        <ele>392.4</ele>
        <time>2017-10-01T07:11:38Z</time>
      </trkpt>
      <trkpt lat="45.77347" lon="4.6658">
        <ele>393.6</ele>
        <time>2017-10-01T07:11:41Z</time>
      </trkpt>
      <trkpt lat="45.77345" lon="4.66576">
        <ele>394.5</ele>
        <time>2017-10-01T07:11:44Z</time>
      </trkpt>
      <trkpt lat="45.77343" lon="4.66571">
        <ele>395.3</ele>
        <time>2017-10-01T07:11:47Z</time>
      </trkpt>
      <trkpt lat="45.77342" lon="4.66566">
        <ele>395.9</ele>
        <time>2017-10-01T07:11:51Z</time>
      </trkpt>
      <trkpt lat="45.77342" lon="4.66565">
        <ele>396.1</ele>
        <time>2017-10-01T07:11:52Z</time>
      </trkpt>
      <trkpt lat="45.77343" lon="4.66564">
        <ele>396.2</ele>
        <time>2017-10-01T07:11:53Z</time>
      </trkpt>
      <trkpt lat="45.77352" lon="4.66542">
        <ele>398.4</ele>
        <time>2017-10-01T07:12:22Z</time>
      </trkpt>
      <trkpt lat="45.77353" lon="4.66537">
        <ele>398.8</ele>
        <time>2017-10-01T07:12:24Z</time>
      </trkpt>
      <trkpt lat="45.77353" lon="4.66533">
        <ele>399.1</ele>
        <time>2017-10-01T07:12:26Z</time>
      </trkpt>
      <trkpt lat="45.77355" lon="4.66523">
        <ele>400</ele>
        <time>2017-10-01T07:12:31Z</time>
      </trkpt>
      <trkpt lat="45.77355" lon="4.6652">
        <ele>400.1</ele>
        <time>2017-10-01T07:12:32Z</time>
      </trkpt>
      <trkpt lat="45.77358" lon="4.66512">
        <ele>400.8</ele>
        <time>2017-10-01T07:12:36Z</time>
      </trkpt>
      <trkpt lat="45.77359" lon="4.66504">
        <ele>401.5</ele>
        <time>2017-10-01T07:12:40Z</time>
      </trkpt>
      <trkpt lat="45.77361" lon="4.665">
        <ele>401.8</ele>
        <time>2017-10-01T07:12:42Z</time>
      </trkpt>
      <trkpt lat="45.77362" lon="4.66491">
        <ele>402.5</ele>
        <time>2017-10-01T07:12:46Z</time>
      </trkpt>
      <trkpt lat="45.77365" lon="4.66485">
        <ele>403</ele>
        <time>2017-10-01T07:12:49Z</time>
      </trkpt>
      <trkpt lat="45.77366" lon="4.66483">
        <ele>403.1</ele>
        <time>2017-10-01T07:12:50Z</time>
      </trkpt>
      <trkpt lat="45.77366" lon="4.66481">
        <ele>403.3</ele>
        <time>2017-10-01T07:12:51Z</time>
      </trkpt>
      <trkpt lat="45.77367" lon="4.66477">
        <ele>403.5</ele>
        <time>2017-10-01T07:12:53Z</time>
      </trkpt>
      <trkpt lat="45.77367" lon="4.66476">
        <ele>403.6</ele>
        <time>2017-10-01T07:12:54Z</time>
      </trkpt>
      <trkpt lat="45.77368" lon="4.66474">
        <ele>403.7</ele>
        <time>2017-10-01T07:12:55Z</time>
      </trkpt>
      <trkpt lat="45.77371" lon="4.66466">
        <ele>404.4</ele>
        <time>2017-10-01T07:12:59Z</time>
      </trkpt>
      <trkpt lat="45.77371" lon="4.66462">
        <ele>404.6</ele>
        <time>2017-10-01T07:13:01Z</time>
      </trkpt>
      <trkpt lat="45.77374" lon="4.66454">
        <ele>405.2</ele>
        <time>2017-10-01T07:13:06Z</time>
      </trkpt>
      <trkpt lat="45.77376" lon="4.66446">
        <ele>405.7</ele>
        <time>2017-10-01T07:13:10Z</time>
      </trkpt>
      <trkpt lat="45.77379" lon="4.66435">
        <ele>406.6</ele>
        <time>2017-10-01T07:13:15Z</time>
      </trkpt>
      <trkpt lat="45.7738" lon="4.6643">
        <ele>406.9</ele>
        <time>2017-10-01T07:13:17Z</time>
      </trkpt>
      <trkpt lat="45.77383" lon="4.66415">
        <ele>408.1</ele>
        <time>2017-10-01T07:13:24Z</time>
      </trkpt>
      <trkpt lat="45.77384" lon="4.66413">
        <ele>408.3</ele>
        <time>2017-10-01T07:13:25Z</time>
      </trkpt>
      <trkpt lat="45.77387" lon="4.66403">
        <ele>409.1</ele>
        <time>2017-10-01T07:13:30Z</time>
      </trkpt>
      <trkpt lat="45.77391" lon="4.66384">
        <ele>410.4</ele>
        <time>2017-10-01T07:13:39Z</time>
      </trkpt>
      <trkpt lat="45.77393" lon="4.66368">
        <ele>411</ele>
        <time>2017-10-01T07:13:45Z</time>
      </trkpt>
      <trkpt lat="45.77393" lon="4.66366">
        <ele>411.1</ele>
        <time>2017-10-01T07:13:46Z</time>
      </trkpt>
      <trkpt lat="45.77394" lon="4.66361">
        <ele>411.3</ele>
        <time>2017-10-01T07:13:48Z</time>
      </trkpt>
      <trkpt lat="45.77395" lon="4.66348">
        <ele>412</ele>
        <time>2017-10-01T07:13:54Z</time>
      </trkpt>
      <trkpt lat="45.77395" lon="4.66345">
        <ele>412.1</ele>
        <time>2017-10-01T07:13:55Z</time>
      </trkpt>
      <trkpt lat="45.77396" lon="4.66324">
        <ele>413.3</ele>
        <time>2017-10-01T07:14:03Z</time>
      </trkpt>
      <trkpt lat="45.77396" lon="4.66322">
        <ele>413.3</ele>
        <time>2017-10-01T07:14:04Z</time>
      </trkpt>
      <trkpt lat="45.77392" lon="4.66311">
        <ele>414</ele>
        <time>2017-10-01T07:14:08Z</time>
      </trkpt>
      <trkpt lat="45.77385" lon="4.66292">
        <ele>414</ele>
        <time>2017-10-01T07:14:14Z</time>
      </trkpt>
      <trkpt lat="45.77382" lon="4.66277">
        <ele>414.3</ele>
        <time>2017-10-01T07:14:19Z</time>
      </trkpt>
      <trkpt lat="45.77381" lon="4.66274">
        <ele>414.5</ele>
        <time>2017-10-01T07:14:20Z</time>
      </trkpt>
      <trkpt lat="45.77378" lon="4.66254">
        <ele>415.6</ele>
        <time>2017-10-01T07:14:26Z</time>
      </trkpt>
      <trkpt lat="45.77377" lon="4.66251">
        <ele>415.8</ele>
        <time>2017-10-01T07:14:27Z</time>
      </trkpt>
      <trkpt lat="45.77369" lon="4.66237">
        <ele>416.6</ele>
        <time>2017-10-01T07:14:32Z</time>
      </trkpt>
      <trkpt lat="45.77353" lon="4.66223">
        <ele>417.6</ele>
        <time>2017-10-01T07:14:38Z</time>
      </trkpt>
      <trkpt lat="45.77348" lon="4.66209">
        <ele>417.9</ele>
        <time>2017-10-01T07:14:43Z</time>
      </trkpt>
      <trkpt lat="45.77347" lon="4.66207">
        <ele>418</ele>
        <time>2017-10-01T07:14:44Z</time>
      </trkpt>
      <trkpt lat="45.77344" lon="4.66211">
        <ele>418</ele>
        <time>2017-10-01T07:14:47Z</time>
      </trkpt>
      <trkpt lat="45.77347" lon="4.66212">
        <ele>418.1</ele>
        <time>2017-10-01T07:14:50Z</time>
      </trkpt>
      <trkpt lat="45.77345" lon="4.66204">
        <ele>418.2</ele>
        <time>2017-10-01T07:14:53Z</time>
      </trkpt>
      <trkpt lat="45.77345" lon="4.66182">
        <ele>418.5</ele>
        <time>2017-10-01T07:15:00Z</time>
      </trkpt>
      <trkpt lat="45.77345" lon="4.66173">
        <ele>418.7</ele>
        <time>2017-10-01T07:15:03Z</time>
      </trkpt>
      <trkpt lat="45.77346" lon="4.6617">
        <ele>418.8</ele>
        <time>2017-10-01T07:15:04Z</time>
      </trkpt>
      <trkpt lat="45.77347" lon="4.6616">
        <ele>419</ele>
        <time>2017-10-01T07:15:07Z</time>
      </trkpt>
      <trkpt lat="45.77347" lon="4.66157">
        <ele>419.2</ele>
        <time>2017-10-01T07:15:08Z</time>
      </trkpt>
      <trkpt lat="45.77345" lon="4.66138">
        <ele>419.8</ele>
        <time>2017-10-01T07:15:14Z</time>
      </trkpt>
      <trkpt lat="45.77344" lon="4.66134">
        <ele>420</ele>
        <time>2017-10-01T07:15:15Z</time>
      </trkpt>
      <trkpt lat="45.7734" lon="4.66113">
        <ele>420.9</ele>
        <time>2017-10-01T07:15:19Z</time>
      </trkpt>
      <trkpt lat="45.77338" lon="4.66097">
        <ele>421.6</ele>
        <time>2017-10-01T07:15:21Z</time>
      </trkpt>
      <trkpt lat="45.77338" lon="4.66079">
        <ele>422.3</ele>
        <time>2017-10-01T07:15:23Z</time>
      </trkpt>
      <trkpt lat="45.77342" lon="4.66064">
        <ele>422.8</ele>
        <time>2017-10-01T07:15:26Z</time>
      </trkpt>
      <trkpt lat="45.77349" lon="4.66046">
        <ele>423.3</ele>
        <time>2017-10-01T07:15:32Z</time>
      </trkpt>
      <trkpt lat="45.7735" lon="4.66044">
        <ele>423.4</ele>
        <time>2017-10-01T07:15:33Z</time>
      </trkpt>
      <trkpt lat="45.77352" lon="4.66028">
        <ele>424.2</ele>
        <time>2017-10-01T07:15:39Z</time>
      </trkpt>
      <trkpt lat="45.77349" lon="4.6601">
        <ele>425.5</ele>
        <time>2017-10-01T07:15:44Z</time>
      </trkpt>
      <trkpt lat="45.77342" lon="4.65986">
        <ele>427.1</ele>
        <time>2017-10-01T07:15:50Z</time>
      </trkpt>
      <trkpt lat="45.7733" lon="4.65973">
        <ele>428.1</ele>
        <time>2017-10-01T07:15:55Z</time>
      </trkpt>
      <trkpt lat="45.77324" lon="4.65971">
        <ele>428.4</ele>
        <time>2017-10-01T07:15:57Z</time>
      </trkpt>
      <trkpt lat="45.77313" lon="4.65965">
        <ele>429.1</ele>
        <time>2017-10-01T07:16:01Z</time>
      </trkpt>
      <trkpt lat="45.773" lon="4.65958">
        <ele>430.1</ele>
        <time>2017-10-01T07:16:06Z</time>
      </trkpt>
      <trkpt lat="45.77297" lon="4.65956">
        <ele>430.3</ele>
        <time>2017-10-01T07:16:07Z</time>
      </trkpt>
      <trkpt lat="45.77289" lon="4.6595">
        <ele>430.8</ele>
        <time>2017-10-01T07:16:10Z</time>
      </trkpt>
      <trkpt lat="45.77282" lon="4.65943">
        <ele>431.2</ele>
        <time>2017-10-01T07:16:13Z</time>
      </trkpt>
      <trkpt lat="45.77276" lon="4.65935">
        <ele>431.5</ele>
        <time>2017-10-01T07:16:16Z</time>
      </trkpt>
      <trkpt lat="45.77273" lon="4.65927">
        <ele>431.7</ele>
        <time>2017-10-01T07:16:19Z</time>
      </trkpt>
      <trkpt lat="45.77272" lon="4.65924">
        <ele>431.7</ele>
        <time>2017-10-01T07:16:20Z</time>
      </trkpt>
      <trkpt lat="45.77269" lon="4.65915">
        <ele>431.9</ele>
        <time>2017-10-01T07:16:23Z</time>
      </trkpt>
      <trkpt lat="45.77268" lon="4.65906">
        <ele>432</ele>
        <time>2017-10-01T07:16:26Z</time>
      </trkpt>
      <trkpt lat="45.77268" lon="4.65902">
        <ele>432</ele>
        <time>2017-10-01T07:16:27Z</time>
      </trkpt>
      <trkpt lat="45.77267" lon="4.65893">
        <ele>432</ele>
        <time>2017-10-01T07:16:30Z</time>
      </trkpt>
      <trkpt lat="45.77265" lon="4.65885">
        <ele>432</ele>
        <time>2017-10-01T07:16:33Z</time>
      </trkpt>
      <trkpt lat="45.77265" lon="4.65882">
        <ele>432</ele>
        <time>2017-10-01T07:16:34Z</time>
      </trkpt>
      <trkpt lat="45.77264" lon="4.65868">
        <ele>432</ele>
        <time>2017-10-01T07:16:39Z</time>
      </trkpt>
      <trkpt lat="45.77264" lon="4.65865">
        <ele>432</ele>
        <time>2017-10-01T07:16:40Z</time>
      </trkpt>
      <trkpt lat="45.77265" lon="4.65855">
        <ele>432</ele>
        <time>2017-10-01T07:16:46Z</time>
      </trkpt>
      <trkpt lat="45.77265" lon="4.65854">
        <ele>432</ele>
        <time>2017-10-01T07:16:47Z</time>
      </trkpt>
      <trkpt lat="45.77262" lon="4.65854">
        <ele>432</ele>
        <time>2017-10-01T07:17:22Z</time>
      </trkpt>
      <trkpt lat="45.7726" lon="4.65855">
        <ele>431.9</ele>
        <time>2017-10-01T07:17:23Z</time>
      </trkpt>
      <trkpt lat="45.77252" lon="4.65859">
        <ele>431.6</ele>
        <time>2017-10-01T07:17:26Z</time>
      </trkpt>
      <trkpt lat="45.77248" lon="4.65862">
        <ele>431.4</ele>
        <time>2017-10-01T07:17:27Z</time>
      </trkpt>
      <trkpt lat="45.77244" lon="4.65865">
        <ele>431.1</ele>
        <time>2017-10-01T07:17:28Z</time>
      </trkpt>
      <trkpt lat="45.77234" lon="4.65872">
        <ele>430.5</ele>
        <time>2017-10-01T07:17:30Z</time>
      </trkpt>
      <trkpt lat="45.7723" lon="4.65875">
        <ele>430.3</ele>
        <time>2017-10-01T07:17:31Z</time>
      </trkpt>
      <trkpt lat="45.77226" lon="4.65876">
        <ele>430.1</ele>
        <time>2017-10-01T07:17:32Z</time>
      </trkpt>
      <trkpt lat="45.77222" lon="4.6587">
        <ele>429.8</ele>
        <time>2017-10-01T07:17:34Z</time>
      </trkpt>
      <trkpt lat="45.77217" lon="4.65861">
        <ele>429.2</ele>
        <time>2017-10-01T07:17:36Z</time>
      </trkpt>
      <trkpt lat="45.77214" lon="4.65855">
        <ele>428.8</ele>
        <time>2017-10-01T07:17:37Z</time>
      </trkpt>
      <trkpt lat="45.77211" lon="4.6585">
        <ele>428.4</ele>
        <time>2017-10-01T07:17:38Z</time>
      </trkpt>
      <trkpt lat="45.77205" lon="4.6584">
        <ele>427.6</ele>
        <time>2017-10-01T07:17:40Z</time>
      </trkpt>
      <trkpt lat="45.77199" lon="4.65831">
        <ele>426.7</ele>
        <time>2017-10-01T07:17:42Z</time>
      </trkpt>
      <trkpt lat="45.77194" lon="4.65829">
        <ele>426.3</ele>
        <time>2017-10-01T07:17:43Z</time>
      </trkpt>
      <trkpt lat="45.7719" lon="4.65827">
        <ele>425.9</ele>
        <time>2017-10-01T07:17:44Z</time>
      </trkpt>
      <trkpt lat="45.77185" lon="4.65825">
        <ele>425.5</ele>
        <time>2017-10-01T07:17:45Z</time>
      </trkpt>
      <trkpt lat="45.77182" lon="4.65821">
        <ele>424.9</ele>
        <time>2017-10-01T07:17:46Z</time>
      </trkpt>
      <trkpt lat="45.77179" lon="4.65815">
        <ele>424.4</ele>
        <time>2017-10-01T07:17:47Z</time>
      </trkpt>
      <trkpt lat="45.77177" lon="4.65808">
        <ele>423.8</ele>
        <time>2017-10-01T07:17:48Z</time>
      </trkpt>
      <trkpt lat="45.77175" lon="4.65792">
        <ele>423</ele>
        <time>2017-10-01T07:17:50Z</time>
      </trkpt>
      <trkpt lat="45.77174" lon="4.65784">
        <ele>422.6</ele>
        <time>2017-10-01T07:17:51Z</time>
      </trkpt>
      <trkpt lat="45.77173" lon="4.65775">
        <ele>422</ele>
        <time>2017-10-01T07:17:52Z</time>
      </trkpt>
      <trkpt lat="45.77172" lon="4.65766">
        <ele>421.4</ele>
        <time>2017-10-01T07:17:53Z</time>
      </trkpt>
      <trkpt lat="45.77171" lon="4.65758">
        <ele>420.8</ele>
        <time>2017-10-01T07:17:54Z</time>
      </trkpt>
      <trkpt lat="45.77169" lon="4.65743">
        <ele>420</ele>
        <time>2017-10-01T07:17:56Z</time>
      </trkpt>
      <trkpt lat="45.77164" lon="4.65735">
        <ele>419.5</ele>
        <time>2017-10-01T07:17:58Z</time>
      </trkpt>
      <trkpt lat="45.77162" lon="4.65734">
        <ele>419.3</ele>
        <time>2017-10-01T07:17:59Z</time>
      </trkpt>
      <trkpt lat="45.77159" lon="4.65735">
        <ele>419.1</ele>
        <time>2017-10-01T07:18:00Z</time>
      </trkpt>
      <trkpt lat="45.77154" lon="4.65746">
        <ele>418.4</ele>
        <time>2017-10-01T07:18:02Z</time>
      </trkpt>
      <trkpt lat="45.77149" lon="4.65762">
        <ele>417.7</ele>
        <time>2017-10-01T07:18:04Z</time>
      </trkpt>
      <trkpt lat="45.77145" lon="4.65779">
        <ele>416.8</ele>
        <time>2017-10-01T07:18:06Z</time>
      </trkpt>
      <trkpt lat="45.77137" lon="4.65786">
        <ele>416</ele>
        <time>2017-10-01T07:18:08Z</time>
      </trkpt>
      <trkpt lat="45.77126" lon="4.65785">
        <ele>415</ele>
        <time>2017-10-01T07:18:10Z</time>
      </trkpt>
      <trkpt lat="45.7712" lon="4.65784">
        <ele>415</ele>
        <time>2017-10-01T07:18:11Z</time>
      </trkpt>
      <trkpt lat="45.77114" lon="4.65784">
        <ele>415</ele>
        <time>2017-10-01T07:18:12Z</time>
      </trkpt>
      <trkpt lat="45.77104" lon="4.65783">
        <ele>415</ele>
        <time>2017-10-01T07:18:15Z</time>
      </trkpt>
      <trkpt lat="45.77104" lon="4.65776">
        <ele>415.9</ele>
        <time>2017-10-01T07:18:18Z</time>
      </trkpt>
      <trkpt lat="45.77104" lon="4.65768">
        <ele>416.5</ele>
        <time>2017-10-01T07:18:20Z</time>
      </trkpt>
      <trkpt lat="45.77106" lon="4.65748">
        <ele>418.7</ele>
        <time>2017-10-01T07:18:24Z</time>
      </trkpt>
      <trkpt lat="45.77107" lon="4.65737">
        <ele>419.5</ele>
        <time>2017-10-01T07:18:26Z</time>
      </trkpt>
      <trkpt lat="45.77107" lon="4.65721">
        <ele>421.1</ele>
        <time>2017-10-01T07:18:29Z</time>
      </trkpt>
      <trkpt lat="45.77108" lon="4.6571">
        <ele>421.8</ele>
        <time>2017-10-01T07:18:31Z</time>
      </trkpt>
      <trkpt lat="45.77108" lon="4.65706">
        <ele>422</ele>
        <time>2017-10-01T07:18:32Z</time>
      </trkpt>
      <trkpt lat="45.77109" lon="4.65693">
        <ele>422.5</ele>
        <time>2017-10-01T07:18:35Z</time>
      </trkpt>
      <trkpt lat="45.7711" lon="4.65685">
        <ele>422.9</ele>
        <time>2017-10-01T07:18:37Z</time>
      </trkpt>
      <trkpt lat="45.77112" lon="4.65676">
        <ele>422.8</ele>
        <time>2017-10-01T07:18:39Z</time>
      </trkpt>
      <trkpt lat="45.77115" lon="4.6566">
        <ele>424.3</ele>
        <time>2017-10-01T07:18:43Z</time>
      </trkpt>
      <trkpt lat="45.77116" lon="4.65651">
        <ele>425.1</ele>
        <time>2017-10-01T07:18:45Z</time>
      </trkpt>
      <trkpt lat="45.77118" lon="4.65627">
        <ele>427.9</ele>
        <time>2017-10-01T07:18:50Z</time>
      </trkpt>
      <trkpt lat="45.77123" lon="4.65608">
        <ele>429</ele>
        <time>2017-10-01T07:18:55Z</time>
      </trkpt>
      <trkpt lat="45.77127" lon="4.65587">
        <ele>431</ele>
        <time>2017-10-01T07:19:00Z</time>
      </trkpt>
      <trkpt lat="45.7713" lon="4.65565">
        <ele>432.9</ele>
        <time>2017-10-01T07:19:06Z</time>
      </trkpt>
      <trkpt lat="45.7713" lon="4.65561">
        <ele>433.3</ele>
        <time>2017-10-01T07:19:07Z</time>
      </trkpt>
      <trkpt lat="45.77133" lon="4.65547">
        <ele>434.4</ele>
        <time>2017-10-01T07:19:11Z</time>
      </trkpt>
      <trkpt lat="45.77134" lon="4.65543">
        <ele>434.8</ele>
        <time>2017-10-01T07:19:12Z</time>
      </trkpt>
      <trkpt lat="45.77139" lon="4.65521">
        <ele>435.8</ele>
        <time>2017-10-01T07:19:17Z</time>
      </trkpt>
      <trkpt lat="45.77142" lon="4.65514">
        <ele>436</ele>
        <time>2017-10-01T07:19:19Z</time>
      </trkpt>
      <trkpt lat="45.77143" lon="4.6551">
        <ele>436.1</ele>
        <time>2017-10-01T07:19:20Z</time>
      </trkpt>
      <trkpt lat="45.77145" lon="4.655">
        <ele>436.3</ele>
        <time>2017-10-01T07:19:23Z</time>
      </trkpt>
      <trkpt lat="45.77147" lon="4.65493">
        <ele>436.5</ele>
        <time>2017-10-01T07:19:25Z</time>
      </trkpt>
      <trkpt lat="45.77149" lon="4.65487">
        <ele>436.6</ele>
        <time>2017-10-01T07:19:27Z</time>
      </trkpt>
      <trkpt lat="45.77151" lon="4.6548">
        <ele>436.7</ele>
        <time>2017-10-01T07:19:29Z</time>
      </trkpt>
      <trkpt lat="45.77153" lon="4.65475">
        <ele>437.4</ele>
        <time>2017-10-01T07:19:31Z</time>
      </trkpt>
      <trkpt lat="45.77156" lon="4.65473">
        <ele>437.9</ele>
        <time>2017-10-01T07:19:32Z</time>
      </trkpt>
      <trkpt lat="45.77159" lon="4.65468">
        <ele>438.5</ele>
        <time>2017-10-01T07:19:34Z</time>
      </trkpt>
      <trkpt lat="45.77163" lon="4.6546">
        <ele>439.7</ele>
        <time>2017-10-01T07:19:37Z</time>
      </trkpt>
      <trkpt lat="45.77167" lon="4.65452">
        <ele>441.2</ele>
        <time>2017-10-01T07:19:40Z</time>
      </trkpt>
      <trkpt lat="45.77169" lon="4.65449">
        <ele>442.1</ele>
        <time>2017-10-01T07:19:41Z</time>
      </trkpt>
      <trkpt lat="45.77172" lon="4.65439">
        <ele>444</ele>
        <time>2017-10-01T07:19:44Z</time>
      </trkpt>
      <trkpt lat="45.77176" lon="4.65432">
        <ele>445.2</ele>
        <time>2017-10-01T07:19:47Z</time>
      </trkpt>
      <trkpt lat="45.77182" lon="4.65422">
        <ele>445.7</ele>
        <time>2017-10-01T07:19:51Z</time>
      </trkpt>
      <trkpt lat="45.77184" lon="4.6542">
        <ele>445.8</ele>
        <time>2017-10-01T07:19:52Z</time>
      </trkpt>
      <trkpt lat="45.77186" lon="4.65416">
        <ele>446.3</ele>
        <time>2017-10-01T07:19:54Z</time>
      </trkpt>
      <trkpt lat="45.77188" lon="4.65412">
        <ele>446.2</ele>
        <time>2017-10-01T07:19:56Z</time>
      </trkpt>
      <trkpt lat="45.7719" lon="4.65405">
        <ele>446.1</ele>
        <time>2017-10-01T07:19:59Z</time>
      </trkpt>
      <trkpt lat="45.77201" lon="4.65387">
        <ele>445.9</ele>
        <time>2017-10-01T07:20:07Z</time>
      </trkpt>
      <trkpt lat="45.7721" lon="4.65375">
        <ele>446.5</ele>
        <time>2017-10-01T07:20:14Z</time>
      </trkpt>
      <trkpt lat="45.77217" lon="4.65363">
        <ele>447</ele>
        <time>2017-10-01T07:20:21Z</time>
      </trkpt>
      <trkpt lat="45.77218" lon="4.65361">
        <ele>447</ele>
        <time>2017-10-01T07:20:22Z</time>
      </trkpt>
      <trkpt lat="45.77225" lon="4.65349">
        <ele>447.6</ele>
        <time>2017-10-01T07:20:29Z</time>
      </trkpt>
      <trkpt lat="45.77226" lon="4.65344">
        <ele>448.2</ele>
        <time>2017-10-01T07:20:31Z</time>
      </trkpt>
      <trkpt lat="45.77227" lon="4.65339">
        <ele>448.5</ele>
        <time>2017-10-01T07:20:33Z</time>
      </trkpt>
      <trkpt lat="45.77228" lon="4.65337">
        <ele>448.6</ele>
        <time>2017-10-01T07:20:34Z</time>
      </trkpt>
      <trkpt lat="45.77231" lon="4.65332">
        <ele>448.7</ele>
        <time>2017-10-01T07:20:37Z</time>
      </trkpt>
      <trkpt lat="45.77232" lon="4.6533">
        <ele>448.9</ele>
        <time>2017-10-01T07:20:38Z</time>
      </trkpt>
      <trkpt lat="45.77236" lon="4.65324">
        <ele>449.1</ele>
        <time>2017-10-01T07:20:41Z</time>
      </trkpt>
      <trkpt lat="45.77241" lon="4.65316">
        <ele>449.8</ele>
        <time>2017-10-01T07:20:45Z</time>
      </trkpt>
      <trkpt lat="45.77244" lon="4.65308">
        <ele>450.5</ele>
        <time>2017-10-01T07:20:49Z</time>
      </trkpt>
      <trkpt lat="45.77248" lon="4.65304">
        <ele>451.1</ele>
        <time>2017-10-01T07:20:52Z</time>
      </trkpt>
      <trkpt lat="45.77255" lon="4.65291">
        <ele>452.7</ele>
        <time>2017-10-01T07:20:58Z</time>
      </trkpt>
      <trkpt lat="45.77257" lon="4.65286">
        <ele>453.3</ele>
        <time>2017-10-01T07:21:00Z</time>
      </trkpt>
      <trkpt lat="45.77259" lon="4.65281">
        <ele>453.8</ele>
        <time>2017-10-01T07:21:02Z</time>
      </trkpt>
      <trkpt lat="45.77264" lon="4.65271">
        <ele>454</ele>
        <time>2017-10-01T07:21:05Z</time>
      </trkpt>
      <trkpt lat="45.77272" lon="4.65256">
        <ele>454.1</ele>
        <time>2017-10-01T07:21:10Z</time>
      </trkpt>
      <trkpt lat="45.77275" lon="4.6525">
        <ele>454.2</ele>
        <time>2017-10-01T07:21:12Z</time>
      </trkpt>
      <trkpt lat="45.77285" lon="4.65235">
        <ele>454.7</ele>
        <time>2017-10-01T07:21:18Z</time>
      </trkpt>
      <trkpt lat="45.77299" lon="4.65217">
        <ele>457.6</ele>
        <time>2017-10-01T07:21:25Z</time>
      </trkpt>
      <trkpt lat="45.7731" lon="4.65203">
        <ele>460.1</ele>
        <time>2017-10-01T07:21:30Z</time>
      </trkpt>
      <trkpt lat="45.77326" lon="4.6518">
        <ele>461.9</ele>
        <time>2017-10-01T07:21:36Z</time>
      </trkpt>
      <trkpt lat="45.77329" lon="4.65175">
        <ele>462.3</ele>
        <time>2017-10-01T07:21:37Z</time>
      </trkpt>
      <trkpt lat="45.77332" lon="4.6517">
        <ele>462.6</ele>
        <time>2017-10-01T07:21:38Z</time>
      </trkpt>
      <trkpt lat="45.77335" lon="4.65165">
        <ele>462.8</ele>
        <time>2017-10-01T07:21:39Z</time>
      </trkpt>
      <trkpt lat="45.77341" lon="4.65157">
        <ele>463.3</ele>
        <time>2017-10-01T07:21:41Z</time>
      </trkpt>
      <trkpt lat="45.77346" lon="4.65149">
        <ele>463.8</ele>
        <time>2017-10-01T07:21:43Z</time>
      </trkpt>
      <trkpt lat="45.77348" lon="4.65146">
        <ele>463.5</ele>
        <time>2017-10-01T07:21:44Z</time>
      </trkpt>
      <trkpt lat="45.77353" lon="4.65137">
        <ele>464.1</ele>
        <time>2017-10-01T07:21:47Z</time>
      </trkpt>
      <trkpt lat="45.77357" lon="4.65131">
        <ele>464.6</ele>
        <time>2017-10-01T07:21:49Z</time>
      </trkpt>
      <trkpt lat="45.77367" lon="4.65114">
        <ele>463.7</ele>
        <time>2017-10-01T07:21:56Z</time>
      </trkpt>
      <trkpt lat="45.77376" lon="4.65102">
        <ele>463.7</ele>
        <time>2017-10-01T07:22:03Z</time>
      </trkpt>
      <trkpt lat="45.77381" lon="4.65093">
        <ele>463.3</ele>
        <time>2017-10-01T07:22:09Z</time>
      </trkpt>
      <trkpt lat="45.77387" lon="4.65075">
        <ele>462.6</ele>
        <time>2017-10-01T07:22:21Z</time>
      </trkpt>
      <trkpt lat="45.77391" lon="4.65071">
        <ele>462.8</ele>
        <time>2017-10-01T07:22:23Z</time>
      </trkpt>
      <trkpt lat="45.77402" lon="4.6506">
        <ele>464.7</ele>
        <time>2017-10-01T07:22:30Z</time>
      </trkpt>
      <trkpt lat="45.77415" lon="4.65048">
        <ele>466.8</ele>
        <time>2017-10-01T07:22:38Z</time>
      </trkpt>
      <trkpt lat="45.77418" lon="4.65043">
        <ele>467.3</ele>
        <time>2017-10-01T07:22:41Z</time>
      </trkpt>
      <trkpt lat="45.77419" lon="4.65041">
        <ele>467.3</ele>
        <time>2017-10-01T07:22:42Z</time>
      </trkpt>
      <trkpt lat="45.7742" lon="4.65039">
        <ele>467.8</ele>
        <time>2017-10-01T07:22:43Z</time>
      </trkpt>
      <trkpt lat="45.77427" lon="4.65031">
        <ele>468.9</ele>
        <time>2017-10-01T07:22:47Z</time>
      </trkpt>
      <trkpt lat="45.77428" lon="4.65026">
        <ele>468.9</ele>
        <time>2017-10-01T07:22:49Z</time>
      </trkpt>
      <trkpt lat="45.77431" lon="4.6502">
        <ele>469.5</ele>
        <time>2017-10-01T07:22:51Z</time>
      </trkpt>
      <trkpt lat="45.77433" lon="4.65015">
        <ele>469.9</ele>
        <time>2017-10-01T07:22:53Z</time>
      </trkpt>
      <trkpt lat="45.77434" lon="4.65012">
        <ele>469.9</ele>
        <time>2017-10-01T07:22:54Z</time>
      </trkpt>
      <trkpt lat="45.77435" lon="4.65008">
        <ele>470.2</ele>
        <time>2017-10-01T07:22:55Z</time>
      </trkpt>
      <trkpt lat="45.77435" lon="4.65006">
        <ele>470.3</ele>
        <time>2017-10-01T07:22:56Z</time>
      </trkpt>
      <trkpt lat="45.77436" lon="4.65003">
        <ele>470.2</ele>
        <time>2017-10-01T07:22:57Z</time>
      </trkpt>
      <trkpt lat="45.77437" lon="4.65">
        <ele>470.1</ele>
        <time>2017-10-01T07:22:58Z</time>
      </trkpt>
      <trkpt lat="45.77438" lon="4.64994">
        <ele>470</ele>
        <time>2017-10-01T07:23:00Z</time>
      </trkpt>
      <trkpt lat="45.77439" lon="4.64988">
        <ele>470.5</ele>
        <time>2017-10-01T07:23:03Z</time>
      </trkpt>
      <trkpt lat="45.7744" lon="4.64983">
        <ele>470.5</ele>
        <time>2017-10-01T07:23:05Z</time>
      </trkpt>
      <trkpt lat="45.77442" lon="4.64978">
        <ele>471.1</ele>
        <time>2017-10-01T07:23:07Z</time>
      </trkpt>
      <trkpt lat="45.77444" lon="4.6497">
        <ele>471.3</ele>
        <time>2017-10-01T07:23:10Z</time>
      </trkpt>
      <trkpt lat="45.77445" lon="4.64968">
        <ele>471.8</ele>
        <time>2017-10-01T07:23:11Z</time>
      </trkpt>
      <trkpt lat="45.77445" lon="4.64963">
        <ele>471.8</ele>
        <time>2017-10-01T07:23:13Z</time>
      </trkpt>
      <trkpt lat="45.77446" lon="4.64952">
        <ele>472.3</ele>
        <time>2017-10-01T07:23:17Z</time>
      </trkpt>
      <trkpt lat="45.7745" lon="4.64935">
        <ele>474.4</ele>
        <time>2017-10-01T07:23:23Z</time>
      </trkpt>
      <trkpt lat="45.77456" lon="4.64918">
        <ele>476.8</ele>
        <time>2017-10-01T07:23:29Z</time>
      </trkpt>
      <trkpt lat="45.77458" lon="4.64916">
        <ele>476.8</ele>
        <time>2017-10-01T07:23:30Z</time>
      </trkpt>
      <trkpt lat="45.77464" lon="4.64902">
        <ele>479</ele>
        <time>2017-10-01T07:23:35Z</time>
      </trkpt>
      <trkpt lat="45.77466" lon="4.64897">
        <ele>479.7</ele>
        <time>2017-10-01T07:23:37Z</time>
      </trkpt>
      <trkpt lat="45.77468" lon="4.64894">
        <ele>479.7</ele>
        <time>2017-10-01T07:23:38Z</time>
      </trkpt>
      <trkpt lat="45.77473" lon="4.64884">
        <ele>481.2</ele>
        <time>2017-10-01T07:23:42Z</time>
      </trkpt>
      <trkpt lat="45.77474" lon="4.64881">
        <ele>481.2</ele>
        <time>2017-10-01T07:23:43Z</time>
      </trkpt>
      <trkpt lat="45.77475" lon="4.64873">
        <ele>482</ele>
        <time>2017-10-01T07:23:46Z</time>
      </trkpt>
      <trkpt lat="45.77476" lon="4.64869">
        <ele>482.1</ele>
        <time>2017-10-01T07:23:47Z</time>
      </trkpt>
      <trkpt lat="45.77478" lon="4.64865">
        <ele>482.6</ele>
        <time>2017-10-01T07:23:48Z</time>
      </trkpt>
      <trkpt lat="45.77478" lon="4.64861">
        <ele>482.7</ele>
        <time>2017-10-01T07:23:49Z</time>
      </trkpt>
      <trkpt lat="45.77479" lon="4.64858">
        <ele>482.7</ele>
        <time>2017-10-01T07:23:50Z</time>
      </trkpt>
      <trkpt lat="45.77479" lon="4.64853">
        <ele>482.7</ele>
        <time>2017-10-01T07:23:52Z</time>
      </trkpt>
      <trkpt lat="45.77481" lon="4.64843">
        <ele>483.5</ele>
        <time>2017-10-01T07:23:56Z</time>
      </trkpt>
      <trkpt lat="45.77481" lon="4.64841">
        <ele>483.8</ele>
        <time>2017-10-01T07:23:57Z</time>
      </trkpt>
      <trkpt lat="45.77486" lon="4.64827">
        <ele>486.3</ele>
        <time>2017-10-01T07:24:04Z</time>
      </trkpt>
      <trkpt lat="45.77488" lon="4.6482">
        <ele>487.7</ele>
        <time>2017-10-01T07:24:06Z</time>
      </trkpt>
      <trkpt lat="45.77489" lon="4.64812">
        <ele>489.7</ele>
        <time>2017-10-01T07:24:09Z</time>
      </trkpt>
      <trkpt lat="45.7749" lon="4.64804">
        <ele>490.2</ele>
        <time>2017-10-01T07:24:11Z</time>
      </trkpt>
      <trkpt lat="45.77491" lon="4.64796">
        <ele>491.2</ele>
        <time>2017-10-01T07:24:13Z</time>
      </trkpt>
      <trkpt lat="45.77491" lon="4.64792">
        <ele>491.7</ele>
        <time>2017-10-01T07:24:14Z</time>
      </trkpt>
      <trkpt lat="45.77492" lon="4.64784">
        <ele>493.3</ele>
        <time>2017-10-01T07:24:16Z</time>
      </trkpt>
      <trkpt lat="45.77492" lon="4.6478">
        <ele>493.7</ele>
        <time>2017-10-01T07:24:17Z</time>
      </trkpt>
      <trkpt lat="45.77492" lon="4.64774">
        <ele>494.2</ele>
        <time>2017-10-01T07:24:19Z</time>
      </trkpt>
      <trkpt lat="45.77492" lon="4.6477">
        <ele>494.8</ele>
        <time>2017-10-01T07:24:21Z</time>
      </trkpt>
      <trkpt lat="45.77479" lon="4.64751">
        <ele>495.4</ele>
        <time>2017-10-01T07:25:46Z</time>
      </trkpt>
      <trkpt lat="45.77476" lon="4.64747">
        <ele>495.4</ele>
        <time>2017-10-01T07:25:47Z</time>
      </trkpt>
      <trkpt lat="45.77474" lon="4.64744">
        <ele>495</ele>
        <time>2017-10-01T07:25:48Z</time>
      </trkpt>
      <trkpt lat="45.77471" lon="4.64741">
        <ele>495.1</ele>
        <time>2017-10-01T07:25:49Z</time>
      </trkpt>
      <trkpt lat="45.77468" lon="4.64738">
        <ele>495.3</ele>
        <time>2017-10-01T07:25:50Z</time>
      </trkpt>
      <trkpt lat="45.77462" lon="4.64731">
        <ele>495.5</ele>
        <time>2017-10-01T07:25:52Z</time>
      </trkpt>
      <trkpt lat="45.77458" lon="4.64724">
        <ele>496.2</ele>
        <time>2017-10-01T07:25:54Z</time>
      </trkpt>
      <trkpt lat="45.77456" lon="4.64721">
        <ele>496.6</ele>
        <time>2017-10-01T07:25:55Z</time>
      </trkpt>
      <trkpt lat="45.77447" lon="4.6471">
        <ele>497.8</ele>
        <time>2017-10-01T07:25:58Z</time>
      </trkpt>
      <trkpt lat="45.77444" lon="4.64706">
        <ele>498.4</ele>
        <time>2017-10-01T07:25:59Z</time>
      </trkpt>
      <trkpt lat="45.77441" lon="4.64704">
        <ele>498.9</ele>
        <time>2017-10-01T07:26:00Z</time>
      </trkpt>
      <trkpt lat="45.77437" lon="4.64704">
        <ele>498.9</ele>
        <time>2017-10-01T07:26:01Z</time>
      </trkpt>
      <trkpt lat="45.77426" lon="4.64703">
        <ele>499</ele>
        <time>2017-10-01T07:26:04Z</time>
      </trkpt>
      <trkpt lat="45.7742" lon="4.64701">
        <ele>499.4</ele>
        <time>2017-10-01T07:26:06Z</time>
      </trkpt>
      <trkpt lat="45.77402" lon="4.64696">
        <ele>501.2</ele>
        <time>2017-10-01T07:26:11Z</time>
      </trkpt>
      <trkpt lat="45.774" lon="4.64694">
        <ele>501.7</ele>
        <time>2017-10-01T07:26:12Z</time>
      </trkpt>
      <trkpt lat="45.77381" lon="4.64684">
        <ele>505.4</ele>
        <time>2017-10-01T07:26:19Z</time>
      </trkpt>
      <trkpt lat="45.7738" lon="4.64682">
        <ele>506.2</ele>
        <time>2017-10-01T07:26:20Z</time>
      </trkpt>
      <trkpt lat="45.77375" lon="4.64677">
        <ele>507.6</ele>
        <time>2017-10-01T07:26:23Z</time>
      </trkpt>
      <trkpt lat="45.77374" lon="4.64677">
        <ele>507.6</ele>
        <time>2017-10-01T07:26:24Z</time>
      </trkpt>
      <trkpt lat="45.77367" lon="4.64672">
        <ele>508.8</ele>
        <time>2017-10-01T07:26:30Z</time>
      </trkpt>
      <trkpt lat="45.77363" lon="4.6467">
        <ele>509.9</ele>
        <time>2017-10-01T07:26:32Z</time>
      </trkpt>
      <trkpt lat="45.77355" lon="4.64668">
        <ele>510.7</ele>
        <time>2017-10-01T07:26:36Z</time>
      </trkpt>
      <trkpt lat="45.77348" lon="4.64668">
        <ele>511.9</ele>
        <time>2017-10-01T07:26:40Z</time>
      </trkpt>
      <trkpt lat="45.77346" lon="4.64668">
        <ele>512</ele>
        <time>2017-10-01T07:26:41Z</time>
      </trkpt>
      <trkpt lat="45.77341" lon="4.64668">
        <ele>512.6</ele>
        <time>2017-10-01T07:26:44Z</time>
      </trkpt>
      <trkpt lat="45.77335" lon="4.64669">
        <ele>513.1</ele>
        <time>2017-10-01T07:26:48Z</time>
      </trkpt>
      <trkpt lat="45.77339" lon="4.64685">
        <ele>512</ele>
        <time>2017-10-01T07:27:01Z</time>
      </trkpt>
      <trkpt lat="45.77341" lon="4.64689">
        <ele>511.9</ele>
        <time>2017-10-01T07:27:03Z</time>
      </trkpt>
      <trkpt lat="45.77342" lon="4.64691">
        <ele>511.9</ele>
        <time>2017-10-01T07:27:04Z</time>
      </trkpt>
      <trkpt lat="45.77295" lon="4.6474">
        <ele>517.9</ele>
        <time>2017-10-01T07:28:23Z</time>
      </trkpt>
      <trkpt lat="45.77294" lon="4.64739">
        <ele>517.9</ele>
        <time>2017-10-01T07:28:24Z</time>
      </trkpt>
      <trkpt lat="45.77287" lon="4.6473">
        <ele>519.1</ele>
        <time>2017-10-01T07:28:31Z</time>
      </trkpt>
      <trkpt lat="45.77249" lon="4.6472">
        <ele>524.8</ele>
        <time>2017-10-01T07:28:55Z</time>
      </trkpt>
      <trkpt lat="45.77245" lon="4.6472">
        <ele>525.2</ele>
        <time>2017-10-01T07:28:57Z</time>
      </trkpt>
      <trkpt lat="45.77237" lon="4.64727">
        <ele>525.7</ele>
        <time>2017-10-01T07:29:04Z</time>
      </trkpt>
      <trkpt lat="45.77229" lon="4.64738">
        <ele>525.9</ele>
        <time>2017-10-01T07:29:08Z</time>
      </trkpt>
      <trkpt lat="45.77225" lon="4.64742">
        <ele>526</ele>
        <time>2017-10-01T07:29:09Z</time>
      </trkpt>
      <trkpt lat="45.77208" lon="4.64761">
        <ele>526</ele>
        <time>2017-10-01T07:29:13Z</time>
      </trkpt>
      <trkpt lat="45.77197" lon="4.64766">
        <ele>525.9</ele>
        <time>2017-10-01T07:29:15Z</time>
      </trkpt>
      <trkpt lat="45.77186" lon="4.64769">
        <ele>525.8</ele>
        <time>2017-10-01T07:29:17Z</time>
      </trkpt>
      <trkpt lat="45.77182" lon="4.64769">
        <ele>525.8</ele>
        <time>2017-10-01T07:29:18Z</time>
      </trkpt>
      <trkpt lat="45.77173" lon="4.64769">
        <ele>525.7</ele>
        <time>2017-10-01T07:29:20Z</time>
      </trkpt>
      <trkpt lat="45.77159" lon="4.64763">
        <ele>525.5</ele>
        <time>2017-10-01T07:29:23Z</time>
      </trkpt>
      <trkpt lat="45.77152" lon="4.64759">
        <ele>525.4</ele>
        <time>2017-10-01T07:29:24Z</time>
      </trkpt>
      <trkpt lat="45.77138" lon="4.64752">
        <ele>525.2</ele>
        <time>2017-10-01T07:29:26Z</time>
      </trkpt>
      <trkpt lat="45.77122" lon="4.64748">
        <ele>524.9</ele>
        <time>2017-10-01T07:29:29Z</time>
      </trkpt>
      <trkpt lat="45.77114" lon="4.64749">
        <ele>524.7</ele>
        <time>2017-10-01T07:29:31Z</time>
      </trkpt>
      <trkpt lat="45.77109" lon="4.64752">
        <ele>524.6</ele>
        <time>2017-10-01T07:29:33Z</time>
      </trkpt>
      <trkpt lat="45.77096" lon="4.64766">
        <ele>524.5</ele>
        <time>2017-10-01T07:29:39Z</time>
      </trkpt>
      <trkpt lat="45.77089" lon="4.6478">
        <ele>524.3</ele>
        <time>2017-10-01T07:29:46Z</time>
      </trkpt>
      <trkpt lat="45.77084" lon="4.64787">
        <ele>524.2</ele>
        <time>2017-10-01T07:29:50Z</time>
      </trkpt>
      <trkpt lat="45.77084" lon="4.64793">
        <ele>524.1</ele>
        <time>2017-10-01T07:29:52Z</time>
      </trkpt>
      <trkpt lat="45.77083" lon="4.64797">
        <ele>524.1</ele>
        <time>2017-10-01T07:29:53Z</time>
      </trkpt>
      <trkpt lat="45.77081" lon="4.64805">
        <ele>524</ele>
        <time>2017-10-01T07:29:55Z</time>
      </trkpt>
      <trkpt lat="45.7708" lon="4.64813">
        <ele>523.9</ele>
        <time>2017-10-01T07:29:57Z</time>
      </trkpt>
      <trkpt lat="45.7708" lon="4.64816">
        <ele>523.8</ele>
        <time>2017-10-01T07:29:58Z</time>
      </trkpt>
      <trkpt lat="45.7708" lon="4.64819">
        <ele>523.8</ele>
        <time>2017-10-01T07:29:59Z</time>
      </trkpt>
      <trkpt lat="45.7708" lon="4.64822">
        <ele>523.8</ele>
        <time>2017-10-01T07:30:00Z</time>
      </trkpt>
      <trkpt lat="45.7708" lon="4.64825">
        <ele>523.7</ele>
        <time>2017-10-01T07:30:01Z</time>
      </trkpt>
      <trkpt lat="45.77081" lon="4.64833">
        <ele>523.6</ele>
        <time>2017-10-01T07:30:04Z</time>
      </trkpt>
      <trkpt lat="45.77078" lon="4.64845">
        <ele>523.5</ele>
        <time>2017-10-01T07:30:07Z</time>
      </trkpt>
      <trkpt lat="45.77077" lon="4.64848">
        <ele>523.4</ele>
        <time>2017-10-01T07:30:08Z</time>
      </trkpt>
      <trkpt lat="45.77077" lon="4.6485">
        <ele>523.4</ele>
        <time>2017-10-01T07:30:09Z</time>
      </trkpt>
      <trkpt lat="45.7707" lon="4.64863">
        <ele>523.2</ele>
        <time>2017-10-01T07:30:14Z</time>
      </trkpt>
      <trkpt lat="45.77066" lon="4.64878">
        <ele>522.5</ele>
        <time>2017-10-01T07:33:17Z</time>
      </trkpt>
      <trkpt lat="45.77063" lon="4.64891">
        <ele>520.7</ele>
        <time>2017-10-01T07:33:21Z</time>
      </trkpt>
      <trkpt lat="45.77059" lon="4.64915">
        <ele>518.6</ele>
        <time>2017-10-01T07:33:26Z</time>
      </trkpt>
      <trkpt lat="45.77058" lon="4.6492">
        <ele>518.3</ele>
        <time>2017-10-01T07:33:27Z</time>
      </trkpt>
      <trkpt lat="45.77048" lon="4.64946">
        <ele>517.6</ele>
        <time>2017-10-01T07:33:32Z</time>
      </trkpt>
      <trkpt lat="45.77031" lon="4.64977">
        <ele>516.7</ele>
        <time>2017-10-01T07:33:38Z</time>
      </trkpt>
      <trkpt lat="45.77028" lon="4.64982">
        <ele>516.5</ele>
        <time>2017-10-01T07:33:39Z</time>
      </trkpt>
      <trkpt lat="45.77024" lon="4.64987">
        <ele>516.3</ele>
        <time>2017-10-01T07:33:40Z</time>
      </trkpt>
      <trkpt lat="45.77014" lon="4.64989">
        <ele>515.8</ele>
        <time>2017-10-01T07:33:42Z</time>
      </trkpt>
      <trkpt lat="45.77005" lon="4.64981">
        <ele>515.5</ele>
        <time>2017-10-01T07:33:45Z</time>
      </trkpt>
      <trkpt lat="45.77001" lon="4.64968">
        <ele>515.1</ele>
        <time>2017-10-01T07:33:50Z</time>
      </trkpt>
      <trkpt lat="45.76996" lon="4.64957">
        <ele>514.7</ele>
        <time>2017-10-01T07:33:55Z</time>
      </trkpt>
      <trkpt lat="45.76994" lon="4.64952">
        <ele>514.5</ele>
        <time>2017-10-01T07:33:57Z</time>
      </trkpt>
      <trkpt lat="45.76991" lon="4.64946">
        <ele>514.3</ele>
        <time>2017-10-01T07:34:00Z</time>
      </trkpt>
      <trkpt lat="45.76975" lon="4.64891">
        <ele>522.4</ele>
        <time>2017-10-01T07:38:08Z</time>
      </trkpt>
      <trkpt lat="45.76974" lon="4.64886">
        <ele>523.2</ele>
        <time>2017-10-01T07:38:10Z</time>
      </trkpt>
      <trkpt lat="45.76976" lon="4.6488">
        <ele>524.2</ele>
        <time>2017-10-01T07:38:13Z</time>
      </trkpt>
      <trkpt lat="45.76975" lon="4.64875">
        <ele>524.5</ele>
        <time>2017-10-01T07:38:15Z</time>
      </trkpt>
      <trkpt lat="45.76975" lon="4.64868">
        <ele>524.9</ele>
        <time>2017-10-01T07:38:18Z</time>
      </trkpt>
      <trkpt lat="45.76974" lon="4.64864">
        <ele>525.2</ele>
        <time>2017-10-01T07:38:20Z</time>
      </trkpt>
      <trkpt lat="45.76973" lon="4.64862">
        <ele>525.3</ele>
        <time>2017-10-01T07:38:21Z</time>
      </trkpt>
      <trkpt lat="45.76967" lon="4.64832">
        <ele>527.7</ele>
        <time>2017-10-01T07:38:36Z</time>
      </trkpt>
      <trkpt lat="45.76966" lon="4.6483">
        <ele>527.9</ele>
        <time>2017-10-01T07:38:37Z</time>
      </trkpt>
      <trkpt lat="45.76964" lon="4.64828">
        <ele>528.2</ele>
        <time>2017-10-01T07:38:39Z</time>
      </trkpt>
      <trkpt lat="45.76963" lon="4.64727">
        <ele>541</ele>
        <time>2017-10-01T07:39:38Z</time>
      </trkpt>
      <trkpt lat="45.76964" lon="4.64726">
        <ele>541.5</ele>
        <time>2017-10-01T07:39:39Z</time>
      </trkpt>
      <trkpt lat="45.76971" lon="4.64712">
        <ele>544.4</ele>
        <time>2017-10-01T07:39:47Z</time>
      </trkpt>
      <trkpt lat="45.76977" lon="4.64697">
        <ele>547.4</ele>
        <time>2017-10-01T07:39:55Z</time>
      </trkpt>
      <trkpt lat="45.76982" lon="4.64683">
        <ele>551.7</ele>
        <time>2017-10-01T07:40:02Z</time>
      </trkpt>
      <trkpt lat="45.76982" lon="4.64681">
        <ele>552.2</ele>
        <time>2017-10-01T07:40:03Z</time>
      </trkpt>
      <trkpt lat="45.76986" lon="4.64672">
        <ele>554</ele>
        <time>2017-10-01T07:40:08Z</time>
      </trkpt>
      <trkpt lat="45.76989" lon="4.64666">
        <ele>555.4</ele>
        <time>2017-10-01T07:40:11Z</time>
      </trkpt>
      <trkpt lat="45.76993" lon="4.64651">
        <ele>558.1</ele>
        <time>2017-10-01T07:40:17Z</time>
      </trkpt>
      <trkpt lat="45.76993" lon="4.64648">
        <ele>558.6</ele>
        <time>2017-10-01T07:40:18Z</time>
      </trkpt>
      <trkpt lat="45.76997" lon="4.64637">
        <ele>560.6</ele>
        <time>2017-10-01T07:40:25Z</time>
      </trkpt>
      <trkpt lat="45.76998" lon="4.64634">
        <ele>561.3</ele>
        <time>2017-10-01T07:40:27Z</time>
      </trkpt>
      <trkpt lat="45.76999" lon="4.64632">
        <ele>561.7</ele>
        <time>2017-10-01T07:40:28Z</time>
      </trkpt>
      <trkpt lat="45.77" lon="4.64631">
        <ele>562</ele>
        <time>2017-10-01T07:40:29Z</time>
      </trkpt>
      <trkpt lat="45.77003" lon="4.64625">
        <ele>563.1</ele>
        <time>2017-10-01T07:40:32Z</time>
      </trkpt>
      <trkpt lat="45.77006" lon="4.64619">
        <ele>563.9</ele>
        <time>2017-10-01T07:40:35Z</time>
      </trkpt>
      <trkpt lat="45.77009" lon="4.64616">
        <ele>564.4</ele>
        <time>2017-10-01T07:40:37Z</time>
      </trkpt>
      <trkpt lat="45.77011" lon="4.64614">
        <ele>564.6</ele>
        <time>2017-10-01T07:40:38Z</time>
      </trkpt>
      <trkpt lat="45.77012" lon="4.64613">
        <ele>564.8</ele>
        <time>2017-10-01T07:40:39Z</time>
      </trkpt>
      <trkpt lat="45.77015" lon="4.64609">
        <ele>565.5</ele>
        <time>2017-10-01T07:40:42Z</time>
      </trkpt>
      <trkpt lat="45.77017" lon="4.64606">
        <ele>566</ele>
        <time>2017-10-01T07:40:44Z</time>
      </trkpt>
      <trkpt lat="45.7702" lon="4.64602">
        <ele>566.8</ele>
        <time>2017-10-01T07:40:47Z</time>
      </trkpt>
      <trkpt lat="45.77023" lon="4.64597">
        <ele>567.7</ele>
        <time>2017-10-01T07:40:50Z</time>
      </trkpt>
      <trkpt lat="45.77024" lon="4.64594">
        <ele>568.1</ele>
        <time>2017-10-01T07:40:52Z</time>
      </trkpt>
      <trkpt lat="45.77028" lon="4.64589">
        <ele>568.9</ele>
        <time>2017-10-01T07:40:56Z</time>
      </trkpt>
      <trkpt lat="45.77031" lon="4.64584">
        <ele>569.6</ele>
        <time>2017-10-01T07:41:00Z</time>
      </trkpt>
      <trkpt lat="45.77032" lon="4.64582">
        <ele>569.9</ele>
        <time>2017-10-01T07:41:01Z</time>
      </trkpt>
      <trkpt lat="45.77036" lon="4.64575">
        <ele>571.1</ele>
        <time>2017-10-01T07:41:05Z</time>
      </trkpt>
      <trkpt lat="45.77037" lon="4.64574">
        <ele>571.4</ele>
        <time>2017-10-01T07:41:06Z</time>
      </trkpt>
      <trkpt lat="45.77037" lon="4.64573">
        <ele>571.6</ele>
        <time>2017-10-01T07:41:07Z</time>
      </trkpt>
      <trkpt lat="45.7704" lon="4.64568">
        <ele>572.7</ele>
        <time>2017-10-01T07:41:10Z</time>
      </trkpt>
      <trkpt lat="45.7704" lon="4.64566">
        <ele>573.2</ele>
        <time>2017-10-01T07:41:11Z</time>
      </trkpt>
      <trkpt lat="45.77041" lon="4.64565">
        <ele>573.6</ele>
        <time>2017-10-01T07:41:12Z</time>
      </trkpt>
      <trkpt lat="45.77042" lon="4.64564">
        <ele>573.8</ele>
        <time>2017-10-01T07:41:13Z</time>
      </trkpt>
      <trkpt lat="45.77043" lon="4.64559">
        <ele>574.4</ele>
        <time>2017-10-01T07:41:17Z</time>
      </trkpt>
      <trkpt lat="45.77044" lon="4.64559">
        <ele>574.7</ele>
        <time>2017-10-01T07:41:18Z</time>
      </trkpt>
      <trkpt lat="45.7705" lon="4.64549">
        <ele>576.4</ele>
        <time>2017-10-01T07:41:24Z</time>
      </trkpt>
      <trkpt lat="45.77053" lon="4.64542">
        <ele>577.5</ele>
        <time>2017-10-01T07:41:27Z</time>
      </trkpt>
      <trkpt lat="45.77053" lon="4.6454">
        <ele>577.8</ele>
        <time>2017-10-01T07:41:28Z</time>
      </trkpt>
      <trkpt lat="45.77053" lon="4.64538">
        <ele>578</ele>
        <time>2017-10-01T07:41:29Z</time>
      </trkpt>
      <trkpt lat="45.77055" lon="4.64537">
        <ele>578.3</ele>
        <time>2017-10-01T07:41:30Z</time>
      </trkpt>
      <trkpt lat="45.77097" lon="4.64417">
        <ele>590.3</ele>
        <time>2017-10-01T07:43:08Z</time>
      </trkpt>
      <trkpt lat="45.77096" lon="4.64414">
        <ele>590.3</ele>
        <time>2017-10-01T07:43:09Z</time>
      </trkpt>
      <trkpt lat="45.77098" lon="4.64404">
        <ele>590.5</ele>
        <time>2017-10-01T07:43:14Z</time>
      </trkpt>
      <trkpt lat="45.77099" lon="4.64401">
        <ele>590.6</ele>
        <time>2017-10-01T07:43:15Z</time>
      </trkpt>
      <trkpt lat="45.77099" lon="4.64399">
        <ele>590.6</ele>
        <time>2017-10-01T07:43:16Z</time>
      </trkpt>
      <trkpt lat="45.77098" lon="4.64386">
        <ele>591</ele>
        <time>2017-10-01T07:43:22Z</time>
      </trkpt>
      <trkpt lat="45.77097" lon="4.64371">
        <ele>591.4</ele>
        <time>2017-10-01T07:43:26Z</time>
      </trkpt>
      <trkpt lat="45.77096" lon="4.64345">
        <ele>592.4</ele>
        <time>2017-10-01T07:43:35Z</time>
      </trkpt>
      <trkpt lat="45.77095" lon="4.64336">
        <ele>592.7</ele>
        <time>2017-10-01T07:43:38Z</time>
      </trkpt>
      <trkpt lat="45.77092" lon="4.64297">
        <ele>594.6</ele>
        <time>2017-10-01T07:43:54Z</time>
      </trkpt>
      <trkpt lat="45.77092" lon="4.64291">
        <ele>595.1</ele>
        <time>2017-10-01T07:43:56Z</time>
      </trkpt>
      <trkpt lat="45.77093" lon="4.64279">
        <ele>596.2</ele>
        <time>2017-10-01T07:44:01Z</time>
      </trkpt>
      <trkpt lat="45.77093" lon="4.64272">
        <ele>596.7</ele>
        <time>2017-10-01T07:44:04Z</time>
      </trkpt>
      <trkpt lat="45.77093" lon="4.64265">
        <ele>597</ele>
        <time>2017-10-01T07:44:07Z</time>
      </trkpt>
      <trkpt lat="45.77094" lon="4.6422">
        <ele>599.1</ele>
        <time>2017-10-01T07:44:27Z</time>
      </trkpt>
      <trkpt lat="45.77095" lon="4.64218">
        <ele>599.2</ele>
        <time>2017-10-01T07:44:28Z</time>
      </trkpt>
      <trkpt lat="45.77097" lon="4.64203">
        <ele>599.8</ele>
        <time>2017-10-01T07:44:35Z</time>
      </trkpt>
      <trkpt lat="45.771" lon="4.64199">
        <ele>600</ele>
        <time>2017-10-01T07:44:37Z</time>
      </trkpt>
      <trkpt lat="45.77104" lon="4.64188">
        <ele>600.2</ele>
        <time>2017-10-01T07:44:42Z</time>
      </trkpt>
      <trkpt lat="45.77105" lon="4.64184">
        <ele>600.3</ele>
        <time>2017-10-01T07:44:43Z</time>
      </trkpt>
      <trkpt lat="45.77111" lon="4.64163">
        <ele>600.6</ele>
        <time>2017-10-01T07:44:49Z</time>
      </trkpt>
      <trkpt lat="45.77111" lon="4.6416">
        <ele>600.7</ele>
        <time>2017-10-01T07:44:50Z</time>
      </trkpt>
      <trkpt lat="45.77115" lon="4.64155">
        <ele>600.7</ele>
        <time>2017-10-01T07:44:52Z</time>
      </trkpt>
      <trkpt lat="45.77119" lon="4.64152">
        <ele>600.9</ele>
        <time>2017-10-01T07:44:54Z</time>
      </trkpt>
      <trkpt lat="45.7713" lon="4.64154">
        <ele>601.3</ele>
        <time>2017-10-01T07:44:59Z</time>
      </trkpt>
      <trkpt lat="45.77142" lon="4.6416">
        <ele>602.1</ele>
        <time>2017-10-01T07:45:06Z</time>
      </trkpt>
      <trkpt lat="45.77147" lon="4.64162">
        <ele>602.5</ele>
        <time>2017-10-01T07:45:09Z</time>
      </trkpt>
      <trkpt lat="45.77155" lon="4.64165">
        <ele>603.1</ele>
        <time>2017-10-01T07:45:13Z</time>
      </trkpt>
      <trkpt lat="45.77162" lon="4.64168">
        <ele>603.6</ele>
        <time>2017-10-01T07:45:16Z</time>
      </trkpt>
      <trkpt lat="45.77166" lon="4.64169">
        <ele>603.9</ele>
        <time>2017-10-01T07:45:18Z</time>
      </trkpt>
      <trkpt lat="45.7717" lon="4.64171">
        <ele>604.2</ele>
        <time>2017-10-01T07:45:20Z</time>
      </trkpt>
      <trkpt lat="45.77174" lon="4.64172">
        <ele>604.5</ele>
        <time>2017-10-01T07:45:22Z</time>
      </trkpt>
      <trkpt lat="45.77176" lon="4.64172">
        <ele>604.6</ele>
        <time>2017-10-01T07:45:23Z</time>
      </trkpt>
      <trkpt lat="45.77177" lon="4.64172">
        <ele>604.7</ele>
        <time>2017-10-01T07:45:24Z</time>
      </trkpt>
      <trkpt lat="45.77243" lon="4.63753">
        <ele>675.7</ele>
        <time>2017-10-01T07:51:31Z</time>
      </trkpt>
      <trkpt lat="45.77241" lon="4.63748">
        <ele>678.4</ele>
        <time>2017-10-01T07:51:33Z</time>
      </trkpt>
      <trkpt lat="45.77086" lon="4.6369">
        <ele>708.2</ele>
        <time>2017-10-01T07:53:43Z</time>
      </trkpt>
      <trkpt lat="45.77084" lon="4.63689">
        <ele>708.4</ele>
        <time>2017-10-01T07:53:45Z</time>
      </trkpt>
      <trkpt lat="45.77061" lon="4.63685">
        <ele>710.1</ele>
        <time>2017-10-01T07:54:03Z</time>
      </trkpt>
      <trkpt lat="45.77059" lon="4.63685">
        <ele>710.2</ele>
        <time>2017-10-01T07:54:04Z</time>
      </trkpt>
      <trkpt lat="45.77049" lon="4.63687">
        <ele>710.9</ele>
        <time>2017-10-01T07:54:11Z</time>
      </trkpt>
      <trkpt lat="45.77048" lon="4.63687">
        <ele>711</ele>
        <time>2017-10-01T07:54:12Z</time>
      </trkpt>
      <trkpt lat="45.77046" lon="4.63687">
        <ele>711.2</ele>
        <time>2017-10-01T07:54:13Z</time>
      </trkpt>
      <trkpt lat="45.77042" lon="4.63688">
        <ele>711.5</ele>
        <time>2017-10-01T07:54:16Z</time>
      </trkpt>
      <trkpt lat="45.76993" lon="4.63678">
        <ele>711.4</ele>
        <time>2017-10-01T07:54:51Z</time>
      </trkpt>
      <trkpt lat="45.76987" lon="4.63674">
        <ele>711.2</ele>
        <time>2017-10-01T07:54:55Z</time>
      </trkpt>
      <trkpt lat="45.76986" lon="4.63673">
        <ele>711.1</ele>
        <time>2017-10-01T07:54:56Z</time>
      </trkpt>
      <trkpt lat="45.76983" lon="4.6367">
        <ele>711</ele>
        <time>2017-10-01T07:54:59Z</time>
      </trkpt>
      <trkpt lat="45.76976" lon="4.63665">
        <ele>711.5</ele>
        <time>2017-10-01T07:55:04Z</time>
      </trkpt>
      <trkpt lat="45.76973" lon="4.63662">
        <ele>711.7</ele>
        <time>2017-10-01T07:55:06Z</time>
      </trkpt>
      <trkpt lat="45.76968" lon="4.63658">
        <ele>712</ele>
        <time>2017-10-01T07:55:09Z</time>
      </trkpt>
      <trkpt lat="45.76963" lon="4.63655">
        <ele>712.4</ele>
        <time>2017-10-01T07:55:12Z</time>
      </trkpt>
      <trkpt lat="45.76957" lon="4.6365">
        <ele>713</ele>
        <time>2017-10-01T07:55:17Z</time>
      </trkpt>
      <trkpt lat="45.76937" lon="4.63616">
        <ele>716.8</ele>
        <time>2017-10-01T07:55:37Z</time>
      </trkpt>
      <trkpt lat="45.76932" lon="4.63583">
        <ele>718</ele>
        <time>2017-10-01T07:56:12Z</time>
      </trkpt>
      <trkpt lat="45.76934" lon="4.63582">
        <ele>718</ele>
        <time>2017-10-01T07:56:47Z</time>
      </trkpt>
      <trkpt lat="45.76933" lon="4.63584">
        <ele>718</ele>
        <time>2017-10-01T07:56:48Z</time>
      </trkpt>
      <trkpt lat="45.76929" lon="4.63587">
        <ele>717.9</ele>
        <time>2017-10-01T07:56:51Z</time>
      </trkpt>
      <trkpt lat="45.76916" lon="4.63585">
        <ele>717.9</ele>
        <time>2017-10-01T08:00:59Z</time>
      </trkpt>
      <trkpt lat="45.76914" lon="4.63582">
        <ele>717.9</ele>
        <time>2017-10-01T08:01:00Z</time>
      </trkpt>
      <trkpt lat="45.76907" lon="4.63565">
        <ele>718.2</ele>
        <time>2017-10-01T08:01:05Z</time>
      </trkpt>
      <trkpt lat="45.76895" lon="4.63539">
        <ele>719.4</ele>
        <time>2017-10-01T08:01:12Z</time>
      </trkpt>
      <trkpt lat="45.76893" lon="4.63533">
        <ele>719.5</ele>
        <time>2017-10-01T08:01:14Z</time>
      </trkpt>
      <trkpt lat="45.76888" lon="4.63523">
        <ele>719.8</ele>
        <time>2017-10-01T08:01:17Z</time>
      </trkpt>
      <trkpt lat="45.76877" lon="4.63496">
        <ele>720.7</ele>
        <time>2017-10-01T08:01:23Z</time>
      </trkpt>
      <trkpt lat="45.76871" lon="4.63479">
        <ele>721.3</ele>
        <time>2017-10-01T08:01:27Z</time>
      </trkpt>
      <trkpt lat="45.76868" lon="4.63471">
        <ele>721.5</ele>
        <time>2017-10-01T08:01:29Z</time>
      </trkpt>
      <trkpt lat="45.76865" lon="4.63457">
        <ele>721.8</ele>
        <time>2017-10-01T08:01:33Z</time>
      </trkpt>
      <trkpt lat="45.76864" lon="4.63454">
        <ele>721.8</ele>
        <time>2017-10-01T08:01:34Z</time>
      </trkpt>
      <trkpt lat="45.7686" lon="4.63431">
        <ele>722.7</ele>
        <time>2017-10-01T08:01:40Z</time>
      </trkpt>
      <trkpt lat="45.76858" lon="4.63425">
        <ele>722.9</ele>
        <time>2017-10-01T08:01:42Z</time>
      </trkpt>
      <trkpt lat="45.76854" lon="4.63412">
        <ele>723.4</ele>
        <time>2017-10-01T08:01:47Z</time>
      </trkpt>
      <trkpt lat="45.76853" lon="4.63408">
        <ele>723.5</ele>
        <time>2017-10-01T08:01:48Z</time>
      </trkpt>
      <trkpt lat="45.76846" lon="4.63389">
        <ele>724.6</ele>
        <time>2017-10-01T08:01:54Z</time>
      </trkpt>
      <trkpt lat="45.76845" lon="4.63385">
        <ele>724.8</ele>
        <time>2017-10-01T08:01:55Z</time>
      </trkpt>
      <trkpt lat="45.76842" lon="4.63378">
        <ele>725.1</ele>
        <time>2017-10-01T08:01:58Z</time>
      </trkpt>
      <trkpt lat="45.76839" lon="4.6337">
        <ele>725.4</ele>
        <time>2017-10-01T08:02:01Z</time>
      </trkpt>
      <trkpt lat="45.76837" lon="4.63367">
        <ele>725.6</ele>
        <time>2017-10-01T08:02:02Z</time>
      </trkpt>
      <trkpt lat="45.76832" lon="4.63352">
        <ele>726.1</ele>
        <time>2017-10-01T08:02:07Z</time>
      </trkpt>
      <trkpt lat="45.7683" lon="4.63348">
        <ele>726.2</ele>
        <time>2017-10-01T08:02:09Z</time>
      </trkpt>
      <trkpt lat="45.76828" lon="4.63346">
        <ele>726.3</ele>
        <time>2017-10-01T08:02:10Z</time>
      </trkpt>
      <trkpt lat="45.76823" lon="4.6334">
        <ele>726.4</ele>
        <time>2017-10-01T08:02:13Z</time>
      </trkpt>
      <trkpt lat="45.76821" lon="4.63338">
        <ele>726.5</ele>
        <time>2017-10-01T08:02:14Z</time>
      </trkpt>
      <trkpt lat="45.76817" lon="4.63329">
        <ele>726.5</ele>
        <time>2017-10-01T08:02:17Z</time>
      </trkpt>
      <trkpt lat="45.76814" lon="4.63326">
        <ele>726.5</ele>
        <time>2017-10-01T08:02:18Z</time>
      </trkpt>
      <trkpt lat="45.7681" lon="4.63321">
        <ele>726.6</ele>
        <time>2017-10-01T08:02:20Z</time>
      </trkpt>
      <trkpt lat="45.768" lon="4.63303">
        <ele>726.7</ele>
        <time>2017-10-01T08:02:25Z</time>
      </trkpt>
      <trkpt lat="45.76797" lon="4.63298">
        <ele>726.7</ele>
        <time>2017-10-01T08:02:26Z</time>
      </trkpt>
      <trkpt lat="45.76789" lon="4.63285">
        <ele>726.8</ele>
        <time>2017-10-01T08:02:29Z</time>
      </trkpt>
      <trkpt lat="45.76785" lon="4.63278">
        <ele>726.9</ele>
        <time>2017-10-01T08:02:31Z</time>
      </trkpt>
      <trkpt lat="45.76781" lon="4.6327">
        <ele>726.9</ele>
        <time>2017-10-01T08:02:33Z</time>
      </trkpt>
      <trkpt lat="45.76774" lon="4.63258">
        <ele>727.3</ele>
        <time>2017-10-01T08:02:37Z</time>
      </trkpt>
      <trkpt lat="45.76771" lon="4.63252">
        <ele>727.6</ele>
        <time>2017-10-01T08:02:39Z</time>
      </trkpt>
      <trkpt lat="45.76766" lon="4.63244">
        <ele>728.4</ele>
        <time>2017-10-01T08:02:42Z</time>
      </trkpt>
      <trkpt lat="45.76757" lon="4.63228">
        <ele>729.4</ele>
        <time>2017-10-01T08:02:50Z</time>
      </trkpt>
      <trkpt lat="45.76752" lon="4.63218">
        <ele>729.8</ele>
        <time>2017-10-01T08:02:54Z</time>
      </trkpt>
      <trkpt lat="45.76744" lon="4.63203">
        <ele>730.1</ele>
        <time>2017-10-01T08:03:01Z</time>
      </trkpt>
      <trkpt lat="45.76737" lon="4.63186">
        <ele>730.2</ele>
        <time>2017-10-01T08:03:08Z</time>
      </trkpt>
      <trkpt lat="45.76727" lon="4.63168">
        <ele>730.2</ele>
        <time>2017-10-01T08:03:13Z</time>
      </trkpt>
      <trkpt lat="45.76713" lon="4.6315">
        <ele>730.1</ele>
        <time>2017-10-01T08:03:17Z</time>
      </trkpt>
      <trkpt lat="45.76704" lon="4.63138">
        <ele>730.1</ele>
        <time>2017-10-01T08:03:19Z</time>
      </trkpt>
      <trkpt lat="45.76694" lon="4.63127">
        <ele>730.1</ele>
        <time>2017-10-01T08:03:21Z</time>
      </trkpt>
      <trkpt lat="45.7668" lon="4.63114">
        <ele>730</ele>
        <time>2017-10-01T08:03:24Z</time>
      </trkpt>
      <trkpt lat="45.76675" lon="4.6311">
        <ele>730</ele>
        <time>2017-10-01T08:03:25Z</time>
      </trkpt>
      <trkpt lat="45.76666" lon="4.63102">
        <ele>730</ele>
        <time>2017-10-01T08:03:27Z</time>
      </trkpt>
      <trkpt lat="45.76653" lon="4.63092">
        <ele>730</ele>
        <time>2017-10-01T08:03:30Z</time>
      </trkpt>
      <trkpt lat="45.76645" lon="4.63086">
        <ele>730.1</ele>
        <time>2017-10-01T08:03:32Z</time>
      </trkpt>
      <trkpt lat="45.76638" lon="4.63081">
        <ele>730.2</ele>
        <time>2017-10-01T08:03:34Z</time>
      </trkpt>
      <trkpt lat="45.76629" lon="4.63075">
        <ele>730.3</ele>
        <time>2017-10-01T08:03:37Z</time>
      </trkpt>
      <trkpt lat="45.76621" lon="4.6307">
        <ele>730.5</ele>
        <time>2017-10-01T08:03:39Z</time>
      </trkpt>
      <trkpt lat="45.76603" lon="4.63063">
        <ele>731.6</ele>
        <time>2017-10-01T08:03:45Z</time>
      </trkpt>
      <trkpt lat="45.76591" lon="4.63055">
        <ele>732.4</ele>
        <time>2017-10-01T08:03:57Z</time>
      </trkpt>
      <trkpt lat="45.76592" lon="4.63054">
        <ele>735.5</ele>
        <time>2017-10-01T08:03:58Z</time>
      </trkpt>
      <trkpt lat="45.76603" lon="4.63046">
        <ele>735.8</ele>
        <time>2017-10-01T08:04:05Z</time>
      </trkpt>
      <trkpt lat="45.76604" lon="4.63044">
        <ele>735.8</ele>
        <time>2017-10-01T08:04:06Z</time>
      </trkpt>
      <trkpt lat="45.76614" lon="4.63036">
        <ele>736</ele>
        <time>2017-10-01T08:04:11Z</time>
      </trkpt>
      <trkpt lat="45.76622" lon="4.6303">
        <ele>736</ele>
        <time>2017-10-01T08:04:14Z</time>
      </trkpt>
      <trkpt lat="45.76628" lon="4.63023">
        <ele>735.9</ele>
        <time>2017-10-01T08:04:17Z</time>
      </trkpt>
      <trkpt lat="45.76635" lon="4.63018">
        <ele>735.8</ele>
        <time>2017-10-01T08:04:20Z</time>
      </trkpt>
      <trkpt lat="45.76639" lon="4.63016">
        <ele>735.7</ele>
        <time>2017-10-01T08:04:21Z</time>
      </trkpt>
      <trkpt lat="45.76669" lon="4.63008">
        <ele>735.8</ele>
        <time>2017-10-01T08:04:28Z</time>
      </trkpt>
      <trkpt lat="45.76683" lon="4.63006">
        <ele>736.1</ele>
        <time>2017-10-01T08:04:33Z</time>
      </trkpt>
      <trkpt lat="45.76694" lon="4.62995">
        <ele>736.7</ele>
        <time>2017-10-01T08:04:56Z</time>
      </trkpt>
      <trkpt lat="45.76695" lon="4.62992">
        <ele>736.8</ele>
        <time>2017-10-01T08:04:57Z</time>
      </trkpt>
      <trkpt lat="45.767" lon="4.62961">
        <ele>734.5</ele>
        <time>2017-10-01T08:05:25Z</time>
      </trkpt>
      <trkpt lat="45.76701" lon="4.6296">
        <ele>734.5</ele>
        <time>2017-10-01T08:05:26Z</time>
      </trkpt>
      <trkpt lat="45.76715" lon="4.62911">
        <ele>724.2</ele>
        <time>2017-10-01T08:05:54Z</time>
      </trkpt>
      <trkpt lat="45.76716" lon="4.62909">
        <ele>723</ele>
        <time>2017-10-01T08:05:55Z</time>
      </trkpt>
      <trkpt lat="45.76718" lon="4.62907">
        <ele>722.7</ele>
        <time>2017-10-01T08:05:56Z</time>
      </trkpt>
      <trkpt lat="45.7672" lon="4.62907">
        <ele>722.4</ele>
        <time>2017-10-01T08:05:57Z</time>
      </trkpt>
      <trkpt lat="45.76721" lon="4.62907">
        <ele>722.4</ele>
        <time>2017-10-01T08:05:58Z</time>
      </trkpt>
      <trkpt lat="45.76723" lon="4.62906">
        <ele>720.8</ele>
        <time>2017-10-01T08:05:59Z</time>
      </trkpt>
      <trkpt lat="45.76733" lon="4.62904">
        <ele>720</ele>
        <time>2017-10-01T08:06:03Z</time>
      </trkpt>
      <trkpt lat="45.7674" lon="4.62906">
        <ele>719.4</ele>
        <time>2017-10-01T08:06:05Z</time>
      </trkpt>
      <trkpt lat="45.76742" lon="4.62906">
        <ele>719.1</ele>
        <time>2017-10-01T08:06:06Z</time>
      </trkpt>
      <trkpt lat="45.76754" lon="4.62903">
        <ele>718</ele>
        <time>2017-10-01T08:06:11Z</time>
      </trkpt>
      <trkpt lat="45.76757" lon="4.62894">
        <ele>715.3</ele>
        <time>2017-10-01T08:06:14Z</time>
      </trkpt>
      <trkpt lat="45.76758" lon="4.6289">
        <ele>713.8</ele>
        <time>2017-10-01T08:06:15Z</time>
      </trkpt>
      <trkpt lat="45.7676" lon="4.62887">
        <ele>712.8</ele>
        <time>2017-10-01T08:06:16Z</time>
      </trkpt>
      <trkpt lat="45.76763" lon="4.62884">
        <ele>711.2</ele>
        <time>2017-10-01T08:06:18Z</time>
      </trkpt>
      <trkpt lat="45.76764" lon="4.62882">
        <ele>711.2</ele>
        <time>2017-10-01T08:06:19Z</time>
      </trkpt>
      <trkpt lat="45.76767" lon="4.62878">
        <ele>709.5</ele>
        <time>2017-10-01T08:06:21Z</time>
      </trkpt>
      <trkpt lat="45.76791" lon="4.62869">
        <ele>702.6</ele>
        <time>2017-10-01T08:06:38Z</time>
      </trkpt>
      <trkpt lat="45.76796" lon="4.62864">
        <ele>700.5</ele>
        <time>2017-10-01T08:06:42Z</time>
      </trkpt>
      <trkpt lat="45.76817" lon="4.62853">
        <ele>695.7</ele>
        <time>2017-10-01T08:06:51Z</time>
      </trkpt>
      <trkpt lat="45.7682" lon="4.62852">
        <ele>695.6</ele>
        <time>2017-10-01T08:06:52Z</time>
      </trkpt>
      <trkpt lat="45.76833" lon="4.62845">
        <ele>693</ele>
        <time>2017-10-01T08:06:57Z</time>
      </trkpt>
      <trkpt lat="45.76837" lon="4.62844">
        <ele>692.8</ele>
        <time>2017-10-01T08:06:59Z</time>
      </trkpt>
      <trkpt lat="45.76843" lon="4.62832">
        <ele>689.5</ele>
        <time>2017-10-01T08:07:06Z</time>
      </trkpt>
      <trkpt lat="45.76845" lon="4.62827">
        <ele>688.3</ele>
        <time>2017-10-01T08:07:08Z</time>
      </trkpt>
      <trkpt lat="45.76848" lon="4.62819">
        <ele>686.1</ele>
        <time>2017-10-01T08:07:11Z</time>
      </trkpt>
      <trkpt lat="45.76848" lon="4.62815">
        <ele>684.8</ele>
        <time>2017-10-01T08:07:13Z</time>
      </trkpt>
      <trkpt lat="45.76849" lon="4.62813">
        <ele>684.8</ele>
        <time>2017-10-01T08:07:14Z</time>
      </trkpt>
      <trkpt lat="45.7685" lon="4.62804">
        <ele>683.1</ele>
        <time>2017-10-01T08:07:17Z</time>
      </trkpt>
      <trkpt lat="45.76851" lon="4.6279">
        <ele>680</ele>
        <time>2017-10-01T08:07:22Z</time>
      </trkpt>
      <trkpt lat="45.76854" lon="4.62778">
        <ele>678.9</ele>
        <time>2017-10-01T08:07:25Z</time>
      </trkpt>
      <trkpt lat="45.76852" lon="4.62768">
        <ele>677.4</ele>
        <time>2017-10-01T08:07:28Z</time>
      </trkpt>
      <trkpt lat="45.7685" lon="4.62765">
        <ele>677.6</ele>
        <time>2017-10-01T08:07:29Z</time>
      </trkpt>
      <trkpt lat="45.76839" lon="4.62753">
        <ele>676.7</ele>
        <time>2017-10-01T08:07:33Z</time>
      </trkpt>
      <trkpt lat="45.76833" lon="4.62744">
        <ele>675.7</ele>
        <time>2017-10-01T08:07:35Z</time>
      </trkpt>
      <trkpt lat="45.76831" lon="4.62737">
        <ele>674.3</ele>
        <time>2017-10-01T08:07:37Z</time>
      </trkpt>
      <trkpt lat="45.76829" lon="4.62728">
        <ele>672.9</ele>
        <time>2017-10-01T08:07:39Z</time>
      </trkpt>
      <trkpt lat="45.76828" lon="4.62724">
        <ele>672.4</ele>
        <time>2017-10-01T08:07:40Z</time>
      </trkpt>
      <trkpt lat="45.76828" lon="4.62721">
        <ele>672</ele>
        <time>2017-10-01T08:07:41Z</time>
      </trkpt>
      <trkpt lat="45.7683" lon="4.6271">
        <ele>671.4</ele>
        <time>2017-10-01T08:07:44Z</time>
      </trkpt>
      <trkpt lat="45.7683" lon="4.62703">
        <ele>670.9</ele>
        <time>2017-10-01T08:07:46Z</time>
      </trkpt>
      <trkpt lat="45.7683" lon="4.62697">
        <ele>670.6</ele>
        <time>2017-10-01T08:07:48Z</time>
      </trkpt>
      <trkpt lat="45.76832" lon="4.62694">
        <ele>670.4</ele>
        <time>2017-10-01T08:07:49Z</time>
      </trkpt>
      <trkpt lat="45.76833" lon="4.62692">
        <ele>670.3</ele>
        <time>2017-10-01T08:07:50Z</time>
      </trkpt>
      <trkpt lat="45.76834" lon="4.62689">
        <ele>669.9</ele>
        <time>2017-10-01T08:07:51Z</time>
      </trkpt>
      <trkpt lat="45.76837" lon="4.62683">
        <ele>668.8</ele>
        <time>2017-10-01T08:07:54Z</time>
      </trkpt>
      <trkpt lat="45.76836" lon="4.62671">
        <ele>667.9</ele>
        <time>2017-10-01T08:08:00Z</time>
      </trkpt>
      <trkpt lat="45.76837" lon="4.62667">
        <ele>667.2</ele>
        <time>2017-10-01T08:08:02Z</time>
      </trkpt>
      <trkpt lat="45.76837" lon="4.62665">
        <ele>666.7</ele>
        <time>2017-10-01T08:08:03Z</time>
      </trkpt>
      <trkpt lat="45.76836" lon="4.62664">
        <ele>666.9</ele>
        <time>2017-10-01T08:08:04Z</time>
      </trkpt>
      <trkpt lat="45.76832" lon="4.62658">
        <ele>666.5</ele>
        <time>2017-10-01T08:08:06Z</time>
      </trkpt>
      <trkpt lat="45.76832" lon="4.62655">
        <ele>665.8</ele>
        <time>2017-10-01T08:08:07Z</time>
      </trkpt>
      <trkpt lat="45.76833" lon="4.62653">
        <ele>665.1</ele>
        <time>2017-10-01T08:08:08Z</time>
      </trkpt>
      <trkpt lat="45.76835" lon="4.62651">
        <ele>665</ele>
        <time>2017-10-01T08:08:09Z</time>
      </trkpt>
      <trkpt lat="45.76838" lon="4.62647">
        <ele>664.2</ele>
        <time>2017-10-01T08:08:11Z</time>
      </trkpt>
      <trkpt lat="45.76842" lon="4.62645">
        <ele>663.9</ele>
        <time>2017-10-01T08:08:13Z</time>
      </trkpt>
      <trkpt lat="45.76844" lon="4.62644">
        <ele>662.9</ele>
        <time>2017-10-01T08:08:14Z</time>
      </trkpt>
      <trkpt lat="45.76848" lon="4.62641">
        <ele>662.2</ele>
        <time>2017-10-01T08:08:16Z</time>
      </trkpt>
      <trkpt lat="45.76854" lon="4.62636">
        <ele>660.8</ele>
        <time>2017-10-01T08:08:18Z</time>
      </trkpt>
      <trkpt lat="45.76858" lon="4.62624">
        <ele>658.5</ele>
        <time>2017-10-01T08:08:23Z</time>
      </trkpt>
      <trkpt lat="45.76858" lon="4.62617">
        <ele>657.2</ele>
        <time>2017-10-01T08:08:25Z</time>
      </trkpt>
      <trkpt lat="45.76857" lon="4.62613">
        <ele>656.6</ele>
        <time>2017-10-01T08:08:26Z</time>
      </trkpt>
      <trkpt lat="45.76855" lon="4.62597">
        <ele>655.1</ele>
        <time>2017-10-01T08:08:30Z</time>
      </trkpt>
      <trkpt lat="45.76853" lon="4.62593">
        <ele>655.4</ele>
        <time>2017-10-01T08:08:31Z</time>
      </trkpt>
      <trkpt lat="45.76852" lon="4.62579">
        <ele>653.2</ele>
        <time>2017-10-01T08:08:34Z</time>
      </trkpt>
      <trkpt lat="45.76857" lon="4.62572">
        <ele>652</ele>
        <time>2017-10-01T08:08:37Z</time>
      </trkpt>
      <trkpt lat="45.7686" lon="4.62571">
        <ele>651.1</ele>
        <time>2017-10-01T08:08:38Z</time>
      </trkpt>
      <trkpt lat="45.76863" lon="4.62567">
        <ele>650.1</ele>
        <time>2017-10-01T08:08:40Z</time>
      </trkpt>
      <trkpt lat="45.76864" lon="4.62563">
        <ele>650.1</ele>
        <time>2017-10-01T08:08:42Z</time>
      </trkpt>
      <trkpt lat="45.76865" lon="4.62561">
        <ele>649.3</ele>
        <time>2017-10-01T08:08:43Z</time>
      </trkpt>
      <trkpt lat="45.76866" lon="4.62554">
        <ele>647.8</ele>
        <time>2017-10-01T08:08:46Z</time>
      </trkpt>
      <trkpt lat="45.76868" lon="4.62546">
        <ele>647.1</ele>
        <time>2017-10-01T08:08:49Z</time>
      </trkpt>
      <trkpt lat="45.76869" lon="4.62544">
        <ele>646.3</ele>
        <time>2017-10-01T08:08:50Z</time>
      </trkpt>
      <trkpt lat="45.76869" lon="4.62536">
        <ele>644.6</ele>
        <time>2017-10-01T08:08:53Z</time>
      </trkpt>
      <trkpt lat="45.76869" lon="4.62534">
        <ele>644.5</ele>
        <time>2017-10-01T08:08:54Z</time>
      </trkpt>
      <trkpt lat="45.76869" lon="4.62532">
        <ele>643.4</ele>
        <time>2017-10-01T08:08:55Z</time>
      </trkpt>
      <trkpt lat="45.76871" lon="4.62521">
        <ele>641.8</ele>
        <time>2017-10-01T08:09:17Z</time>
      </trkpt>
      <trkpt lat="45.76874" lon="4.62518">
        <ele>641</ele>
        <time>2017-10-01T08:09:19Z</time>
      </trkpt>
      <trkpt lat="45.7688" lon="4.62518">
        <ele>641.5</ele>
        <time>2017-10-01T08:09:24Z</time>
      </trkpt>
      <trkpt lat="45.76882" lon="4.62517">
        <ele>641.8</ele>
        <time>2017-10-01T08:09:25Z</time>
      </trkpt>
      <trkpt lat="45.76888" lon="4.62517">
        <ele>642.4</ele>
        <time>2017-10-01T08:09:28Z</time>
      </trkpt>
      <trkpt lat="45.76894" lon="4.62515">
        <ele>642</ele>
        <time>2017-10-01T08:09:30Z</time>
      </trkpt>
      <trkpt lat="45.76928" lon="4.62481">
        <ele>631.6</ele>
        <time>2017-10-01T08:09:56Z</time>
      </trkpt>
      <trkpt lat="45.76931" lon="4.62474">
        <ele>630.2</ele>
        <time>2017-10-01T08:09:59Z</time>
      </trkpt>
      <trkpt lat="45.76935" lon="4.6247">
        <ele>629.1</ele>
        <time>2017-10-01T08:10:01Z</time>
      </trkpt>
      <trkpt lat="45.76936" lon="4.62464">
        <ele>627.4</ele>
        <time>2017-10-01T08:10:04Z</time>
      </trkpt>
      <trkpt lat="45.76936" lon="4.62459">
        <ele>626.7</ele>
        <time>2017-10-01T08:10:06Z</time>
      </trkpt>
      <trkpt lat="45.76935" lon="4.62457">
        <ele>626.7</ele>
        <time>2017-10-01T08:10:07Z</time>
      </trkpt>
      <trkpt lat="45.76935" lon="4.62455">
        <ele>626.1</ele>
        <time>2017-10-01T08:10:08Z</time>
      </trkpt>
      <trkpt lat="45.76936" lon="4.62452">
        <ele>626.1</ele>
        <time>2017-10-01T08:10:09Z</time>
      </trkpt>
      <trkpt lat="45.7694" lon="4.62439">
        <ele>624</ele>
        <time>2017-10-01T08:10:12Z</time>
      </trkpt>
      <trkpt lat="45.76942" lon="4.62433">
        <ele>622.4</ele>
        <time>2017-10-01T08:10:14Z</time>
      </trkpt>
      <trkpt lat="45.7694" lon="4.62414">
        <ele>619.9</ele>
        <time>2017-10-01T08:12:13Z</time>
      </trkpt>
      <trkpt lat="45.7694" lon="4.62409">
        <ele>618.9</ele>
        <time>2017-10-01T08:12:14Z</time>
      </trkpt>
      <trkpt lat="45.76946" lon="4.62396">
        <ele>616.5</ele>
        <time>2017-10-01T08:12:16Z</time>
      </trkpt>
      <trkpt lat="45.7695" lon="4.62379">
        <ele>615.1</ele>
        <time>2017-10-01T08:12:19Z</time>
      </trkpt>
      <trkpt lat="45.76954" lon="4.62368">
        <ele>614.8</ele>
        <time>2017-10-01T08:12:21Z</time>
      </trkpt>
      <trkpt lat="45.76956" lon="4.62362">
        <ele>614.7</ele>
        <time>2017-10-01T08:12:22Z</time>
      </trkpt>
      <trkpt lat="45.76964" lon="4.62339">
        <ele>614.3</ele>
        <time>2017-10-01T08:12:26Z</time>
      </trkpt>
      <trkpt lat="45.76965" lon="4.62333">
        <ele>614.2</ele>
        <time>2017-10-01T08:12:27Z</time>
      </trkpt>
      <trkpt lat="45.76967" lon="4.62327">
        <ele>614.1</ele>
        <time>2017-10-01T08:12:28Z</time>
      </trkpt>
      <trkpt lat="45.76968" lon="4.62322">
        <ele>614</ele>
        <time>2017-10-01T08:12:30Z</time>
      </trkpt>
      <trkpt lat="45.76969" lon="4.62319">
        <ele>614</ele>
        <time>2017-10-01T08:12:31Z</time>
      </trkpt>
      <trkpt lat="45.7697" lon="4.62318">
        <ele>614</ele>
        <time>2017-10-01T08:12:32Z</time>
      </trkpt>
      <trkpt lat="45.76968" lon="4.62319">
        <ele>614</ele>
        <time>2017-10-01T08:12:39Z</time>
      </trkpt>
      <trkpt lat="45.76969" lon="4.62321">
        <ele>614</ele>
        <time>2017-10-01T08:12:40Z</time>
      </trkpt>
      <trkpt lat="45.76973" lon="4.62332">
        <ele>613.9</ele>
        <time>2017-10-01T08:13:14Z</time>
      </trkpt>
      <trkpt lat="45.76973" lon="4.62335">
        <ele>614</ele>
        <time>2017-10-01T08:13:15Z</time>
      </trkpt>
      <trkpt lat="45.7698" lon="4.6236">
        <ele>614.7</ele>
        <time>2017-10-01T08:13:28Z</time>
      </trkpt>
      <trkpt lat="45.76981" lon="4.62362">
        <ele>614.8</ele>
        <time>2017-10-01T08:13:29Z</time>
      </trkpt>
      <trkpt lat="45.76985" lon="4.62375">
        <ele>615.9</ele>
        <time>2017-10-01T08:13:36Z</time>
      </trkpt>
      <trkpt lat="45.77006" lon="4.62529">
        <ele>624.5</ele>
        <time>2017-10-01T08:15:07Z</time>
      </trkpt>
      <trkpt lat="45.77005" lon="4.62539">
        <ele>626.1</ele>
        <time>2017-10-01T08:15:13Z</time>
      </trkpt>
      <trkpt lat="45.77006" lon="4.62569">
        <ele>628.9</ele>
        <time>2017-10-01T08:15:30Z</time>
      </trkpt>
      <trkpt lat="45.77007" lon="4.62573">
        <ele>629.6</ele>
        <time>2017-10-01T08:15:32Z</time>
      </trkpt>
      <trkpt lat="45.77007" lon="4.62575">
        <ele>630</ele>
        <time>2017-10-01T08:15:33Z</time>
      </trkpt>
      <trkpt lat="45.77007" lon="4.62583">
        <ele>631.4</ele>
        <time>2017-10-01T08:15:37Z</time>
      </trkpt>
      <trkpt lat="45.77007" lon="4.62587">
        <ele>632.1</ele>
        <time>2017-10-01T08:15:39Z</time>
      </trkpt>
      <trkpt lat="45.77008" lon="4.62589">
        <ele>632.4</ele>
        <time>2017-10-01T08:15:40Z</time>
      </trkpt>
      <trkpt lat="45.77007" lon="4.62592">
        <ele>632.9</ele>
        <time>2017-10-01T08:15:42Z</time>
      </trkpt>
      <trkpt lat="45.77007" lon="4.62598">
        <ele>634.1</ele>
        <time>2017-10-01T08:15:45Z</time>
      </trkpt>
      <trkpt lat="45.77007" lon="4.62616">
        <ele>637.1</ele>
        <time>2017-10-01T08:15:56Z</time>
      </trkpt>
      <trkpt lat="45.77008" lon="4.6262">
        <ele>637.7</ele>
        <time>2017-10-01T08:15:58Z</time>
      </trkpt>
      <trkpt lat="45.77021" lon="4.62658">
        <ele>640.6</ele>
        <time>2017-10-01T08:16:18Z</time>
      </trkpt>
      <trkpt lat="45.77023" lon="4.62665">
        <ele>641.2</ele>
        <time>2017-10-01T08:16:21Z</time>
      </trkpt>
      <trkpt lat="45.77026" lon="4.62671">
        <ele>641.8</ele>
        <time>2017-10-01T08:16:24Z</time>
      </trkpt>
      <trkpt lat="45.77028" lon="4.62676">
        <ele>642.4</ele>
        <time>2017-10-01T08:16:27Z</time>
      </trkpt>
      <trkpt lat="45.77029" lon="4.62678">
        <ele>642.6</ele>
        <time>2017-10-01T08:16:28Z</time>
      </trkpt>
      <trkpt lat="45.77032" lon="4.62685">
        <ele>643.6</ele>
        <time>2017-10-01T08:16:32Z</time>
      </trkpt>
      <trkpt lat="45.77034" lon="4.62692">
        <ele>644.7</ele>
        <time>2017-10-01T08:16:36Z</time>
      </trkpt>
      <trkpt lat="45.77035" lon="4.62694">
        <ele>645</ele>
        <time>2017-10-01T08:16:37Z</time>
      </trkpt>
      <trkpt lat="45.77036" lon="4.62702">
        <ele>646</ele>
        <time>2017-10-01T08:16:42Z</time>
      </trkpt>
      <trkpt lat="45.77036" lon="4.62704">
        <ele>646.2</ele>
        <time>2017-10-01T08:16:43Z</time>
      </trkpt>
      <trkpt lat="45.77037" lon="4.62706">
        <ele>646.4</ele>
        <time>2017-10-01T08:16:44Z</time>
      </trkpt>
      <trkpt lat="45.77038" lon="4.62709">
        <ele>646.8</ele>
        <time>2017-10-01T08:16:46Z</time>
      </trkpt>
      <trkpt lat="45.77039" lon="4.62712">
        <ele>647.1</ele>
        <time>2017-10-01T08:16:48Z</time>
      </trkpt>
      <trkpt lat="45.77041" lon="4.62717">
        <ele>647.5</ele>
        <time>2017-10-01T08:16:51Z</time>
      </trkpt>
      <trkpt lat="45.77041" lon="4.62719">
        <ele>647.6</ele>
        <time>2017-10-01T08:16:52Z</time>
      </trkpt>
      <trkpt lat="45.77042" lon="4.62722">
        <ele>647.9</ele>
        <time>2017-10-01T08:16:54Z</time>
      </trkpt>
      <trkpt lat="45.77043" lon="4.62727">
        <ele>648.3</ele>
        <time>2017-10-01T08:16:57Z</time>
      </trkpt>
      <trkpt lat="45.77044" lon="4.62731">
        <ele>648.7</ele>
        <time>2017-10-01T08:16:59Z</time>
      </trkpt>
      <trkpt lat="45.77044" lon="4.62734">
        <ele>648.8</ele>
        <time>2017-10-01T08:17:00Z</time>
      </trkpt>
      <trkpt lat="45.77046" lon="4.62739">
        <ele>649.1</ele>
        <time>2017-10-01T08:17:03Z</time>
      </trkpt>
      <trkpt lat="45.77047" lon="4.62741">
        <ele>649.2</ele>
        <time>2017-10-01T08:17:04Z</time>
      </trkpt>
      <trkpt lat="45.77048" lon="4.62743">
        <ele>649.4</ele>
        <time>2017-10-01T08:17:05Z</time>
      </trkpt>
      <trkpt lat="45.77049" lon="4.62746">
        <ele>649.7</ele>
        <time>2017-10-01T08:17:07Z</time>
      </trkpt>
      <trkpt lat="45.77051" lon="4.62753">
        <ele>650.5</ele>
        <time>2017-10-01T08:17:11Z</time>
      </trkpt>
      <trkpt lat="45.77064" lon="4.6279">
        <ele>653.8</ele>
        <time>2017-10-01T08:17:33Z</time>
      </trkpt>
      <trkpt lat="45.77065" lon="4.62792">
        <ele>654.1</ele>
        <time>2017-10-01T08:17:34Z</time>
      </trkpt>
      <trkpt lat="45.7707" lon="4.628">
        <ele>655</ele>
        <time>2017-10-01T08:17:40Z</time>
      </trkpt>
      <trkpt lat="45.7707" lon="4.62801">
        <ele>655.2</ele>
        <time>2017-10-01T08:17:41Z</time>
      </trkpt>
      <trkpt lat="45.77075" lon="4.62812">
        <ele>657.2</ele>
        <time>2017-10-01T08:17:47Z</time>
      </trkpt>
      <trkpt lat="45.77077" lon="4.62823">
        <ele>658.6</ele>
        <time>2017-10-01T08:17:53Z</time>
      </trkpt>
      <trkpt lat="45.77078" lon="4.62826">
        <ele>659.3</ele>
        <time>2017-10-01T08:17:55Z</time>
      </trkpt>
      <trkpt lat="45.77165" lon="4.62973">
        <ele>689.4</ele>
        <time>2017-10-01T08:20:05Z</time>
      </trkpt>
      <trkpt lat="45.77167" lon="4.62977">
        <ele>690</ele>
        <time>2017-10-01T08:20:07Z</time>
      </trkpt>
      <trkpt lat="45.77168" lon="4.62981">
        <ele>690.6</ele>
        <time>2017-10-01T08:20:09Z</time>
      </trkpt>
      <trkpt lat="45.77172" lon="4.62985">
        <ele>691.3</ele>
        <time>2017-10-01T08:20:13Z</time>
      </trkpt>
      <trkpt lat="45.77173" lon="4.62986">
        <ele>691.5</ele>
        <time>2017-10-01T08:20:14Z</time>
      </trkpt>
      <trkpt lat="45.77176" lon="4.62988">
        <ele>692</ele>
        <time>2017-10-01T08:20:16Z</time>
      </trkpt>
      <trkpt lat="45.77184" lon="4.62993">
        <ele>693.3</ele>
        <time>2017-10-01T08:20:20Z</time>
      </trkpt>
      <trkpt lat="45.77189" lon="4.63003">
        <ele>694.2</ele>
        <time>2017-10-01T08:20:26Z</time>
      </trkpt>
      <trkpt lat="45.7719" lon="4.63005">
        <ele>694.3</ele>
        <time>2017-10-01T08:20:27Z</time>
      </trkpt>
      <trkpt lat="45.77193" lon="4.6301">
        <ele>694.3</ele>
        <time>2017-10-01T08:20:32Z</time>
      </trkpt>
      <trkpt lat="45.77194" lon="4.63012">
        <ele>694.4</ele>
        <time>2017-10-01T08:20:33Z</time>
      </trkpt>
      <trkpt lat="45.77198" lon="4.6302">
        <ele>694.1</ele>
        <time>2017-10-01T08:20:37Z</time>
      </trkpt>
      <trkpt lat="45.77219" lon="4.63016">
        <ele>693.8</ele>
        <time>2017-10-01T08:24:22Z</time>
      </trkpt>
      <trkpt lat="45.77224" lon="4.63004">
        <ele>693.2</ele>
        <time>2017-10-01T08:24:26Z</time>
      </trkpt>
      <trkpt lat="45.77225" lon="4.63001">
        <ele>693</ele>
        <time>2017-10-01T08:24:27Z</time>
      </trkpt>
      <trkpt lat="45.77233" lon="4.62984">
        <ele>692.1</ele>
        <time>2017-10-01T08:24:31Z</time>
      </trkpt>
      <trkpt lat="45.77236" lon="4.62966">
        <ele>690.8</ele>
        <time>2017-10-01T08:24:36Z</time>
      </trkpt>
      <trkpt lat="45.77238" lon="4.62957">
        <ele>690</ele>
        <time>2017-10-01T08:24:39Z</time>
      </trkpt>
      <trkpt lat="45.77239" lon="4.62953">
        <ele>689.7</ele>
        <time>2017-10-01T08:24:41Z</time>
      </trkpt>
      <trkpt lat="45.77239" lon="4.6293">
        <ele>687.3</ele>
        <time>2017-10-01T08:24:46Z</time>
      </trkpt>
      <trkpt lat="45.77236" lon="4.62902">
        <ele>685</ele>
        <time>2017-10-01T08:24:50Z</time>
      </trkpt>
      <trkpt lat="45.7724" lon="4.6289">
        <ele>684.4</ele>
        <time>2017-10-01T08:24:53Z</time>
      </trkpt>
      <trkpt lat="45.77243" lon="4.62888">
        <ele>684.2</ele>
        <time>2017-10-01T08:24:54Z</time>
      </trkpt>
      <trkpt lat="45.77249" lon="4.62885">
        <ele>683.6</ele>
        <time>2017-10-01T08:24:56Z</time>
      </trkpt>
      <trkpt lat="45.77253" lon="4.62882">
        <ele>683</ele>
        <time>2017-10-01T08:24:58Z</time>
      </trkpt>
      <trkpt lat="45.7726" lon="4.6287">
        <ele>680.8</ele>
        <time>2017-10-01T08:25:35Z</time>
      </trkpt>
      <trkpt lat="45.77261" lon="4.62866">
        <ele>680.2</ele>
        <time>2017-10-01T08:25:36Z</time>
      </trkpt>
      <trkpt lat="45.77266" lon="4.62857">
        <ele>678.3</ele>
        <time>2017-10-01T08:25:41Z</time>
      </trkpt>
      <trkpt lat="45.77268" lon="4.62855">
        <ele>677.7</ele>
        <time>2017-10-01T08:25:42Z</time>
      </trkpt>
      <trkpt lat="45.77278" lon="4.62835">
        <ele>672.9</ele>
        <time>2017-10-01T08:26:00Z</time>
      </trkpt>
      <trkpt lat="45.77275" lon="4.62827">
        <ele>670.6</ele>
        <time>2017-10-01T08:26:03Z</time>
      </trkpt>
      <trkpt lat="45.77275" lon="4.62821">
        <ele>668.9</ele>
        <time>2017-10-01T08:26:05Z</time>
      </trkpt>
      <trkpt lat="45.77275" lon="4.62818">
        <ele>668</ele>
        <time>2017-10-01T08:26:06Z</time>
      </trkpt>
      <trkpt lat="45.77276" lon="4.62815">
        <ele>667.1</ele>
        <time>2017-10-01T08:26:07Z</time>
      </trkpt>
      <trkpt lat="45.77277" lon="4.62811">
        <ele>665.6</ele>
        <time>2017-10-01T08:26:09Z</time>
      </trkpt>
      <trkpt lat="45.77278" lon="4.62806">
        <ele>664.3</ele>
        <time>2017-10-01T08:26:11Z</time>
      </trkpt>
      <trkpt lat="45.77278" lon="4.62802">
        <ele>663.3</ele>
        <time>2017-10-01T08:26:12Z</time>
      </trkpt>
      <trkpt lat="45.77278" lon="4.62796">
        <ele>661.6</ele>
        <time>2017-10-01T08:26:14Z</time>
      </trkpt>
      <trkpt lat="45.7728" lon="4.62791">
        <ele>659.7</ele>
        <time>2017-10-01T08:26:16Z</time>
      </trkpt>
      <trkpt lat="45.77284" lon="4.62786">
        <ele>657.4</ele>
        <time>2017-10-01T08:26:18Z</time>
      </trkpt>
      <trkpt lat="45.77288" lon="4.62782">
        <ele>656.1</ele>
        <time>2017-10-01T08:26:20Z</time>
      </trkpt>
      <trkpt lat="45.77289" lon="4.62777">
        <ele>654.8</ele>
        <time>2017-10-01T08:26:22Z</time>
      </trkpt>
      <trkpt lat="45.77288" lon="4.62773">
        <ele>653.6</ele>
        <time>2017-10-01T08:26:23Z</time>
      </trkpt>
      <trkpt lat="45.77287" lon="4.62769">
        <ele>652.1</ele>
        <time>2017-10-01T08:26:24Z</time>
      </trkpt>
      <trkpt lat="45.77305" lon="4.62741">
        <ele>643</ele>
        <time>2017-10-01T08:26:43Z</time>
      </trkpt>
      <trkpt lat="45.77313" lon="4.62745">
        <ele>641.5</ele>
        <time>2017-10-01T08:26:46Z</time>
      </trkpt>
      <trkpt lat="45.77315" lon="4.62745">
        <ele>641.1</ele>
        <time>2017-10-01T08:26:47Z</time>
      </trkpt>
      <trkpt lat="45.7732" lon="4.62746">
        <ele>640.6</ele>
        <time>2017-10-01T08:26:49Z</time>
      </trkpt>
      <trkpt lat="45.77326" lon="4.62742">
        <ele>639.1</ele>
        <time>2017-10-01T08:26:52Z</time>
      </trkpt>
      <trkpt lat="45.77341" lon="4.6273">
        <ele>636.3</ele>
        <time>2017-10-01T08:27:03Z</time>
      </trkpt>
      <trkpt lat="45.77342" lon="4.62723">
        <ele>635.5</ele>
        <time>2017-10-01T08:27:05Z</time>
      </trkpt>
      <trkpt lat="45.77343" lon="4.62716">
        <ele>634.5</ele>
        <time>2017-10-01T08:27:07Z</time>
      </trkpt>
      <trkpt lat="45.77346" lon="4.62711">
        <ele>634</ele>
        <time>2017-10-01T08:27:09Z</time>
      </trkpt>
      <trkpt lat="45.77355" lon="4.62705">
        <ele>631.9</ele>
        <time>2017-10-01T08:27:15Z</time>
      </trkpt>
      <trkpt lat="45.77357" lon="4.62703">
        <ele>631.4</ele>
        <time>2017-10-01T08:27:16Z</time>
      </trkpt>
      <trkpt lat="45.77358" lon="4.62702">
        <ele>631.1</ele>
        <time>2017-10-01T08:27:17Z</time>
      </trkpt>
      <trkpt lat="45.77363" lon="4.62701">
        <ele>630.4</ele>
        <time>2017-10-01T08:27:19Z</time>
      </trkpt>
      <trkpt lat="45.77368" lon="4.62703">
        <ele>630.6</ele>
        <time>2017-10-01T08:27:21Z</time>
      </trkpt>
      <trkpt lat="45.77373" lon="4.62706">
        <ele>630.2</ele>
        <time>2017-10-01T08:27:23Z</time>
      </trkpt>
      <trkpt lat="45.77378" lon="4.62709">
        <ele>630.1</ele>
        <time>2017-10-01T08:27:25Z</time>
      </trkpt>
      <trkpt lat="45.77385" lon="4.62715">
        <ele>630</ele>
        <time>2017-10-01T08:27:27Z</time>
      </trkpt>
      <trkpt lat="45.7739" lon="4.62721">
        <ele>629.7</ele>
        <time>2017-10-01T08:27:29Z</time>
      </trkpt>
      <trkpt lat="45.77394" lon="4.62724">
        <ele>629.7</ele>
        <time>2017-10-01T08:27:31Z</time>
      </trkpt>
      <trkpt lat="45.77396" lon="4.62726">
        <ele>629.7</ele>
        <time>2017-10-01T08:27:32Z</time>
      </trkpt>
      <trkpt lat="45.77408" lon="4.6273">
        <ele>628.8</ele>
        <time>2017-10-01T08:27:41Z</time>
      </trkpt>
      <trkpt lat="45.77412" lon="4.62735">
        <ele>628.8</ele>
        <time>2017-10-01T08:27:58Z</time>
      </trkpt>
      <trkpt lat="45.77416" lon="4.6274">
        <ele>629.1</ele>
        <time>2017-10-01T08:28:01Z</time>
      </trkpt>
      <trkpt lat="45.77419" lon="4.62743">
        <ele>629.2</ele>
        <time>2017-10-01T08:28:03Z</time>
      </trkpt>
      <trkpt lat="45.77426" lon="4.62744">
        <ele>629.4</ele>
        <time>2017-10-01T08:28:06Z</time>
      </trkpt>
      <trkpt lat="45.77435" lon="4.62748">
        <ele>629</ele>
        <time>2017-10-01T08:28:10Z</time>
      </trkpt>
      <trkpt lat="45.77447" lon="4.62754">
        <ele>627.4</ele>
        <time>2017-10-01T08:28:18Z</time>
      </trkpt>
      <trkpt lat="45.77452" lon="4.62755">
        <ele>626.5</ele>
        <time>2017-10-01T08:28:21Z</time>
      </trkpt>
      <trkpt lat="45.77454" lon="4.62754">
        <ele>626.3</ele>
        <time>2017-10-01T08:28:22Z</time>
      </trkpt>
      <trkpt lat="45.77456" lon="4.62751">
        <ele>625.8</ele>
        <time>2017-10-01T08:28:24Z</time>
      </trkpt>
      <trkpt lat="45.77462" lon="4.62751">
        <ele>624.5</ele>
        <time>2017-10-01T08:28:27Z</time>
      </trkpt>
      <trkpt lat="45.77464" lon="4.62752">
        <ele>624.1</ele>
        <time>2017-10-01T08:28:28Z</time>
      </trkpt>
      <trkpt lat="45.77467" lon="4.62754">
        <ele>623.5</ele>
        <time>2017-10-01T08:28:30Z</time>
      </trkpt>
      <trkpt lat="45.7747" lon="4.62759">
        <ele>623.2</ele>
        <time>2017-10-01T08:28:32Z</time>
      </trkpt>
      <trkpt lat="45.7747" lon="4.62761">
        <ele>623.1</ele>
        <time>2017-10-01T08:28:33Z</time>
      </trkpt>
      <trkpt lat="45.7747" lon="4.62764">
        <ele>622.7</ele>
        <time>2017-10-01T08:28:34Z</time>
      </trkpt>
      <trkpt lat="45.7747" lon="4.62776">
        <ele>621.9</ele>
        <time>2017-10-01T08:28:38Z</time>
      </trkpt>
      <trkpt lat="45.77471" lon="4.62782">
        <ele>622.2</ele>
        <time>2017-10-01T08:28:40Z</time>
      </trkpt>
      <trkpt lat="45.7747" lon="4.62787">
        <ele>622.2</ele>
        <time>2017-10-01T08:28:42Z</time>
      </trkpt>
      <trkpt lat="45.77468" lon="4.62793">
        <ele>622</ele>
        <time>2017-10-01T08:28:45Z</time>
      </trkpt>
      <trkpt lat="45.77466" lon="4.62795">
        <ele>622.2</ele>
        <time>2017-10-01T08:28:46Z</time>
      </trkpt>
      <trkpt lat="45.77457" lon="4.62808">
        <ele>623.7</ele>
        <time>2017-10-01T08:28:51Z</time>
      </trkpt>
      <trkpt lat="45.77456" lon="4.62816">
        <ele>624.3</ele>
        <time>2017-10-01T08:28:53Z</time>
      </trkpt>
      <trkpt lat="45.77453" lon="4.62829">
        <ele>625.7</ele>
        <time>2017-10-01T08:28:56Z</time>
      </trkpt>
      <trkpt lat="45.77452" lon="4.62834">
        <ele>626.4</ele>
        <time>2017-10-01T08:28:57Z</time>
      </trkpt>
      <trkpt lat="45.77448" lon="4.6285">
        <ele>626.9</ele>
        <time>2017-10-01T08:29:02Z</time>
      </trkpt>
      <trkpt lat="45.77447" lon="4.62855">
        <ele>626.7</ele>
        <time>2017-10-01T08:29:04Z</time>
      </trkpt>
      <trkpt lat="45.77449" lon="4.62862">
        <ele>626.3</ele>
        <time>2017-10-01T08:29:08Z</time>
      </trkpt>
      <trkpt lat="45.77456" lon="4.62884">
        <ele>622.5</ele>
        <time>2017-10-01T08:29:13Z</time>
      </trkpt>
      <trkpt lat="45.77459" lon="4.62895">
        <ele>620.8</ele>
        <time>2017-10-01T08:29:15Z</time>
      </trkpt>
      <trkpt lat="45.77469" lon="4.62917">
        <ele>615.8</ele>
        <time>2017-10-01T08:29:20Z</time>
      </trkpt>
      <trkpt lat="45.77471" lon="4.62919">
        <ele>615.4</ele>
        <time>2017-10-01T08:29:21Z</time>
      </trkpt>
      <trkpt lat="45.77472" lon="4.62926">
        <ele>614.8</ele>
        <time>2017-10-01T08:29:23Z</time>
      </trkpt>
      <trkpt lat="45.77472" lon="4.62932">
        <ele>614.3</ele>
        <time>2017-10-01T08:29:25Z</time>
      </trkpt>
      <trkpt lat="45.77475" lon="4.62939">
        <ele>613.7</ele>
        <time>2017-10-01T08:29:28Z</time>
      </trkpt>
      <trkpt lat="45.77477" lon="4.62947">
        <ele>612.6</ele>
        <time>2017-10-01T08:29:31Z</time>
      </trkpt>
      <trkpt lat="45.77482" lon="4.62965">
        <ele>608.4</ele>
        <time>2017-10-01T08:29:38Z</time>
      </trkpt>
      <trkpt lat="45.77486" lon="4.62973">
        <ele>606.5</ele>
        <time>2017-10-01T08:29:41Z</time>
      </trkpt>
      <trkpt lat="45.77491" lon="4.62988">
        <ele>605.8</ele>
        <time>2017-10-01T08:29:47Z</time>
      </trkpt>
      <trkpt lat="45.77493" lon="4.62991">
        <ele>605.7</ele>
        <time>2017-10-01T08:29:49Z</time>
      </trkpt>
      <trkpt lat="45.77499" lon="4.62999">
        <ele>605.5</ele>
        <time>2017-10-01T08:29:55Z</time>
      </trkpt>
      <trkpt lat="45.77504" lon="4.63006">
        <ele>606.5</ele>
        <time>2017-10-01T08:29:58Z</time>
      </trkpt>
      <trkpt lat="45.77508" lon="4.63011">
        <ele>606.9</ele>
        <time>2017-10-01T08:30:00Z</time>
      </trkpt>
      <trkpt lat="45.77515" lon="4.63018">
        <ele>606.9</ele>
        <time>2017-10-01T08:30:03Z</time>
      </trkpt>
      <trkpt lat="45.77518" lon="4.63021">
        <ele>606.7</ele>
        <time>2017-10-01T08:30:04Z</time>
      </trkpt>
      <trkpt lat="45.77528" lon="4.63034">
        <ele>607</ele>
        <time>2017-10-01T08:30:08Z</time>
      </trkpt>
      <trkpt lat="45.77536" lon="4.63044">
        <ele>607.4</ele>
        <time>2017-10-01T08:30:11Z</time>
      </trkpt>
      <trkpt lat="45.77538" lon="4.63048">
        <ele>607.4</ele>
        <time>2017-10-01T08:30:12Z</time>
      </trkpt>
      <trkpt lat="45.77549" lon="4.63057">
        <ele>607.6</ele>
        <time>2017-10-01T08:30:15Z</time>
      </trkpt>
      <trkpt lat="45.77554" lon="4.63066">
        <ele>607.8</ele>
        <time>2017-10-01T08:30:17Z</time>
      </trkpt>
      <trkpt lat="45.77556" lon="4.6307">
        <ele>607.7</ele>
        <time>2017-10-01T08:30:18Z</time>
      </trkpt>
      <trkpt lat="45.77558" lon="4.63073">
        <ele>607.5</ele>
        <time>2017-10-01T08:30:19Z</time>
      </trkpt>
      <trkpt lat="45.77562" lon="4.63081">
        <ele>607.3</ele>
        <time>2017-10-01T08:30:22Z</time>
      </trkpt>
      <trkpt lat="45.77564" lon="4.63082">
        <ele>607.4</ele>
        <time>2017-10-01T08:30:23Z</time>
      </trkpt>
      <trkpt lat="45.77568" lon="4.63089">
        <ele>607.3</ele>
        <time>2017-10-01T08:30:26Z</time>
      </trkpt>
      <trkpt lat="45.77573" lon="4.63096">
        <ele>607</ele>
        <time>2017-10-01T08:30:29Z</time>
      </trkpt>
      <trkpt lat="45.77574" lon="4.631">
        <ele>607.1</ele>
        <time>2017-10-01T08:30:30Z</time>
      </trkpt>
      <trkpt lat="45.77585" lon="4.63113">
        <ele>606.7</ele>
        <time>2017-10-01T08:30:35Z</time>
      </trkpt>
      <trkpt lat="45.77588" lon="4.63113">
        <ele>606.4</ele>
        <time>2017-10-01T08:30:36Z</time>
      </trkpt>
      <trkpt lat="45.77592" lon="4.63113">
        <ele>605.9</ele>
        <time>2017-10-01T08:30:38Z</time>
      </trkpt>
      <trkpt lat="45.77593" lon="4.63111">
        <ele>605.7</ele>
        <time>2017-10-01T08:30:39Z</time>
      </trkpt>
      <trkpt lat="45.77595" lon="4.63109">
        <ele>605.5</ele>
        <time>2017-10-01T08:30:41Z</time>
      </trkpt>
      <trkpt lat="45.77599" lon="4.63106">
        <ele>605.2</ele>
        <time>2017-10-01T08:30:43Z</time>
      </trkpt>
      <trkpt lat="45.77602" lon="4.63105">
        <ele>605.3</ele>
        <time>2017-10-01T08:30:44Z</time>
      </trkpt>
      <trkpt lat="45.77607" lon="4.63107">
        <ele>603.7</ele>
        <time>2017-10-01T08:30:46Z</time>
      </trkpt>
      <trkpt lat="45.7762" lon="4.63118">
        <ele>600</ele>
        <time>2017-10-01T08:30:52Z</time>
      </trkpt>
      <trkpt lat="45.77637" lon="4.63123">
        <ele>598.4</ele>
        <time>2017-10-01T08:30:56Z</time>
      </trkpt>
      <trkpt lat="45.77642" lon="4.63126">
        <ele>597.7</ele>
        <time>2017-10-01T08:30:57Z</time>
      </trkpt>
      <trkpt lat="45.77655" lon="4.63134">
        <ele>596.4</ele>
        <time>2017-10-01T08:31:00Z</time>
      </trkpt>
      <trkpt lat="45.77674" lon="4.63152">
        <ele>593.6</ele>
        <time>2017-10-01T08:31:05Z</time>
      </trkpt>
      <trkpt lat="45.7768" lon="4.63154">
        <ele>592.8</ele>
        <time>2017-10-01T08:31:13Z</time>
      </trkpt>
      <trkpt lat="45.77684" lon="4.63161">
        <ele>591.8</ele>
        <time>2017-10-01T08:31:16Z</time>
      </trkpt>
      <trkpt lat="45.77684" lon="4.63163">
        <ele>591.7</ele>
        <time>2017-10-01T08:31:17Z</time>
      </trkpt>
      <trkpt lat="45.77689" lon="4.63154">
        <ele>592.1</ele>
        <time>2017-10-01T08:31:26Z</time>
      </trkpt>
      <trkpt lat="45.77691" lon="4.63145">
        <ele>590.8</ele>
        <time>2017-10-01T08:31:31Z</time>
      </trkpt>
      <trkpt lat="45.77691" lon="4.63143">
        <ele>590.3</ele>
        <time>2017-10-01T08:31:32Z</time>
      </trkpt>
      <trkpt lat="45.7769" lon="4.63134">
        <ele>588.1</ele>
        <time>2017-10-01T08:31:35Z</time>
      </trkpt>
      <trkpt lat="45.7769" lon="4.63127">
        <ele>585.9</ele>
        <time>2017-10-01T08:31:37Z</time>
      </trkpt>
      <trkpt lat="45.7769" lon="4.63123">
        <ele>585</ele>
        <time>2017-10-01T08:31:38Z</time>
      </trkpt>
      <trkpt lat="45.77689" lon="4.63116">
        <ele>583.7</ele>
        <time>2017-10-01T08:31:40Z</time>
      </trkpt>
      <trkpt lat="45.7769" lon="4.63112">
        <ele>582.7</ele>
        <time>2017-10-01T08:31:42Z</time>
      </trkpt>
      <trkpt lat="45.77695" lon="4.63106">
        <ele>580.3</ele>
        <time>2017-10-01T08:31:46Z</time>
      </trkpt>
      <trkpt lat="45.77697" lon="4.63101">
        <ele>579.2</ele>
        <time>2017-10-01T08:31:48Z</time>
      </trkpt>
      <trkpt lat="45.77698" lon="4.63098">
        <ele>578.6</ele>
        <time>2017-10-01T08:31:49Z</time>
      </trkpt>
      <trkpt lat="45.77698" lon="4.63095">
        <ele>577.5</ele>
        <time>2017-10-01T08:31:50Z</time>
      </trkpt>
      <trkpt lat="45.77698" lon="4.63091">
        <ele>576.3</ele>
        <time>2017-10-01T08:31:51Z</time>
      </trkpt>
      <trkpt lat="45.77698" lon="4.63089">
        <ele>575.7</ele>
        <time>2017-10-01T08:31:52Z</time>
      </trkpt>
      <trkpt lat="45.77702" lon="4.6309">
        <ele>574.3</ele>
        <time>2017-10-01T08:31:58Z</time>
      </trkpt>
      <trkpt lat="45.77703" lon="4.63092">
        <ele>574</ele>
        <time>2017-10-01T08:31:59Z</time>
      </trkpt>
      <trkpt lat="45.77705" lon="4.63096">
        <ele>573.2</ele>
        <time>2017-10-01T08:32:01Z</time>
      </trkpt>
      <trkpt lat="45.77707" lon="4.63099">
        <ele>574</ele>
        <time>2017-10-01T08:32:03Z</time>
      </trkpt>
      <trkpt lat="45.77709" lon="4.63103">
        <ele>574.2</ele>
        <time>2017-10-01T08:32:05Z</time>
      </trkpt>
      <trkpt lat="45.7771" lon="4.63107">
        <ele>574.5</ele>
        <time>2017-10-01T08:32:07Z</time>
      </trkpt>
      <trkpt lat="45.7771" lon="4.63112">
        <ele>574.7</ele>
        <time>2017-10-01T08:32:09Z</time>
      </trkpt>
      <trkpt lat="45.7771" lon="4.6312">
        <ele>575.1</ele>
        <time>2017-10-01T08:32:11Z</time>
      </trkpt>
      <trkpt lat="45.77711" lon="4.63125">
        <ele>575.4</ele>
        <time>2017-10-01T08:32:13Z</time>
      </trkpt>
      <trkpt lat="45.77714" lon="4.6316">
        <ele>577.1</ele>
        <time>2017-10-01T08:32:28Z</time>
      </trkpt>
      <trkpt lat="45.77715" lon="4.63173">
        <ele>577.8</ele>
        <time>2017-10-01T08:32:33Z</time>
      </trkpt>
      <trkpt lat="45.77716" lon="4.6319">
        <ele>578.6</ele>
        <time>2017-10-01T08:32:40Z</time>
      </trkpt>
      <trkpt lat="45.77716" lon="4.63207">
        <ele>579.1</ele>
        <time>2017-10-01T08:32:46Z</time>
      </trkpt>
      <trkpt lat="45.77716" lon="4.6321">
        <ele>579.1</ele>
        <time>2017-10-01T08:32:47Z</time>
      </trkpt>
      <trkpt lat="45.77716" lon="4.63216">
        <ele>579.3</ele>
        <time>2017-10-01T08:32:50Z</time>
      </trkpt>
      <trkpt lat="45.77714" lon="4.63223">
        <ele>579.5</ele>
        <time>2017-10-01T08:32:54Z</time>
      </trkpt>
      <trkpt lat="45.7771" lon="4.63235">
        <ele>580</ele>
        <time>2017-10-01T08:32:59Z</time>
      </trkpt>
      <trkpt lat="45.77707" lon="4.63243">
        <ele>580.3</ele>
        <time>2017-10-01T08:33:02Z</time>
      </trkpt>
      <trkpt lat="45.77701" lon="4.63254">
        <ele>580.5</ele>
        <time>2017-10-01T08:33:07Z</time>
      </trkpt>
      <trkpt lat="45.777" lon="4.63256">
        <ele>580.6</ele>
        <time>2017-10-01T08:33:08Z</time>
      </trkpt>
      <trkpt lat="45.77693" lon="4.63267">
        <ele>580.8</ele>
        <time>2017-10-01T08:33:14Z</time>
      </trkpt>
      <trkpt lat="45.77691" lon="4.6327">
        <ele>580.9</ele>
        <time>2017-10-01T08:33:16Z</time>
      </trkpt>
      <trkpt lat="45.77688" lon="4.63277">
        <ele>581</ele>
        <time>2017-10-01T08:33:19Z</time>
      </trkpt>
      <trkpt lat="45.77684" lon="4.63283">
        <ele>581.1</ele>
        <time>2017-10-01T08:33:22Z</time>
      </trkpt>
      <trkpt lat="45.77676" lon="4.6329">
        <ele>581.1</ele>
        <time>2017-10-01T08:33:29Z</time>
      </trkpt>
      <trkpt lat="45.77672" lon="4.63294">
        <ele>581.1</ele>
        <time>2017-10-01T08:33:31Z</time>
      </trkpt>
      <trkpt lat="45.77656" lon="4.63307">
        <ele>581.2</ele>
        <time>2017-10-01T08:33:39Z</time>
      </trkpt>
      <trkpt lat="45.77648" lon="4.63314">
        <ele>581.3</ele>
        <time>2017-10-01T08:33:43Z</time>
      </trkpt>
      <trkpt lat="45.77646" lon="4.63315">
        <ele>581.3</ele>
        <time>2017-10-01T08:33:44Z</time>
      </trkpt>
      <trkpt lat="45.77639" lon="4.63321">
        <ele>581.4</ele>
        <time>2017-10-01T08:33:47Z</time>
      </trkpt>
      <trkpt lat="45.77627" lon="4.63331">
        <ele>581.7</ele>
        <time>2017-10-01T08:33:52Z</time>
      </trkpt>
      <trkpt lat="45.77612" lon="4.63343">
        <ele>582.9</ele>
        <time>2017-10-01T08:33:58Z</time>
      </trkpt>
      <trkpt lat="45.77597" lon="4.63352">
        <ele>584.1</ele>
        <time>2017-10-01T08:34:04Z</time>
      </trkpt>
      <trkpt lat="45.77595" lon="4.63352">
        <ele>584.3</ele>
        <time>2017-10-01T08:34:05Z</time>
      </trkpt>
      <trkpt lat="45.77591" lon="4.63354">
        <ele>584.8</ele>
        <time>2017-10-01T08:34:07Z</time>
      </trkpt>
      <trkpt lat="45.77586" lon="4.63356">
        <ele>585.4</ele>
        <time>2017-10-01T08:34:10Z</time>
      </trkpt>
      <trkpt lat="45.77584" lon="4.63357">
        <ele>585.6</ele>
        <time>2017-10-01T08:34:11Z</time>
      </trkpt>
      <trkpt lat="45.77583" lon="4.63357">
        <ele>585.8</ele>
        <time>2017-10-01T08:34:12Z</time>
      </trkpt>
      <trkpt lat="45.77536" lon="4.63383">
        <ele>590.4</ele>
        <time>2017-10-01T08:34:48Z</time>
      </trkpt>
      <trkpt lat="45.77533" lon="4.63386">
        <ele>590.7</ele>
        <time>2017-10-01T08:34:50Z</time>
      </trkpt>
      <trkpt lat="45.77526" lon="4.63395">
        <ele>591.3</ele>
        <time>2017-10-01T08:34:55Z</time>
      </trkpt>
      <trkpt lat="45.77522" lon="4.63398">
        <ele>591.6</ele>
        <time>2017-10-01T08:34:57Z</time>
      </trkpt>
      <trkpt lat="45.77511" lon="4.63414">
        <ele>592.4</ele>
        <time>2017-10-01T08:35:05Z</time>
      </trkpt>
      <trkpt lat="45.77508" lon="4.63419">
        <ele>592.7</ele>
        <time>2017-10-01T08:35:07Z</time>
      </trkpt>
      <trkpt lat="45.77507" lon="4.63423">
        <ele>592.8</ele>
        <time>2017-10-01T08:35:09Z</time>
      </trkpt>
      <trkpt lat="45.77506" lon="4.63435">
        <ele>593.1</ele>
        <time>2017-10-01T08:35:13Z</time>
      </trkpt>
      <trkpt lat="45.77506" lon="4.63454">
        <ele>593.7</ele>
        <time>2017-10-01T08:35:18Z</time>
      </trkpt>
      <trkpt lat="45.77507" lon="4.63461">
        <ele>594</ele>
        <time>2017-10-01T08:35:20Z</time>
      </trkpt>
      <trkpt lat="45.77513" lon="4.63488">
        <ele>595</ele>
        <time>2017-10-01T08:35:26Z</time>
      </trkpt>
      <trkpt lat="45.77518" lon="4.63496">
        <ele>595.4</ele>
        <time>2017-10-01T08:35:29Z</time>
      </trkpt>
      <trkpt lat="45.77521" lon="4.63506">
        <ele>595.9</ele>
        <time>2017-10-01T08:35:32Z</time>
      </trkpt>
      <trkpt lat="45.77523" lon="4.63524">
        <ele>596.8</ele>
        <time>2017-10-01T08:35:38Z</time>
      </trkpt>
      <trkpt lat="45.77525" lon="4.6354">
        <ele>597.1</ele>
        <time>2017-10-01T08:35:43Z</time>
      </trkpt>
      <trkpt lat="45.77527" lon="4.63554">
        <ele>597.5</ele>
        <time>2017-10-01T08:35:49Z</time>
      </trkpt>
      <trkpt lat="45.77532" lon="4.63577">
        <ele>598.1</ele>
        <time>2017-10-01T08:35:57Z</time>
      </trkpt>
      <trkpt lat="45.77535" lon="4.63601">
        <ele>599</ele>
        <time>2017-10-01T08:36:06Z</time>
      </trkpt>
      <trkpt lat="45.77541" lon="4.63628">
        <ele>600.1</ele>
        <time>2017-10-01T08:36:14Z</time>
      </trkpt>
      <trkpt lat="45.77546" lon="4.63652">
        <ele>601</ele>
        <time>2017-10-01T08:36:21Z</time>
      </trkpt>
      <trkpt lat="45.77549" lon="4.63662">
        <ele>601.4</ele>
        <time>2017-10-01T08:36:24Z</time>
      </trkpt>
      <trkpt lat="45.7755" lon="4.6367">
        <ele>601.8</ele>
        <time>2017-10-01T08:36:27Z</time>
      </trkpt>
      <trkpt lat="45.77556" lon="4.63694">
        <ele>602.8</ele>
        <time>2017-10-01T08:36:39Z</time>
      </trkpt>
      <trkpt lat="45.77556" lon="4.63696">
        <ele>602.9</ele>
        <time>2017-10-01T08:36:40Z</time>
      </trkpt>
      <trkpt lat="45.77559" lon="4.63715">
        <ele>603.7</ele>
        <time>2017-10-01T08:36:48Z</time>
      </trkpt>
      <trkpt lat="45.7756" lon="4.6372">
        <ele>604.1</ele>
        <time>2017-10-01T08:36:50Z</time>
      </trkpt>
      <trkpt lat="45.77563" lon="4.63733">
        <ele>604.9</ele>
        <time>2017-10-01T08:36:55Z</time>
      </trkpt>
      <trkpt lat="45.77564" lon="4.6374">
        <ele>605.3</ele>
        <time>2017-10-01T08:36:57Z</time>
      </trkpt>
      <trkpt lat="45.77567" lon="4.63753">
        <ele>606</ele>
        <time>2017-10-01T08:37:02Z</time>
      </trkpt>
      <trkpt lat="45.77569" lon="4.63775">
        <ele>607.1</ele>
        <time>2017-10-01T08:37:12Z</time>
      </trkpt>
      <trkpt lat="45.7757" lon="4.63783">
        <ele>607.4</ele>
        <time>2017-10-01T08:37:14Z</time>
      </trkpt>
      <trkpt lat="45.77574" lon="4.63799">
        <ele>608.1</ele>
        <time>2017-10-01T08:37:20Z</time>
      </trkpt>
      <trkpt lat="45.7758" lon="4.63821">
        <ele>609.1</ele>
        <time>2017-10-01T08:37:27Z</time>
      </trkpt>
      <trkpt lat="45.77583" lon="4.63838">
        <ele>609.7</ele>
        <time>2017-10-01T08:37:32Z</time>
      </trkpt>
      <trkpt lat="45.77584" lon="4.6384">
        <ele>609.8</ele>
        <time>2017-10-01T08:37:33Z</time>
      </trkpt>
      <trkpt lat="45.77588" lon="4.63846">
        <ele>610</ele>
        <time>2017-10-01T08:40:20Z</time>
      </trkpt>
      <trkpt lat="45.77591" lon="4.63848">
        <ele>609.9</ele>
        <time>2017-10-01T08:40:21Z</time>
      </trkpt>
      <trkpt lat="45.77593" lon="4.63851">
        <ele>609.9</ele>
        <time>2017-10-01T08:40:22Z</time>
      </trkpt>
      <trkpt lat="45.77602" lon="4.6386">
        <ele>609.8</ele>
        <time>2017-10-01T08:40:25Z</time>
      </trkpt>
      <trkpt lat="45.77608" lon="4.63865">
        <ele>609.7</ele>
        <time>2017-10-01T08:40:27Z</time>
      </trkpt>
      <trkpt lat="45.77614" lon="4.63869">
        <ele>609.6</ele>
        <time>2017-10-01T08:40:29Z</time>
      </trkpt>
      <trkpt lat="45.77623" lon="4.63878">
        <ele>609.5</ele>
        <time>2017-10-01T08:40:32Z</time>
      </trkpt>
      <trkpt lat="45.77627" lon="4.63882">
        <ele>609.5</ele>
        <time>2017-10-01T08:40:34Z</time>
      </trkpt>
      <trkpt lat="45.77634" lon="4.63885">
        <ele>609.5</ele>
        <time>2017-10-01T08:40:36Z</time>
      </trkpt>
      <trkpt lat="45.7764" lon="4.63889">
        <ele>609.4</ele>
        <time>2017-10-01T08:40:38Z</time>
      </trkpt>
      <trkpt lat="45.77654" lon="4.63896">
        <ele>609.2</ele>
        <time>2017-10-01T08:40:42Z</time>
      </trkpt>
      <trkpt lat="45.77658" lon="4.63898">
        <ele>609.2</ele>
        <time>2017-10-01T08:40:43Z</time>
      </trkpt>
      <trkpt lat="45.77666" lon="4.63903">
        <ele>609</ele>
        <time>2017-10-01T08:40:45Z</time>
      </trkpt>
      <trkpt lat="45.77678" lon="4.63911">
        <ele>608.6</ele>
        <time>2017-10-01T08:40:48Z</time>
      </trkpt>
      <trkpt lat="45.77681" lon="4.63913">
        <ele>608.5</ele>
        <time>2017-10-01T08:40:49Z</time>
      </trkpt>
      <trkpt lat="45.77689" lon="4.6392">
        <ele>607.9</ele>
        <time>2017-10-01T08:40:52Z</time>
      </trkpt>
      <trkpt lat="45.77692" lon="4.63922">
        <ele>607.7</ele>
        <time>2017-10-01T08:40:53Z</time>
      </trkpt>
      <trkpt lat="45.77705" lon="4.63931">
        <ele>606.5</ele>
        <time>2017-10-01T08:40:58Z</time>
      </trkpt>
      <trkpt lat="45.77726" lon="4.63933">
        <ele>605.7</ele>
        <time>2017-10-01T08:41:04Z</time>
      </trkpt>
      <trkpt lat="45.77744" lon="4.63941">
        <ele>605.3</ele>
        <time>2017-10-01T08:41:10Z</time>
      </trkpt>
      <trkpt lat="45.77766" lon="4.63961">
        <ele>604.9</ele>
        <time>2017-10-01T08:41:16Z</time>
      </trkpt>
      <trkpt lat="45.77785" lon="4.63979">
        <ele>604.5</ele>
        <time>2017-10-01T08:41:22Z</time>
      </trkpt>
      <trkpt lat="45.77799" lon="4.63985">
        <ele>604</ele>
        <time>2017-10-01T08:41:27Z</time>
      </trkpt>
      <trkpt lat="45.77811" lon="4.63973">
        <ele>604</ele>
        <time>2017-10-01T08:41:31Z</time>
      </trkpt>
      <trkpt lat="45.77818" lon="4.63973">
        <ele>604</ele>
        <time>2017-10-01T08:41:33Z</time>
      </trkpt>
      <trkpt lat="45.77825" lon="4.63965">
        <ele>604</ele>
        <time>2017-10-01T08:41:36Z</time>
      </trkpt>
      <trkpt lat="45.77839" lon="4.6396">
        <ele>603.1</ele>
        <time>2017-10-01T08:41:40Z</time>
      </trkpt>
      <trkpt lat="45.77842" lon="4.63962">
        <ele>602.7</ele>
        <time>2017-10-01T08:41:41Z</time>
      </trkpt>
      <trkpt lat="45.77854" lon="4.6396">
        <ele>601.3</ele>
        <time>2017-10-01T08:41:45Z</time>
      </trkpt>
      <trkpt lat="45.77864" lon="4.63963">
        <ele>600.1</ele>
        <time>2017-10-01T08:41:49Z</time>
      </trkpt>
      <trkpt lat="45.77867" lon="4.63965">
        <ele>599.8</ele>
        <time>2017-10-01T08:41:50Z</time>
      </trkpt>
      <trkpt lat="45.77875" lon="4.6397">
        <ele>599</ele>
        <time>2017-10-01T08:41:55Z</time>
      </trkpt>
      <trkpt lat="45.7788" lon="4.63973">
        <ele>599</ele>
        <time>2017-10-01T08:41:59Z</time>
      </trkpt>
      <trkpt lat="45.77883" lon="4.63974">
        <ele>599</ele>
        <time>2017-10-01T08:42:01Z</time>
      </trkpt>
      <trkpt lat="45.77887" lon="4.63976">
        <ele>599</ele>
        <time>2017-10-01T08:42:03Z</time>
      </trkpt>
      <trkpt lat="45.77892" lon="4.6398">
        <ele>599</ele>
        <time>2017-10-01T08:42:06Z</time>
      </trkpt>
      <trkpt lat="45.77894" lon="4.63982">
        <ele>599</ele>
        <time>2017-10-01T08:42:07Z</time>
      </trkpt>
      <trkpt lat="45.77895" lon="4.63983">
        <ele>599</ele>
        <time>2017-10-01T08:42:08Z</time>
      </trkpt>
      <trkpt lat="45.77903" lon="4.63984">
        <ele>599</ele>
        <time>2017-10-01T08:42:12Z</time>
      </trkpt>
      <trkpt lat="45.77904" lon="4.63985">
        <ele>599</ele>
        <time>2017-10-01T08:42:13Z</time>
      </trkpt>
      <trkpt lat="45.77908" lon="4.63985">
        <ele>599</ele>
        <time>2017-10-01T08:42:15Z</time>
      </trkpt>
      <trkpt lat="45.77917" lon="4.63986">
        <ele>599.2</ele>
        <time>2017-10-01T08:42:21Z</time>
      </trkpt>
      <trkpt lat="45.77921" lon="4.63985">
        <ele>599.4</ele>
        <time>2017-10-01T08:42:24Z</time>
      </trkpt>
      <trkpt lat="45.77933" lon="4.63982">
        <ele>599.9</ele>
        <time>2017-10-01T08:42:32Z</time>
      </trkpt>
      <trkpt lat="45.77943" lon="4.63976">
        <ele>600.5</ele>
        <time>2017-10-01T08:42:37Z</time>
      </trkpt>
      <trkpt lat="45.77946" lon="4.63974">
        <ele>600.6</ele>
        <time>2017-10-01T08:42:38Z</time>
      </trkpt>
      <trkpt lat="45.77948" lon="4.63972">
        <ele>600.8</ele>
        <time>2017-10-01T08:42:39Z</time>
      </trkpt>
      <trkpt lat="45.77957" lon="4.63969">
        <ele>601.5</ele>
        <time>2017-10-01T08:42:43Z</time>
      </trkpt>
      <trkpt lat="45.77974" lon="4.63971">
        <ele>603.3</ele>
        <time>2017-10-01T08:42:46Z</time>
      </trkpt>
      <trkpt lat="45.77996" lon="4.63977">
        <ele>605.1</ele>
        <time>2017-10-01T08:42:51Z</time>
      </trkpt>
      <trkpt lat="45.78019" lon="4.63984">
        <ele>606.2</ele>
        <time>2017-10-01T08:42:57Z</time>
      </trkpt>
      <trkpt lat="45.78052" lon="4.63996">
        <ele>607.1</ele>
        <time>2017-10-01T08:43:06Z</time>
      </trkpt>
      <trkpt lat="45.78062" lon="4.63998">
        <ele>607.3</ele>
        <time>2017-10-01T08:43:08Z</time>
      </trkpt>
      <trkpt lat="45.7808" lon="4.63999">
        <ele>607.5</ele>
        <time>2017-10-01T08:43:12Z</time>
      </trkpt>
      <trkpt lat="45.78088" lon="4.64">
        <ele>607.7</ele>
        <time>2017-10-01T08:43:14Z</time>
      </trkpt>
      <trkpt lat="45.78104" lon="4.64001">
        <ele>607.9</ele>
        <time>2017-10-01T08:43:18Z</time>
      </trkpt>
      <trkpt lat="45.78125" lon="4.64004">
        <ele>608.4</ele>
        <time>2017-10-01T08:43:24Z</time>
      </trkpt>
      <trkpt lat="45.78141" lon="4.6401">
        <ele>609</ele>
        <time>2017-10-01T08:43:29Z</time>
      </trkpt>
      <trkpt lat="45.78151" lon="4.64013">
        <ele>609.5</ele>
        <time>2017-10-01T08:43:34Z</time>
      </trkpt>
      <trkpt lat="45.78153" lon="4.64017">
        <ele>609.7</ele>
        <time>2017-10-01T08:43:37Z</time>
      </trkpt>
      <trkpt lat="45.78152" lon="4.64014">
        <ele>609.9</ele>
        <time>2017-10-01T08:43:48Z</time>
      </trkpt>
      <trkpt lat="45.78151" lon="4.64013">
        <ele>610.1</ele>
        <time>2017-10-01T08:43:49Z</time>
      </trkpt>
      <trkpt lat="45.78155" lon="4.6402">
        <ele>610.8</ele>
        <time>2017-10-01T08:44:27Z</time>
      </trkpt>
      <trkpt lat="45.78158" lon="4.64023">
        <ele>611</ele>
        <time>2017-10-01T08:44:29Z</time>
      </trkpt>
      <trkpt lat="45.78159" lon="4.64023">
        <ele>611.1</ele>
        <time>2017-10-01T08:44:30Z</time>
      </trkpt>
      <trkpt lat="45.78164" lon="4.64029">
        <ele>611.6</ele>
        <time>2017-10-01T08:44:34Z</time>
      </trkpt>
      <trkpt lat="45.78165" lon="4.6403">
        <ele>611.8</ele>
        <time>2017-10-01T08:44:35Z</time>
      </trkpt>
      <trkpt lat="45.78174" lon="4.64035">
        <ele>613</ele>
        <time>2017-10-01T08:44:40Z</time>
      </trkpt>
      <trkpt lat="45.78179" lon="4.64039">
        <ele>613.9</ele>
        <time>2017-10-01T08:44:43Z</time>
      </trkpt>
      <trkpt lat="45.78188" lon="4.64043">
        <ele>614.9</ele>
        <time>2017-10-01T08:44:50Z</time>
      </trkpt>
      <trkpt lat="45.78202" lon="4.64046">
        <ele>615.8</ele>
        <time>2017-10-01T08:44:55Z</time>
      </trkpt>
      <trkpt lat="45.78208" lon="4.64048">
        <ele>616.1</ele>
        <time>2017-10-01T08:44:57Z</time>
      </trkpt>
      <trkpt lat="45.78219" lon="4.64052">
        <ele>616.7</ele>
        <time>2017-10-01T08:45:00Z</time>
      </trkpt>
      <trkpt lat="45.7824" lon="4.64058">
        <ele>617.9</ele>
        <time>2017-10-01T08:45:05Z</time>
      </trkpt>
      <trkpt lat="45.78242" lon="4.64061">
        <ele>618.1</ele>
        <time>2017-10-01T08:45:06Z</time>
      </trkpt>
      <trkpt lat="45.78243" lon="4.64064">
        <ele>618.2</ele>
        <time>2017-10-01T08:45:08Z</time>
      </trkpt>
      <trkpt lat="45.78241" lon="4.64058">
        <ele>619</ele>
        <time>2017-10-01T08:49:50Z</time>
      </trkpt>
      <trkpt lat="45.78243" lon="4.64056">
        <ele>618.9</ele>
        <time>2017-10-01T08:49:51Z</time>
      </trkpt>
      <trkpt lat="45.78251" lon="4.64055">
        <ele>618.5</ele>
        <time>2017-10-01T08:49:54Z</time>
      </trkpt>
      <trkpt lat="45.78255" lon="4.64053">
        <ele>618.3</ele>
        <time>2017-10-01T08:49:55Z</time>
      </trkpt>
      <trkpt lat="45.78269" lon="4.64042">
        <ele>616.4</ele>
        <time>2017-10-01T08:49:58Z</time>
      </trkpt>
      <trkpt lat="45.78272" lon="4.64034">
        <ele>615.5</ele>
        <time>2017-10-01T08:49:59Z</time>
      </trkpt>
      <trkpt lat="45.78275" lon="4.64015">
        <ele>613.7</ele>
        <time>2017-10-01T08:50:01Z</time>
      </trkpt>
      <trkpt lat="45.78277" lon="4.64004">
        <ele>612.5</ele>
        <time>2017-10-01T08:50:02Z</time>
      </trkpt>
      <trkpt lat="45.78276" lon="4.63993">
        <ele>611.5</ele>
        <time>2017-10-01T08:50:03Z</time>
      </trkpt>
      <trkpt lat="45.78275" lon="4.6398">
        <ele>611.1</ele>
        <time>2017-10-01T08:50:04Z</time>
      </trkpt>
      <trkpt lat="45.78273" lon="4.63969">
        <ele>610.7</ele>
        <time>2017-10-01T08:50:05Z</time>
      </trkpt>
      <trkpt lat="45.78269" lon="4.6396">
        <ele>610.5</ele>
        <time>2017-10-01T08:50:06Z</time>
      </trkpt>
      <trkpt lat="45.78267" lon="4.63951">
        <ele>610.2</ele>
        <time>2017-10-01T08:50:07Z</time>
      </trkpt>
      <trkpt lat="45.78265" lon="4.63942">
        <ele>609.8</ele>
        <time>2017-10-01T08:50:08Z</time>
      </trkpt>
      <trkpt lat="45.78264" lon="4.63932">
        <ele>609.5</ele>
        <time>2017-10-01T08:50:09Z</time>
      </trkpt>
      <trkpt lat="45.78261" lon="4.63903">
        <ele>607.3</ele>
        <time>2017-10-01T08:50:12Z</time>
      </trkpt>
      <trkpt lat="45.7826" lon="4.63893">
        <ele>606.6</ele>
        <time>2017-10-01T08:50:13Z</time>
      </trkpt>
      <trkpt lat="45.78261" lon="4.63872">
        <ele>605.8</ele>
        <time>2017-10-01T08:50:15Z</time>
      </trkpt>
      <trkpt lat="45.78262" lon="4.63853">
        <ele>605.5</ele>
        <time>2017-10-01T08:50:17Z</time>
      </trkpt>
      <trkpt lat="45.78262" lon="4.63844">
        <ele>605.5</ele>
        <time>2017-10-01T08:50:18Z</time>
      </trkpt>
      <trkpt lat="45.78261" lon="4.63835">
        <ele>605.5</ele>
        <time>2017-10-01T08:50:19Z</time>
      </trkpt>
      <trkpt lat="45.78258" lon="4.63813">
        <ele>605.1</ele>
        <time>2017-10-01T08:50:22Z</time>
      </trkpt>
      <trkpt lat="45.78255" lon="4.63808">
        <ele>604.7</ele>
        <time>2017-10-01T08:50:23Z</time>
      </trkpt>
      <trkpt lat="45.78248" lon="4.63791">
        <ele>602.9</ele>
        <time>2017-10-01T08:50:26Z</time>
      </trkpt>
      <trkpt lat="45.78245" lon="4.63785">
        <ele>602.3</ele>
        <time>2017-10-01T08:50:27Z</time>
      </trkpt>
      <trkpt lat="45.7824" lon="4.63772">
        <ele>600.9</ele>
        <time>2017-10-01T08:50:29Z</time>
      </trkpt>
      <trkpt lat="45.78235" lon="4.63757">
        <ele>599.3</ele>
        <time>2017-10-01T08:50:31Z</time>
      </trkpt>
      <trkpt lat="45.78234" lon="4.6375">
        <ele>598.3</ele>
        <time>2017-10-01T08:50:32Z</time>
      </trkpt>
      <trkpt lat="45.78232" lon="4.63743">
        <ele>598.1</ele>
        <time>2017-10-01T08:50:33Z</time>
      </trkpt>
      <trkpt lat="45.78227" lon="4.63732">
        <ele>596</ele>
        <time>2017-10-01T08:50:35Z</time>
      </trkpt>
      <trkpt lat="45.78224" lon="4.63726">
        <ele>594.9</ele>
        <time>2017-10-01T08:50:36Z</time>
      </trkpt>
      <trkpt lat="45.78221" lon="4.6372">
        <ele>594.1</ele>
        <time>2017-10-01T08:50:37Z</time>
      </trkpt>
      <trkpt lat="45.78216" lon="4.63708">
        <ele>591.9</ele>
        <time>2017-10-01T08:50:39Z</time>
      </trkpt>
      <trkpt lat="45.78212" lon="4.63695">
        <ele>590.6</ele>
        <time>2017-10-01T08:50:41Z</time>
      </trkpt>
      <trkpt lat="45.78209" lon="4.63684">
        <ele>589.4</ele>
        <time>2017-10-01T08:50:43Z</time>
      </trkpt>
      <trkpt lat="45.78208" lon="4.63677">
        <ele>588.6</ele>
        <time>2017-10-01T08:50:45Z</time>
      </trkpt>
      <trkpt lat="45.78205" lon="4.63669">
        <ele>586.7</ele>
        <time>2017-10-01T08:50:47Z</time>
      </trkpt>
      <trkpt lat="45.78204" lon="4.63665">
        <ele>586.1</ele>
        <time>2017-10-01T08:50:48Z</time>
      </trkpt>
      <trkpt lat="45.78203" lon="4.63663">
        <ele>585.2</ele>
        <time>2017-10-01T08:50:49Z</time>
      </trkpt>
      <trkpt lat="45.78201" lon="4.63657">
        <ele>582.8</ele>
        <time>2017-10-01T08:50:51Z</time>
      </trkpt>
      <trkpt lat="45.78199" lon="4.63654">
        <ele>582.9</ele>
        <time>2017-10-01T08:50:52Z</time>
      </trkpt>
      <trkpt lat="45.78197" lon="4.63651">
        <ele>581.3</ele>
        <time>2017-10-01T08:50:53Z</time>
      </trkpt>
      <trkpt lat="45.78196" lon="4.63649">
        <ele>580.6</ele>
        <time>2017-10-01T08:50:54Z</time>
      </trkpt>
      <trkpt lat="45.78194" lon="4.63645">
        <ele>579.8</ele>
        <time>2017-10-01T08:50:55Z</time>
      </trkpt>
      <trkpt lat="45.78191" lon="4.6364">
        <ele>577.9</ele>
        <time>2017-10-01T08:50:56Z</time>
      </trkpt>
      <trkpt lat="45.78189" lon="4.63634">
        <ele>576.6</ele>
        <time>2017-10-01T08:50:57Z</time>
      </trkpt>
      <trkpt lat="45.78185" lon="4.63619">
        <ele>574.5</ele>
        <time>2017-10-01T08:50:59Z</time>
      </trkpt>
      <trkpt lat="45.78181" lon="4.63602">
        <ele>572.3</ele>
        <time>2017-10-01T08:51:01Z</time>
      </trkpt>
      <trkpt lat="45.78178" lon="4.63586">
        <ele>569.8</ele>
        <time>2017-10-01T08:51:03Z</time>
      </trkpt>
      <trkpt lat="45.78176" lon="4.63571">
        <ele>567.3</ele>
        <time>2017-10-01T08:51:05Z</time>
      </trkpt>
      <trkpt lat="45.78175" lon="4.63555">
        <ele>565.9</ele>
        <time>2017-10-01T08:51:07Z</time>
      </trkpt>
      <trkpt lat="45.78177" lon="4.63534">
        <ele>563.9</ele>
        <time>2017-10-01T08:51:10Z</time>
      </trkpt>
      <trkpt lat="45.7818" lon="4.6353">
        <ele>563.4</ele>
        <time>2017-10-01T08:51:11Z</time>
      </trkpt>
      <trkpt lat="45.78182" lon="4.63522">
        <ele>563.2</ele>
        <time>2017-10-01T08:51:13Z</time>
      </trkpt>
      <trkpt lat="45.78179" lon="4.63513">
        <ele>560.8</ele>
        <time>2017-10-01T08:51:15Z</time>
      </trkpt>
      <trkpt lat="45.78178" lon="4.63504">
        <ele>559.7</ele>
        <time>2017-10-01T08:51:18Z</time>
      </trkpt>
      <trkpt lat="45.78178" lon="4.63501">
        <ele>559.4</ele>
        <time>2017-10-01T08:51:19Z</time>
      </trkpt>
      <trkpt lat="45.78177" lon="4.63493">
        <ele>558.9</ele>
        <time>2017-10-01T08:51:22Z</time>
      </trkpt>
      <trkpt lat="45.78175" lon="4.63489">
        <ele>558.1</ele>
        <time>2017-10-01T08:51:23Z</time>
      </trkpt>
      <trkpt lat="45.78169" lon="4.63481">
        <ele>556.5</ele>
        <time>2017-10-01T08:51:25Z</time>
      </trkpt>
      <trkpt lat="45.78165" lon="4.63471">
        <ele>555.1</ele>
        <time>2017-10-01T08:51:27Z</time>
      </trkpt>
      <trkpt lat="45.78161" lon="4.63462">
        <ele>554</ele>
        <time>2017-10-01T08:51:29Z</time>
      </trkpt>
      <trkpt lat="45.78156" lon="4.63457">
        <ele>552.6</ele>
        <time>2017-10-01T08:51:31Z</time>
      </trkpt>
      <trkpt lat="45.78153" lon="4.63455">
        <ele>551.8</ele>
        <time>2017-10-01T08:51:32Z</time>
      </trkpt>
      <trkpt lat="45.7815" lon="4.63453">
        <ele>551.4</ele>
        <time>2017-10-01T08:51:33Z</time>
      </trkpt>
      <trkpt lat="45.78147" lon="4.63448">
        <ele>550.8</ele>
        <time>2017-10-01T08:51:35Z</time>
      </trkpt>
      <trkpt lat="45.78146" lon="4.63445">
        <ele>550.7</ele>
        <time>2017-10-01T08:51:36Z</time>
      </trkpt>
      <trkpt lat="45.78146" lon="4.63441">
        <ele>550.4</ele>
        <time>2017-10-01T08:51:37Z</time>
      </trkpt>
      <trkpt lat="45.78146" lon="4.63434">
        <ele>549.6</ele>
        <time>2017-10-01T08:51:39Z</time>
      </trkpt>
      <trkpt lat="45.78146" lon="4.6343">
        <ele>549.6</ele>
        <time>2017-10-01T08:51:40Z</time>
      </trkpt>
      <trkpt lat="45.78146" lon="4.63427">
        <ele>549.1</ele>
        <time>2017-10-01T08:51:41Z</time>
      </trkpt>
      <trkpt lat="45.78143" lon="4.63423">
        <ele>548.3</ele>
        <time>2017-10-01T08:51:43Z</time>
      </trkpt>
      <trkpt lat="45.78141" lon="4.63422">
        <ele>548.2</ele>
        <time>2017-10-01T08:51:44Z</time>
      </trkpt>
      <trkpt lat="45.78138" lon="4.6342">
        <ele>547.6</ele>
        <time>2017-10-01T08:51:45Z</time>
      </trkpt>
      <trkpt lat="45.78135" lon="4.63418">
        <ele>547.5</ele>
        <time>2017-10-01T08:51:46Z</time>
      </trkpt>
      <trkpt lat="45.78131" lon="4.63418">
        <ele>547.4</ele>
        <time>2017-10-01T08:51:47Z</time>
      </trkpt>
      <trkpt lat="45.78128" lon="4.63419">
        <ele>547.3</ele>
        <time>2017-10-01T08:51:48Z</time>
      </trkpt>
      <trkpt lat="45.78122" lon="4.6342">
        <ele>546.8</ele>
        <time>2017-10-01T08:51:50Z</time>
      </trkpt>
      <trkpt lat="45.78121" lon="4.63417">
        <ele>546.5</ele>
        <time>2017-10-01T08:51:51Z</time>
      </trkpt>
      <trkpt lat="45.78121" lon="4.63412">
        <ele>546.2</ele>
        <time>2017-10-01T08:51:52Z</time>
      </trkpt>
      <trkpt lat="45.7812" lon="4.63402">
        <ele>545.3</ele>
        <time>2017-10-01T08:51:54Z</time>
      </trkpt>
      <trkpt lat="45.78115" lon="4.63397">
        <ele>544.8</ele>
        <time>2017-10-01T08:51:56Z</time>
      </trkpt>
      <trkpt lat="45.78112" lon="4.63394">
        <ele>544.2</ele>
        <time>2017-10-01T08:51:57Z</time>
      </trkpt>
      <trkpt lat="45.78108" lon="4.63392">
        <ele>543.6</ele>
        <time>2017-10-01T08:51:58Z</time>
      </trkpt>
      <trkpt lat="45.78105" lon="4.6339">
        <ele>542.7</ele>
        <time>2017-10-01T08:51:59Z</time>
      </trkpt>
      <trkpt lat="45.78104" lon="4.63386">
        <ele>542.3</ele>
        <time>2017-10-01T08:52:00Z</time>
      </trkpt>
      <trkpt lat="45.78103" lon="4.63383">
        <ele>541.8</ele>
        <time>2017-10-01T08:52:01Z</time>
      </trkpt>
      <trkpt lat="45.78104" lon="4.63379">
        <ele>541.8</ele>
        <time>2017-10-01T08:52:02Z</time>
      </trkpt>
      <trkpt lat="45.78109" lon="4.63376">
        <ele>542.2</ele>
        <time>2017-10-01T08:52:04Z</time>
      </trkpt>
      <trkpt lat="45.78115" lon="4.63376">
        <ele>542.6</ele>
        <time>2017-10-01T08:52:07Z</time>
      </trkpt>
      <trkpt lat="45.78117" lon="4.63374">
        <ele>542</ele>
        <time>2017-10-01T08:52:11Z</time>
      </trkpt>
      <trkpt lat="45.78119" lon="4.63373">
        <ele>542.1</ele>
        <time>2017-10-01T08:52:12Z</time>
      </trkpt>
      <trkpt lat="45.78122" lon="4.63368">
        <ele>541.5</ele>
        <time>2017-10-01T08:52:14Z</time>
      </trkpt>
      <trkpt lat="45.78122" lon="4.63365">
        <ele>540.9</ele>
        <time>2017-10-01T08:52:15Z</time>
      </trkpt>
      <trkpt lat="45.78124" lon="4.63357">
        <ele>540.4</ele>
        <time>2017-10-01T08:52:17Z</time>
      </trkpt>
      <trkpt lat="45.78124" lon="4.63353">
        <ele>539.8</ele>
        <time>2017-10-01T08:52:18Z</time>
      </trkpt>
      <trkpt lat="45.78123" lon="4.63349">
        <ele>539.2</ele>
        <time>2017-10-01T08:52:19Z</time>
      </trkpt>
      <trkpt lat="45.78123" lon="4.63341">
        <ele>537.9</ele>
        <time>2017-10-01T08:52:21Z</time>
      </trkpt>
      <trkpt lat="45.78124" lon="4.63328">
        <ele>536.3</ele>
        <time>2017-10-01T08:52:23Z</time>
      </trkpt>
      <trkpt lat="45.78121" lon="4.63307">
        <ele>533.6</ele>
        <time>2017-10-01T08:52:26Z</time>
      </trkpt>
      <trkpt lat="45.78122" lon="4.63284">
        <ele>530.3</ele>
        <time>2017-10-01T08:52:30Z</time>
      </trkpt>
      <trkpt lat="45.78125" lon="4.63272">
        <ele>529.3</ele>
        <time>2017-10-01T08:52:32Z</time>
      </trkpt>
      <trkpt lat="45.78125" lon="4.6326">
        <ele>527.7</ele>
        <time>2017-10-01T08:52:34Z</time>
      </trkpt>
      <trkpt lat="45.78124" lon="4.63255">
        <ele>526.8</ele>
        <time>2017-10-01T08:52:35Z</time>
      </trkpt>
      <trkpt lat="45.78117" lon="4.63246">
        <ele>524.9</ele>
        <time>2017-10-01T08:52:37Z</time>
      </trkpt>
      <trkpt lat="45.78115" lon="4.6324">
        <ele>524.3</ele>
        <time>2017-10-01T08:52:38Z</time>
      </trkpt>
      <trkpt lat="45.78115" lon="4.63226">
        <ele>522.7</ele>
        <time>2017-10-01T08:52:40Z</time>
      </trkpt>
      <trkpt lat="45.78116" lon="4.6322">
        <ele>521.9</ele>
        <time>2017-10-01T08:52:41Z</time>
      </trkpt>
      <trkpt lat="45.78117" lon="4.63215">
        <ele>521.5</ele>
        <time>2017-10-01T08:52:42Z</time>
      </trkpt>
      <trkpt lat="45.7812" lon="4.6321">
        <ele>521.1</ele>
        <time>2017-10-01T08:52:43Z</time>
      </trkpt>
      <trkpt lat="45.78125" lon="4.63206">
        <ele>520.3</ele>
        <time>2017-10-01T08:52:45Z</time>
      </trkpt>
      <trkpt lat="45.78134" lon="4.63199">
        <ele>518.9</ele>
        <time>2017-10-01T08:52:48Z</time>
      </trkpt>
      <trkpt lat="45.78147" lon="4.6319">
        <ele>518.2</ele>
        <time>2017-10-01T08:52:51Z</time>
      </trkpt>
      <trkpt lat="45.78152" lon="4.63187">
        <ele>518.4</ele>
        <time>2017-10-01T08:52:52Z</time>
      </trkpt>
      <trkpt lat="45.78157" lon="4.63185">
        <ele>518.4</ele>
        <time>2017-10-01T08:52:53Z</time>
      </trkpt>
      <trkpt lat="45.78162" lon="4.63183">
        <ele>517.7</ele>
        <time>2017-10-01T08:52:54Z</time>
      </trkpt>
      <trkpt lat="45.78167" lon="4.6318">
        <ele>517.1</ele>
        <time>2017-10-01T08:52:55Z</time>
      </trkpt>
      <trkpt lat="45.78175" lon="4.63177">
        <ele>516.4</ele>
        <time>2017-10-01T08:52:57Z</time>
      </trkpt>
      <trkpt lat="45.78179" lon="4.63178">
        <ele>516.1</ele>
        <time>2017-10-01T08:52:59Z</time>
      </trkpt>
      <trkpt lat="45.7818" lon="4.63179">
        <ele>515.8</ele>
        <time>2017-10-01T08:53:00Z</time>
      </trkpt>
      <trkpt lat="45.78183" lon="4.6318">
        <ele>515.9</ele>
        <time>2017-10-01T08:53:01Z</time>
      </trkpt>
      <trkpt lat="45.7819" lon="4.63184">
        <ele>515.4</ele>
        <time>2017-10-01T08:53:03Z</time>
      </trkpt>
      <trkpt lat="45.78198" lon="4.63185">
        <ele>514.6</ele>
        <time>2017-10-01T08:53:05Z</time>
      </trkpt>
      <trkpt lat="45.78202" lon="4.63186">
        <ele>514.9</ele>
        <time>2017-10-01T08:53:06Z</time>
      </trkpt>
      <trkpt lat="45.78205" lon="4.63188">
        <ele>514.7</ele>
        <time>2017-10-01T08:53:07Z</time>
      </trkpt>
      <trkpt lat="45.7821" lon="4.63193">
        <ele>514.5</ele>
        <time>2017-10-01T08:53:09Z</time>
      </trkpt>
      <trkpt lat="45.78219" lon="4.63198">
        <ele>514.2</ele>
        <time>2017-10-01T08:53:12Z</time>
      </trkpt>
      <trkpt lat="45.78221" lon="4.63199">
        <ele>514.3</ele>
        <time>2017-10-01T08:53:13Z</time>
      </trkpt>
      <trkpt lat="45.78228" lon="4.632">
        <ele>513.1</ele>
        <time>2017-10-01T08:53:16Z</time>
      </trkpt>
      <trkpt lat="45.78233" lon="4.63202">
        <ele>512.7</ele>
        <time>2017-10-01T08:53:17Z</time>
      </trkpt>
      <trkpt lat="45.78236" lon="4.63203">
        <ele>512.7</ele>
        <time>2017-10-01T08:53:18Z</time>
      </trkpt>
      <trkpt lat="45.78243" lon="4.63206">
        <ele>511.1</ele>
        <time>2017-10-01T08:53:20Z</time>
      </trkpt>
      <trkpt lat="45.7825" lon="4.6321">
        <ele>510.8</ele>
        <time>2017-10-01T08:53:22Z</time>
      </trkpt>
      <trkpt lat="45.78254" lon="4.63214">
        <ele>511.1</ele>
        <time>2017-10-01T08:53:24Z</time>
      </trkpt>
      <trkpt lat="45.78257" lon="4.63214">
        <ele>510.6</ele>
        <time>2017-10-01T08:53:26Z</time>
      </trkpt>
      <trkpt lat="45.78263" lon="4.63212">
        <ele>509.7</ele>
        <time>2017-10-01T08:53:29Z</time>
      </trkpt>
      <trkpt lat="45.78265" lon="4.6321">
        <ele>508.6</ele>
        <time>2017-10-01T08:53:30Z</time>
      </trkpt>
      <trkpt lat="45.78267" lon="4.63206">
        <ele>507.4</ele>
        <time>2017-10-01T08:53:32Z</time>
      </trkpt>
      <trkpt lat="45.7827" lon="4.63201">
        <ele>506.7</ele>
        <time>2017-10-01T08:53:34Z</time>
      </trkpt>
      <trkpt lat="45.78275" lon="4.63194">
        <ele>504.1</ele>
        <time>2017-10-01T08:53:36Z</time>
      </trkpt>
      <trkpt lat="45.78278" lon="4.6319">
        <ele>503.7</ele>
        <time>2017-10-01T08:53:37Z</time>
      </trkpt>
      <trkpt lat="45.78281" lon="4.63188">
        <ele>502.2</ele>
        <time>2017-10-01T08:53:38Z</time>
      </trkpt>
      <trkpt lat="45.78289" lon="4.63185">
        <ele>499.8</ele>
        <time>2017-10-01T08:53:40Z</time>
      </trkpt>
      <trkpt lat="45.78293" lon="4.63183">
        <ele>499.6</ele>
        <time>2017-10-01T08:53:41Z</time>
      </trkpt>
      <trkpt lat="45.78296" lon="4.63181">
        <ele>498.2</ele>
        <time>2017-10-01T08:53:42Z</time>
      </trkpt>
      <trkpt lat="45.78298" lon="4.63174">
        <ele>497</ele>
        <time>2017-10-01T08:53:44Z</time>
      </trkpt>
      <trkpt lat="45.78299" lon="4.63169">
        <ele>495.9</ele>
        <time>2017-10-01T08:53:45Z</time>
      </trkpt>
      <trkpt lat="45.78299" lon="4.63163">
        <ele>493.7</ele>
        <time>2017-10-01T08:53:46Z</time>
      </trkpt>
      <trkpt lat="45.78299" lon="4.63158">
        <ele>492.5</ele>
        <time>2017-10-01T08:53:47Z</time>
      </trkpt>
      <trkpt lat="45.78298" lon="4.63153">
        <ele>491.3</ele>
        <time>2017-10-01T08:53:48Z</time>
      </trkpt>
      <trkpt lat="45.78296" lon="4.63142">
        <ele>487.7</ele>
        <time>2017-10-01T08:53:50Z</time>
      </trkpt>
      <trkpt lat="45.78293" lon="4.63131">
        <ele>486.1</ele>
        <time>2017-10-01T08:53:52Z</time>
      </trkpt>
      <trkpt lat="45.78292" lon="4.63126">
        <ele>485.3</ele>
        <time>2017-10-01T08:53:53Z</time>
      </trkpt>
      <trkpt lat="45.78292" lon="4.63118">
        <ele>483.7</ele>
        <time>2017-10-01T08:53:55Z</time>
      </trkpt>
      <trkpt lat="45.78292" lon="4.63114">
        <ele>483.1</ele>
        <time>2017-10-01T08:53:56Z</time>
      </trkpt>
      <trkpt lat="45.78292" lon="4.63111">
        <ele>482.5</ele>
        <time>2017-10-01T08:53:57Z</time>
      </trkpt>
      <trkpt lat="45.78291" lon="4.63102">
        <ele>481.6</ele>
        <time>2017-10-01T08:54:01Z</time>
      </trkpt>
      <trkpt lat="45.78288" lon="4.63099">
        <ele>481.4</ele>
        <time>2017-10-01T08:54:03Z</time>
      </trkpt>
      <trkpt lat="45.78284" lon="4.63097">
        <ele>482</ele>
        <time>2017-10-01T08:54:05Z</time>
      </trkpt>
      <trkpt lat="45.78279" lon="4.63092">
        <ele>481.9</ele>
        <time>2017-10-01T08:54:07Z</time>
      </trkpt>
      <trkpt lat="45.78279" lon="4.63088">
        <ele>482.1</ele>
        <time>2017-10-01T08:54:09Z</time>
      </trkpt>
      <trkpt lat="45.78277" lon="4.6308">
        <ele>481.4</ele>
        <time>2017-10-01T08:54:11Z</time>
      </trkpt>
      <trkpt lat="45.78275" lon="4.63072">
        <ele>482.1</ele>
        <time>2017-10-01T08:54:13Z</time>
      </trkpt>
      <trkpt lat="45.78276" lon="4.63067">
        <ele>482.2</ele>
        <time>2017-10-01T08:54:14Z</time>
      </trkpt>
      <trkpt lat="45.78278" lon="4.63063">
        <ele>481.5</ele>
        <time>2017-10-01T08:54:15Z</time>
      </trkpt>
      <trkpt lat="45.78283" lon="4.63052">
        <ele>480.2</ele>
        <time>2017-10-01T08:54:17Z</time>
      </trkpt>
      <trkpt lat="45.78287" lon="4.63045">
        <ele>479.1</ele>
        <time>2017-10-01T08:54:18Z</time>
      </trkpt>
      <trkpt lat="45.7829" lon="4.63039">
        <ele>477.9</ele>
        <time>2017-10-01T08:54:19Z</time>
      </trkpt>
      <trkpt lat="45.78294" lon="4.63033">
        <ele>476.7</ele>
        <time>2017-10-01T08:54:20Z</time>
      </trkpt>
      <trkpt lat="45.78297" lon="4.63028">
        <ele>474.2</ele>
        <time>2017-10-01T08:54:21Z</time>
      </trkpt>
      <trkpt lat="45.78301" lon="4.63023">
        <ele>473.1</ele>
        <time>2017-10-01T08:54:22Z</time>
      </trkpt>
      <trkpt lat="45.78307" lon="4.63018">
        <ele>471</ele>
        <time>2017-10-01T08:54:23Z</time>
      </trkpt>
      <trkpt lat="45.78313" lon="4.63013">
        <ele>468.2</ele>
        <time>2017-10-01T08:54:24Z</time>
      </trkpt>
      <trkpt lat="45.78319" lon="4.63007">
        <ele>465</ele>
        <time>2017-10-01T08:54:25Z</time>
      </trkpt>
      <trkpt lat="45.78324" lon="4.63002">
        <ele>463.4</ele>
        <time>2017-10-01T08:54:26Z</time>
      </trkpt>
      <trkpt lat="45.78332" lon="4.62991">
        <ele>460</ele>
        <time>2017-10-01T08:54:28Z</time>
      </trkpt>
      <trkpt lat="45.78345" lon="4.6298">
        <ele>454.5</ele>
        <time>2017-10-01T08:54:30Z</time>
      </trkpt>
      <trkpt lat="45.7835" lon="4.62973">
        <ele>453.5</ele>
        <time>2017-10-01T08:54:31Z</time>
      </trkpt>
      <trkpt lat="45.78354" lon="4.62967">
        <ele>450.7</ele>
        <time>2017-10-01T08:54:32Z</time>
      </trkpt>
      <trkpt lat="45.78356" lon="4.6296">
        <ele>450.7</ele>
        <time>2017-10-01T08:54:33Z</time>
      </trkpt>
      <trkpt lat="45.78359" lon="4.62954">
        <ele>449.1</ele>
        <time>2017-10-01T08:54:34Z</time>
      </trkpt>
      <trkpt lat="45.78361" lon="4.62948">
        <ele>447.7</ele>
        <time>2017-10-01T08:54:35Z</time>
      </trkpt>
      <trkpt lat="45.78363" lon="4.62944">
        <ele>446.4</ele>
        <time>2017-10-01T08:54:36Z</time>
      </trkpt>
      <trkpt lat="45.78366" lon="4.62941">
        <ele>445.2</ele>
        <time>2017-10-01T08:54:37Z</time>
      </trkpt>
      <trkpt lat="45.7837" lon="4.62938">
        <ele>443.6</ele>
        <time>2017-10-01T08:54:38Z</time>
      </trkpt>
      <trkpt lat="45.78375" lon="4.62929">
        <ele>440.5</ele>
        <time>2017-10-01T08:54:40Z</time>
      </trkpt>
      <trkpt lat="45.78378" lon="4.62921">
        <ele>438.3</ele>
        <time>2017-10-01T08:54:41Z</time>
      </trkpt>
      <trkpt lat="45.78382" lon="4.62913">
        <ele>436.1</ele>
        <time>2017-10-01T08:54:42Z</time>
      </trkpt>
      <trkpt lat="45.78387" lon="4.62906">
        <ele>434.5</ele>
        <time>2017-10-01T08:54:43Z</time>
      </trkpt>
      <trkpt lat="45.78396" lon="4.62889">
        <ele>430.6</ele>
        <time>2017-10-01T08:54:45Z</time>
      </trkpt>
      <trkpt lat="45.78401" lon="4.6288">
        <ele>429.2</ele>
        <time>2017-10-01T08:54:46Z</time>
      </trkpt>
      <trkpt lat="45.78406" lon="4.62871">
        <ele>426.8</ele>
        <time>2017-10-01T08:54:47Z</time>
      </trkpt>
      <trkpt lat="45.78411" lon="4.62861">
        <ele>425</ele>
        <time>2017-10-01T08:54:48Z</time>
      </trkpt>
      <trkpt lat="45.78417" lon="4.62852">
        <ele>423.6</ele>
        <time>2017-10-01T08:54:49Z</time>
      </trkpt>
      <trkpt lat="45.78424" lon="4.62845">
        <ele>422</ele>
        <time>2017-10-01T08:54:50Z</time>
      </trkpt>
      <trkpt lat="45.78431" lon="4.62838">
        <ele>420</ele>
        <time>2017-10-01T08:54:51Z</time>
      </trkpt>
      <trkpt lat="45.78439" lon="4.62833">
        <ele>419</ele>
        <time>2017-10-01T08:54:52Z</time>
      </trkpt>
      <trkpt lat="45.78447" lon="4.62828">
        <ele>418.1</ele>
        <time>2017-10-01T08:54:53Z</time>
      </trkpt>
      <trkpt lat="45.78456" lon="4.62823">
        <ele>416.9</ele>
        <time>2017-10-01T08:54:54Z</time>
      </trkpt>
      <trkpt lat="45.78464" lon="4.62819">
        <ele>416.2</ele>
        <time>2017-10-01T08:54:55Z</time>
      </trkpt>
      <trkpt lat="45.78479" lon="4.62811">
        <ele>415.7</ele>
        <time>2017-10-01T08:54:57Z</time>
      </trkpt>
      <trkpt lat="45.78493" lon="4.62802">
        <ele>415.3</ele>
        <time>2017-10-01T08:54:59Z</time>
      </trkpt>
      <trkpt lat="45.78498" lon="4.62798">
        <ele>414.4</ele>
        <time>2017-10-01T08:55:00Z</time>
      </trkpt>
      <trkpt lat="45.78504" lon="4.62787">
        <ele>412.1</ele>
        <time>2017-10-01T08:55:02Z</time>
      </trkpt>
      <trkpt lat="45.78506" lon="4.62773">
        <ele>410.7</ele>
        <time>2017-10-01T08:55:04Z</time>
      </trkpt>
      <trkpt lat="45.78507" lon="4.62761">
        <ele>410</ele>
        <time>2017-10-01T08:55:06Z</time>
      </trkpt>
      <trkpt lat="45.78511" lon="4.62752">
        <ele>409.4</ele>
        <time>2017-10-01T08:55:08Z</time>
      </trkpt>
      <trkpt lat="45.78515" lon="4.62747">
        <ele>409.1</ele>
        <time>2017-10-01T08:55:09Z</time>
      </trkpt>
      <trkpt lat="45.78518" lon="4.62742">
        <ele>408.6</ele>
        <time>2017-10-01T08:55:10Z</time>
      </trkpt>
      <trkpt lat="45.78521" lon="4.62738">
        <ele>408.2</ele>
        <time>2017-10-01T08:55:11Z</time>
      </trkpt>
      <trkpt lat="45.78525" lon="4.62732">
        <ele>408.1</ele>
        <time>2017-10-01T08:55:12Z</time>
      </trkpt>
      <trkpt lat="45.78528" lon="4.62726">
        <ele>408</ele>
        <time>2017-10-01T08:55:13Z</time>
      </trkpt>
      <trkpt lat="45.78533" lon="4.62709">
        <ele>408</ele>
        <time>2017-10-01T08:55:15Z</time>
      </trkpt>
      <trkpt lat="45.78532" lon="4.627">
        <ele>408.5</ele>
        <time>2017-10-01T08:55:16Z</time>
      </trkpt>
      <trkpt lat="45.7853" lon="4.62693">
        <ele>412.1</ele>
        <time>2017-10-01T08:55:17Z</time>
      </trkpt>
      <trkpt lat="45.78527" lon="4.62685">
        <ele>415.7</ele>
        <time>2017-10-01T08:55:18Z</time>
      </trkpt>
      <trkpt lat="45.78525" lon="4.62677">
        <ele>419.6</ele>
        <time>2017-10-01T08:55:19Z</time>
      </trkpt>
      <trkpt lat="45.78525" lon="4.62669">
        <ele>423.1</ele>
        <time>2017-10-01T08:55:20Z</time>
      </trkpt>
      <trkpt lat="45.78526" lon="4.62661">
        <ele>426.3</ele>
        <time>2017-10-01T08:55:21Z</time>
      </trkpt>
      <trkpt lat="45.78531" lon="4.62651">
        <ele>427.6</ele>
        <time>2017-10-01T08:55:23Z</time>
      </trkpt>
      <trkpt lat="45.78536" lon="4.62647">
        <ele>428.1</ele>
        <time>2017-10-01T08:55:24Z</time>
      </trkpt>
      <trkpt lat="45.7854" lon="4.62643">
        <ele>428.2</ele>
        <time>2017-10-01T08:55:25Z</time>
      </trkpt>
      <trkpt lat="45.78553" lon="4.62633">
        <ele>428.8</ele>
        <time>2017-10-01T08:55:28Z</time>
      </trkpt>
      <trkpt lat="45.78561" lon="4.62627">
        <ele>428</ele>
        <time>2017-10-01T08:55:30Z</time>
      </trkpt>
      <trkpt lat="45.78565" lon="4.62624">
        <ele>427.7</ele>
        <time>2017-10-01T08:55:31Z</time>
      </trkpt>
      <trkpt lat="45.78569" lon="4.62621">
        <ele>427.9</ele>
        <time>2017-10-01T08:55:32Z</time>
      </trkpt>
      <trkpt lat="45.78576" lon="4.62615">
        <ele>427.1</ele>
        <time>2017-10-01T08:55:34Z</time>
      </trkpt>
      <trkpt lat="45.78584" lon="4.6261">
        <ele>425.2</ele>
        <time>2017-10-01T08:55:36Z</time>
      </trkpt>
      <trkpt lat="45.78599" lon="4.62599">
        <ele>421.8</ele>
        <time>2017-10-01T08:55:40Z</time>
      </trkpt>
      <trkpt lat="45.7861" lon="4.6259">
        <ele>418.7</ele>
        <time>2017-10-01T08:55:43Z</time>
      </trkpt>
      <trkpt lat="45.78617" lon="4.62584">
        <ele>418</ele>
        <time>2017-10-01T08:55:45Z</time>
      </trkpt>
      <trkpt lat="45.78624" lon="4.62577">
        <ele>417.5</ele>
        <time>2017-10-01T08:55:47Z</time>
      </trkpt>
      <trkpt lat="45.78632" lon="4.6257">
        <ele>416.9</ele>
        <time>2017-10-01T08:55:49Z</time>
      </trkpt>
      <trkpt lat="45.78669" lon="4.62539">
        <ele>414.8</ele>
        <time>2017-10-01T08:55:58Z</time>
      </trkpt>
      <trkpt lat="45.78673" lon="4.62536">
        <ele>414.3</ele>
        <time>2017-10-01T08:55:59Z</time>
      </trkpt>
      <trkpt lat="45.78695" lon="4.62523">
        <ele>414.5</ele>
        <time>2017-10-01T08:56:04Z</time>
      </trkpt>
      <trkpt lat="45.78699" lon="4.62521">
        <ele>414.2</ele>
        <time>2017-10-01T08:56:05Z</time>
      </trkpt>
      <trkpt lat="45.78735" lon="4.62511">
        <ele>412.1</ele>
        <time>2017-10-01T08:56:13Z</time>
      </trkpt>
      <trkpt lat="45.78739" lon="4.62509">
        <ele>411.5</ele>
        <time>2017-10-01T08:56:14Z</time>
      </trkpt>
      <trkpt lat="45.78772" lon="4.62499">
        <ele>408.4</ele>
        <time>2017-10-01T08:56:21Z</time>
      </trkpt>
      <trkpt lat="45.78805" lon="4.62486">
        <ele>408.7</ele>
        <time>2017-10-01T08:56:27Z</time>
      </trkpt>
      <trkpt lat="45.78817" lon="4.6248">
        <ele>408.3</ele>
        <time>2017-10-01T08:56:29Z</time>
      </trkpt>
      <trkpt lat="45.78828" lon="4.62473">
        <ele>406.9</ele>
        <time>2017-10-01T08:56:31Z</time>
      </trkpt>
      <trkpt lat="45.78838" lon="4.62465">
        <ele>406.6</ele>
        <time>2017-10-01T08:56:33Z</time>
      </trkpt>
      <trkpt lat="45.78865" lon="4.62445">
        <ele>407.5</ele>
        <time>2017-10-01T08:56:39Z</time>
      </trkpt>
      <trkpt lat="45.78897" lon="4.62429">
        <ele>407.8</ele>
        <time>2017-10-01T08:56:45Z</time>
      </trkpt>
      <trkpt lat="45.78917" lon="4.62417">
        <ele>405.7</ele>
        <time>2017-10-01T08:56:49Z</time>
      </trkpt>
      <trkpt lat="45.78939" lon="4.62407">
        <ele>404.8</ele>
        <time>2017-10-01T08:56:53Z</time>
      </trkpt>
      <trkpt lat="45.78944" lon="4.62404">
        <ele>404.9</ele>
        <time>2017-10-01T08:56:54Z</time>
      </trkpt>
      <trkpt lat="45.78962" lon="4.62392">
        <ele>404.3</ele>
        <time>2017-10-01T08:56:57Z</time>
      </trkpt>
      <trkpt lat="45.78968" lon="4.62388">
        <ele>403.5</ele>
        <time>2017-10-01T08:56:58Z</time>
      </trkpt>
      <trkpt lat="45.78981" lon="4.62379">
        <ele>401.4</ele>
        <time>2017-10-01T08:57:00Z</time>
      </trkpt>
      <trkpt lat="45.79005" lon="4.62365">
        <ele>396.3</ele>
        <time>2017-10-01T08:57:04Z</time>
      </trkpt>
      <trkpt lat="45.79019" lon="4.62357">
        <ele>392.1</ele>
        <time>2017-10-01T08:57:06Z</time>
      </trkpt>
      <trkpt lat="45.79035" lon="4.62347">
        <ele>388.6</ele>
        <time>2017-10-01T08:57:08Z</time>
      </trkpt>
      <trkpt lat="45.79044" lon="4.62343">
        <ele>386.6</ele>
        <time>2017-10-01T08:57:09Z</time>
      </trkpt>
      <trkpt lat="45.79053" lon="4.62341">
        <ele>384.6</ele>
        <time>2017-10-01T08:57:10Z</time>
      </trkpt>
      <trkpt lat="45.79063" lon="4.62339">
        <ele>382.2</ele>
        <time>2017-10-01T08:57:11Z</time>
      </trkpt>
      <trkpt lat="45.79072" lon="4.62337">
        <ele>380.1</ele>
        <time>2017-10-01T08:57:12Z</time>
      </trkpt>
      <trkpt lat="45.79081" lon="4.62335">
        <ele>377.3</ele>
        <time>2017-10-01T08:57:13Z</time>
      </trkpt>
      <trkpt lat="45.79089" lon="4.62332">
        <ele>375.1</ele>
        <time>2017-10-01T08:57:14Z</time>
      </trkpt>
      <trkpt lat="45.79096" lon="4.62328">
        <ele>373.8</ele>
        <time>2017-10-01T08:57:15Z</time>
      </trkpt>
      <trkpt lat="45.79102" lon="4.62324">
        <ele>372.3</ele>
        <time>2017-10-01T08:57:16Z</time>
      </trkpt>
      <trkpt lat="45.79107" lon="4.62319">
        <ele>372</ele>
        <time>2017-10-01T08:57:17Z</time>
      </trkpt>
      <trkpt lat="45.79111" lon="4.62318">
        <ele>372</ele>
        <time>2017-10-01T08:57:19Z</time>
      </trkpt>
      <trkpt lat="45.79111" lon="4.6232">
        <ele>370.7</ele>
        <time>2017-10-01T08:59:07Z</time>
      </trkpt>
      <trkpt lat="45.79112" lon="4.62321">
        <ele>370.6</ele>
        <time>2017-10-01T08:59:08Z</time>
      </trkpt>
      <trkpt lat="45.79118" lon="4.6232">
        <ele>370</ele>
        <time>2017-10-01T08:59:11Z</time>
      </trkpt>
      <trkpt lat="45.79125" lon="4.6232">
        <ele>369.4</ele>
        <time>2017-10-01T08:59:13Z</time>
      </trkpt>
      <trkpt lat="45.79133" lon="4.62324">
        <ele>368.6</ele>
        <time>2017-10-01T08:59:15Z</time>
      </trkpt>
      <trkpt lat="45.79135" lon="4.6233">
        <ele>368.2</ele>
        <time>2017-10-01T08:59:16Z</time>
      </trkpt>
      <trkpt lat="45.79137" lon="4.62342">
        <ele>367.2</ele>
        <time>2017-10-01T08:59:18Z</time>
      </trkpt>
      <trkpt lat="45.79137" lon="4.62348">
        <ele>366.7</ele>
        <time>2017-10-01T08:59:19Z</time>
      </trkpt>
      <trkpt lat="45.79135" lon="4.62359">
        <ele>365.7</ele>
        <time>2017-10-01T08:59:21Z</time>
      </trkpt>
      <trkpt lat="45.79135" lon="4.62372">
        <ele>364.5</ele>
        <time>2017-10-01T08:59:23Z</time>
      </trkpt>
      <trkpt lat="45.79139" lon="4.62389">
        <ele>363.2</ele>
        <time>2017-10-01T08:59:25Z</time>
      </trkpt>
      <trkpt lat="45.79143" lon="4.62409">
        <ele>361.9</ele>
        <time>2017-10-01T08:59:27Z</time>
      </trkpt>
      <trkpt lat="45.79148" lon="4.62431">
        <ele>360.3</ele>
        <time>2017-10-01T08:59:29Z</time>
      </trkpt>
      <trkpt lat="45.79152" lon="4.6245">
        <ele>359.1</ele>
        <time>2017-10-01T08:59:31Z</time>
      </trkpt>
      <trkpt lat="45.79152" lon="4.62469">
        <ele>357.3</ele>
        <time>2017-10-01T08:59:33Z</time>
      </trkpt>
      <trkpt lat="45.79153" lon="4.62487">
        <ele>355.8</ele>
        <time>2017-10-01T08:59:35Z</time>
      </trkpt>
      <trkpt lat="45.79153" lon="4.62495">
        <ele>355.5</ele>
        <time>2017-10-01T08:59:36Z</time>
      </trkpt>
      <trkpt lat="45.79153" lon="4.62502">
        <ele>355.4</ele>
        <time>2017-10-01T08:59:37Z</time>
      </trkpt>
      <trkpt lat="45.79156" lon="4.62511">
        <ele>355.6</ele>
        <time>2017-10-01T08:59:39Z</time>
      </trkpt>
      <trkpt lat="45.79167" lon="4.62514">
        <ele>355.8</ele>
        <time>2017-10-01T08:59:42Z</time>
      </trkpt>
      <trkpt lat="45.79171" lon="4.62515">
        <ele>356</ele>
        <time>2017-10-01T08:59:43Z</time>
      </trkpt>
      <trkpt lat="45.79185" lon="4.62515">
        <ele>356.9</ele>
        <time>2017-10-01T08:59:47Z</time>
      </trkpt>
      <trkpt lat="45.7919" lon="4.62516">
        <ele>357.2</ele>
        <time>2017-10-01T08:59:48Z</time>
      </trkpt>
      <trkpt lat="45.79218" lon="4.62521">
        <ele>357.4</ele>
        <time>2017-10-01T08:59:54Z</time>
      </trkpt>
      <trkpt lat="45.79242" lon="4.62527">
        <ele>354.2</ele>
        <time>2017-10-01T09:00:00Z</time>
      </trkpt>
      <trkpt lat="45.79256" lon="4.62532">
        <ele>352.3</ele>
        <time>2017-10-01T09:00:03Z</time>
      </trkpt>
      <trkpt lat="45.79269" lon="4.6254">
        <ele>350.9</ele>
        <time>2017-10-01T09:00:06Z</time>
      </trkpt>
      <trkpt lat="45.79273" lon="4.62542">
        <ele>350.8</ele>
        <time>2017-10-01T09:00:07Z</time>
      </trkpt>
      <trkpt lat="45.79291" lon="4.62554">
        <ele>351.5</ele>
        <time>2017-10-01T09:00:11Z</time>
      </trkpt>
      <trkpt lat="45.79316" lon="4.62574">
        <ele>354.8</ele>
        <time>2017-10-01T09:00:18Z</time>
      </trkpt>
      <trkpt lat="45.79327" lon="4.62581">
        <ele>356.8</ele>
        <time>2017-10-01T09:00:21Z</time>
      </trkpt>
      <trkpt lat="45.79341" lon="4.62593">
        <ele>358</ele>
        <time>2017-10-01T09:00:25Z</time>
      </trkpt>
      <trkpt lat="45.79345" lon="4.62596">
        <ele>358</ele>
        <time>2017-10-01T09:00:26Z</time>
      </trkpt>
      <trkpt lat="45.79349" lon="4.62602">
        <ele>358</ele>
        <time>2017-10-01T09:00:28Z</time>
      </trkpt>
      <trkpt lat="45.79351" lon="4.62608">
        <ele>358</ele>
        <time>2017-10-01T09:00:30Z</time>
      </trkpt>
      <trkpt lat="45.79351" lon="4.62614">
        <ele>358</ele>
        <time>2017-10-01T09:00:32Z</time>
      </trkpt>
      <trkpt lat="45.79353" lon="4.62619">
        <ele>357.8</ele>
        <time>2017-10-01T09:00:34Z</time>
      </trkpt>
      <trkpt lat="45.79355" lon="4.6262">
        <ele>357.6</ele>
        <time>2017-10-01T09:00:35Z</time>
      </trkpt>
      <trkpt lat="45.79357" lon="4.62619">
        <ele>357.5</ele>
        <time>2017-10-01T09:00:36Z</time>
      </trkpt>
      <trkpt lat="45.79364" lon="4.62616">
        <ele>356.7</ele>
        <time>2017-10-01T09:00:39Z</time>
      </trkpt>
      <trkpt lat="45.79367" lon="4.62615">
        <ele>356.4</ele>
        <time>2017-10-01T09:00:40Z</time>
      </trkpt>
      <trkpt lat="45.79385" lon="4.6261">
        <ele>355.8</ele>
        <time>2017-10-01T09:00:45Z</time>
      </trkpt>
      <trkpt lat="45.79412" lon="4.62604">
        <ele>354.4</ele>
        <time>2017-10-01T09:00:52Z</time>
      </trkpt>
      <trkpt lat="45.79426" lon="4.62596">
        <ele>353.9</ele>
        <time>2017-10-01T09:00:56Z</time>
      </trkpt>
      <trkpt lat="45.79457" lon="4.62584">
        <ele>354.2</ele>
        <time>2017-10-01T09:01:04Z</time>
      </trkpt>
      <trkpt lat="45.79493" lon="4.62572">
        <ele>353.6</ele>
        <time>2017-10-01T09:01:12Z</time>
      </trkpt>
      <trkpt lat="45.79523" lon="4.62568">
        <ele>352.4</ele>
        <time>2017-10-01T09:01:19Z</time>
      </trkpt>
      <trkpt lat="45.79557" lon="4.62568">
        <ele>350.1</ele>
        <time>2017-10-01T09:01:26Z</time>
      </trkpt>
      <trkpt lat="45.79563" lon="4.62569">
        <ele>349.8</ele>
        <time>2017-10-01T09:01:27Z</time>
      </trkpt>
      <trkpt lat="45.79583" lon="4.62569">
        <ele>348.6</ele>
        <time>2017-10-01T09:01:30Z</time>
      </trkpt>
      <trkpt lat="45.79591" lon="4.62569">
        <ele>348.4</ele>
        <time>2017-10-01T09:01:31Z</time>
      </trkpt>
      <trkpt lat="45.79599" lon="4.62569">
        <ele>348</ele>
        <time>2017-10-01T09:01:32Z</time>
      </trkpt>
      <trkpt lat="45.79615" lon="4.62569">
        <ele>346.3</ele>
        <time>2017-10-01T09:01:34Z</time>
      </trkpt>
      <trkpt lat="45.79629" lon="4.62569">
        <ele>346</ele>
        <time>2017-10-01T09:01:36Z</time>
      </trkpt>
      <trkpt lat="45.7964" lon="4.62569">
        <ele>345.6</ele>
        <time>2017-10-01T09:01:38Z</time>
      </trkpt>
      <trkpt lat="45.79652" lon="4.62569">
        <ele>344.2</ele>
        <time>2017-10-01T09:01:40Z</time>
      </trkpt>
      <trkpt lat="45.79658" lon="4.62567">
        <ele>343.9</ele>
        <time>2017-10-01T09:01:41Z</time>
      </trkpt>
      <trkpt lat="45.79665" lon="4.62565">
        <ele>343.6</ele>
        <time>2017-10-01T09:01:42Z</time>
      </trkpt>
      <trkpt lat="45.79679" lon="4.62559">
        <ele>342.2</ele>
        <time>2017-10-01T09:01:44Z</time>
      </trkpt>
      <trkpt lat="45.79687" lon="4.62557">
        <ele>341.5</ele>
        <time>2017-10-01T09:01:45Z</time>
      </trkpt>
      <trkpt lat="45.79693" lon="4.62556">
        <ele>341.1</ele>
        <time>2017-10-01T09:01:46Z</time>
      </trkpt>
      <trkpt lat="45.79698" lon="4.62555">
        <ele>340.4</ele>
        <time>2017-10-01T09:01:47Z</time>
      </trkpt>
      <trkpt lat="45.79703" lon="4.62554">
        <ele>339.6</ele>
        <time>2017-10-01T09:01:48Z</time>
      </trkpt>
      <trkpt lat="45.79707" lon="4.62554">
        <ele>339.1</ele>
        <time>2017-10-01T09:01:49Z</time>
      </trkpt>
      <trkpt lat="45.79712" lon="4.62554">
        <ele>338.6</ele>
        <time>2017-10-01T09:01:50Z</time>
      </trkpt>
      <trkpt lat="45.79715" lon="4.62553">
        <ele>339.2</ele>
        <time>2017-10-01T09:01:51Z</time>
      </trkpt>
      <trkpt lat="45.79719" lon="4.62553">
        <ele>339.7</ele>
        <time>2017-10-01T09:01:52Z</time>
      </trkpt>
      <trkpt lat="45.79721" lon="4.62554">
        <ele>340.1</ele>
        <time>2017-10-01T09:01:53Z</time>
      </trkpt>
      <trkpt lat="45.79723" lon="4.62557">
        <ele>340.4</ele>
        <time>2017-10-01T09:01:54Z</time>
      </trkpt>
      <trkpt lat="45.79724" lon="4.62562">
        <ele>341</ele>
        <time>2017-10-01T09:01:55Z</time>
      </trkpt>
      <trkpt lat="45.79725" lon="4.62567">
        <ele>341.3</ele>
        <time>2017-10-01T09:01:56Z</time>
      </trkpt>
      <trkpt lat="45.79726" lon="4.62572">
        <ele>340.7</ele>
        <time>2017-10-01T09:01:57Z</time>
      </trkpt>
      <trkpt lat="45.79727" lon="4.62575">
        <ele>340.4</ele>
        <time>2017-10-01T09:01:58Z</time>
      </trkpt>
      <trkpt lat="45.79729" lon="4.62575">
        <ele>340.3</ele>
        <time>2017-10-01T09:01:59Z</time>
      </trkpt>
      <trkpt lat="45.79731" lon="4.62573">
        <ele>340.1</ele>
        <time>2017-10-01T09:02:00Z</time>
      </trkpt>
      <trkpt lat="45.79735" lon="4.62569">
        <ele>339.8</ele>
        <time>2017-10-01T09:02:01Z</time>
      </trkpt>
      <trkpt lat="45.7974" lon="4.62563">
        <ele>339.2</ele>
        <time>2017-10-01T09:02:02Z</time>
      </trkpt>
      <trkpt lat="45.79746" lon="4.62555">
        <ele>337.5</ele>
        <time>2017-10-01T09:02:03Z</time>
      </trkpt>
      <trkpt lat="45.79754" lon="4.62537">
        <ele>332.5</ele>
        <time>2017-10-01T09:02:05Z</time>
      </trkpt>
      <trkpt lat="45.79759" lon="4.62532">
        <ele>330.5</ele>
        <time>2017-10-01T09:02:06Z</time>
      </trkpt>
      <trkpt lat="45.79764" lon="4.62531">
        <ele>328.9</ele>
        <time>2017-10-01T09:02:07Z</time>
      </trkpt>
      <trkpt lat="45.79771" lon="4.62539">
        <ele>325</ele>
        <time>2017-10-01T09:02:10Z</time>
      </trkpt>
      <trkpt lat="45.79775" lon="4.62544">
        <ele>325</ele>
        <time>2017-10-01T09:02:12Z</time>
      </trkpt>
      <trkpt lat="45.79779" lon="4.6255">
        <ele>325.2</ele>
        <time>2017-10-01T09:02:14Z</time>
      </trkpt>
      <trkpt lat="45.7979" lon="4.6257">
        <ele>326.7</ele>
        <time>2017-10-01T09:02:19Z</time>
      </trkpt>
      <trkpt lat="45.79802" lon="4.62592">
        <ele>328.4</ele>
        <time>2017-10-01T09:02:24Z</time>
      </trkpt>
      <trkpt lat="45.79812" lon="4.62615">
        <ele>328.8</ele>
        <time>2017-10-01T09:02:29Z</time>
      </trkpt>
      <trkpt lat="45.79828" lon="4.62637">
        <ele>328.4</ele>
        <time>2017-10-01T09:02:35Z</time>
      </trkpt>
      <trkpt lat="45.79834" lon="4.62644">
        <ele>328.3</ele>
        <time>2017-10-01T09:02:37Z</time>
      </trkpt>
      <trkpt lat="45.79839" lon="4.6265">
        <ele>328.2</ele>
        <time>2017-10-01T09:02:39Z</time>
      </trkpt>
      <trkpt lat="45.79844" lon="4.62656">
        <ele>328.1</ele>
        <time>2017-10-01T09:02:41Z</time>
      </trkpt>
      <trkpt lat="45.79848" lon="4.62661">
        <ele>328</ele>
        <time>2017-10-01T09:02:43Z</time>
      </trkpt>
      <trkpt lat="45.79851" lon="4.62663">
        <ele>328</ele>
        <time>2017-10-01T09:02:44Z</time>
      </trkpt>
      <trkpt lat="45.79857" lon="4.62671">
        <ele>327.8</ele>
        <time>2017-10-01T09:02:47Z</time>
      </trkpt>
      <trkpt lat="45.79863" lon="4.62678">
        <ele>327.6</ele>
        <time>2017-10-01T09:02:50Z</time>
      </trkpt>
      <trkpt lat="45.79867" lon="4.62682">
        <ele>327.4</ele>
        <time>2017-10-01T09:02:52Z</time>
      </trkpt>
      <trkpt lat="45.7987" lon="4.62684">
        <ele>327.3</ele>
        <time>2017-10-01T09:02:53Z</time>
      </trkpt>
      <trkpt lat="45.79872" lon="4.62684">
        <ele>327.3</ele>
        <time>2017-10-01T09:02:54Z</time>
      </trkpt>
      <trkpt lat="45.79874" lon="4.62684">
        <ele>327.2</ele>
        <time>2017-10-01T09:02:55Z</time>
      </trkpt>
      <trkpt lat="45.79876" lon="4.62683">
        <ele>327.1</ele>
        <time>2017-10-01T09:02:56Z</time>
      </trkpt>
      <trkpt lat="45.79877" lon="4.6268">
        <ele>327</ele>
        <time>2017-10-01T09:02:57Z</time>
      </trkpt>
      <trkpt lat="45.79877" lon="4.62672">
        <ele>327</ele>
        <time>2017-10-01T09:02:59Z</time>
      </trkpt>
      <trkpt lat="45.79877" lon="4.62668">
        <ele>327</ele>
        <time>2017-10-01T09:03:00Z</time>
      </trkpt>
      <trkpt lat="45.79876" lon="4.62663">
        <ele>327</ele>
        <time>2017-10-01T09:03:01Z</time>
      </trkpt>
      <trkpt lat="45.79873" lon="4.62643">
        <ele>326.9</ele>
        <time>2017-10-01T09:03:05Z</time>
      </trkpt>
      <trkpt lat="45.7987" lon="4.62595">
        <ele>327</ele>
        <time>2017-10-01T09:03:14Z</time>
      </trkpt>
      <trkpt lat="45.79869" lon="4.62572">
        <ele>325</ele>
        <time>2017-10-01T09:03:18Z</time>
      </trkpt>
      <trkpt lat="45.79869" lon="4.6256">
        <ele>325</ele>
        <time>2017-10-01T09:03:20Z</time>
      </trkpt>
      <trkpt lat="45.79876" lon="4.6252">
        <ele>325</ele>
        <time>2017-10-01T09:03:27Z</time>
      </trkpt>
      <trkpt lat="45.79879" lon="4.62514">
        <ele>325.3</ele>
        <time>2017-10-01T09:03:28Z</time>
      </trkpt>
      <trkpt lat="45.79895" lon="4.62492">
        <ele>325.9</ele>
        <time>2017-10-01T09:03:33Z</time>
      </trkpt>
      <trkpt lat="45.79898" lon="4.62482">
        <ele>326</ele>
        <time>2017-10-01T09:03:35Z</time>
      </trkpt>
      <trkpt lat="45.79899" lon="4.62475">
        <ele>326</ele>
        <time>2017-10-01T09:03:36Z</time>
      </trkpt>
      <trkpt lat="45.79897" lon="4.62461">
        <ele>326.1</ele>
        <time>2017-10-01T09:03:38Z</time>
      </trkpt>
      <trkpt lat="45.79897" lon="4.62454">
        <ele>326.1</ele>
        <time>2017-10-01T09:03:39Z</time>
      </trkpt>
      <trkpt lat="45.79895" lon="4.6244">
        <ele>326.4</ele>
        <time>2017-10-01T09:03:41Z</time>
      </trkpt>
      <trkpt lat="45.79895" lon="4.62402">
        <ele>327.4</ele>
        <time>2017-10-01T09:03:46Z</time>
      </trkpt>
      <trkpt lat="45.79896" lon="4.62388">
        <ele>327.9</ele>
        <time>2017-10-01T09:03:48Z</time>
      </trkpt>
      <trkpt lat="45.79898" lon="4.62375">
        <ele>328.3</ele>
        <time>2017-10-01T09:03:50Z</time>
      </trkpt>
      <trkpt lat="45.79905" lon="4.6235">
        <ele>329.1</ele>
        <time>2017-10-01T09:03:54Z</time>
      </trkpt>
      <trkpt lat="45.79913" lon="4.62326">
        <ele>329.7</ele>
        <time>2017-10-01T09:03:58Z</time>
      </trkpt>
      <trkpt lat="45.7992" lon="4.62311">
        <ele>329.8</ele>
        <time>2017-10-01T09:04:01Z</time>
      </trkpt>
      <trkpt lat="45.79941" lon="4.62272">
        <ele>330</ele>
        <time>2017-10-01T09:04:09Z</time>
      </trkpt>
      <trkpt lat="45.79943" lon="4.62261">
        <ele>329.4</ele>
        <time>2017-10-01T09:04:11Z</time>
      </trkpt>
      <trkpt lat="45.79943" lon="4.62248">
        <ele>328.6</ele>
        <time>2017-10-01T09:04:13Z</time>
      </trkpt>
      <trkpt lat="45.79935" lon="4.62228">
        <ele>328</ele>
        <time>2017-10-01T09:04:16Z</time>
      </trkpt>
      <trkpt lat="45.79932" lon="4.6222">
        <ele>328</ele>
        <time>2017-10-01T09:04:17Z</time>
      </trkpt>
      <trkpt lat="45.79925" lon="4.6219">
        <ele>328</ele>
        <time>2017-10-01T09:04:20Z</time>
      </trkpt>
      <trkpt lat="45.79918" lon="4.62145">
        <ele>326.5</ele>
        <time>2017-10-01T09:04:24Z</time>
      </trkpt>
      <trkpt lat="45.79917" lon="4.62135">
        <ele>326</ele>
        <time>2017-10-01T09:04:25Z</time>
      </trkpt>
      <trkpt lat="45.79918" lon="4.62126">
        <ele>325.5</ele>
        <time>2017-10-01T09:04:26Z</time>
      </trkpt>
      <trkpt lat="45.79918" lon="4.62117">
        <ele>325</ele>
        <time>2017-10-01T09:04:27Z</time>
      </trkpt>
      <trkpt lat="45.79919" lon="4.62108">
        <ele>324.4</ele>
        <time>2017-10-01T09:04:28Z</time>
      </trkpt>
      <trkpt lat="45.79925" lon="4.62092">
        <ele>323</ele>
        <time>2017-10-01T09:04:30Z</time>
      </trkpt>
      <trkpt lat="45.79938" lon="4.62075">
        <ele>323.3</ele>
        <time>2017-10-01T09:04:33Z</time>
      </trkpt>
      <trkpt lat="45.79943" lon="4.62071">
        <ele>323.4</ele>
        <time>2017-10-01T09:04:34Z</time>
      </trkpt>
      <trkpt lat="45.79972" lon="4.62054">
        <ele>324.1</ele>
        <time>2017-10-01T09:04:40Z</time>
      </trkpt>
      <trkpt lat="45.79981" lon="4.62048">
        <ele>324.5</ele>
        <time>2017-10-01T09:04:42Z</time>
      </trkpt>
      <trkpt lat="45.79993" lon="4.62037">
        <ele>325</ele>
        <time>2017-10-01T09:04:45Z</time>
      </trkpt>
      <trkpt lat="45.79996" lon="4.62031">
        <ele>325.2</ele>
        <time>2017-10-01T09:04:46Z</time>
      </trkpt>
      <trkpt lat="45.79998" lon="4.62026">
        <ele>325.4</ele>
        <time>2017-10-01T09:04:47Z</time>
      </trkpt>
      <trkpt lat="45.79999" lon="4.62013">
        <ele>325.8</ele>
        <time>2017-10-01T09:04:49Z</time>
      </trkpt>
      <trkpt lat="45.79998" lon="4.62007">
        <ele>326</ele>
        <time>2017-10-01T09:04:50Z</time>
      </trkpt>
      <trkpt lat="45.79998" lon="4.62001">
        <ele>326.2</ele>
        <time>2017-10-01T09:04:51Z</time>
      </trkpt>
      <trkpt lat="45.79997" lon="4.61995">
        <ele>326.4</ele>
        <time>2017-10-01T09:04:52Z</time>
      </trkpt>
      <trkpt lat="45.79996" lon="4.61986">
        <ele>326.6</ele>
        <time>2017-10-01T09:04:54Z</time>
      </trkpt>
      <trkpt lat="45.79995" lon="4.6198">
        <ele>326.6</ele>
        <time>2017-10-01T09:04:56Z</time>
      </trkpt>
      <trkpt lat="45.79994" lon="4.61975">
        <ele>326.6</ele>
        <time>2017-10-01T09:04:58Z</time>
      </trkpt>
      <trkpt lat="45.79993" lon="4.6197">
        <ele>326.4</ele>
        <time>2017-10-01T09:05:00Z</time>
      </trkpt>
      <trkpt lat="45.79993" lon="4.61967">
        <ele>326.3</ele>
        <time>2017-10-01T09:05:01Z</time>
      </trkpt>
      <trkpt lat="45.79993" lon="4.61952">
        <ele>325.5</ele>
        <time>2017-10-01T09:05:05Z</time>
      </trkpt>
      <trkpt lat="45.79994" lon="4.61947">
        <ele>325.1</ele>
        <time>2017-10-01T09:05:06Z</time>
      </trkpt>
      <trkpt lat="45.79997" lon="4.61935">
        <ele>324.2</ele>
        <time>2017-10-01T09:05:08Z</time>
      </trkpt>
      <trkpt lat="45.79999" lon="4.61928">
        <ele>323.8</ele>
        <time>2017-10-01T09:05:09Z</time>
      </trkpt>
      <trkpt lat="45.80004" lon="4.61915">
        <ele>322.9</ele>
        <time>2017-10-01T09:05:11Z</time>
      </trkpt>
      <trkpt lat="45.80007" lon="4.61909">
        <ele>322.6</ele>
        <time>2017-10-01T09:05:12Z</time>
      </trkpt>
      <trkpt lat="45.80009" lon="4.61903">
        <ele>322.2</ele>
        <time>2017-10-01T09:05:13Z</time>
      </trkpt>
      <trkpt lat="45.80015" lon="4.61891">
        <ele>321.6</ele>
        <time>2017-10-01T09:05:15Z</time>
      </trkpt>
      <trkpt lat="45.8002" lon="4.61879">
        <ele>320.8</ele>
        <time>2017-10-01T09:05:17Z</time>
      </trkpt>
      <trkpt lat="45.80023" lon="4.61874">
        <ele>320.4</ele>
        <time>2017-10-01T09:05:18Z</time>
      </trkpt>
      <trkpt lat="45.80038" lon="4.61853">
        <ele>318.9</ele>
        <time>2017-10-01T09:05:22Z</time>
      </trkpt>
      <trkpt lat="45.80043" lon="4.61849">
        <ele>318.4</ele>
        <time>2017-10-01T09:05:23Z</time>
      </trkpt>
      <trkpt lat="45.80051" lon="4.61841">
        <ele>317.3</ele>
        <time>2017-10-01T09:05:25Z</time>
      </trkpt>
      <trkpt lat="45.80061" lon="4.61833">
        <ele>316.1</ele>
        <time>2017-10-01T09:05:27Z</time>
      </trkpt>
      <trkpt lat="45.80066" lon="4.6183">
        <ele>315.5</ele>
        <time>2017-10-01T09:05:28Z</time>
      </trkpt>
      <trkpt lat="45.80077" lon="4.61822">
        <ele>314.2</ele>
        <time>2017-10-01T09:05:30Z</time>
      </trkpt>
      <trkpt lat="45.80083" lon="4.61818">
        <ele>313.7</ele>
        <time>2017-10-01T09:05:31Z</time>
      </trkpt>
      <trkpt lat="45.80111" lon="4.61799">
        <ele>311.3</ele>
        <time>2017-10-01T09:05:36Z</time>
      </trkpt>
      <trkpt lat="45.80116" lon="4.61793">
        <ele>310.9</ele>
        <time>2017-10-01T09:05:37Z</time>
      </trkpt>
      <trkpt lat="45.80124" lon="4.61781">
        <ele>310.2</ele>
        <time>2017-10-01T09:05:39Z</time>
      </trkpt>
      <trkpt lat="45.80136" lon="4.61764">
        <ele>309.1</ele>
        <time>2017-10-01T09:05:42Z</time>
      </trkpt>
      <trkpt lat="45.80154" lon="4.61733">
        <ele>308.2</ele>
        <time>2017-10-01T09:05:48Z</time>
      </trkpt>
      <trkpt lat="45.80161" lon="4.61722">
        <ele>308</ele>
        <time>2017-10-01T09:05:51Z</time>
      </trkpt>
      <trkpt lat="45.80162" lon="4.6172">
        <ele>308</ele>
        <time>2017-10-01T09:05:52Z</time>
      </trkpt>
      <trkpt lat="45.8017" lon="4.61709">
        <ele>309.7</ele>
        <time>2017-10-01T09:05:56Z</time>
      </trkpt>
      <trkpt lat="45.80173" lon="4.61706">
        <ele>311.6</ele>
        <time>2017-10-01T09:05:57Z</time>
      </trkpt>
      <trkpt lat="45.80181" lon="4.617">
        <ele>315.2</ele>
        <time>2017-10-01T09:05:59Z</time>
      </trkpt>
      <trkpt lat="45.80187" lon="4.61698">
        <ele>316.7</ele>
        <time>2017-10-01T09:06:00Z</time>
      </trkpt>
      <trkpt lat="45.80198" lon="4.61697">
        <ele>318.9</ele>
        <time>2017-10-01T09:06:02Z</time>
      </trkpt>
      <trkpt lat="45.80214" lon="4.61695">
        <ele>322</ele>
        <time>2017-10-01T09:06:05Z</time>
      </trkpt>
      <trkpt lat="45.80224" lon="4.61695">
        <ele>322.2</ele>
        <time>2017-10-01T09:06:07Z</time>
      </trkpt>
      <trkpt lat="45.80246" lon="4.61694">
        <ele>322.4</ele>
        <time>2017-10-01T09:06:11Z</time>
      </trkpt>
      <trkpt lat="45.80274" lon="4.61691">
        <ele>322.7</ele>
        <time>2017-10-01T09:06:16Z</time>
      </trkpt>
      <trkpt lat="45.80293" lon="4.6169">
        <ele>322.8</ele>
        <time>2017-10-01T09:06:19Z</time>
      </trkpt>
      <trkpt lat="45.80327" lon="4.617">
        <ele>324.3</ele>
        <time>2017-10-01T09:06:25Z</time>
      </trkpt>
      <trkpt lat="45.80347" lon="4.6172">
        <ele>325.4</ele>
        <time>2017-10-01T09:06:29Z</time>
      </trkpt>
      <trkpt lat="45.80351" lon="4.61726">
        <ele>325.6</ele>
        <time>2017-10-01T09:06:30Z</time>
      </trkpt>
      <trkpt lat="45.80384" lon="4.61755">
        <ele>326.5</ele>
        <time>2017-10-01T09:06:37Z</time>
      </trkpt>
      <trkpt lat="45.80394" lon="4.61756">
        <ele>326.6</ele>
        <time>2017-10-01T09:06:39Z</time>
      </trkpt>
      <trkpt lat="45.80403" lon="4.61753">
        <ele>327</ele>
        <time>2017-10-01T09:06:41Z</time>
      </trkpt>
      <trkpt lat="45.80407" lon="4.61751">
        <ele>327.2</ele>
        <time>2017-10-01T09:06:42Z</time>
      </trkpt>
      <trkpt lat="45.80411" lon="4.61748">
        <ele>327.4</ele>
        <time>2017-10-01T09:06:43Z</time>
      </trkpt>
      <trkpt lat="45.80415" lon="4.61745">
        <ele>327.6</ele>
        <time>2017-10-01T09:06:44Z</time>
      </trkpt>
      <trkpt lat="45.80426" lon="4.61735">
        <ele>328.6</ele>
        <time>2017-10-01T09:06:47Z</time>
      </trkpt>
      <trkpt lat="45.80429" lon="4.61732">
        <ele>329.1</ele>
        <time>2017-10-01T09:06:48Z</time>
      </trkpt>
      <trkpt lat="45.80433" lon="4.6173">
        <ele>329.4</ele>
        <time>2017-10-01T09:06:49Z</time>
      </trkpt>
      <trkpt lat="45.8044" lon="4.61727">
        <ele>330.7</ele>
        <time>2017-10-01T09:06:51Z</time>
      </trkpt>
      <trkpt lat="45.80443" lon="4.61727">
        <ele>331.1</ele>
        <time>2017-10-01T09:06:52Z</time>
      </trkpt>
      <trkpt lat="45.80449" lon="4.61729">
        <ele>331.7</ele>
        <time>2017-10-01T09:06:54Z</time>
      </trkpt>
      <trkpt lat="45.80452" lon="4.61731">
        <ele>332</ele>
        <time>2017-10-01T09:06:55Z</time>
      </trkpt>
      <trkpt lat="45.80456" lon="4.61733">
        <ele>332.6</ele>
        <time>2017-10-01T09:06:57Z</time>
      </trkpt>
      <trkpt lat="45.80459" lon="4.61733">
        <ele>333.1</ele>
        <time>2017-10-01T09:06:58Z</time>
      </trkpt>
      <trkpt lat="45.80467" lon="4.61736">
        <ele>334.8</ele>
        <time>2017-10-01T09:07:02Z</time>
      </trkpt>
      <trkpt lat="45.80469" lon="4.61737">
        <ele>335.3</ele>
        <time>2017-10-01T09:07:03Z</time>
      </trkpt>
      <trkpt lat="45.80476" lon="4.61739">
        <ele>335.9</ele>
        <time>2017-10-01T09:07:06Z</time>
      </trkpt>
      <trkpt lat="45.80482" lon="4.6174">
        <ele>336.9</ele>
        <time>2017-10-01T09:07:09Z</time>
      </trkpt>
      <trkpt lat="45.80484" lon="4.6174">
        <ele>337.3</ele>
        <time>2017-10-01T09:07:10Z</time>
      </trkpt>
      <trkpt lat="45.8049" lon="4.61742">
        <ele>338.5</ele>
        <time>2017-10-01T09:07:13Z</time>
      </trkpt>
      <trkpt lat="45.80497" lon="4.61748">
        <ele>340.2</ele>
        <time>2017-10-01T09:07:17Z</time>
      </trkpt>
      <trkpt lat="45.80502" lon="4.61752">
        <ele>341.3</ele>
        <time>2017-10-01T09:07:20Z</time>
      </trkpt>
      <trkpt lat="45.80507" lon="4.61759">
        <ele>342.7</ele>
        <time>2017-10-01T09:07:23Z</time>
      </trkpt>
      <trkpt lat="45.80509" lon="4.61761">
        <ele>343.1</ele>
        <time>2017-10-01T09:07:24Z</time>
      </trkpt>
      <trkpt lat="45.80514" lon="4.61761">
        <ele>344.2</ele>
        <time>2017-10-01T09:07:27Z</time>
      </trkpt>
      <trkpt lat="45.80516" lon="4.6176">
        <ele>344.6</ele>
        <time>2017-10-01T09:07:28Z</time>
      </trkpt>
      <trkpt lat="45.80518" lon="4.61759">
        <ele>345</ele>
        <time>2017-10-01T09:07:29Z</time>
      </trkpt>
      <trkpt lat="45.80524" lon="4.61752">
        <ele>345.7</ele>
        <time>2017-10-01T09:07:33Z</time>
      </trkpt>
      <trkpt lat="45.80526" lon="4.61746">
        <ele>346.2</ele>
        <time>2017-10-01T09:07:36Z</time>
      </trkpt>
      <trkpt lat="45.8053" lon="4.61736">
        <ele>347.1</ele>
        <time>2017-10-01T09:07:40Z</time>
      </trkpt>
      <trkpt lat="45.80534" lon="4.6173">
        <ele>348.2</ele>
        <time>2017-10-01T09:07:43Z</time>
      </trkpt>
      <trkpt lat="45.80538" lon="4.61728">
        <ele>348.7</ele>
        <time>2017-10-01T09:07:45Z</time>
      </trkpt>
      <trkpt lat="45.80543" lon="4.61725">
        <ele>349.4</ele>
        <time>2017-10-01T09:07:48Z</time>
      </trkpt>
      <trkpt lat="45.80551" lon="4.61725">
        <ele>350.2</ele>
        <time>2017-10-01T09:07:52Z</time>
      </trkpt>
      <trkpt lat="45.80557" lon="4.61725">
        <ele>350.9</ele>
        <time>2017-10-01T09:07:55Z</time>
      </trkpt>
      <trkpt lat="45.80565" lon="4.61724">
        <ele>351.9</ele>
        <time>2017-10-01T09:08:00Z</time>
      </trkpt>
      <trkpt lat="45.80567" lon="4.61723">
        <ele>352.1</ele>
        <time>2017-10-01T09:08:01Z</time>
      </trkpt>
      <trkpt lat="45.80578" lon="4.61721">
        <ele>353.1</ele>
        <time>2017-10-01T09:08:06Z</time>
      </trkpt>
      <trkpt lat="45.80583" lon="4.6172">
        <ele>353.5</ele>
        <time>2017-10-01T09:08:08Z</time>
      </trkpt>
      <trkpt lat="45.80592" lon="4.61716">
        <ele>354.3</ele>
        <time>2017-10-01T09:08:12Z</time>
      </trkpt>
      <trkpt lat="45.80603" lon="4.61712">
        <ele>355.2</ele>
        <time>2017-10-01T09:08:17Z</time>
      </trkpt>
      <trkpt lat="45.80615" lon="4.61706">
        <ele>355.6</ele>
        <time>2017-10-01T09:08:23Z</time>
      </trkpt>
      <trkpt lat="45.80625" lon="4.61703">
        <ele>355.9</ele>
        <time>2017-10-01T09:08:27Z</time>
      </trkpt>
      <trkpt lat="45.80632" lon="4.61699">
        <ele>356.5</ele>
        <time>2017-10-01T09:08:30Z</time>
      </trkpt>
      <trkpt lat="45.80649" lon="4.61689">
        <ele>357.8</ele>
        <time>2017-10-01T09:08:37Z</time>
      </trkpt>
      <trkpt lat="45.80652" lon="4.61688">
        <ele>357.9</ele>
        <time>2017-10-01T09:08:38Z</time>
      </trkpt>
      <trkpt lat="45.8067" lon="4.6168">
        <ele>358.4</ele>
        <time>2017-10-01T09:08:45Z</time>
      </trkpt>
      <trkpt lat="45.80689" lon="4.6168">
        <ele>358.5</ele>
        <time>2017-10-01T09:08:51Z</time>
      </trkpt>
      <trkpt lat="45.80708" lon="4.61692">
        <ele>357.9</ele>
        <time>2017-10-01T09:08:56Z</time>
      </trkpt>
      <trkpt lat="45.80725" lon="4.61704">
        <ele>357.9</ele>
        <time>2017-10-01T09:09:00Z</time>
      </trkpt>
      <trkpt lat="45.80739" lon="4.61709">
        <ele>357.9</ele>
        <time>2017-10-01T09:09:03Z</time>
      </trkpt>
      <trkpt lat="45.80747" lon="4.6171">
        <ele>357.9</ele>
        <time>2017-10-01T09:09:05Z</time>
      </trkpt>
      <trkpt lat="45.80765" lon="4.61712">
        <ele>358</ele>
        <time>2017-10-01T09:09:09Z</time>
      </trkpt>
      <trkpt lat="45.80788" lon="4.61715">
        <ele>358</ele>
        <time>2017-10-01T09:09:14Z</time>
      </trkpt>
      <trkpt lat="45.80792" lon="4.61715">
        <ele>358</ele>
        <time>2017-10-01T09:09:15Z</time>
      </trkpt>
      <trkpt lat="45.80796" lon="4.61715">
        <ele>357.5</ele>
        <time>2017-10-01T09:09:16Z</time>
      </trkpt>
      <trkpt lat="45.80811" lon="4.61716">
        <ele>356.7</ele>
        <time>2017-10-01T09:09:20Z</time>
      </trkpt>
      <trkpt lat="45.80818" lon="4.61718">
        <ele>356.8</ele>
        <time>2017-10-01T09:09:22Z</time>
      </trkpt>
      <trkpt lat="45.80833" lon="4.61722">
        <ele>356.8</ele>
        <time>2017-10-01T09:09:27Z</time>
      </trkpt>
      <trkpt lat="45.80844" lon="4.61725">
        <ele>356.4</ele>
        <time>2017-10-01T09:09:30Z</time>
      </trkpt>
      <trkpt lat="45.80851" lon="4.61727">
        <ele>355.8</ele>
        <time>2017-10-01T09:09:32Z</time>
      </trkpt>
      <trkpt lat="45.80872" lon="4.61732">
        <ele>353.6</ele>
        <time>2017-10-01T09:09:37Z</time>
      </trkpt>
      <trkpt lat="45.80884" lon="4.61735">
        <ele>353.4</ele>
        <time>2017-10-01T09:09:40Z</time>
      </trkpt>
      <trkpt lat="45.80899" lon="4.61736">
        <ele>353.6</ele>
        <time>2017-10-01T09:09:43Z</time>
      </trkpt>
      <trkpt lat="45.80904" lon="4.61736">
        <ele>353.8</ele>
        <time>2017-10-01T09:09:44Z</time>
      </trkpt>
      <trkpt lat="45.8091" lon="4.61736">
        <ele>354.3</ele>
        <time>2017-10-01T09:09:45Z</time>
      </trkpt>
      <trkpt lat="45.8093" lon="4.61733">
        <ele>354</ele>
        <time>2017-10-01T09:09:48Z</time>
      </trkpt>
      <trkpt lat="45.80937" lon="4.61733">
        <ele>353.9</ele>
        <time>2017-10-01T09:09:49Z</time>
      </trkpt>
      <trkpt lat="45.80952" lon="4.61731">
        <ele>353.7</ele>
        <time>2017-10-01T09:09:51Z</time>
      </trkpt>
      <trkpt lat="45.80967" lon="4.6173">
        <ele>352.5</ele>
        <time>2017-10-01T09:09:53Z</time>
      </trkpt>
      <trkpt lat="45.80976" lon="4.61729">
        <ele>351.8</ele>
        <time>2017-10-01T09:09:54Z</time>
      </trkpt>
      <trkpt lat="45.80985" lon="4.61728">
        <ele>350.8</ele>
        <time>2017-10-01T09:09:55Z</time>
      </trkpt>
      <trkpt lat="45.81002" lon="4.61725">
        <ele>348.4</ele>
        <time>2017-10-01T09:09:57Z</time>
      </trkpt>
      <trkpt lat="45.81021" lon="4.61722">
        <ele>346.2</ele>
        <time>2017-10-01T09:09:59Z</time>
      </trkpt>
      <trkpt lat="45.8103" lon="4.61721">
        <ele>345.4</ele>
        <time>2017-10-01T09:10:00Z</time>
      </trkpt>
      <trkpt lat="45.81039" lon="4.61722">
        <ele>344.8</ele>
        <time>2017-10-01T09:10:01Z</time>
      </trkpt>
      <trkpt lat="45.81054" lon="4.61728">
        <ele>344</ele>
        <time>2017-10-01T09:10:03Z</time>
      </trkpt>
      <trkpt lat="45.81068" lon="4.61739">
        <ele>343.9</ele>
        <time>2017-10-01T09:10:05Z</time>
      </trkpt>
      <trkpt lat="45.81079" lon="4.6175">
        <ele>345.3</ele>
        <time>2017-10-01T09:10:07Z</time>
      </trkpt>
      <trkpt lat="45.81083" lon="4.61756">
        <ele>346</ele>
        <time>2017-10-01T09:10:08Z</time>
      </trkpt>
      <trkpt lat="45.81091" lon="4.6176">
        <ele>346.7</ele>
        <time>2017-10-01T09:10:10Z</time>
      </trkpt>
      <trkpt lat="45.81096" lon="4.61768">
        <ele>347.7</ele>
        <time>2017-10-01T09:10:12Z</time>
      </trkpt>
      <trkpt lat="45.81101" lon="4.61774">
        <ele>348.1</ele>
        <time>2017-10-01T09:10:14Z</time>
      </trkpt>
      <trkpt lat="45.81107" lon="4.61787">
        <ele>348.2</ele>
        <time>2017-10-01T09:10:18Z</time>
      </trkpt>
      <trkpt lat="45.81109" lon="4.61789">
        <ele>348.1</ele>
        <time>2017-10-01T09:10:19Z</time>
      </trkpt>
      <trkpt lat="45.81118" lon="4.61787">
        <ele>348.6</ele>
        <time>2017-10-01T09:10:24Z</time>
      </trkpt>
      <trkpt lat="45.81123" lon="4.61778">
        <ele>348.7</ele>
        <time>2017-10-01T09:10:29Z</time>
      </trkpt>
      <trkpt lat="45.81125" lon="4.61772">
        <ele>348.7</ele>
        <time>2017-10-01T09:10:31Z</time>
      </trkpt>
      <trkpt lat="45.81126" lon="4.61769">
        <ele>348.7</ele>
        <time>2017-10-01T09:10:32Z</time>
      </trkpt>
      <trkpt lat="45.81128" lon="4.6176">
        <ele>347.9</ele>
        <time>2017-10-01T09:10:35Z</time>
      </trkpt>
      <trkpt lat="45.81129" lon="4.61754">
        <ele>347.5</ele>
        <time>2017-10-01T09:10:37Z</time>
      </trkpt>
      <trkpt lat="45.8113" lon="4.61751">
        <ele>347.1</ele>
        <time>2017-10-01T09:10:38Z</time>
      </trkpt>
      <trkpt lat="45.81133" lon="4.61747">
        <ele>347.1</ele>
        <time>2017-10-01T09:10:40Z</time>
      </trkpt>
      <trkpt lat="45.81134" lon="4.61746">
        <ele>347.6</ele>
        <time>2017-10-01T09:10:41Z</time>
      </trkpt>
      <trkpt lat="45.81136" lon="4.61745">
        <ele>347.5</ele>
        <time>2017-10-01T09:10:42Z</time>
      </trkpt>
      <trkpt lat="45.81138" lon="4.61744">
        <ele>348</ele>
        <time>2017-10-01T09:10:43Z</time>
      </trkpt>
      <trkpt lat="45.81139" lon="4.61743">
        <ele>347.8</ele>
        <time>2017-10-01T09:10:44Z</time>
      </trkpt>
      <trkpt lat="45.81142" lon="4.61741">
        <ele>349</ele>
        <time>2017-10-01T09:10:46Z</time>
      </trkpt>
      <trkpt lat="45.81145" lon="4.6174">
        <ele>348.9</ele>
        <time>2017-10-01T09:10:48Z</time>
      </trkpt>
      <trkpt lat="45.81146" lon="4.61739">
        <ele>349.4</ele>
        <time>2017-10-01T09:10:49Z</time>
      </trkpt>
      <trkpt lat="45.81147" lon="4.61738">
        <ele>349.3</ele>
        <time>2017-10-01T09:10:50Z</time>
      </trkpt>
      <trkpt lat="45.8115" lon="4.61736">
        <ele>350</ele>
        <time>2017-10-01T09:10:53Z</time>
      </trkpt>
      <trkpt lat="45.81151" lon="4.61735">
        <ele>349.9</ele>
        <time>2017-10-01T09:10:54Z</time>
      </trkpt>
      <trkpt lat="45.81152" lon="4.61735">
        <ele>350.6</ele>
        <time>2017-10-01T09:10:55Z</time>
      </trkpt>
      <trkpt lat="45.81153" lon="4.61735">
        <ele>350.6</ele>
        <time>2017-10-01T09:10:56Z</time>
      </trkpt>
      <trkpt lat="45.81154" lon="4.61735">
        <ele>350.5</ele>
        <time>2017-10-01T09:10:57Z</time>
      </trkpt>
      <trkpt lat="45.81159" lon="4.61733">
        <ele>351.5</ele>
        <time>2017-10-01T09:11:01Z</time>
      </trkpt>
      <trkpt lat="45.8116" lon="4.61732">
        <ele>351.4</ele>
        <time>2017-10-01T09:11:02Z</time>
      </trkpt>
      <trkpt lat="45.81163" lon="4.6173">
        <ele>351.5</ele>
        <time>2017-10-01T09:11:04Z</time>
      </trkpt>
      <trkpt lat="45.81166" lon="4.61729">
        <ele>352.5</ele>
        <time>2017-10-01T09:11:08Z</time>
      </trkpt>
      <trkpt lat="45.81171" lon="4.61726">
        <ele>352.5</ele>
        <time>2017-10-01T09:11:12Z</time>
      </trkpt>
      <trkpt lat="45.81175" lon="4.61726">
        <ele>353.5</ele>
        <time>2017-10-01T09:11:15Z</time>
      </trkpt>
      <trkpt lat="45.81177" lon="4.61725">
        <ele>353.5</ele>
        <time>2017-10-01T09:11:16Z</time>
      </trkpt>
      <trkpt lat="45.81186" lon="4.61723">
        <ele>355.2</ele>
        <time>2017-10-01T09:11:22Z</time>
      </trkpt>
      <trkpt lat="45.81189" lon="4.61722">
        <ele>355.7</ele>
        <time>2017-10-01T09:11:24Z</time>
      </trkpt>
      <trkpt lat="45.8119" lon="4.61721">
        <ele>355.9</ele>
        <time>2017-10-01T09:11:25Z</time>
      </trkpt>
      <trkpt lat="45.81195" lon="4.61719">
        <ele>356.3</ele>
        <time>2017-10-01T09:11:28Z</time>
      </trkpt>
      <trkpt lat="45.812" lon="4.61717">
        <ele>357.1</ele>
        <time>2017-10-01T09:11:32Z</time>
      </trkpt>
      <trkpt lat="45.81208" lon="4.61714">
        <ele>358.2</ele>
        <time>2017-10-01T09:11:37Z</time>
      </trkpt>
      <trkpt lat="45.81209" lon="4.61713">
        <ele>358.6</ele>
        <time>2017-10-01T09:11:38Z</time>
      </trkpt>
      <trkpt lat="45.81215" lon="4.61711">
        <ele>359.6</ele>
        <time>2017-10-01T09:11:42Z</time>
      </trkpt>
      <trkpt lat="45.81221" lon="4.61708">
        <ele>360.3</ele>
        <time>2017-10-01T09:11:46Z</time>
      </trkpt>
      <trkpt lat="45.8123" lon="4.61703">
        <ele>361.2</ele>
        <time>2017-10-01T09:11:54Z</time>
      </trkpt>
      <trkpt lat="45.81242" lon="4.61696">
        <ele>361.8</ele>
        <time>2017-10-01T09:12:01Z</time>
      </trkpt>
      <trkpt lat="45.81255" lon="4.61689">
        <ele>362</ele>
        <time>2017-10-01T09:12:08Z</time>
      </trkpt>
      <trkpt lat="45.81263" lon="4.61692">
        <ele>361.6</ele>
        <time>2017-10-01T09:12:13Z</time>
      </trkpt>
      <trkpt lat="45.81264" lon="4.61694">
        <ele>361.5</ele>
        <time>2017-10-01T09:12:14Z</time>
      </trkpt>
      <trkpt lat="45.81266" lon="4.61692">
        <ele>361.4</ele>
        <time>2017-10-01T09:17:20Z</time>
      </trkpt>
      <trkpt lat="45.81266" lon="4.6169">
        <ele>361.4</ele>
        <time>2017-10-01T09:17:21Z</time>
      </trkpt>
      <trkpt lat="45.81272" lon="4.6168">
        <ele>361.1</ele>
        <time>2017-10-01T09:17:27Z</time>
      </trkpt>
      <trkpt lat="45.81283" lon="4.61678">
        <ele>360.8</ele>
        <time>2017-10-01T09:17:34Z</time>
      </trkpt>
      <trkpt lat="45.81297" lon="4.61676">
        <ele>360.4</ele>
        <time>2017-10-01T09:17:41Z</time>
      </trkpt>
      <trkpt lat="45.81319" lon="4.61672">
        <ele>358.2</ele>
        <time>2017-10-01T09:17:48Z</time>
      </trkpt>
      <trkpt lat="45.81331" lon="4.61672">
        <ele>357.4</ele>
        <time>2017-10-01T09:17:51Z</time>
      </trkpt>
      <trkpt lat="45.81353" lon="4.61671">
        <ele>355.3</ele>
        <time>2017-10-01T09:17:56Z</time>
      </trkpt>
      <trkpt lat="45.81379" lon="4.61668">
        <ele>353.3</ele>
        <time>2017-10-01T09:18:01Z</time>
      </trkpt>
      <trkpt lat="45.81385" lon="4.61667">
        <ele>352.6</ele>
        <time>2017-10-01T09:18:02Z</time>
      </trkpt>
      <trkpt lat="45.81397" lon="4.61665">
        <ele>351.9</ele>
        <time>2017-10-01T09:18:04Z</time>
      </trkpt>
      <trkpt lat="45.81417" lon="4.61662">
        <ele>350.7</ele>
        <time>2017-10-01T09:18:07Z</time>
      </trkpt>
      <trkpt lat="45.81429" lon="4.6166">
        <ele>349.4</ele>
        <time>2017-10-01T09:18:09Z</time>
      </trkpt>
      <trkpt lat="45.81435" lon="4.6166">
        <ele>348.8</ele>
        <time>2017-10-01T09:18:10Z</time>
      </trkpt>
      <trkpt lat="45.81445" lon="4.61658">
        <ele>347.8</ele>
        <time>2017-10-01T09:18:12Z</time>
      </trkpt>
      <trkpt lat="45.81449" lon="4.61653">
        <ele>347.1</ele>
        <time>2017-10-01T09:18:13Z</time>
      </trkpt>
      <trkpt lat="45.81457" lon="4.6164">
        <ele>346</ele>
        <time>2017-10-01T09:18:15Z</time>
      </trkpt>
      <trkpt lat="45.81461" lon="4.61633">
        <ele>345</ele>
        <time>2017-10-01T09:18:16Z</time>
      </trkpt>
      <trkpt lat="45.8147" lon="4.61617">
        <ele>343.5</ele>
        <time>2017-10-01T09:18:18Z</time>
      </trkpt>
      <trkpt lat="45.81479" lon="4.616">
        <ele>341.7</ele>
        <time>2017-10-01T09:18:20Z</time>
      </trkpt>
      <trkpt lat="45.81484" lon="4.61591">
        <ele>340.4</ele>
        <time>2017-10-01T09:18:21Z</time>
      </trkpt>
      <trkpt lat="45.81489" lon="4.61583">
        <ele>339.3</ele>
        <time>2017-10-01T09:18:22Z</time>
      </trkpt>
      <trkpt lat="45.81493" lon="4.61574">
        <ele>338</ele>
        <time>2017-10-01T09:18:23Z</time>
      </trkpt>
      <trkpt lat="45.81497" lon="4.61566">
        <ele>337</ele>
        <time>2017-10-01T09:18:24Z</time>
      </trkpt>
      <trkpt lat="45.81503" lon="4.6155">
        <ele>335</ele>
        <time>2017-10-01T09:18:26Z</time>
      </trkpt>
      <trkpt lat="45.81511" lon="4.61536">
        <ele>333.1</ele>
        <time>2017-10-01T09:18:28Z</time>
      </trkpt>
      <trkpt lat="45.81518" lon="4.61522">
        <ele>331.7</ele>
        <time>2017-10-01T09:18:30Z</time>
      </trkpt>
      <trkpt lat="45.81523" lon="4.61516">
        <ele>330.5</ele>
        <time>2017-10-01T09:18:31Z</time>
      </trkpt>
      <trkpt lat="45.81528" lon="4.6151">
        <ele>329.8</ele>
        <time>2017-10-01T09:18:32Z</time>
      </trkpt>
      <trkpt lat="45.81534" lon="4.61504">
        <ele>329.3</ele>
        <time>2017-10-01T09:18:33Z</time>
      </trkpt>
      <trkpt lat="45.81541" lon="4.615">
        <ele>328.5</ele>
        <time>2017-10-01T09:18:34Z</time>
      </trkpt>
      <trkpt lat="45.81549" lon="4.61496">
        <ele>327.9</ele>
        <time>2017-10-01T09:18:35Z</time>
      </trkpt>
      <trkpt lat="45.81556" lon="4.61494">
        <ele>327.6</ele>
        <time>2017-10-01T09:18:36Z</time>
      </trkpt>
      <trkpt lat="45.81567" lon="4.61501">
        <ele>327.3</ele>
        <time>2017-10-01T09:18:38Z</time>
      </trkpt>
      <trkpt lat="45.81575" lon="4.61511">
        <ele>327.2</ele>
        <time>2017-10-01T09:18:40Z</time>
      </trkpt>
      <trkpt lat="45.81588" lon="4.61526">
        <ele>327.1</ele>
        <time>2017-10-01T09:18:43Z</time>
      </trkpt>
      <trkpt lat="45.816" lon="4.61539">
        <ele>327</ele>
        <time>2017-10-01T09:18:46Z</time>
      </trkpt>
      <trkpt lat="45.8161" lon="4.61538">
        <ele>326.3</ele>
        <time>2017-10-01T09:18:48Z</time>
      </trkpt>
      <trkpt lat="45.81621" lon="4.61531">
        <ele>325.3</ele>
        <time>2017-10-01T09:18:50Z</time>
      </trkpt>
      <trkpt lat="45.81636" lon="4.6152">
        <ele>323.9</ele>
        <time>2017-10-01T09:18:53Z</time>
      </trkpt>
      <trkpt lat="45.81654" lon="4.61495">
        <ele>320.9</ele>
        <time>2017-10-01T09:18:57Z</time>
      </trkpt>
      <trkpt lat="45.8166" lon="4.61486">
        <ele>320</ele>
        <time>2017-10-01T09:18:58Z</time>
      </trkpt>
      <trkpt lat="45.81679" lon="4.61459">
        <ele>318.7</ele>
        <time>2017-10-01T09:19:01Z</time>
      </trkpt>
      <trkpt lat="45.81692" lon="4.61444">
        <ele>317.3</ele>
        <time>2017-10-01T09:19:03Z</time>
      </trkpt>
      <trkpt lat="45.81697" lon="4.61438">
        <ele>316.9</ele>
        <time>2017-10-01T09:19:04Z</time>
      </trkpt>
      <trkpt lat="45.81706" lon="4.61425">
        <ele>315.9</ele>
        <time>2017-10-01T09:19:06Z</time>
      </trkpt>
      <trkpt lat="45.81722" lon="4.61401">
        <ele>314.4</ele>
        <time>2017-10-01T09:19:10Z</time>
      </trkpt>
      <trkpt lat="45.81741" lon="4.61372">
        <ele>313</ele>
        <time>2017-10-01T09:19:15Z</time>
      </trkpt>
      <trkpt lat="45.8175" lon="4.61359">
        <ele>312.3</ele>
        <time>2017-10-01T09:19:17Z</time>
      </trkpt>
      <trkpt lat="45.81762" lon="4.6134">
        <ele>311.4</ele>
        <time>2017-10-01T09:19:20Z</time>
      </trkpt>
      <trkpt lat="45.81767" lon="4.61334">
        <ele>310.8</ele>
        <time>2017-10-01T09:19:21Z</time>
      </trkpt>
      <trkpt lat="45.81779" lon="4.61323">
        <ele>310.1</ele>
        <time>2017-10-01T09:19:23Z</time>
      </trkpt>
      <trkpt lat="45.81794" lon="4.61313">
        <ele>309.8</ele>
        <time>2017-10-01T09:19:25Z</time>
      </trkpt>
      <trkpt lat="45.81818" lon="4.61303">
        <ele>309</ele>
        <time>2017-10-01T09:19:28Z</time>
      </trkpt>
      <trkpt lat="45.81835" lon="4.61297">
        <ele>308.4</ele>
        <time>2017-10-01T09:19:30Z</time>
      </trkpt>
      <trkpt lat="45.81852" lon="4.61293">
        <ele>307.3</ele>
        <time>2017-10-01T09:19:32Z</time>
      </trkpt>
      <trkpt lat="45.8187" lon="4.6129">
        <ele>306.3</ele>
        <time>2017-10-01T09:19:34Z</time>
      </trkpt>
      <trkpt lat="45.81889" lon="4.61288">
        <ele>304.7</ele>
        <time>2017-10-01T09:19:36Z</time>
      </trkpt>
      <trkpt lat="45.81908" lon="4.61286">
        <ele>303.6</ele>
        <time>2017-10-01T09:19:38Z</time>
      </trkpt>
      <trkpt lat="45.81929" lon="4.61284">
        <ele>301.9</ele>
        <time>2017-10-01T09:19:40Z</time>
      </trkpt>
      <trkpt lat="45.81949" lon="4.61282">
        <ele>300.3</ele>
        <time>2017-10-01T09:19:42Z</time>
      </trkpt>
      <trkpt lat="45.81959" lon="4.6128">
        <ele>299.4</ele>
        <time>2017-10-01T09:19:43Z</time>
      </trkpt>
      <trkpt lat="45.81969" lon="4.61279">
        <ele>298.7</ele>
        <time>2017-10-01T09:19:44Z</time>
      </trkpt>
      <trkpt lat="45.8199" lon="4.61278">
        <ele>298.1</ele>
        <time>2017-10-01T09:19:46Z</time>
      </trkpt>
      <trkpt lat="45.82011" lon="4.61283">
        <ele>297.2</ele>
        <time>2017-10-01T09:19:48Z</time>
      </trkpt>
      <trkpt lat="45.82031" lon="4.61288">
        <ele>296.6</ele>
        <time>2017-10-01T09:19:50Z</time>
      </trkpt>
      <trkpt lat="45.82053" lon="4.61293">
        <ele>295.3</ele>
        <time>2017-10-01T09:19:52Z</time>
      </trkpt>
      <trkpt lat="45.82064" lon="4.61296">
        <ele>294.4</ele>
        <time>2017-10-01T09:19:53Z</time>
      </trkpt>
      <trkpt lat="45.82075" lon="4.61298">
        <ele>293.9</ele>
        <time>2017-10-01T09:19:54Z</time>
      </trkpt>
      <trkpt lat="45.82086" lon="4.613">
        <ele>293.1</ele>
        <time>2017-10-01T09:19:55Z</time>
      </trkpt>
      <trkpt lat="45.82098" lon="4.61302">
        <ele>292.3</ele>
        <time>2017-10-01T09:19:56Z</time>
      </trkpt>
      <trkpt lat="45.8211" lon="4.61304">
        <ele>291.6</ele>
        <time>2017-10-01T09:19:57Z</time>
      </trkpt>
      <trkpt lat="45.82122" lon="4.61306">
        <ele>290.5</ele>
        <time>2017-10-01T09:19:58Z</time>
      </trkpt>
      <trkpt lat="45.82134" lon="4.61308">
        <ele>289.5</ele>
        <time>2017-10-01T09:19:59Z</time>
      </trkpt>
      <trkpt lat="45.82147" lon="4.6131">
        <ele>289.2</ele>
        <time>2017-10-01T09:20:00Z</time>
      </trkpt>
      <trkpt lat="45.8216" lon="4.61312">
        <ele>288.2</ele>
        <time>2017-10-01T09:20:01Z</time>
      </trkpt>
      <trkpt lat="45.82173" lon="4.61314">
        <ele>287.2</ele>
        <time>2017-10-01T09:20:02Z</time>
      </trkpt>
      <trkpt lat="45.82186" lon="4.61316">
        <ele>286.4</ele>
        <time>2017-10-01T09:20:03Z</time>
      </trkpt>
      <trkpt lat="45.82198" lon="4.61318">
        <ele>285.5</ele>
        <time>2017-10-01T09:20:04Z</time>
      </trkpt>
      <trkpt lat="45.8221" lon="4.6132">
        <ele>284.8</ele>
        <time>2017-10-01T09:20:05Z</time>
      </trkpt>
      <trkpt lat="45.82223" lon="4.61322">
        <ele>284.1</ele>
        <time>2017-10-01T09:20:06Z</time>
      </trkpt>
      <trkpt lat="45.82234" lon="4.61324">
        <ele>284</ele>
        <time>2017-10-01T09:20:07Z</time>
      </trkpt>
      <trkpt lat="45.82245" lon="4.61327">
        <ele>283.7</ele>
        <time>2017-10-01T09:20:08Z</time>
      </trkpt>
      <trkpt lat="45.82255" lon="4.61331">
        <ele>283.2</ele>
        <time>2017-10-01T09:20:09Z</time>
      </trkpt>
      <trkpt lat="45.82264" lon="4.61337">
        <ele>282.6</ele>
        <time>2017-10-01T09:20:10Z</time>
      </trkpt>
      <trkpt lat="45.82273" lon="4.61344">
        <ele>281.9</ele>
        <time>2017-10-01T09:20:11Z</time>
      </trkpt>
      <trkpt lat="45.82281" lon="4.61351">
        <ele>281.2</ele>
        <time>2017-10-01T09:20:12Z</time>
      </trkpt>
      <trkpt lat="45.82299" lon="4.61364">
        <ele>279.9</ele>
        <time>2017-10-01T09:20:14Z</time>
      </trkpt>
      <trkpt lat="45.82307" lon="4.61372">
        <ele>279.3</ele>
        <time>2017-10-01T09:20:15Z</time>
      </trkpt>
      <trkpt lat="45.82314" lon="4.61382">
        <ele>278.6</ele>
        <time>2017-10-01T09:20:16Z</time>
      </trkpt>
      <trkpt lat="45.82322" lon="4.61392">
        <ele>277.9</ele>
        <time>2017-10-01T09:20:17Z</time>
      </trkpt>
      <trkpt lat="45.82334" lon="4.61414">
        <ele>276.7</ele>
        <time>2017-10-01T09:20:19Z</time>
      </trkpt>
      <trkpt lat="45.82343" lon="4.61436">
        <ele>275.7</ele>
        <time>2017-10-01T09:20:21Z</time>
      </trkpt>
      <trkpt lat="45.82346" lon="4.61445">
        <ele>275.4</ele>
        <time>2017-10-01T09:20:22Z</time>
      </trkpt>
      <trkpt lat="45.82348" lon="4.61451">
        <ele>275.1</ele>
        <time>2017-10-01T09:20:23Z</time>
      </trkpt>
      <trkpt lat="45.82347" lon="4.61456">
        <ele>275</ele>
        <time>2017-10-01T09:20:24Z</time>
      </trkpt>
      <trkpt lat="45.82341" lon="4.61461">
        <ele>276.4</ele>
        <time>2017-10-01T09:20:27Z</time>
      </trkpt>
      <trkpt lat="45.82335" lon="4.61463">
        <ele>277.8</ele>
        <time>2017-10-01T09:20:30Z</time>
      </trkpt>
      <trkpt lat="45.82329" lon="4.61462">
        <ele>279.1</ele>
        <time>2017-10-01T09:20:33Z</time>
      </trkpt>
      <trkpt lat="45.82325" lon="4.61463">
        <ele>280</ele>
        <time>2017-10-01T09:20:35Z</time>
      </trkpt>
      <trkpt lat="45.82317" lon="4.61467">
        <ele>281.8</ele>
        <time>2017-10-01T09:20:39Z</time>
      </trkpt>
      <trkpt lat="45.82315" lon="4.61468">
        <ele>282.2</ele>
        <time>2017-10-01T09:20:40Z</time>
      </trkpt>
      <trkpt lat="45.82306" lon="4.61473">
        <ele>284.1</ele>
        <time>2017-10-01T09:20:45Z</time>
      </trkpt>
      <trkpt lat="45.82301" lon="4.61476">
        <ele>285.1</ele>
        <time>2017-10-01T09:20:48Z</time>
      </trkpt>
      <trkpt lat="45.823" lon="4.61477">
        <ele>285.4</ele>
        <time>2017-10-01T09:20:49Z</time>
      </trkpt>
      <trkpt lat="45.82291" lon="4.61482">
        <ele>287.1</ele>
        <time>2017-10-01T09:20:54Z</time>
      </trkpt>
      <trkpt lat="45.82286" lon="4.61485">
        <ele>287.9</ele>
        <time>2017-10-01T09:20:57Z</time>
      </trkpt>
      <trkpt lat="45.82283" lon="4.61488">
        <ele>288.4</ele>
        <time>2017-10-01T09:20:59Z</time>
      </trkpt>
      <trkpt lat="45.82272" lon="4.61497">
        <ele>290.1</ele>
        <time>2017-10-01T09:21:06Z</time>
      </trkpt>
      <trkpt lat="45.82269" lon="4.615">
        <ele>290.4</ele>
        <time>2017-10-01T09:21:08Z</time>
      </trkpt>
      <trkpt lat="45.82266" lon="4.61503">
        <ele>290.8</ele>
        <time>2017-10-01T09:21:10Z</time>
      </trkpt>
      <trkpt lat="45.82257" lon="4.61513">
        <ele>292.1</ele>
        <time>2017-10-01T09:21:16Z</time>
      </trkpt>
      <trkpt lat="45.82254" lon="4.61516">
        <ele>292.7</ele>
        <time>2017-10-01T09:21:18Z</time>
      </trkpt>
      <trkpt lat="45.82249" lon="4.61522">
        <ele>293.7</ele>
        <time>2017-10-01T09:21:22Z</time>
      </trkpt>
      <trkpt lat="45.82243" lon="4.61529">
        <ele>294.9</ele>
        <time>2017-10-01T09:21:26Z</time>
      </trkpt>
      <trkpt lat="45.8224" lon="4.61532">
        <ele>295.3</ele>
        <time>2017-10-01T09:21:28Z</time>
      </trkpt>
      <trkpt lat="45.82235" lon="4.61539">
        <ele>296.2</ele>
        <time>2017-10-01T09:21:32Z</time>
      </trkpt>
      <trkpt lat="45.82229" lon="4.61545">
        <ele>297.1</ele>
        <time>2017-10-01T09:21:36Z</time>
      </trkpt>
      <trkpt lat="45.82225" lon="4.6155">
        <ele>297.6</ele>
        <time>2017-10-01T09:21:39Z</time>
      </trkpt>
      <trkpt lat="45.82222" lon="4.61555">
        <ele>298</ele>
        <time>2017-10-01T09:21:42Z</time>
      </trkpt>
      <trkpt lat="45.82221" lon="4.61556">
        <ele>298.1</ele>
        <time>2017-10-01T09:21:43Z</time>
      </trkpt>
      <trkpt lat="45.82218" lon="4.61561">
        <ele>298.4</ele>
        <time>2017-10-01T09:21:45Z</time>
      </trkpt>
      <trkpt lat="45.82213" lon="4.61568">
        <ele>299.2</ele>
        <time>2017-10-01T09:21:49Z</time>
      </trkpt>
      <trkpt lat="45.82212" lon="4.6157">
        <ele>299.4</ele>
        <time>2017-10-01T09:21:50Z</time>
      </trkpt>
      <trkpt lat="45.82208" lon="4.61579">
        <ele>300.2</ele>
        <time>2017-10-01T09:21:54Z</time>
      </trkpt>
      <trkpt lat="45.82207" lon="4.61581">
        <ele>300.4</ele>
        <time>2017-10-01T09:21:55Z</time>
      </trkpt>
      <trkpt lat="45.82204" lon="4.61588">
        <ele>301.1</ele>
        <time>2017-10-01T09:21:58Z</time>
      </trkpt>
      <trkpt lat="45.82199" lon="4.61598">
        <ele>302.1</ele>
        <time>2017-10-01T09:22:02Z</time>
      </trkpt>
      <trkpt lat="45.82198" lon="4.616">
        <ele>302.3</ele>
        <time>2017-10-01T09:22:03Z</time>
      </trkpt>
      <trkpt lat="45.8219" lon="4.61618">
        <ele>304.2</ele>
        <time>2017-10-01T09:22:10Z</time>
      </trkpt>
      <trkpt lat="45.82189" lon="4.61623">
        <ele>304.7</ele>
        <time>2017-10-01T09:22:12Z</time>
      </trkpt>
      <trkpt lat="45.82186" lon="4.61632">
        <ele>305.6</ele>
        <time>2017-10-01T09:22:16Z</time>
      </trkpt>
      <trkpt lat="45.82185" lon="4.61633">
        <ele>305.8</ele>
        <time>2017-10-01T09:22:17Z</time>
      </trkpt>
      <trkpt lat="45.82181" lon="4.61643">
        <ele>306.9</ele>
        <time>2017-10-01T09:22:22Z</time>
      </trkpt>
      <trkpt lat="45.82181" lon="4.61645">
        <ele>307.1</ele>
        <time>2017-10-01T09:22:23Z</time>
      </trkpt>
      <trkpt lat="45.82179" lon="4.61649">
        <ele>307.6</ele>
        <time>2017-10-01T09:22:25Z</time>
      </trkpt>
      <trkpt lat="45.82176" lon="4.61655">
        <ele>308.4</ele>
        <time>2017-10-01T09:22:28Z</time>
      </trkpt>
      <trkpt lat="45.82174" lon="4.6166">
        <ele>309</ele>
        <time>2017-10-01T09:22:30Z</time>
      </trkpt>
      <trkpt lat="45.82172" lon="4.61664">
        <ele>309.6</ele>
        <time>2017-10-01T09:22:32Z</time>
      </trkpt>
      <trkpt lat="45.82169" lon="4.61671">
        <ele>310.3</ele>
        <time>2017-10-01T09:22:35Z</time>
      </trkpt>
      <trkpt lat="45.82167" lon="4.61676">
        <ele>310.9</ele>
        <time>2017-10-01T09:22:37Z</time>
      </trkpt>
      <trkpt lat="45.82166" lon="4.61677">
        <ele>311.1</ele>
        <time>2017-10-01T09:22:38Z</time>
      </trkpt>
      <trkpt lat="45.82162" lon="4.61687">
        <ele>312.1</ele>
        <time>2017-10-01T09:22:42Z</time>
      </trkpt>
      <trkpt lat="45.82158" lon="4.61695">
        <ele>313.1</ele>
        <time>2017-10-01T09:22:46Z</time>
      </trkpt>
      <trkpt lat="45.82153" lon="4.61703">
        <ele>313.9</ele>
        <time>2017-10-01T09:22:49Z</time>
      </trkpt>
      <trkpt lat="45.82151" lon="4.61705">
        <ele>314.2</ele>
        <time>2017-10-01T09:22:50Z</time>
      </trkpt>
      <trkpt lat="45.82147" lon="4.61713">
        <ele>315</ele>
        <time>2017-10-01T09:22:53Z</time>
      </trkpt>
      <trkpt lat="45.82143" lon="4.61721">
        <ele>315.8</ele>
        <time>2017-10-01T09:22:56Z</time>
      </trkpt>
      <trkpt lat="45.82141" lon="4.61724">
        <ele>316.1</ele>
        <time>2017-10-01T09:22:57Z</time>
      </trkpt>
      <trkpt lat="45.82139" lon="4.6173">
        <ele>316.7</ele>
        <time>2017-10-01T09:22:59Z</time>
      </trkpt>
      <trkpt lat="45.82135" lon="4.61736">
        <ele>317.5</ele>
        <time>2017-10-01T09:23:02Z</time>
      </trkpt>
      <trkpt lat="45.82132" lon="4.61742">
        <ele>318</ele>
        <time>2017-10-01T09:23:04Z</time>
      </trkpt>
      <trkpt lat="45.8213" lon="4.61748">
        <ele>318.6</ele>
        <time>2017-10-01T09:23:06Z</time>
      </trkpt>
      <trkpt lat="45.82128" lon="4.61753">
        <ele>319.1</ele>
        <time>2017-10-01T09:23:08Z</time>
      </trkpt>
      <trkpt lat="45.82124" lon="4.61759">
        <ele>319.9</ele>
        <time>2017-10-01T09:23:11Z</time>
      </trkpt>
      <trkpt lat="45.82122" lon="4.61764">
        <ele>320.5</ele>
        <time>2017-10-01T09:23:13Z</time>
      </trkpt>
      <trkpt lat="45.82119" lon="4.61769">
        <ele>321.1</ele>
        <time>2017-10-01T09:23:15Z</time>
      </trkpt>
      <trkpt lat="45.82115" lon="4.61778">
        <ele>322.3</ele>
        <time>2017-10-01T09:23:19Z</time>
      </trkpt>
      <trkpt lat="45.82113" lon="4.61784">
        <ele>323</ele>
        <time>2017-10-01T09:23:22Z</time>
      </trkpt>
      <trkpt lat="45.82109" lon="4.61792">
        <ele>324.1</ele>
        <time>2017-10-01T09:23:26Z</time>
      </trkpt>
      <trkpt lat="45.82103" lon="4.61809">
        <ele>326.2</ele>
        <time>2017-10-01T09:23:33Z</time>
      </trkpt>
      <trkpt lat="45.821" lon="4.61817">
        <ele>327.2</ele>
        <time>2017-10-01T09:23:37Z</time>
      </trkpt>
      <trkpt lat="45.82097" lon="4.61826">
        <ele>328.2</ele>
        <time>2017-10-01T09:23:40Z</time>
      </trkpt>
      <trkpt lat="45.82094" lon="4.61834">
        <ele>329.3</ele>
        <time>2017-10-01T09:23:43Z</time>
      </trkpt>
      <trkpt lat="45.82092" lon="4.61839">
        <ele>329.9</ele>
        <time>2017-10-01T09:23:46Z</time>
      </trkpt>
      <trkpt lat="45.82086" lon="4.61854">
        <ele>332</ele>
        <time>2017-10-01T09:23:53Z</time>
      </trkpt>
      <trkpt lat="45.82083" lon="4.61864">
        <ele>333.1</ele>
        <time>2017-10-01T09:23:56Z</time>
      </trkpt>
      <trkpt lat="45.8208" lon="4.61874">
        <ele>334.4</ele>
        <time>2017-10-01T09:24:00Z</time>
      </trkpt>
      <trkpt lat="45.82072" lon="4.61891">
        <ele>336.6</ele>
        <time>2017-10-01T09:24:07Z</time>
      </trkpt>
      <trkpt lat="45.82066" lon="4.61907">
        <ele>338.6</ele>
        <time>2017-10-01T09:24:13Z</time>
      </trkpt>
      <trkpt lat="45.8206" lon="4.61922">
        <ele>340.5</ele>
        <time>2017-10-01T09:24:19Z</time>
      </trkpt>
      <trkpt lat="45.82055" lon="4.61931">
        <ele>341.8</ele>
        <time>2017-10-01T09:24:24Z</time>
      </trkpt>
      <trkpt lat="45.82054" lon="4.61934">
        <ele>342.1</ele>
        <time>2017-10-01T09:24:25Z</time>
      </trkpt>
      <trkpt lat="45.82049" lon="4.61946">
        <ele>343.5</ele>
        <time>2017-10-01T09:24:30Z</time>
      </trkpt>
      <trkpt lat="45.82047" lon="4.61951">
        <ele>344.1</ele>
        <time>2017-10-01T09:24:32Z</time>
      </trkpt>
      <trkpt lat="45.82041" lon="4.61965">
        <ele>345.6</ele>
        <time>2017-10-01T09:24:38Z</time>
      </trkpt>
      <trkpt lat="45.8204" lon="4.61967">
        <ele>345.9</ele>
        <time>2017-10-01T09:24:39Z</time>
      </trkpt>
      <trkpt lat="45.82039" lon="4.61971">
        <ele>346.3</ele>
        <time>2017-10-01T09:24:41Z</time>
      </trkpt>
      <trkpt lat="45.82037" lon="4.61974">
        <ele>346.6</ele>
        <time>2017-10-01T09:24:43Z</time>
      </trkpt>
      <trkpt lat="45.82035" lon="4.61977">
        <ele>347</ele>
        <time>2017-10-01T09:24:45Z</time>
      </trkpt>
      <trkpt lat="45.82031" lon="4.61983">
        <ele>347.6</ele>
        <time>2017-10-01T09:24:48Z</time>
      </trkpt>
      <trkpt lat="45.82027" lon="4.61991">
        <ele>348.2</ele>
        <time>2017-10-01T09:24:51Z</time>
      </trkpt>
      <trkpt lat="45.82023" lon="4.62004">
        <ele>348.9</ele>
        <time>2017-10-01T09:24:56Z</time>
      </trkpt>
      <trkpt lat="45.82023" lon="4.62006">
        <ele>349.1</ele>
        <time>2017-10-01T09:24:57Z</time>
      </trkpt>
      <trkpt lat="45.82022" lon="4.6201">
        <ele>349.3</ele>
        <time>2017-10-01T09:24:59Z</time>
      </trkpt>
      <trkpt lat="45.82021" lon="4.62012">
        <ele>349.4</ele>
        <time>2017-10-01T09:25:00Z</time>
      </trkpt>
      <trkpt lat="45.82018" lon="4.62017">
        <ele>349.7</ele>
        <time>2017-10-01T09:25:02Z</time>
      </trkpt>
      <trkpt lat="45.82012" lon="4.62028">
        <ele>351.1</ele>
        <time>2017-10-01T09:25:08Z</time>
      </trkpt>
      <trkpt lat="45.8201" lon="4.62032">
        <ele>351.8</ele>
        <time>2017-10-01T09:25:10Z</time>
      </trkpt>
      <trkpt lat="45.82009" lon="4.62035">
        <ele>352.3</ele>
        <time>2017-10-01T09:25:11Z</time>
      </trkpt>
      <trkpt lat="45.82005" lon="4.62042">
        <ele>353.4</ele>
        <time>2017-10-01T09:25:14Z</time>
      </trkpt>
      <trkpt lat="45.82001" lon="4.62049">
        <ele>354.7</ele>
        <time>2017-10-01T09:25:17Z</time>
      </trkpt>
      <trkpt lat="45.81998" lon="4.62052">
        <ele>355.3</ele>
        <time>2017-10-01T09:25:19Z</time>
      </trkpt>
      <trkpt lat="45.8199" lon="4.62059">
        <ele>357.5</ele>
        <time>2017-10-01T09:25:25Z</time>
      </trkpt>
      <trkpt lat="45.81988" lon="4.62063">
        <ele>358.3</ele>
        <time>2017-10-01T09:25:27Z</time>
      </trkpt>
      <trkpt lat="45.8199" lon="4.62082">
        <ele>359.8</ele>
        <time>2017-10-01T09:25:32Z</time>
      </trkpt>
      <trkpt lat="45.81991" lon="4.62085">
        <ele>359.5</ele>
        <time>2017-10-01T09:25:33Z</time>
      </trkpt>
      <trkpt lat="45.81993" lon="4.62092">
        <ele>358.7</ele>
        <time>2017-10-01T09:25:35Z</time>
      </trkpt>
      <trkpt lat="45.81996" lon="4.62098">
        <ele>358</ele>
        <time>2017-10-01T09:25:37Z</time>
      </trkpt>
      <trkpt lat="45.81999" lon="4.62102">
        <ele>357.2</ele>
        <time>2017-10-01T09:25:39Z</time>
      </trkpt>
      <trkpt lat="45.82006" lon="4.62107">
        <ele>354.7</ele>
        <time>2017-10-01T09:25:42Z</time>
      </trkpt>
      <trkpt lat="45.8202" lon="4.62112">
        <ele>351</ele>
        <time>2017-10-01T09:25:48Z</time>
      </trkpt>
      <trkpt lat="45.82028" lon="4.62113">
        <ele>349.3</ele>
        <time>2017-10-01T09:25:51Z</time>
      </trkpt>
      <trkpt lat="45.82035" lon="4.62114">
        <ele>348.1</ele>
        <time>2017-10-01T09:25:54Z</time>
      </trkpt>
      <trkpt lat="45.82051" lon="4.62114">
        <ele>346.7</ele>
        <time>2017-10-01T09:26:01Z</time>
      </trkpt>
      <trkpt lat="45.8207" lon="4.62111">
        <ele>345</ele>
        <time>2017-10-01T09:26:09Z</time>
      </trkpt>
      <trkpt lat="45.82075" lon="4.6211">
        <ele>344.2</ele>
        <time>2017-10-01T09:26:11Z</time>
      </trkpt>
      <trkpt lat="45.82084" lon="4.6211">
        <ele>343</ele>
        <time>2017-10-01T09:26:15Z</time>
      </trkpt>
      <trkpt lat="45.82096" lon="4.62108">
        <ele>342.2</ele>
        <time>2017-10-01T09:26:20Z</time>
      </trkpt>
      <trkpt lat="45.82101" lon="4.62108">
        <ele>342.1</ele>
        <time>2017-10-01T09:26:22Z</time>
      </trkpt>
      <trkpt lat="45.82104" lon="4.62108">
        <ele>342.2</ele>
        <time>2017-10-01T09:26:23Z</time>
      </trkpt>
      <trkpt lat="45.82114" lon="4.62109">
        <ele>343.3</ele>
        <time>2017-10-01T09:26:27Z</time>
      </trkpt>
      <trkpt lat="45.82121" lon="4.62112">
        <ele>344.4</ele>
        <time>2017-10-01T09:26:30Z</time>
      </trkpt>
      <trkpt lat="45.82123" lon="4.62113">
        <ele>344.6</ele>
        <time>2017-10-01T09:26:31Z</time>
      </trkpt>
      <trkpt lat="45.82127" lon="4.62115">
        <ele>345</ele>
        <time>2017-10-01T09:26:33Z</time>
      </trkpt>
      <trkpt lat="45.82134" lon="4.62119">
        <ele>345.7</ele>
        <time>2017-10-01T09:26:37Z</time>
      </trkpt>
      <trkpt lat="45.82136" lon="4.6212">
        <ele>346</ele>
        <time>2017-10-01T09:26:38Z</time>
      </trkpt>
      <trkpt lat="45.82138" lon="4.62122">
        <ele>346.2</ele>
        <time>2017-10-01T09:26:39Z</time>
      </trkpt>
      <trkpt lat="45.82144" lon="4.62125">
        <ele>346.6</ele>
        <time>2017-10-01T09:26:42Z</time>
      </trkpt>
      <trkpt lat="45.82145" lon="4.62126">
        <ele>346.7</ele>
        <time>2017-10-01T09:26:43Z</time>
      </trkpt>
      <trkpt lat="45.82157" lon="4.62133">
        <ele>347.5</ele>
        <time>2017-10-01T09:26:49Z</time>
      </trkpt>
      <trkpt lat="45.82165" lon="4.6214">
        <ele>348.4</ele>
        <time>2017-10-01T09:26:54Z</time>
      </trkpt>
      <trkpt lat="45.82174" lon="4.62155">
        <ele>349.2</ele>
        <time>2017-10-01T09:27:01Z</time>
      </trkpt>
      <trkpt lat="45.82177" lon="4.62159">
        <ele>349.3</ele>
        <time>2017-10-01T09:27:03Z</time>
      </trkpt>
      <trkpt lat="45.82187" lon="4.62178">
        <ele>350.3</ele>
        <time>2017-10-01T09:27:10Z</time>
      </trkpt>
      <trkpt lat="45.82194" lon="4.62194">
        <ele>351.2</ele>
        <time>2017-10-01T09:27:15Z</time>
      </trkpt>
      <trkpt lat="45.82201" lon="4.62208">
        <ele>352.3</ele>
        <time>2017-10-01T09:27:20Z</time>
      </trkpt>
      <trkpt lat="45.82205" lon="4.62212">
        <ele>352.7</ele>
        <time>2017-10-01T09:27:23Z</time>
      </trkpt>
      <trkpt lat="45.82207" lon="4.6221">
        <ele>352.7</ele>
        <time>2017-10-01T09:27:25Z</time>
      </trkpt>
      <trkpt lat="45.82209" lon="4.6221">
        <ele>352.7</ele>
        <time>2017-10-01T09:27:26Z</time>
      </trkpt>
      <trkpt lat="45.82211" lon="4.62215">
        <ele>352.8</ele>
        <time>2017-10-01T09:27:30Z</time>
      </trkpt>
      <trkpt lat="45.82211" lon="4.62216">
        <ele>352.8</ele>
        <time>2017-10-01T09:27:31Z</time>
      </trkpt>
      <trkpt lat="45.8221" lon="4.62218">
        <ele>352.9</ele>
        <time>2017-10-01T09:27:32Z</time>
      </trkpt>
      <trkpt lat="45.82209" lon="4.6222">
        <ele>352.9</ele>
        <time>2017-10-01T09:27:34Z</time>
      </trkpt>
      <trkpt lat="45.82211" lon="4.62223">
        <ele>353</ele>
        <time>2017-10-01T09:27:36Z</time>
      </trkpt>
      <trkpt lat="45.82209" lon="4.62216">
        <ele>353</ele>
        <time>2017-10-01T09:27:43Z</time>
      </trkpt>
      <trkpt lat="45.82208" lon="4.62215">
        <ele>353</ele>
        <time>2017-10-01T09:27:44Z</time>
      </trkpt>
      <trkpt lat="45.82207" lon="4.62213">
        <ele>353</ele>
        <time>2017-10-01T09:27:46Z</time>
      </trkpt>
      <trkpt lat="45.82207" lon="4.62209">
        <ele>353</ele>
        <time>2017-10-01T09:27:49Z</time>
      </trkpt>
      <trkpt lat="45.82209" lon="4.62209">
        <ele>353.2</ele>
        <time>2017-10-01T09:27:50Z</time>
      </trkpt>
      <trkpt lat="45.8221" lon="4.6221">
        <ele>353.5</ele>
        <time>2017-10-01T09:27:51Z</time>
      </trkpt>
      <trkpt lat="45.82211" lon="4.62213">
        <ele>353.9</ele>
        <time>2017-10-01T09:27:53Z</time>
      </trkpt>
      <trkpt lat="45.8221" lon="4.6222">
        <ele>354.7</ele>
        <time>2017-10-01T09:28:30Z</time>
      </trkpt>
      <trkpt lat="45.82211" lon="4.62224">
        <ele>355</ele>
        <time>2017-10-01T09:28:32Z</time>
      </trkpt>
      <trkpt lat="45.82213" lon="4.62227">
        <ele>355.4</ele>
        <time>2017-10-01T09:28:34Z</time>
      </trkpt>
      <trkpt lat="45.82221" lon="4.62235">
        <ele>356.7</ele>
        <time>2017-10-01T09:28:38Z</time>
      </trkpt>
      <trkpt lat="45.82222" lon="4.62238">
        <ele>357</ele>
        <time>2017-10-01T09:28:39Z</time>
      </trkpt>
      <trkpt lat="45.82227" lon="4.6225">
        <ele>358.1</ele>
        <time>2017-10-01T09:28:43Z</time>
      </trkpt>
      <trkpt lat="45.82241" lon="4.62271">
        <ele>359</ele>
        <time>2017-10-01T09:28:50Z</time>
      </trkpt>
      <trkpt lat="45.82251" lon="4.62289">
        <ele>358.8</ele>
        <time>2017-10-01T09:28:56Z</time>
      </trkpt>
      <trkpt lat="45.82261" lon="4.62311">
        <ele>358.8</ele>
        <time>2017-10-01T09:29:02Z</time>
      </trkpt>
      <trkpt lat="45.82259" lon="4.62344">
        <ele>358.9</ele>
        <time>2017-10-01T09:29:08Z</time>
      </trkpt>
      <trkpt lat="45.82246" lon="4.62363">
        <ele>359.2</ele>
        <time>2017-10-01T09:29:13Z</time>
      </trkpt>
      <trkpt lat="45.82231" lon="4.6238">
        <ele>359.9</ele>
        <time>2017-10-01T09:29:19Z</time>
      </trkpt>
      <trkpt lat="45.82228" lon="4.62383">
        <ele>360.1</ele>
        <time>2017-10-01T09:29:20Z</time>
      </trkpt>
      <trkpt lat="45.82215" lon="4.62404">
        <ele>361.5</ele>
        <time>2017-10-01T09:29:26Z</time>
      </trkpt>
      <trkpt lat="45.82213" lon="4.62409">
        <ele>361.9</ele>
        <time>2017-10-01T09:29:27Z</time>
      </trkpt>
      <trkpt lat="45.82208" lon="4.62434">
        <ele>368.8</ele>
        <time>2017-10-01T09:29:33Z</time>
      </trkpt>
      <trkpt lat="45.82208" lon="4.62442">
        <ele>369.4</ele>
        <time>2017-10-01T09:29:35Z</time>
      </trkpt>
      <trkpt lat="45.82209" lon="4.62454">
        <ele>370.2</ele>
        <time>2017-10-01T09:29:38Z</time>
      </trkpt>
      <trkpt lat="45.82211" lon="4.62469">
        <ele>371</ele>
        <time>2017-10-01T09:29:42Z</time>
      </trkpt>
      <trkpt lat="45.82212" lon="4.62475">
        <ele>371.4</ele>
        <time>2017-10-01T09:29:44Z</time>
      </trkpt>
      <trkpt lat="45.82214" lon="4.62493">
        <ele>372.3</ele>
        <time>2017-10-01T09:29:49Z</time>
      </trkpt>
      <trkpt lat="45.82214" lon="4.62498">
        <ele>372.5</ele>
        <time>2017-10-01T09:29:50Z</time>
      </trkpt>
      <trkpt lat="45.82213" lon="4.62511">
        <ele>373.1</ele>
        <time>2017-10-01T09:29:53Z</time>
      </trkpt>
      <trkpt lat="45.8221" lon="4.62523">
        <ele>373.5</ele>
        <time>2017-10-01T09:29:55Z</time>
      </trkpt>
      <trkpt lat="45.82207" lon="4.62538">
        <ele>374</ele>
        <time>2017-10-01T09:29:58Z</time>
      </trkpt>
      <trkpt lat="45.82203" lon="4.62555">
        <ele>374.5</ele>
        <time>2017-10-01T09:30:02Z</time>
      </trkpt>
      <trkpt lat="45.82203" lon="4.62558">
        <ele>374.7</ele>
        <time>2017-10-01T09:30:03Z</time>
      </trkpt>
      <trkpt lat="45.82207" lon="4.62568">
        <ele>375.3</ele>
        <time>2017-10-01T09:30:06Z</time>
      </trkpt>
      <trkpt lat="45.82221" lon="4.62581">
        <ele>377</ele>
        <time>2017-10-01T09:30:12Z</time>
      </trkpt>
      <trkpt lat="45.8223" lon="4.62584">
        <ele>378.1</ele>
        <time>2017-10-01T09:30:15Z</time>
      </trkpt>
      <trkpt lat="45.82237" lon="4.6259">
        <ele>379.2</ele>
        <time>2017-10-01T09:30:18Z</time>
      </trkpt>
      <trkpt lat="45.82249" lon="4.62604">
        <ele>381.1</ele>
        <time>2017-10-01T09:30:23Z</time>
      </trkpt>
      <trkpt lat="45.82252" lon="4.62611">
        <ele>381.9</ele>
        <time>2017-10-01T09:30:25Z</time>
      </trkpt>
      <trkpt lat="45.82257" lon="4.62622">
        <ele>382.9</ele>
        <time>2017-10-01T09:30:28Z</time>
      </trkpt>
      <trkpt lat="45.82262" lon="4.62642">
        <ele>384.6</ele>
        <time>2017-10-01T09:30:33Z</time>
      </trkpt>
      <trkpt lat="45.82262" lon="4.62646">
        <ele>384.9</ele>
        <time>2017-10-01T09:30:34Z</time>
      </trkpt>
      <trkpt lat="45.82263" lon="4.62674">
        <ele>386.3</ele>
        <time>2017-10-01T09:30:40Z</time>
      </trkpt>
      <trkpt lat="45.82263" lon="4.62678">
        <ele>386.4</ele>
        <time>2017-10-01T09:30:41Z</time>
      </trkpt>
      <trkpt lat="45.82262" lon="4.62701">
        <ele>387</ele>
        <time>2017-10-01T09:30:46Z</time>
      </trkpt>
      <trkpt lat="45.8226" lon="4.62714">
        <ele>387.3</ele>
        <time>2017-10-01T09:30:49Z</time>
      </trkpt>
      <trkpt lat="45.8226" lon="4.62718">
        <ele>387.3</ele>
        <time>2017-10-01T09:30:50Z</time>
      </trkpt>
      <trkpt lat="45.82258" lon="4.62737">
        <ele>387.7</ele>
        <time>2017-10-01T09:30:54Z</time>
      </trkpt>
      <trkpt lat="45.82257" lon="4.62755">
        <ele>388.1</ele>
        <time>2017-10-01T09:30:58Z</time>
      </trkpt>
      <trkpt lat="45.82253" lon="4.6279">
        <ele>390.3</ele>
        <time>2017-10-01T09:31:06Z</time>
      </trkpt>
      <trkpt lat="45.8225" lon="4.62813">
        <ele>390.8</ele>
        <time>2017-10-01T09:31:11Z</time>
      </trkpt>
      <trkpt lat="45.82248" lon="4.62826">
        <ele>391.1</ele>
        <time>2017-10-01T09:31:14Z</time>
      </trkpt>
      <trkpt lat="45.82246" lon="4.62839">
        <ele>391.3</ele>
        <time>2017-10-01T09:31:17Z</time>
      </trkpt>
      <trkpt lat="45.82242" lon="4.6286">
        <ele>391.7</ele>
        <time>2017-10-01T09:31:22Z</time>
      </trkpt>
      <trkpt lat="45.8224" lon="4.62868">
        <ele>391.8</ele>
        <time>2017-10-01T09:31:25Z</time>
      </trkpt>
      <trkpt lat="45.82238" lon="4.62876">
        <ele>392</ele>
        <time>2017-10-01T09:31:28Z</time>
      </trkpt>
      <trkpt lat="45.82236" lon="4.62902">
        <ele>391.9</ele>
        <time>2017-10-01T09:31:34Z</time>
      </trkpt>
      <trkpt lat="45.82231" lon="4.62931">
        <ele>391.8</ele>
        <time>2017-10-01T09:31:40Z</time>
      </trkpt>
      <trkpt lat="45.8223" lon="4.62936">
        <ele>391.8</ele>
        <time>2017-10-01T09:31:41Z</time>
      </trkpt>
      <trkpt lat="45.82226" lon="4.6297">
        <ele>391.7</ele>
        <time>2017-10-01T09:31:48Z</time>
      </trkpt>
      <trkpt lat="45.82224" lon="4.6298">
        <ele>391.6</ele>
        <time>2017-10-01T09:31:50Z</time>
      </trkpt>
      <trkpt lat="45.82218" lon="4.63012">
        <ele>391.4</ele>
        <time>2017-10-01T09:31:56Z</time>
      </trkpt>
      <trkpt lat="45.8221" lon="4.63047">
        <ele>391.2</ele>
        <time>2017-10-01T09:32:01Z</time>
      </trkpt>
      <trkpt lat="45.82209" lon="4.63056">
        <ele>391.1</ele>
        <time>2017-10-01T09:32:02Z</time>
      </trkpt>
      <trkpt lat="45.82207" lon="4.63082">
        <ele>388.6</ele>
        <time>2017-10-01T09:32:05Z</time>
      </trkpt>
      <trkpt lat="45.82202" lon="4.63117">
        <ele>384</ele>
        <time>2017-10-01T09:32:09Z</time>
      </trkpt>
      <trkpt lat="45.822" lon="4.63125">
        <ele>384</ele>
        <time>2017-10-01T09:32:10Z</time>
      </trkpt>
      <trkpt lat="45.82196" lon="4.63153">
        <ele>383.6</ele>
        <time>2017-10-01T09:32:13Z</time>
      </trkpt>
      <trkpt lat="45.82188" lon="4.63192">
        <ele>382.6</ele>
        <time>2017-10-01T09:32:17Z</time>
      </trkpt>
      <trkpt lat="45.82182" lon="4.63211">
        <ele>381.7</ele>
        <time>2017-10-01T09:32:19Z</time>
      </trkpt>
      <trkpt lat="45.82175" lon="4.63227">
        <ele>381</ele>
        <time>2017-10-01T09:32:21Z</time>
      </trkpt>
      <trkpt lat="45.82178" lon="4.63243">
        <ele>380.6</ele>
        <time>2017-10-01T09:32:23Z</time>
      </trkpt>
      <trkpt lat="45.82188" lon="4.63249">
        <ele>380</ele>
        <time>2017-10-01T09:32:25Z</time>
      </trkpt>
      <trkpt lat="45.82193" lon="4.63253">
        <ele>379.8</ele>
        <time>2017-10-01T09:32:26Z</time>
      </trkpt>
      <trkpt lat="45.82222" lon="4.63275">
        <ele>378.5</ele>
        <time>2017-10-01T09:32:31Z</time>
      </trkpt>
      <trkpt lat="45.82259" lon="4.63304">
        <ele>377</ele>
        <time>2017-10-01T09:32:38Z</time>
      </trkpt>
      <trkpt lat="45.823" lon="4.63336">
        <ele>375.5</ele>
        <time>2017-10-01T09:32:47Z</time>
      </trkpt>
      <trkpt lat="45.82323" lon="4.63352">
        <ele>374.6</ele>
        <time>2017-10-01T09:32:52Z</time>
      </trkpt>
      <trkpt lat="45.82343" lon="4.6336">
        <ele>373.9</ele>
        <time>2017-10-01T09:32:56Z</time>
      </trkpt>
      <trkpt lat="45.82382" lon="4.63376">
        <ele>372.4</ele>
        <time>2017-10-01T09:33:03Z</time>
      </trkpt>
      <trkpt lat="45.82389" lon="4.63379">
        <ele>372.2</ele>
        <time>2017-10-01T09:33:04Z</time>
      </trkpt>
      <trkpt lat="45.82402" lon="4.63385">
        <ele>371.8</ele>
        <time>2017-10-01T09:33:06Z</time>
      </trkpt>
      <trkpt lat="45.82424" lon="4.63394">
        <ele>371</ele>
        <time>2017-10-01T09:33:09Z</time>
      </trkpt>
      <trkpt lat="45.82439" lon="4.63402">
        <ele>370.5</ele>
        <time>2017-10-01T09:33:11Z</time>
      </trkpt>
      <trkpt lat="45.82446" lon="4.63406">
        <ele>370.2</ele>
        <time>2017-10-01T09:33:12Z</time>
      </trkpt>
      <trkpt lat="45.82468" lon="4.63419">
        <ele>370.5</ele>
        <time>2017-10-01T09:33:15Z</time>
      </trkpt>
      <trkpt lat="45.82473" lon="4.63425">
        <ele>370.7</ele>
        <time>2017-10-01T09:33:16Z</time>
      </trkpt>
      <trkpt lat="45.82478" lon="4.63429">
        <ele>370.9</ele>
        <time>2017-10-01T09:33:17Z</time>
      </trkpt>
      <trkpt lat="45.82484" lon="4.63433">
        <ele>371</ele>
        <time>2017-10-01T09:33:18Z</time>
      </trkpt>
      <trkpt lat="45.82501" lon="4.63442">
        <ele>370.6</ele>
        <time>2017-10-01T09:33:21Z</time>
      </trkpt>
      <trkpt lat="45.82535" lon="4.63465">
        <ele>370.1</ele>
        <time>2017-10-01T09:33:28Z</time>
      </trkpt>
      <trkpt lat="45.82563" lon="4.63484">
        <ele>370.6</ele>
        <time>2017-10-01T09:33:34Z</time>
      </trkpt>
      <trkpt lat="45.82577" lon="4.63493">
        <ele>370.8</ele>
        <time>2017-10-01T09:33:37Z</time>
      </trkpt>
      <trkpt lat="45.82594" lon="4.63505">
        <ele>371</ele>
        <time>2017-10-01T09:33:41Z</time>
      </trkpt>
      <trkpt lat="45.82611" lon="4.63515">
        <ele>371.2</ele>
        <time>2017-10-01T09:33:45Z</time>
      </trkpt>
      <trkpt lat="45.82614" lon="4.63518">
        <ele>371.3</ele>
        <time>2017-10-01T09:33:46Z</time>
      </trkpt>
      <trkpt lat="45.82625" lon="4.63526">
        <ele>371.4</ele>
        <time>2017-10-01T09:33:49Z</time>
      </trkpt>
      <trkpt lat="45.82638" lon="4.63537">
        <ele>371.6</ele>
        <time>2017-10-01T09:33:53Z</time>
      </trkpt>
      <trkpt lat="45.82652" lon="4.63546">
        <ele>371.9</ele>
        <time>2017-10-01T09:33:57Z</time>
      </trkpt>
      <trkpt lat="45.82662" lon="4.63551">
        <ele>371.9</ele>
        <time>2017-10-01T09:34:00Z</time>
      </trkpt>
      <trkpt lat="45.82665" lon="4.63553">
        <ele>372</ele>
        <time>2017-10-01T09:34:01Z</time>
      </trkpt>
      <trkpt lat="45.82677" lon="4.63557">
        <ele>372.7</ele>
        <time>2017-10-01T09:34:05Z</time>
      </trkpt>
      <trkpt lat="45.82683" lon="4.63559">
        <ele>373.1</ele>
        <time>2017-10-01T09:34:07Z</time>
      </trkpt>
      <trkpt lat="45.82702" lon="4.63564">
        <ele>374.6</ele>
        <time>2017-10-01T09:34:13Z</time>
      </trkpt>
      <trkpt lat="45.82712" lon="4.63566">
        <ele>375.4</ele>
        <time>2017-10-01T09:34:16Z</time>
      </trkpt>
      <trkpt lat="45.82721" lon="4.63568">
        <ele>376.1</ele>
        <time>2017-10-01T09:34:19Z</time>
      </trkpt>
      <trkpt lat="45.8273" lon="4.63571">
        <ele>376.8</ele>
        <time>2017-10-01T09:34:22Z</time>
      </trkpt>
      <trkpt lat="45.82751" lon="4.63579">
        <ele>378.5</ele>
        <time>2017-10-01T09:34:30Z</time>
      </trkpt>
      <trkpt lat="45.82765" lon="4.63582">
        <ele>379.6</ele>
        <time>2017-10-01T09:34:35Z</time>
      </trkpt>
      <trkpt lat="45.82768" lon="4.63583">
        <ele>379.9</ele>
        <time>2017-10-01T09:34:36Z</time>
      </trkpt>
      <trkpt lat="45.82776" lon="4.63585">
        <ele>380.6</ele>
        <time>2017-10-01T09:34:39Z</time>
      </trkpt>
      <trkpt lat="45.82786" lon="4.63588">
        <ele>381.2</ele>
        <time>2017-10-01T09:34:43Z</time>
      </trkpt>
      <trkpt lat="45.82797" lon="4.6359">
        <ele>381.5</ele>
        <time>2017-10-01T09:34:47Z</time>
      </trkpt>
      <trkpt lat="45.82802" lon="4.63592">
        <ele>381.6</ele>
        <time>2017-10-01T09:34:49Z</time>
      </trkpt>
      <trkpt lat="45.82816" lon="4.63597">
        <ele>381.8</ele>
        <time>2017-10-01T09:34:54Z</time>
      </trkpt>
      <trkpt lat="45.82822" lon="4.63599">
        <ele>381.9</ele>
        <time>2017-10-01T09:34:56Z</time>
      </trkpt>
      <trkpt lat="45.8285" lon="4.63603">
        <ele>382</ele>
        <time>2017-10-01T09:35:04Z</time>
      </trkpt>
      <trkpt lat="45.82872" lon="4.63609">
        <ele>382.2</ele>
        <time>2017-10-01T09:35:10Z</time>
      </trkpt>
      <trkpt lat="45.8288" lon="4.63612">
        <ele>382.3</ele>
        <time>2017-10-01T09:35:12Z</time>
      </trkpt>
      <trkpt lat="45.82895" lon="4.63618">
        <ele>382.5</ele>
        <time>2017-10-01T09:35:16Z</time>
      </trkpt>
      <trkpt lat="45.82921" lon="4.63629">
        <ele>382.7</ele>
        <time>2017-10-01T09:35:23Z</time>
      </trkpt>
      <trkpt lat="45.82929" lon="4.63633">
        <ele>382.7</ele>
        <time>2017-10-01T09:35:25Z</time>
      </trkpt>
      <trkpt lat="45.82952" lon="4.63651">
        <ele>382.6</ele>
        <time>2017-10-01T09:35:32Z</time>
      </trkpt>
      <trkpt lat="45.82973" lon="4.63668">
        <ele>381.9</ele>
        <time>2017-10-01T09:35:38Z</time>
      </trkpt>
      <trkpt lat="45.83004" lon="4.63693">
        <ele>381.3</ele>
        <time>2017-10-01T09:35:45Z</time>
      </trkpt>
      <trkpt lat="45.83039" lon="4.63718">
        <ele>380.3</ele>
        <time>2017-10-01T09:35:52Z</time>
      </trkpt>
      <trkpt lat="45.83044" lon="4.63722">
        <ele>380.3</ele>
        <time>2017-10-01T09:35:53Z</time>
      </trkpt>
      <trkpt lat="45.83068" lon="4.6374">
        <ele>379.5</ele>
        <time>2017-10-01T09:35:58Z</time>
      </trkpt>
      <trkpt lat="45.83073" lon="4.63745">
        <ele>379.4</ele>
        <time>2017-10-01T09:35:59Z</time>
      </trkpt>
      <trkpt lat="45.83084" lon="4.63754">
        <ele>379.1</ele>
        <time>2017-10-01T09:36:01Z</time>
      </trkpt>
      <trkpt lat="45.8309" lon="4.63757">
        <ele>379</ele>
        <time>2017-10-01T09:36:02Z</time>
      </trkpt>
      <trkpt lat="45.83096" lon="4.6376">
        <ele>378.8</ele>
        <time>2017-10-01T09:36:03Z</time>
      </trkpt>
      <trkpt lat="45.83108" lon="4.63769">
        <ele>378.1</ele>
        <time>2017-10-01T09:36:05Z</time>
      </trkpt>
      <trkpt lat="45.83121" lon="4.63777">
        <ele>378</ele>
        <time>2017-10-01T09:36:07Z</time>
      </trkpt>
      <trkpt lat="45.83128" lon="4.63781">
        <ele>378</ele>
        <time>2017-10-01T09:36:08Z</time>
      </trkpt>
      <trkpt lat="45.83148" lon="4.63795">
        <ele>377.7</ele>
        <time>2017-10-01T09:36:11Z</time>
      </trkpt>
      <trkpt lat="45.83169" lon="4.63811">
        <ele>377.2</ele>
        <time>2017-10-01T09:36:14Z</time>
      </trkpt>
      <trkpt lat="45.83192" lon="4.63824">
        <ele>377</ele>
        <time>2017-10-01T09:36:17Z</time>
      </trkpt>
      <trkpt lat="45.83208" lon="4.63834">
        <ele>376.4</ele>
        <time>2017-10-01T09:36:19Z</time>
      </trkpt>
      <trkpt lat="45.83224" lon="4.63846">
        <ele>375.9</ele>
        <time>2017-10-01T09:36:21Z</time>
      </trkpt>
      <trkpt lat="45.83238" lon="4.63856">
        <ele>375.1</ele>
        <time>2017-10-01T09:36:23Z</time>
      </trkpt>
      <trkpt lat="45.83248" lon="4.63865">
        <ele>375</ele>
        <time>2017-10-01T09:36:25Z</time>
      </trkpt>
      <trkpt lat="45.83251" lon="4.63871">
        <ele>374.8</ele>
        <time>2017-10-01T09:36:26Z</time>
      </trkpt>
      <trkpt lat="45.83248" lon="4.63882">
        <ele>374.2</ele>
        <time>2017-10-01T09:36:28Z</time>
      </trkpt>
      <trkpt lat="45.83246" lon="4.63888">
        <ele>373.8</ele>
        <time>2017-10-01T09:36:29Z</time>
      </trkpt>
      <trkpt lat="45.8324" lon="4.639">
        <ele>373</ele>
        <time>2017-10-01T09:36:31Z</time>
      </trkpt>
      <trkpt lat="45.83238" lon="4.63907">
        <ele>372.6</ele>
        <time>2017-10-01T09:36:32Z</time>
      </trkpt>
      <trkpt lat="45.83232" lon="4.6392">
        <ele>371.8</ele>
        <time>2017-10-01T09:36:34Z</time>
      </trkpt>
      <trkpt lat="45.8322" lon="4.63949">
        <ele>369.9</ele>
        <time>2017-10-01T09:36:38Z</time>
      </trkpt>
      <trkpt lat="45.83217" lon="4.63958">
        <ele>369.3</ele>
        <time>2017-10-01T09:36:39Z</time>
      </trkpt>
      <trkpt lat="45.83206" lon="4.63986">
        <ele>367.6</ele>
        <time>2017-10-01T09:36:42Z</time>
      </trkpt>
      <trkpt lat="45.83199" lon="4.64005">
        <ele>366.4</ele>
        <time>2017-10-01T09:36:44Z</time>
      </trkpt>
      <trkpt lat="45.83195" lon="4.64014">
        <ele>366</ele>
        <time>2017-10-01T09:36:45Z</time>
      </trkpt>
      <trkpt lat="45.83188" lon="4.64029">
        <ele>365.7</ele>
        <time>2017-10-01T09:36:48Z</time>
      </trkpt>
      <trkpt lat="45.83185" lon="4.64028">
        <ele>365.6</ele>
        <time>2017-10-01T09:36:49Z</time>
      </trkpt>
      <trkpt lat="45.83181" lon="4.64024">
        <ele>365.5</ele>
        <time>2017-10-01T09:36:51Z</time>
      </trkpt>
      <trkpt lat="45.83177" lon="4.64024">
        <ele>365.2</ele>
        <time>2017-10-01T09:36:53Z</time>
      </trkpt>
      <trkpt lat="45.83171" lon="4.64027">
        <ele>364.7</ele>
        <time>2017-10-01T09:36:55Z</time>
      </trkpt>
      <trkpt lat="45.83152" lon="4.6404">
        <ele>363.9</ele>
        <time>2017-10-01T09:37:00Z</time>
      </trkpt>
      <trkpt lat="45.83144" lon="4.64047">
        <ele>363.7</ele>
        <time>2017-10-01T09:37:02Z</time>
      </trkpt>
      <trkpt lat="45.83128" lon="4.64059">
        <ele>363.2</ele>
        <time>2017-10-01T09:37:06Z</time>
      </trkpt>
      <trkpt lat="45.83109" lon="4.64071">
        <ele>361.7</ele>
        <time>2017-10-01T09:37:10Z</time>
      </trkpt>
      <trkpt lat="45.83095" lon="4.64081">
        <ele>361.2</ele>
        <time>2017-10-01T09:37:13Z</time>
      </trkpt>
      <trkpt lat="45.8307" lon="4.64097">
        <ele>359.7</ele>
        <time>2017-10-01T09:37:18Z</time>
      </trkpt>
      <trkpt lat="45.83059" lon="4.64105">
        <ele>359.2</ele>
        <time>2017-10-01T09:37:20Z</time>
      </trkpt>
      <trkpt lat="45.83049" lon="4.64115">
        <ele>358.7</ele>
        <time>2017-10-01T09:37:22Z</time>
      </trkpt>
      <trkpt lat="45.83031" lon="4.64127">
        <ele>357.1</ele>
        <time>2017-10-01T09:37:25Z</time>
      </trkpt>
      <trkpt lat="45.83025" lon="4.64131">
        <ele>356.8</ele>
        <time>2017-10-01T09:37:26Z</time>
      </trkpt>
      <trkpt lat="45.83013" lon="4.64138">
        <ele>356.2</ele>
        <time>2017-10-01T09:37:28Z</time>
      </trkpt>
      <trkpt lat="45.82992" lon="4.64148">
        <ele>354.5</ele>
        <time>2017-10-01T09:37:31Z</time>
      </trkpt>
      <trkpt lat="45.82985" lon="4.64151">
        <ele>354.3</ele>
        <time>2017-10-01T09:37:32Z</time>
      </trkpt>
      <trkpt lat="45.82971" lon="4.64156">
        <ele>353.2</ele>
        <time>2017-10-01T09:37:34Z</time>
      </trkpt>
      <trkpt lat="45.82949" lon="4.64168">
        <ele>351.3</ele>
        <time>2017-10-01T09:37:37Z</time>
      </trkpt>
      <trkpt lat="45.82942" lon="4.64173">
        <ele>350.3</ele>
        <time>2017-10-01T09:37:38Z</time>
      </trkpt>
      <trkpt lat="45.82934" lon="4.64179">
        <ele>349.9</ele>
        <time>2017-10-01T09:37:39Z</time>
      </trkpt>
      <trkpt lat="45.82919" lon="4.64193">
        <ele>348.1</ele>
        <time>2017-10-01T09:37:41Z</time>
      </trkpt>
      <trkpt lat="45.82912" lon="4.64201">
        <ele>347.7</ele>
        <time>2017-10-01T09:37:42Z</time>
      </trkpt>
      <trkpt lat="45.82896" lon="4.6422">
        <ele>345.6</ele>
        <time>2017-10-01T09:37:44Z</time>
      </trkpt>
      <trkpt lat="45.82879" lon="4.6424">
        <ele>343.5</ele>
        <time>2017-10-01T09:37:46Z</time>
      </trkpt>
      <trkpt lat="45.8287" lon="4.6425">
        <ele>342.5</ele>
        <time>2017-10-01T09:37:47Z</time>
      </trkpt>
      <trkpt lat="45.82861" lon="4.64261">
        <ele>341</ele>
        <time>2017-10-01T09:37:48Z</time>
      </trkpt>
      <trkpt lat="45.82853" lon="4.64272">
        <ele>340.4</ele>
        <time>2017-10-01T09:37:49Z</time>
      </trkpt>
      <trkpt lat="45.82845" lon="4.64282">
        <ele>339</ele>
        <time>2017-10-01T09:37:50Z</time>
      </trkpt>
      <trkpt lat="45.82837" lon="4.64291">
        <ele>338.3</ele>
        <time>2017-10-01T09:37:51Z</time>
      </trkpt>
      <trkpt lat="45.8283" lon="4.64299">
        <ele>337.3</ele>
        <time>2017-10-01T09:37:52Z</time>
      </trkpt>
      <trkpt lat="45.82823" lon="4.64308">
        <ele>336.5</ele>
        <time>2017-10-01T09:37:53Z</time>
      </trkpt>
      <trkpt lat="45.82818" lon="4.64312">
        <ele>336.3</ele>
        <time>2017-10-01T09:37:54Z</time>
      </trkpt>
      <trkpt lat="45.82813" lon="4.64316">
        <ele>336.1</ele>
        <time>2017-10-01T09:37:55Z</time>
      </trkpt>
      <trkpt lat="45.82809" lon="4.64325">
        <ele>334.1</ele>
        <time>2017-10-01T09:37:57Z</time>
      </trkpt>
      <trkpt lat="45.82809" lon="4.64332">
        <ele>332.2</ele>
        <time>2017-10-01T09:37:58Z</time>
      </trkpt>
      <trkpt lat="45.82807" lon="4.64344">
        <ele>330.9</ele>
        <time>2017-10-01T09:38:00Z</time>
      </trkpt>
      <trkpt lat="45.82803" lon="4.64347">
        <ele>330.8</ele>
        <time>2017-10-01T09:38:01Z</time>
      </trkpt>
      <trkpt lat="45.82797" lon="4.6435">
        <ele>330.8</ele>
        <time>2017-10-01T09:38:02Z</time>
      </trkpt>
      <trkpt lat="45.82785" lon="4.6436">
        <ele>330.4</ele>
        <time>2017-10-01T09:38:04Z</time>
      </trkpt>
      <trkpt lat="45.82774" lon="4.64377">
        <ele>330.2</ele>
        <time>2017-10-01T09:38:06Z</time>
      </trkpt>
      <trkpt lat="45.82768" lon="4.64385">
        <ele>330.1</ele>
        <time>2017-10-01T09:38:07Z</time>
      </trkpt>
      <trkpt lat="45.82761" lon="4.64393">
        <ele>329.8</ele>
        <time>2017-10-01T09:38:08Z</time>
      </trkpt>
      <trkpt lat="45.82754" lon="4.64401">
        <ele>329.6</ele>
        <time>2017-10-01T09:38:09Z</time>
      </trkpt>
      <trkpt lat="45.82734" lon="4.64429">
        <ele>328.9</ele>
        <time>2017-10-01T09:38:12Z</time>
      </trkpt>
      <trkpt lat="45.82727" lon="4.64437">
        <ele>328.7</ele>
        <time>2017-10-01T09:38:13Z</time>
      </trkpt>
      <trkpt lat="45.82719" lon="4.64445">
        <ele>328.5</ele>
        <time>2017-10-01T09:38:14Z</time>
      </trkpt>
      <trkpt lat="45.82705" lon="4.64462">
        <ele>328.5</ele>
        <time>2017-10-01T09:38:16Z</time>
      </trkpt>
      <trkpt lat="45.82691" lon="4.64478">
        <ele>328.6</ele>
        <time>2017-10-01T09:38:18Z</time>
      </trkpt>
      <trkpt lat="45.82683" lon="4.64487">
        <ele>328.7</ele>
        <time>2017-10-01T09:38:19Z</time>
      </trkpt>
      <trkpt lat="45.82677" lon="4.64497">
        <ele>328.5</ele>
        <time>2017-10-01T09:38:20Z</time>
      </trkpt>
      <trkpt lat="45.82671" lon="4.64507">
        <ele>328.3</ele>
        <time>2017-10-01T09:38:21Z</time>
      </trkpt>
      <trkpt lat="45.82661" lon="4.64527">
        <ele>328.1</ele>
        <time>2017-10-01T09:38:23Z</time>
      </trkpt>
      <trkpt lat="45.82657" lon="4.64537">
        <ele>328</ele>
        <time>2017-10-01T09:38:24Z</time>
      </trkpt>
      <trkpt lat="45.82643" lon="4.64565">
        <ele>328.1</ele>
        <time>2017-10-01T09:38:27Z</time>
      </trkpt>
      <trkpt lat="45.82637" lon="4.64573">
        <ele>328</ele>
        <time>2017-10-01T09:38:28Z</time>
      </trkpt>
      <trkpt lat="45.82631" lon="4.64581">
        <ele>328</ele>
        <time>2017-10-01T09:38:29Z</time>
      </trkpt>
      <trkpt lat="45.82618" lon="4.64594">
        <ele>327.6</ele>
        <time>2017-10-01T09:38:31Z</time>
      </trkpt>
      <trkpt lat="45.82614" lon="4.64601">
        <ele>327.2</ele>
        <time>2017-10-01T09:38:32Z</time>
      </trkpt>
      <trkpt lat="45.82609" lon="4.64608">
        <ele>326.7</ele>
        <time>2017-10-01T09:38:33Z</time>
      </trkpt>
      <trkpt lat="45.82605" lon="4.64617">
        <ele>326.4</ele>
        <time>2017-10-01T09:38:34Z</time>
      </trkpt>
      <trkpt lat="45.82597" lon="4.64636">
        <ele>325.6</ele>
        <time>2017-10-01T09:38:36Z</time>
      </trkpt>
      <trkpt lat="45.82591" lon="4.64657">
        <ele>324.5</ele>
        <time>2017-10-01T09:38:38Z</time>
      </trkpt>
      <trkpt lat="45.82586" lon="4.64678">
        <ele>323.7</ele>
        <time>2017-10-01T09:38:40Z</time>
      </trkpt>
      <trkpt lat="45.82583" lon="4.64688">
        <ele>323.1</ele>
        <time>2017-10-01T09:38:41Z</time>
      </trkpt>
      <trkpt lat="45.82579" lon="4.64707">
        <ele>322.4</ele>
        <time>2017-10-01T09:38:43Z</time>
      </trkpt>
      <trkpt lat="45.82577" lon="4.64722">
        <ele>322</ele>
        <time>2017-10-01T09:38:45Z</time>
      </trkpt>
      <trkpt lat="45.82578" lon="4.64728">
        <ele>321.8</ele>
        <time>2017-10-01T09:38:46Z</time>
      </trkpt>
      <trkpt lat="45.82579" lon="4.64733">
        <ele>321.7</ele>
        <time>2017-10-01T09:38:47Z</time>
      </trkpt>
      <trkpt lat="45.82581" lon="4.64743">
        <ele>321.1</ele>
        <time>2017-10-01T09:38:49Z</time>
      </trkpt>
      <trkpt lat="45.82581" lon="4.64746">
        <ele>320.9</ele>
        <time>2017-10-01T09:38:50Z</time>
      </trkpt>
      <trkpt lat="45.8258" lon="4.64749">
        <ele>320.7</ele>
        <time>2017-10-01T09:38:51Z</time>
      </trkpt>
      <trkpt lat="45.82577" lon="4.64757">
        <ele>320.5</ele>
        <time>2017-10-01T09:38:53Z</time>
      </trkpt>
      <trkpt lat="45.82574" lon="4.64761">
        <ele>320.4</ele>
        <time>2017-10-01T09:38:54Z</time>
      </trkpt>
      <trkpt lat="45.82559" lon="4.64777">
        <ele>320.2</ele>
        <time>2017-10-01T09:38:59Z</time>
      </trkpt>
      <trkpt lat="45.82555" lon="4.6478">
        <ele>320.3</ele>
        <time>2017-10-01T09:39:00Z</time>
      </trkpt>
      <trkpt lat="45.82551" lon="4.64785">
        <ele>320.4</ele>
        <time>2017-10-01T09:39:01Z</time>
      </trkpt>
      <trkpt lat="45.82543" lon="4.64791">
        <ele>320.8</ele>
        <time>2017-10-01T09:39:04Z</time>
      </trkpt>
      <trkpt lat="45.82531" lon="4.648">
        <ele>322.8</ele>
        <time>2017-10-01T09:39:09Z</time>
      </trkpt>
      <trkpt lat="45.82528" lon="4.64803">
        <ele>323.8</ele>
        <time>2017-10-01T09:39:11Z</time>
      </trkpt>
      <trkpt lat="45.8252" lon="4.64812">
        <ele>326</ele>
        <time>2017-10-01T09:39:16Z</time>
      </trkpt>
      <trkpt lat="45.82511" lon="4.64823">
        <ele>327.8</ele>
        <time>2017-10-01T09:39:19Z</time>
      </trkpt>
      <trkpt lat="45.82506" lon="4.64829">
        <ele>328.6</ele>
        <time>2017-10-01T09:39:41Z</time>
      </trkpt>
      <trkpt lat="45.82501" lon="4.64835">
        <ele>329.4</ele>
        <time>2017-10-01T09:39:42Z</time>
      </trkpt>
      <trkpt lat="45.82499" lon="4.64838">
        <ele>329.7</ele>
        <time>2017-10-01T09:39:43Z</time>
      </trkpt>
      <trkpt lat="45.82497" lon="4.64841">
        <ele>330</ele>
        <time>2017-10-01T09:39:44Z</time>
      </trkpt>
      <trkpt lat="45.82492" lon="4.64846">
        <ele>330.7</ele>
        <time>2017-10-01T09:39:46Z</time>
      </trkpt>
      <trkpt lat="45.82491" lon="4.64848">
        <ele>330.8</ele>
        <time>2017-10-01T09:39:47Z</time>
      </trkpt>
      <trkpt lat="45.82488" lon="4.64851">
        <ele>331.3</ele>
        <time>2017-10-01T09:39:48Z</time>
      </trkpt>
      <trkpt lat="45.82486" lon="4.64855">
        <ele>331.6</ele>
        <time>2017-10-01T09:39:50Z</time>
      </trkpt>
      <trkpt lat="45.82484" lon="4.64858">
        <ele>331.9</ele>
        <time>2017-10-01T09:39:52Z</time>
      </trkpt>
      <trkpt lat="45.82482" lon="4.64861">
        <ele>332.2</ele>
        <time>2017-10-01T09:39:54Z</time>
      </trkpt>
      <trkpt lat="45.8248" lon="4.64866">
        <ele>332.6</ele>
        <time>2017-10-01T09:39:56Z</time>
      </trkpt>
      <trkpt lat="45.82477" lon="4.6487">
        <ele>333</ele>
        <time>2017-10-01T09:39:58Z</time>
      </trkpt>
      <trkpt lat="45.82475" lon="4.64873">
        <ele>333.2</ele>
        <time>2017-10-01T09:40:00Z</time>
      </trkpt>
      <trkpt lat="45.82474" lon="4.64874">
        <ele>333.4</ele>
        <time>2017-10-01T09:40:01Z</time>
      </trkpt>
      <trkpt lat="45.82468" lon="4.64881">
        <ele>334</ele>
        <time>2017-10-01T09:40:04Z</time>
      </trkpt>
      <trkpt lat="45.82467" lon="4.64888">
        <ele>334.4</ele>
        <time>2017-10-01T09:40:06Z</time>
      </trkpt>
      <trkpt lat="45.82466" lon="4.64892">
        <ele>334.7</ele>
        <time>2017-10-01T09:40:07Z</time>
      </trkpt>
      <trkpt lat="45.82463" lon="4.64898">
        <ele>335.1</ele>
        <time>2017-10-01T09:40:09Z</time>
      </trkpt>
      <trkpt lat="45.8246" lon="4.64905">
        <ele>335.5</ele>
        <time>2017-10-01T09:40:12Z</time>
      </trkpt>
      <trkpt lat="45.82458" lon="4.64907">
        <ele>335.7</ele>
        <time>2017-10-01T09:40:13Z</time>
      </trkpt>
      <trkpt lat="45.82455" lon="4.64916">
        <ele>336.1</ele>
        <time>2017-10-01T09:40:17Z</time>
      </trkpt>
      <trkpt lat="45.82454" lon="4.64918">
        <ele>336.2</ele>
        <time>2017-10-01T09:40:18Z</time>
      </trkpt>
      <trkpt lat="45.82452" lon="4.64923">
        <ele>336.3</ele>
        <time>2017-10-01T09:40:20Z</time>
      </trkpt>
      <trkpt lat="45.82449" lon="4.64935">
        <ele>336.5</ele>
        <time>2017-10-01T09:40:24Z</time>
      </trkpt>
      <trkpt lat="45.82443" lon="4.64951">
        <ele>337</ele>
        <time>2017-10-01T09:40:30Z</time>
      </trkpt>
      <trkpt lat="45.82433" lon="4.64968">
        <ele>337.8</ele>
        <time>2017-10-01T09:40:35Z</time>
      </trkpt>
      <trkpt lat="45.8242" lon="4.64989">
        <ele>338.7</ele>
        <time>2017-10-01T09:40:41Z</time>
      </trkpt>
      <trkpt lat="45.82411" lon="4.64996">
        <ele>339</ele>
        <time>2017-10-01T09:40:45Z</time>
      </trkpt>
      <trkpt lat="45.8241" lon="4.64994">
        <ele>339</ele>
        <time>2017-10-01T09:40:46Z</time>
      </trkpt>
      <trkpt lat="45.82413" lon="4.64983">
        <ele>339.1</ele>
        <time>2017-10-01T09:40:51Z</time>
      </trkpt>
      <trkpt lat="45.82413" lon="4.64971">
        <ele>339.9</ele>
        <time>2017-10-01T09:40:56Z</time>
      </trkpt>
      <trkpt lat="45.82412" lon="4.64969">
        <ele>340</ele>
        <time>2017-10-01T09:40:57Z</time>
      </trkpt>
      <trkpt lat="45.82409" lon="4.64963">
        <ele>340.5</ele>
        <time>2017-10-01T09:41:00Z</time>
      </trkpt>
      <trkpt lat="45.82404" lon="4.64956">
        <ele>341.1</ele>
        <time>2017-10-01T09:41:04Z</time>
      </trkpt>
      <trkpt lat="45.82393" lon="4.6495">
        <ele>342</ele>
        <time>2017-10-01T09:41:11Z</time>
      </trkpt>
      <trkpt lat="45.8238" lon="4.64944">
        <ele>342.2</ele>
        <time>2017-10-01T09:41:19Z</time>
      </trkpt>
      <trkpt lat="45.82368" lon="4.6494">
        <ele>342.1</ele>
        <time>2017-10-01T09:41:26Z</time>
      </trkpt>
      <trkpt lat="45.82358" lon="4.64936">
        <ele>342.1</ele>
        <time>2017-10-01T09:41:32Z</time>
      </trkpt>
      <trkpt lat="45.82357" lon="4.64935">
        <ele>342.1</ele>
        <time>2017-10-01T09:41:33Z</time>
      </trkpt>
      <trkpt lat="45.82353" lon="4.64934">
        <ele>342.1</ele>
        <time>2017-10-01T09:41:35Z</time>
      </trkpt>
      <trkpt lat="45.82346" lon="4.64931">
        <ele>342.3</ele>
        <time>2017-10-01T09:41:39Z</time>
      </trkpt>
      <trkpt lat="45.82341" lon="4.64928">
        <ele>342.5</ele>
        <time>2017-10-01T09:41:42Z</time>
      </trkpt>
      <trkpt lat="45.82338" lon="4.64926">
        <ele>342.6</ele>
        <time>2017-10-01T09:41:44Z</time>
      </trkpt>
      <trkpt lat="45.82332" lon="4.64922">
        <ele>342.9</ele>
        <time>2017-10-01T09:41:48Z</time>
      </trkpt>
      <trkpt lat="45.82326" lon="4.64918">
        <ele>343.4</ele>
        <time>2017-10-01T09:41:52Z</time>
      </trkpt>
      <trkpt lat="45.82324" lon="4.64917">
        <ele>343.6</ele>
        <time>2017-10-01T09:41:53Z</time>
      </trkpt>
      <trkpt lat="45.82316" lon="4.64913">
        <ele>344.3</ele>
        <time>2017-10-01T09:41:58Z</time>
      </trkpt>
      <trkpt lat="45.82312" lon="4.6491">
        <ele>344.9</ele>
        <time>2017-10-01T09:42:01Z</time>
      </trkpt>
      <trkpt lat="45.82303" lon="4.64903">
        <ele>346.1</ele>
        <time>2017-10-01T09:42:08Z</time>
      </trkpt>
      <trkpt lat="45.82302" lon="4.64901">
        <ele>346.3</ele>
        <time>2017-10-01T09:42:09Z</time>
      </trkpt>
      <trkpt lat="45.82297" lon="4.64897">
        <ele>347.3</ele>
        <time>2017-10-01T09:42:13Z</time>
      </trkpt>
      <trkpt lat="45.82291" lon="4.64893">
        <ele>348.4</ele>
        <time>2017-10-01T09:42:17Z</time>
      </trkpt>
      <trkpt lat="45.82288" lon="4.6489">
        <ele>348.9</ele>
        <time>2017-10-01T09:42:19Z</time>
      </trkpt>
      <trkpt lat="45.82283" lon="4.64886">
        <ele>349.7</ele>
        <time>2017-10-01T09:42:23Z</time>
      </trkpt>
      <trkpt lat="45.82279" lon="4.64882">
        <ele>350.2</ele>
        <time>2017-10-01T09:42:26Z</time>
      </trkpt>
      <trkpt lat="45.82274" lon="4.64877">
        <ele>350.7</ele>
        <time>2017-10-01T09:42:30Z</time>
      </trkpt>
      <trkpt lat="45.82269" lon="4.64872">
        <ele>351.2</ele>
        <time>2017-10-01T09:42:34Z</time>
      </trkpt>
      <trkpt lat="45.82267" lon="4.64871">
        <ele>351.3</ele>
        <time>2017-10-01T09:42:35Z</time>
      </trkpt>
      <trkpt lat="45.82261" lon="4.64867">
        <ele>352</ele>
        <time>2017-10-01T09:42:39Z</time>
      </trkpt>
      <trkpt lat="45.82257" lon="4.64861">
        <ele>352.5</ele>
        <time>2017-10-01T09:42:43Z</time>
      </trkpt>
      <trkpt lat="45.82254" lon="4.64859">
        <ele>352.8</ele>
        <time>2017-10-01T09:42:45Z</time>
      </trkpt>
      <trkpt lat="45.82247" lon="4.64853">
        <ele>353.7</ele>
        <time>2017-10-01T09:42:50Z</time>
      </trkpt>
      <trkpt lat="45.8224" lon="4.64847">
        <ele>354.3</ele>
        <time>2017-10-01T09:42:55Z</time>
      </trkpt>
      <trkpt lat="45.82232" lon="4.6484">
        <ele>355.4</ele>
        <time>2017-10-01T09:43:01Z</time>
      </trkpt>
      <trkpt lat="45.82231" lon="4.64839">
        <ele>355.5</ele>
        <time>2017-10-01T09:43:02Z</time>
      </trkpt>
      <trkpt lat="45.82225" lon="4.64835">
        <ele>355.9</ele>
        <time>2017-10-01T09:43:06Z</time>
      </trkpt>
      <trkpt lat="45.82221" lon="4.64832">
        <ele>356.4</ele>
        <time>2017-10-01T09:43:09Z</time>
      </trkpt>
      <trkpt lat="45.82215" lon="4.64826">
        <ele>356.8</ele>
        <time>2017-10-01T09:43:13Z</time>
      </trkpt>
      <trkpt lat="45.82213" lon="4.64823">
        <ele>357</ele>
        <time>2017-10-01T09:43:15Z</time>
      </trkpt>
      <trkpt lat="45.82206" lon="4.64817">
        <ele>357.9</ele>
        <time>2017-10-01T09:43:20Z</time>
      </trkpt>
      <trkpt lat="45.82197" lon="4.6481">
        <ele>358.6</ele>
        <time>2017-10-01T09:43:26Z</time>
      </trkpt>
      <trkpt lat="45.82194" lon="4.64807">
        <ele>358.9</ele>
        <time>2017-10-01T09:43:28Z</time>
      </trkpt>
      <trkpt lat="45.82187" lon="4.64801">
        <ele>359.6</ele>
        <time>2017-10-01T09:43:33Z</time>
      </trkpt>
      <trkpt lat="45.82183" lon="4.64797">
        <ele>360</ele>
        <time>2017-10-01T09:43:35Z</time>
      </trkpt>
      <trkpt lat="45.82175" lon="4.6479">
        <ele>360.6</ele>
        <time>2017-10-01T09:43:40Z</time>
      </trkpt>
      <trkpt lat="45.82171" lon="4.64785">
        <ele>361.2</ele>
        <time>2017-10-01T09:43:43Z</time>
      </trkpt>
      <trkpt lat="45.82168" lon="4.64778">
        <ele>361.9</ele>
        <time>2017-10-01T09:43:46Z</time>
      </trkpt>
      <trkpt lat="45.82165" lon="4.64771">
        <ele>362.6</ele>
        <time>2017-10-01T09:43:49Z</time>
      </trkpt>
      <trkpt lat="45.82164" lon="4.64766">
        <ele>363.3</ele>
        <time>2017-10-01T09:43:51Z</time>
      </trkpt>
      <trkpt lat="45.82164" lon="4.64763">
        <ele>363.8</ele>
        <time>2017-10-01T09:43:52Z</time>
      </trkpt>
      <trkpt lat="45.82163" lon="4.64751">
        <ele>365.6</ele>
        <time>2017-10-01T09:43:56Z</time>
      </trkpt>
      <trkpt lat="45.82162" lon="4.64742">
        <ele>367</ele>
        <time>2017-10-01T09:43:59Z</time>
      </trkpt>
      <trkpt lat="45.82161" lon="4.64733">
        <ele>368.1</ele>
        <time>2017-10-01T09:44:02Z</time>
      </trkpt>
      <trkpt lat="45.8216" lon="4.64719">
        <ele>369</ele>
        <time>2017-10-01T09:44:07Z</time>
      </trkpt>
      <trkpt lat="45.82159" lon="4.64716">
        <ele>369.2</ele>
        <time>2017-10-01T09:44:08Z</time>
      </trkpt>
      <trkpt lat="45.82157" lon="4.6469">
        <ele>370.6</ele>
        <time>2017-10-01T09:44:17Z</time>
      </trkpt>
      <trkpt lat="45.82153" lon="4.64665">
        <ele>372</ele>
        <time>2017-10-01T09:44:25Z</time>
      </trkpt>
      <trkpt lat="45.82153" lon="4.64662">
        <ele>372.3</ele>
        <time>2017-10-01T09:44:26Z</time>
      </trkpt>
      <trkpt lat="45.82151" lon="4.64646">
        <ele>373.9</ele>
        <time>2017-10-01T09:44:31Z</time>
      </trkpt>
      <trkpt lat="45.8215" lon="4.6464">
        <ele>374.8</ele>
        <time>2017-10-01T09:44:33Z</time>
      </trkpt>
      <trkpt lat="45.82143" lon="4.64628">
        <ele>376.4</ele>
        <time>2017-10-01T09:44:38Z</time>
      </trkpt>
      <trkpt lat="45.82139" lon="4.64624">
        <ele>377.1</ele>
        <time>2017-10-01T09:44:40Z</time>
      </trkpt>
      <trkpt lat="45.82132" lon="4.64617">
        <ele>378.5</ele>
        <time>2017-10-01T09:44:44Z</time>
      </trkpt>
      <trkpt lat="45.82122" lon="4.6461">
        <ele>379.7</ele>
        <time>2017-10-01T09:44:49Z</time>
      </trkpt>
      <trkpt lat="45.82114" lon="4.64604">
        <ele>380.3</ele>
        <time>2017-10-01T09:44:53Z</time>
      </trkpt>
      <trkpt lat="45.82104" lon="4.64597">
        <ele>380.7</ele>
        <time>2017-10-01T09:44:58Z</time>
      </trkpt>
      <trkpt lat="45.82092" lon="4.64589">
        <ele>381.3</ele>
        <time>2017-10-01T09:45:04Z</time>
      </trkpt>
      <trkpt lat="45.82082" lon="4.64582">
        <ele>381.6</ele>
        <time>2017-10-01T09:45:10Z</time>
      </trkpt>
      <trkpt lat="45.82063" lon="4.64569">
        <ele>380.7</ele>
        <time>2017-10-01T09:45:19Z</time>
      </trkpt>
      <trkpt lat="45.82044" lon="4.64557">
        <ele>378.8</ele>
        <time>2017-10-01T09:45:26Z</time>
      </trkpt>
      <trkpt lat="45.8202" lon="4.64542">
        <ele>376.6</ele>
        <time>2017-10-01T09:45:34Z</time>
      </trkpt>
      <trkpt lat="45.82012" lon="4.64537">
        <ele>376.3</ele>
        <time>2017-10-01T09:45:37Z</time>
      </trkpt>
      <trkpt lat="45.82005" lon="4.64532">
        <ele>376.4</ele>
        <time>2017-10-01T09:45:40Z</time>
      </trkpt>
      <trkpt lat="45.8198" lon="4.64516">
        <ele>376.4</ele>
        <time>2017-10-01T09:45:48Z</time>
      </trkpt>
      <trkpt lat="45.81959" lon="4.64501">
        <ele>376.2</ele>
        <time>2017-10-01T09:45:55Z</time>
      </trkpt>
      <trkpt lat="45.81939" lon="4.64484">
        <ele>376.4</ele>
        <time>2017-10-01T09:46:03Z</time>
      </trkpt>
      <trkpt lat="45.81928" lon="4.64474">
        <ele>377</ele>
        <time>2017-10-01T09:46:08Z</time>
      </trkpt>
      <trkpt lat="45.81928" lon="4.6447">
        <ele>377</ele>
        <time>2017-10-01T09:46:09Z</time>
      </trkpt>
      <trkpt lat="45.81931" lon="4.64457">
        <ele>377</ele>
        <time>2017-10-01T09:46:14Z</time>
      </trkpt>
      <trkpt lat="45.81933" lon="4.6444">
        <ele>377.7</ele>
        <time>2017-10-01T09:46:21Z</time>
      </trkpt>
      <trkpt lat="45.81935" lon="4.64427">
        <ele>378.8</ele>
        <time>2017-10-01T09:46:27Z</time>
      </trkpt>
      <trkpt lat="45.81935" lon="4.64425">
        <ele>379</ele>
        <time>2017-10-01T09:46:28Z</time>
      </trkpt>
      <trkpt lat="45.81935" lon="4.64423">
        <ele>379.1</ele>
        <time>2017-10-01T09:46:29Z</time>
      </trkpt>
      <trkpt lat="45.81936" lon="4.64416">
        <ele>379.7</ele>
        <time>2017-10-01T09:46:32Z</time>
      </trkpt>
      <trkpt lat="45.81935" lon="4.64414">
        <ele>379.8</ele>
        <time>2017-10-01T09:46:33Z</time>
      </trkpt>
      <trkpt lat="45.81935" lon="4.64409">
        <ele>380</ele>
        <time>2017-10-01T09:46:35Z</time>
      </trkpt>
      <trkpt lat="45.81936" lon="4.644">
        <ele>380.2</ele>
        <time>2017-10-01T09:46:39Z</time>
      </trkpt>
      <trkpt lat="45.81936" lon="4.64397">
        <ele>380.3</ele>
        <time>2017-10-01T09:46:40Z</time>
      </trkpt>
      <trkpt lat="45.81937" lon="4.64383">
        <ele>380.7</ele>
        <time>2017-10-01T09:46:46Z</time>
      </trkpt>
      <trkpt lat="45.81938" lon="4.64373">
        <ele>381.4</ele>
        <time>2017-10-01T09:46:50Z</time>
      </trkpt>
      <trkpt lat="45.81942" lon="4.64362">
        <ele>382.5</ele>
        <time>2017-10-01T09:46:54Z</time>
      </trkpt>
      <trkpt lat="45.81945" lon="4.6434">
        <ele>384.1</ele>
        <time>2017-10-01T09:47:01Z</time>
      </trkpt>
      <trkpt lat="45.81944" lon="4.6432">
        <ele>385.1</ele>
        <time>2017-10-01T09:47:08Z</time>
      </trkpt>
      <trkpt lat="45.81944" lon="4.64317">
        <ele>385.2</ele>
        <time>2017-10-01T09:47:09Z</time>
      </trkpt>
      <trkpt lat="45.81943" lon="4.6431">
        <ele>385.3</ele>
        <time>2017-10-01T09:47:12Z</time>
      </trkpt>
      <trkpt lat="45.81943" lon="4.64295">
        <ele>385.8</ele>
        <time>2017-10-01T09:47:18Z</time>
      </trkpt>
      <trkpt lat="45.81942" lon="4.64284">
        <ele>386.6</ele>
        <time>2017-10-01T09:47:23Z</time>
      </trkpt>
      <trkpt lat="45.81942" lon="4.64278">
        <ele>387.7</ele>
        <time>2017-10-01T09:47:26Z</time>
      </trkpt>
      <trkpt lat="45.81941" lon="4.64272">
        <ele>388.8</ele>
        <time>2017-10-01T09:47:29Z</time>
      </trkpt>
      <trkpt lat="45.81939" lon="4.64264">
        <ele>390.4</ele>
        <time>2017-10-01T09:47:33Z</time>
      </trkpt>
      <trkpt lat="45.81939" lon="4.64261">
        <ele>390.7</ele>
        <time>2017-10-01T09:47:34Z</time>
      </trkpt>
      <trkpt lat="45.81939" lon="4.64255">
        <ele>391.5</ele>
        <time>2017-10-01T09:47:37Z</time>
      </trkpt>
      <trkpt lat="45.81938" lon="4.64252">
        <ele>392</ele>
        <time>2017-10-01T09:47:39Z</time>
      </trkpt>
      <trkpt lat="45.81936" lon="4.64249">
        <ele>392.8</ele>
        <time>2017-10-01T09:47:41Z</time>
      </trkpt>
      <trkpt lat="45.81934" lon="4.64244">
        <ele>394.3</ele>
        <time>2017-10-01T09:47:44Z</time>
      </trkpt>
      <trkpt lat="45.81932" lon="4.6424">
        <ele>395.3</ele>
        <time>2017-10-01T09:47:46Z</time>
      </trkpt>
      <trkpt lat="45.81932" lon="4.64239">
        <ele>395.6</ele>
        <time>2017-10-01T09:47:47Z</time>
      </trkpt>
      <trkpt lat="45.8193" lon="4.64232">
        <ele>397.2</ele>
        <time>2017-10-01T09:47:52Z</time>
      </trkpt>
      <trkpt lat="45.81932" lon="4.64227">
        <ele>397.9</ele>
        <time>2017-10-01T09:47:56Z</time>
      </trkpt>
      <trkpt lat="45.81932" lon="4.64226">
        <ele>398</ele>
        <time>2017-10-01T09:47:57Z</time>
      </trkpt>
      <trkpt lat="45.81935" lon="4.64205">
        <ele>399.2</ele>
        <time>2017-10-01T09:48:11Z</time>
      </trkpt>
      <trkpt lat="45.81936" lon="4.64202">
        <ele>399.2</ele>
        <time>2017-10-01T09:48:14Z</time>
      </trkpt>
      <trkpt lat="45.81937" lon="4.64201">
        <ele>399.2</ele>
        <time>2017-10-01T09:48:15Z</time>
      </trkpt>
      <trkpt lat="45.81938" lon="4.64196">
        <ele>399.1</ele>
        <time>2017-10-01T09:48:18Z</time>
      </trkpt>
      <trkpt lat="45.81938" lon="4.64193">
        <ele>399.1</ele>
        <time>2017-10-01T09:48:19Z</time>
      </trkpt>
      <trkpt lat="45.81938" lon="4.64191">
        <ele>399.3</ele>
        <time>2017-10-01T09:48:20Z</time>
      </trkpt>
      <trkpt lat="45.81943" lon="4.64154">
        <ele>410</ele>
        <time>2017-10-01T09:50:41Z</time>
      </trkpt>
      <trkpt lat="45.81943" lon="4.64153">
        <ele>410.8</ele>
        <time>2017-10-01T09:50:42Z</time>
      </trkpt>
      <trkpt lat="45.81948" lon="4.64142">
        <ele>411.7</ele>
        <time>2017-10-01T09:50:48Z</time>
      </trkpt>
      <trkpt lat="45.81957" lon="4.64114">
        <ele>413.6</ele>
        <time>2017-10-01T09:50:59Z</time>
      </trkpt>
      <trkpt lat="45.81959" lon="4.64103">
        <ele>414.2</ele>
        <time>2017-10-01T09:51:03Z</time>
      </trkpt>
      <trkpt lat="45.8196" lon="4.64091">
        <ele>414.7</ele>
        <time>2017-10-01T09:51:08Z</time>
      </trkpt>
      <trkpt lat="45.8196" lon="4.64087">
        <ele>414.9</ele>
        <time>2017-10-01T09:51:10Z</time>
      </trkpt>
      <trkpt lat="45.8196" lon="4.6408">
        <ele>415.3</ele>
        <time>2017-10-01T09:51:13Z</time>
      </trkpt>
      <trkpt lat="45.8196" lon="4.64075">
        <ele>415.5</ele>
        <time>2017-10-01T09:51:15Z</time>
      </trkpt>
      <trkpt lat="45.8196" lon="4.64071">
        <ele>415.7</ele>
        <time>2017-10-01T09:51:17Z</time>
      </trkpt>
      <trkpt lat="45.81959" lon="4.64055">
        <ele>416.3</ele>
        <time>2017-10-01T09:51:23Z</time>
      </trkpt>
      <trkpt lat="45.8196" lon="4.64049">
        <ele>416.5</ele>
        <time>2017-10-01T09:51:25Z</time>
      </trkpt>
      <trkpt lat="45.81959" lon="4.64033">
        <ele>417.2</ele>
        <time>2017-10-01T09:51:31Z</time>
      </trkpt>
      <trkpt lat="45.81958" lon="4.64019">
        <ele>417.6</ele>
        <time>2017-10-01T09:51:36Z</time>
      </trkpt>
      <trkpt lat="45.81957" lon="4.64008">
        <ele>417.9</ele>
        <time>2017-10-01T09:51:40Z</time>
      </trkpt>
      <trkpt lat="45.81956" lon="4.63984">
        <ele>418.6</ele>
        <time>2017-10-01T09:51:48Z</time>
      </trkpt>
      <trkpt lat="45.81955" lon="4.63978">
        <ele>418.8</ele>
        <time>2017-10-01T09:51:50Z</time>
      </trkpt>
      <trkpt lat="45.81954" lon="4.63966">
        <ele>419.2</ele>
        <time>2017-10-01T09:51:54Z</time>
      </trkpt>
      <trkpt lat="45.81951" lon="4.6395">
        <ele>419.7</ele>
        <time>2017-10-01T09:51:59Z</time>
      </trkpt>
      <trkpt lat="45.81945" lon="4.63923">
        <ele>420.2</ele>
        <time>2017-10-01T09:52:08Z</time>
      </trkpt>
      <trkpt lat="45.81945" lon="4.63919">
        <ele>420.3</ele>
        <time>2017-10-01T09:52:09Z</time>
      </trkpt>
      <trkpt lat="45.8194" lon="4.63897">
        <ele>420.7</ele>
        <time>2017-10-01T09:52:16Z</time>
      </trkpt>
      <trkpt lat="45.81936" lon="4.63882">
        <ele>421.1</ele>
        <time>2017-10-01T09:52:21Z</time>
      </trkpt>
      <trkpt lat="45.81932" lon="4.63874">
        <ele>421.3</ele>
        <time>2017-10-01T09:52:24Z</time>
      </trkpt>
      <trkpt lat="45.81923" lon="4.63854">
        <ele>422</ele>
        <time>2017-10-01T09:52:31Z</time>
      </trkpt>
      <trkpt lat="45.81918" lon="4.63846">
        <ele>422.3</ele>
        <time>2017-10-01T09:52:34Z</time>
      </trkpt>
      <trkpt lat="45.81909" lon="4.63834">
        <ele>422.6</ele>
        <time>2017-10-01T09:52:39Z</time>
      </trkpt>
      <trkpt lat="45.81904" lon="4.63829">
        <ele>422.8</ele>
        <time>2017-10-01T09:52:42Z</time>
      </trkpt>
      <trkpt lat="45.81893" lon="4.63809">
        <ele>423.2</ele>
        <time>2017-10-01T09:52:50Z</time>
      </trkpt>
      <trkpt lat="45.81886" lon="4.63796">
        <ele>423.3</ele>
        <time>2017-10-01T09:52:55Z</time>
      </trkpt>
      <trkpt lat="45.81882" lon="4.63788">
        <ele>423.4</ele>
        <time>2017-10-01T09:52:58Z</time>
      </trkpt>
      <trkpt lat="45.81874" lon="4.63771">
        <ele>423.5</ele>
        <time>2017-10-01T09:53:04Z</time>
      </trkpt>
      <trkpt lat="45.81868" lon="4.6376">
        <ele>423.5</ele>
        <time>2017-10-01T09:53:07Z</time>
      </trkpt>
      <trkpt lat="45.81859" lon="4.63736">
        <ele>423.4</ele>
        <time>2017-10-01T09:53:13Z</time>
      </trkpt>
      <trkpt lat="45.81844" lon="4.63699">
        <ele>423</ele>
        <time>2017-10-01T09:53:20Z</time>
      </trkpt>
      <trkpt lat="45.81835" lon="4.6368">
        <ele>422.8</ele>
        <time>2017-10-01T09:53:24Z</time>
      </trkpt>
      <trkpt lat="45.81826" lon="4.63659">
        <ele>422.3</ele>
        <time>2017-10-01T09:53:28Z</time>
      </trkpt>
      <trkpt lat="45.81817" lon="4.63636">
        <ele>421.8</ele>
        <time>2017-10-01T09:53:32Z</time>
      </trkpt>
      <trkpt lat="45.81809" lon="4.63613">
        <ele>421.4</ele>
        <time>2017-10-01T09:53:36Z</time>
      </trkpt>
      <trkpt lat="45.81807" lon="4.63607">
        <ele>421.3</ele>
        <time>2017-10-01T09:53:37Z</time>
      </trkpt>
      <trkpt lat="45.81797" lon="4.63582">
        <ele>420.9</ele>
        <time>2017-10-01T09:53:42Z</time>
      </trkpt>
      <trkpt lat="45.8179" lon="4.63578">
        <ele>420.7</ele>
        <time>2017-10-01T09:53:45Z</time>
      </trkpt>
      <trkpt lat="45.81787" lon="4.63578">
        <ele>420.7</ele>
        <time>2017-10-01T09:53:47Z</time>
      </trkpt>
      <trkpt lat="45.81786" lon="4.6358">
        <ele>420.7</ele>
        <time>2017-10-01T09:53:48Z</time>
      </trkpt>
      <trkpt lat="45.81783" lon="4.63585">
        <ele>420.6</ele>
        <time>2017-10-01T09:53:50Z</time>
      </trkpt>
      <trkpt lat="45.81781" lon="4.63586">
        <ele>420.6</ele>
        <time>2017-10-01T09:53:51Z</time>
      </trkpt>
      <trkpt lat="45.81777" lon="4.63591">
        <ele>420.5</ele>
        <time>2017-10-01T09:53:54Z</time>
      </trkpt>
      <trkpt lat="45.81774" lon="4.63596">
        <ele>421.7</ele>
        <time>2017-10-01T09:53:57Z</time>
      </trkpt>
      <trkpt lat="45.81773" lon="4.63598">
        <ele>423</ele>
        <time>2017-10-01T09:53:58Z</time>
      </trkpt>
      <trkpt lat="45.81769" lon="4.63603">
        <ele>424.1</ele>
        <time>2017-10-01T09:54:01Z</time>
      </trkpt>
      <trkpt lat="45.81764" lon="4.63608">
        <ele>425.8</ele>
        <time>2017-10-01T09:54:05Z</time>
      </trkpt>
      <trkpt lat="45.81763" lon="4.6361">
        <ele>426.1</ele>
        <time>2017-10-01T09:54:06Z</time>
      </trkpt>
      <trkpt lat="45.81759" lon="4.63615">
        <ele>427.3</ele>
        <time>2017-10-01T09:54:09Z</time>
      </trkpt>
      <trkpt lat="45.81754" lon="4.63622">
        <ele>428.5</ele>
        <time>2017-10-01T09:54:13Z</time>
      </trkpt>
      <trkpt lat="45.81751" lon="4.63626">
        <ele>429.3</ele>
        <time>2017-10-01T09:54:16Z</time>
      </trkpt>
      <trkpt lat="45.81748" lon="4.63629">
        <ele>430</ele>
        <time>2017-10-01T09:54:18Z</time>
      </trkpt>
      <trkpt lat="45.81741" lon="4.63637">
        <ele>431</ele>
        <time>2017-10-01T09:54:24Z</time>
      </trkpt>
      <trkpt lat="45.81737" lon="4.63643">
        <ele>432.1</ele>
        <time>2017-10-01T09:54:28Z</time>
      </trkpt>
      <trkpt lat="45.81732" lon="4.63648">
        <ele>432.9</ele>
        <time>2017-10-01T09:54:32Z</time>
      </trkpt>
      <trkpt lat="45.81731" lon="4.63649">
        <ele>433.8</ele>
        <time>2017-10-01T09:54:33Z</time>
      </trkpt>
      <trkpt lat="45.81724" lon="4.63658">
        <ele>435.2</ele>
        <time>2017-10-01T09:54:39Z</time>
      </trkpt>
      <trkpt lat="45.81722" lon="4.63661">
        <ele>435.8</ele>
        <time>2017-10-01T09:54:41Z</time>
      </trkpt>
      <trkpt lat="45.81716" lon="4.63668">
        <ele>437.2</ele>
        <time>2017-10-01T09:54:46Z</time>
      </trkpt>
      <trkpt lat="45.81713" lon="4.63672">
        <ele>438.1</ele>
        <time>2017-10-01T09:54:48Z</time>
      </trkpt>
      <trkpt lat="45.81706" lon="4.6368">
        <ele>439.6</ele>
        <time>2017-10-01T09:54:54Z</time>
      </trkpt>
      <trkpt lat="45.81701" lon="4.63686">
        <ele>440.8</ele>
        <time>2017-10-01T09:54:58Z</time>
      </trkpt>
      <trkpt lat="45.81696" lon="4.63692">
        <ele>441.6</ele>
        <time>2017-10-01T09:55:02Z</time>
      </trkpt>
      <trkpt lat="45.81692" lon="4.63698">
        <ele>442.6</ele>
        <time>2017-10-01T09:55:06Z</time>
      </trkpt>
      <trkpt lat="45.81683" lon="4.6371">
        <ele>443.6</ele>
        <time>2017-10-01T09:55:12Z</time>
      </trkpt>
      <trkpt lat="45.81672" lon="4.63723">
        <ele>444.4</ele>
        <time>2017-10-01T09:55:18Z</time>
      </trkpt>
      <trkpt lat="45.81659" lon="4.63736">
        <ele>444</ele>
        <time>2017-10-01T09:55:25Z</time>
      </trkpt>
      <trkpt lat="45.81645" lon="4.63749">
        <ele>444</ele>
        <time>2017-10-01T09:55:31Z</time>
      </trkpt>
      <trkpt lat="45.81635" lon="4.63756">
        <ele>443.8</ele>
        <time>2017-10-01T09:55:34Z</time>
      </trkpt>
      <trkpt lat="45.81628" lon="4.63759">
        <ele>444.1</ele>
        <time>2017-10-01T09:55:36Z</time>
      </trkpt>
      <trkpt lat="45.8162" lon="4.63762">
        <ele>443.4</ele>
        <time>2017-10-01T09:55:40Z</time>
      </trkpt>
      <trkpt lat="45.81619" lon="4.63761">
        <ele>443.7</ele>
        <time>2017-10-01T09:55:41Z</time>
      </trkpt>
      <trkpt lat="45.81614" lon="4.63762">
        <ele>443.7</ele>
        <time>2017-10-01T09:56:36Z</time>
      </trkpt>
      <trkpt lat="45.81604" lon="4.63765">
        <ele>443.5</ele>
        <time>2017-10-01T09:56:39Z</time>
      </trkpt>
      <trkpt lat="45.816" lon="4.63765">
        <ele>442.6</ele>
        <time>2017-10-01T09:56:40Z</time>
      </trkpt>
      <trkpt lat="45.8159" lon="4.63766">
        <ele>442</ele>
        <time>2017-10-01T09:56:42Z</time>
      </trkpt>
      <trkpt lat="45.81581" lon="4.63768">
        <ele>441.3</ele>
        <time>2017-10-01T09:56:44Z</time>
      </trkpt>
      <trkpt lat="45.81577" lon="4.63768">
        <ele>441.3</ele>
        <time>2017-10-01T09:56:45Z</time>
      </trkpt>
      <trkpt lat="45.81566" lon="4.63768">
        <ele>440.1</ele>
        <time>2017-10-01T09:56:47Z</time>
      </trkpt>
      <trkpt lat="45.8156" lon="4.63769">
        <ele>439.7</ele>
        <time>2017-10-01T09:56:48Z</time>
      </trkpt>
      <trkpt lat="45.81553" lon="4.6377">
        <ele>438.7</ele>
        <time>2017-10-01T09:56:49Z</time>
      </trkpt>
      <trkpt lat="45.81533" lon="4.63773">
        <ele>436.3</ele>
        <time>2017-10-01T09:56:52Z</time>
      </trkpt>
      <trkpt lat="45.8151" lon="4.63776">
        <ele>433.5</ele>
        <time>2017-10-01T09:56:55Z</time>
      </trkpt>
      <trkpt lat="45.81484" lon="4.6378">
        <ele>433.1</ele>
        <time>2017-10-01T09:56:58Z</time>
      </trkpt>
      <trkpt lat="45.81474" lon="4.63782">
        <ele>433.9</ele>
        <time>2017-10-01T09:56:59Z</time>
      </trkpt>
      <trkpt lat="45.81464" lon="4.63784">
        <ele>433.8</ele>
        <time>2017-10-01T09:57:00Z</time>
      </trkpt>
      <trkpt lat="45.81444" lon="4.63791">
        <ele>432.1</ele>
        <time>2017-10-01T09:57:02Z</time>
      </trkpt>
      <trkpt lat="45.81423" lon="4.63799">
        <ele>431</ele>
        <time>2017-10-01T09:57:04Z</time>
      </trkpt>
      <trkpt lat="45.81413" lon="4.63805">
        <ele>427.4</ele>
        <time>2017-10-01T09:57:05Z</time>
      </trkpt>
      <trkpt lat="45.81404" lon="4.63812">
        <ele>423.4</ele>
        <time>2017-10-01T09:57:06Z</time>
      </trkpt>
      <trkpt lat="45.81396" lon="4.6382">
        <ele>420.5</ele>
        <time>2017-10-01T09:57:07Z</time>
      </trkpt>
      <trkpt lat="45.81388" lon="4.63829">
        <ele>419.2</ele>
        <time>2017-10-01T09:57:08Z</time>
      </trkpt>
      <trkpt lat="45.8137" lon="4.63849">
        <ele>415.7</ele>
        <time>2017-10-01T09:57:11Z</time>
      </trkpt>
      <trkpt lat="45.81367" lon="4.63855">
        <ele>414</ele>
        <time>2017-10-01T09:57:12Z</time>
      </trkpt>
      <trkpt lat="45.81366" lon="4.63859">
        <ele>414</ele>
        <time>2017-10-01T09:57:13Z</time>
      </trkpt>
      <trkpt lat="45.81368" lon="4.63865">
        <ele>413.6</ele>
        <time>2017-10-01T09:57:14Z</time>
      </trkpt>
      <trkpt lat="45.81371" lon="4.63869">
        <ele>412.9</ele>
        <time>2017-10-01T09:57:15Z</time>
      </trkpt>
      <trkpt lat="45.81382" lon="4.63872">
        <ele>411.3</ele>
        <time>2017-10-01T09:57:17Z</time>
      </trkpt>
      <trkpt lat="45.81388" lon="4.63873">
        <ele>410.4</ele>
        <time>2017-10-01T09:57:18Z</time>
      </trkpt>
      <trkpt lat="45.81402" lon="4.63875">
        <ele>409.2</ele>
        <time>2017-10-01T09:57:20Z</time>
      </trkpt>
      <trkpt lat="45.81409" lon="4.63876">
        <ele>408.9</ele>
        <time>2017-10-01T09:57:21Z</time>
      </trkpt>
      <trkpt lat="45.81415" lon="4.63878">
        <ele>408.9</ele>
        <time>2017-10-01T09:57:22Z</time>
      </trkpt>
      <trkpt lat="45.81418" lon="4.63883">
        <ele>408.6</ele>
        <time>2017-10-01T09:57:23Z</time>
      </trkpt>
      <trkpt lat="45.8142" lon="4.63889">
        <ele>408</ele>
        <time>2017-10-01T09:57:24Z</time>
      </trkpt>
      <trkpt lat="45.8142" lon="4.63896">
        <ele>407.1</ele>
        <time>2017-10-01T09:57:25Z</time>
      </trkpt>
      <trkpt lat="45.81419" lon="4.63905">
        <ele>405.7</ele>
        <time>2017-10-01T09:57:26Z</time>
      </trkpt>
      <trkpt lat="45.81418" lon="4.63915">
        <ele>403.9</ele>
        <time>2017-10-01T09:57:27Z</time>
      </trkpt>
      <trkpt lat="45.81416" lon="4.63924">
        <ele>402.9</ele>
        <time>2017-10-01T09:57:28Z</time>
      </trkpt>
      <trkpt lat="45.8141" lon="4.63946">
        <ele>400</ele>
        <time>2017-10-01T09:57:30Z</time>
      </trkpt>
      <trkpt lat="45.81404" lon="4.63958">
        <ele>399.7</ele>
        <time>2017-10-01T09:57:31Z</time>
      </trkpt>
      <trkpt lat="45.81394" lon="4.63977">
        <ele>398.6</ele>
        <time>2017-10-01T09:57:33Z</time>
      </trkpt>
      <trkpt lat="45.8139" lon="4.63985">
        <ele>398.1</ele>
        <time>2017-10-01T09:57:34Z</time>
      </trkpt>
      <trkpt lat="45.81387" lon="4.63993">
        <ele>397.6</ele>
        <time>2017-10-01T09:57:35Z</time>
      </trkpt>
      <trkpt lat="45.81388" lon="4.64">
        <ele>394.9</ele>
        <time>2017-10-01T09:57:36Z</time>
      </trkpt>
      <trkpt lat="45.81391" lon="4.64007">
        <ele>392.8</ele>
        <time>2017-10-01T09:57:37Z</time>
      </trkpt>
      <trkpt lat="45.81395" lon="4.64012">
        <ele>390.5</ele>
        <time>2017-10-01T09:57:38Z</time>
      </trkpt>
      <trkpt lat="45.814" lon="4.64018">
        <ele>388.1</ele>
        <time>2017-10-01T09:57:39Z</time>
      </trkpt>
      <trkpt lat="45.81405" lon="4.64023">
        <ele>388</ele>
        <time>2017-10-01T09:57:40Z</time>
      </trkpt>
      <trkpt lat="45.8141" lon="4.64028">
        <ele>388</ele>
        <time>2017-10-01T09:57:41Z</time>
      </trkpt>
      <trkpt lat="45.81416" lon="4.64032">
        <ele>388</ele>
        <time>2017-10-01T09:57:42Z</time>
      </trkpt>
      <trkpt lat="45.81424" lon="4.64039">
        <ele>386.7</ele>
        <time>2017-10-01T09:57:44Z</time>
      </trkpt>
      <trkpt lat="45.81427" lon="4.64051">
        <ele>385.4</ele>
        <time>2017-10-01T09:57:46Z</time>
      </trkpt>
      <trkpt lat="45.81428" lon="4.6406">
        <ele>384.6</ele>
        <time>2017-10-01T09:57:47Z</time>
      </trkpt>
      <trkpt lat="45.81429" lon="4.6407">
        <ele>383.5</ele>
        <time>2017-10-01T09:57:48Z</time>
      </trkpt>
      <trkpt lat="45.8143" lon="4.64081">
        <ele>382.3</ele>
        <time>2017-10-01T09:57:49Z</time>
      </trkpt>
      <trkpt lat="45.81431" lon="4.64092">
        <ele>381.1</ele>
        <time>2017-10-01T09:57:50Z</time>
      </trkpt>
      <trkpt lat="45.81432" lon="4.64117">
        <ele>378.3</ele>
        <time>2017-10-01T09:57:52Z</time>
      </trkpt>
      <trkpt lat="45.81433" lon="4.64129">
        <ele>376.6</ele>
        <time>2017-10-01T09:57:53Z</time>
      </trkpt>
      <trkpt lat="45.81432" lon="4.64155">
        <ele>374</ele>
        <time>2017-10-01T09:57:55Z</time>
      </trkpt>
      <trkpt lat="45.8143" lon="4.64168">
        <ele>373.1</ele>
        <time>2017-10-01T09:57:56Z</time>
      </trkpt>
      <trkpt lat="45.81427" lon="4.6418">
        <ele>372.5</ele>
        <time>2017-10-01T09:57:57Z</time>
      </trkpt>
      <trkpt lat="45.81424" lon="4.6419">
        <ele>372.2</ele>
        <time>2017-10-01T09:57:58Z</time>
      </trkpt>
      <trkpt lat="45.81423" lon="4.64199">
        <ele>371.5</ele>
        <time>2017-10-01T09:57:59Z</time>
      </trkpt>
      <trkpt lat="45.81421" lon="4.64207">
        <ele>371</ele>
        <time>2017-10-01T09:58:00Z</time>
      </trkpt>
      <trkpt lat="45.81419" lon="4.64216">
        <ele>371</ele>
        <time>2017-10-01T09:58:01Z</time>
      </trkpt>
      <trkpt lat="45.81417" lon="4.64225">
        <ele>370</ele>
        <time>2017-10-01T09:58:02Z</time>
      </trkpt>
      <trkpt lat="45.81415" lon="4.64235">
        <ele>369</ele>
        <time>2017-10-01T09:58:03Z</time>
      </trkpt>
      <trkpt lat="45.81413" lon="4.64244">
        <ele>367.4</ele>
        <time>2017-10-01T09:58:04Z</time>
      </trkpt>
      <trkpt lat="45.81411" lon="4.64252">
        <ele>365.8</ele>
        <time>2017-10-01T09:58:05Z</time>
      </trkpt>
      <trkpt lat="45.81409" lon="4.64261">
        <ele>364.6</ele>
        <time>2017-10-01T09:58:06Z</time>
      </trkpt>
      <trkpt lat="45.81407" lon="4.64268">
        <ele>362.6</ele>
        <time>2017-10-01T09:58:07Z</time>
      </trkpt>
      <trkpt lat="45.81406" lon="4.64275">
        <ele>361.9</ele>
        <time>2017-10-01T09:58:08Z</time>
      </trkpt>
      <trkpt lat="45.81403" lon="4.64287">
        <ele>359.7</ele>
        <time>2017-10-01T09:58:10Z</time>
      </trkpt>
      <trkpt lat="45.81402" lon="4.64301">
        <ele>357.5</ele>
        <time>2017-10-01T09:58:12Z</time>
      </trkpt>
      <trkpt lat="45.81406" lon="4.64315">
        <ele>357.2</ele>
        <time>2017-10-01T09:58:14Z</time>
      </trkpt>
      <trkpt lat="45.81415" lon="4.64326">
        <ele>357.7</ele>
        <time>2017-10-01T09:58:16Z</time>
      </trkpt>
      <trkpt lat="45.81425" lon="4.6434">
        <ele>357.8</ele>
        <time>2017-10-01T09:58:18Z</time>
      </trkpt>
      <trkpt lat="45.81429" lon="4.64347">
        <ele>357.7</ele>
        <time>2017-10-01T09:58:19Z</time>
      </trkpt>
      <trkpt lat="45.81442" lon="4.64369">
        <ele>357.8</ele>
        <time>2017-10-01T09:58:22Z</time>
      </trkpt>
      <trkpt lat="45.81443" lon="4.64377">
        <ele>357</ele>
        <time>2017-10-01T09:58:23Z</time>
      </trkpt>
      <trkpt lat="45.81443" lon="4.64406">
        <ele>355.8</ele>
        <time>2017-10-01T09:58:27Z</time>
      </trkpt>
      <trkpt lat="45.81442" lon="4.64412">
        <ele>355.8</ele>
        <time>2017-10-01T09:58:28Z</time>
      </trkpt>
      <trkpt lat="45.81437" lon="4.6443">
        <ele>355.6</ele>
        <time>2017-10-01T09:58:32Z</time>
      </trkpt>
      <trkpt lat="45.81428" lon="4.6445">
        <ele>355</ele>
        <time>2017-10-01T09:58:37Z</time>
      </trkpt>
      <trkpt lat="45.81417" lon="4.64482">
        <ele>354.2</ele>
        <time>2017-10-01T09:58:42Z</time>
      </trkpt>
      <trkpt lat="45.81405" lon="4.64517">
        <ele>353.6</ele>
        <time>2017-10-01T09:58:48Z</time>
      </trkpt>
      <trkpt lat="45.81401" lon="4.64535">
        <ele>353.8</ele>
        <time>2017-10-01T09:58:51Z</time>
      </trkpt>
      <trkpt lat="45.81399" lon="4.64549">
        <ele>353.5</ele>
        <time>2017-10-01T09:58:53Z</time>
      </trkpt>
      <trkpt lat="45.814" lon="4.64557">
        <ele>353.8</ele>
        <time>2017-10-01T09:58:54Z</time>
      </trkpt>
      <trkpt lat="45.8141" lon="4.6458">
        <ele>353.7</ele>
        <time>2017-10-01T09:58:57Z</time>
      </trkpt>
      <trkpt lat="45.81415" lon="4.64587">
        <ele>353.1</ele>
        <time>2017-10-01T09:58:58Z</time>
      </trkpt>
      <trkpt lat="45.81421" lon="4.64598">
        <ele>351.8</ele>
        <time>2017-10-01T09:59:00Z</time>
      </trkpt>
      <trkpt lat="45.81419" lon="4.64601">
        <ele>351.6</ele>
        <time>2017-10-01T09:59:01Z</time>
      </trkpt>
      <trkpt lat="45.81414" lon="4.64604">
        <ele>351.3</ele>
        <time>2017-10-01T09:59:02Z</time>
      </trkpt>
      <trkpt lat="45.81403" lon="4.64605">
        <ele>351</ele>
        <time>2017-10-01T09:59:04Z</time>
      </trkpt>
      <trkpt lat="45.81397" lon="4.64606">
        <ele>350.6</ele>
        <time>2017-10-01T09:59:05Z</time>
      </trkpt>
      <trkpt lat="45.81378" lon="4.64613">
        <ele>348.3</ele>
        <time>2017-10-01T09:59:08Z</time>
      </trkpt>
      <trkpt lat="45.81372" lon="4.64617">
        <ele>347</ele>
        <time>2017-10-01T09:59:09Z</time>
      </trkpt>
      <trkpt lat="45.8136" lon="4.64629">
        <ele>344.2</ele>
        <time>2017-10-01T09:59:12Z</time>
      </trkpt>
      <trkpt lat="45.81357" lon="4.64632">
        <ele>343.8</ele>
        <time>2017-10-01T09:59:13Z</time>
      </trkpt>
      <trkpt lat="45.81354" lon="4.64634">
        <ele>343.4</ele>
        <time>2017-10-01T09:59:14Z</time>
      </trkpt>
      <trkpt lat="45.81352" lon="4.64637">
        <ele>343</ele>
        <time>2017-10-01T09:59:15Z</time>
      </trkpt>
      <trkpt lat="45.8135" lon="4.64641">
        <ele>342.4</ele>
        <time>2017-10-01T09:59:16Z</time>
      </trkpt>
      <trkpt lat="45.81345" lon="4.64651">
        <ele>341.7</ele>
        <time>2017-10-01T09:59:18Z</time>
      </trkpt>
      <trkpt lat="45.81343" lon="4.64657">
        <ele>341.5</ele>
        <time>2017-10-01T09:59:19Z</time>
      </trkpt>
      <trkpt lat="45.81339" lon="4.64667">
        <ele>341.4</ele>
        <time>2017-10-01T09:59:21Z</time>
      </trkpt>
      <trkpt lat="45.8133" lon="4.64686">
        <ele>341.2</ele>
        <time>2017-10-01T09:59:24Z</time>
      </trkpt>
      <trkpt lat="45.81324" lon="4.647">
        <ele>341</ele>
        <time>2017-10-01T09:59:26Z</time>
      </trkpt>
      <trkpt lat="45.81322" lon="4.64707">
        <ele>340.8</ele>
        <time>2017-10-01T09:59:27Z</time>
      </trkpt>
      <trkpt lat="45.81312" lon="4.64728">
        <ele>338.9</ele>
        <time>2017-10-01T09:59:30Z</time>
      </trkpt>
      <trkpt lat="45.81306" lon="4.64737">
        <ele>338.1</ele>
        <time>2017-10-01T09:59:32Z</time>
      </trkpt>
      <trkpt lat="45.81296" lon="4.64757">
        <ele>336</ele>
        <time>2017-10-01T09:59:36Z</time>
      </trkpt>
      <trkpt lat="45.81291" lon="4.64769">
        <ele>335.3</ele>
        <time>2017-10-01T09:59:38Z</time>
      </trkpt>
      <trkpt lat="45.81289" lon="4.64774">
        <ele>334.9</ele>
        <time>2017-10-01T09:59:39Z</time>
      </trkpt>
      <trkpt lat="45.81284" lon="4.64785">
        <ele>334.5</ele>
        <time>2017-10-01T09:59:41Z</time>
      </trkpt>
      <trkpt lat="45.81282" lon="4.64791">
        <ele>334.6</ele>
        <time>2017-10-01T09:59:42Z</time>
      </trkpt>
      <trkpt lat="45.81281" lon="4.64796">
        <ele>334.8</ele>
        <time>2017-10-01T09:59:43Z</time>
      </trkpt>
      <trkpt lat="45.81278" lon="4.64805">
        <ele>335.1</ele>
        <time>2017-10-01T09:59:45Z</time>
      </trkpt>
      <trkpt lat="45.81272" lon="4.64814">
        <ele>335.5</ele>
        <time>2017-10-01T09:59:47Z</time>
      </trkpt>
      <trkpt lat="45.81269" lon="4.64816">
        <ele>335.7</ele>
        <time>2017-10-01T09:59:48Z</time>
      </trkpt>
      <trkpt lat="45.81261" lon="4.64815">
        <ele>336</ele>
        <time>2017-10-01T09:59:50Z</time>
      </trkpt>
      <trkpt lat="45.81257" lon="4.64814">
        <ele>336.4</ele>
        <time>2017-10-01T09:59:51Z</time>
      </trkpt>
      <trkpt lat="45.81243" lon="4.64806">
        <ele>337.7</ele>
        <time>2017-10-01T09:59:55Z</time>
      </trkpt>
      <trkpt lat="45.81242" lon="4.64804">
        <ele>337.8</ele>
        <time>2017-10-01T09:59:56Z</time>
      </trkpt>
      <trkpt lat="45.81228" lon="4.64794">
        <ele>337.9</ele>
        <time>2017-10-01T10:00:11Z</time>
      </trkpt>
      <trkpt lat="45.81217" lon="4.64806">
        <ele>338</ele>
        <time>2017-10-01T10:00:15Z</time>
      </trkpt>
      <trkpt lat="45.81206" lon="4.64818">
        <ele>337.8</ele>
        <time>2017-10-01T10:00:18Z</time>
      </trkpt>
      <trkpt lat="45.81196" lon="4.64828">
        <ele>337.5</ele>
        <time>2017-10-01T10:00:20Z</time>
      </trkpt>
      <trkpt lat="45.81188" lon="4.6485">
        <ele>336.7</ele>
        <time>2017-10-01T10:00:23Z</time>
      </trkpt>
      <trkpt lat="45.81186" lon="4.64857">
        <ele>336.4</ele>
        <time>2017-10-01T10:00:24Z</time>
      </trkpt>
      <trkpt lat="45.81183" lon="4.64865">
        <ele>336.2</ele>
        <time>2017-10-01T10:00:25Z</time>
      </trkpt>
      <trkpt lat="45.81168" lon="4.64917">
        <ele>333.3</ele>
        <time>2017-10-01T10:00:31Z</time>
      </trkpt>
      <trkpt lat="45.81161" lon="4.64952">
        <ele>331.3</ele>
        <time>2017-10-01T10:00:35Z</time>
      </trkpt>
      <trkpt lat="45.81159" lon="4.64963">
        <ele>330.6</ele>
        <time>2017-10-01T10:00:36Z</time>
      </trkpt>
      <trkpt lat="45.81159" lon="4.64987">
        <ele>330</ele>
        <time>2017-10-01T10:00:38Z</time>
      </trkpt>
      <trkpt lat="45.81161" lon="4.64999">
        <ele>330</ele>
        <time>2017-10-01T10:00:39Z</time>
      </trkpt>
      <trkpt lat="45.81166" lon="4.65021">
        <ele>329.8</ele>
        <time>2017-10-01T10:00:41Z</time>
      </trkpt>
      <trkpt lat="45.81173" lon="4.6504">
        <ele>329.7</ele>
        <time>2017-10-01T10:00:43Z</time>
      </trkpt>
      <trkpt lat="45.81177" lon="4.65047">
        <ele>329.6</ele>
        <time>2017-10-01T10:00:44Z</time>
      </trkpt>
      <trkpt lat="45.81195" lon="4.65075">
        <ele>329.4</ele>
        <time>2017-10-01T10:00:48Z</time>
      </trkpt>
      <trkpt lat="45.81224" lon="4.65112">
        <ele>329.1</ele>
        <time>2017-10-01T10:00:54Z</time>
      </trkpt>
      <trkpt lat="45.81253" lon="4.65154">
        <ele>329.1</ele>
        <time>2017-10-01T10:01:01Z</time>
      </trkpt>
      <trkpt lat="45.81272" lon="4.6518">
        <ele>329.5</ele>
        <time>2017-10-01T10:01:06Z</time>
      </trkpt>
      <trkpt lat="45.81276" lon="4.65185">
        <ele>329.7</ele>
        <time>2017-10-01T10:01:07Z</time>
      </trkpt>
      <trkpt lat="45.81294" lon="4.65213">
        <ele>330.1</ele>
        <time>2017-10-01T10:01:12Z</time>
      </trkpt>
      <trkpt lat="45.81297" lon="4.65219">
        <ele>330.1</ele>
        <time>2017-10-01T10:01:13Z</time>
      </trkpt>
      <trkpt lat="45.81301" lon="4.65224">
        <ele>330.1</ele>
        <time>2017-10-01T10:01:14Z</time>
      </trkpt>
      <trkpt lat="45.81314" lon="4.65248">
        <ele>330</ele>
        <time>2017-10-01T10:01:19Z</time>
      </trkpt>
      <trkpt lat="45.81314" lon="4.65251">
        <ele>330</ele>
        <time>2017-10-01T10:01:20Z</time>
      </trkpt>
      <trkpt lat="45.81313" lon="4.65253">
        <ele>330</ele>
        <time>2017-10-01T10:01:21Z</time>
      </trkpt>
      <trkpt lat="45.81312" lon="4.65255">
        <ele>330</ele>
        <time>2017-10-01T10:01:22Z</time>
      </trkpt>
      <trkpt lat="45.81307" lon="4.65256">
        <ele>330.5</ele>
        <time>2017-10-01T10:01:25Z</time>
      </trkpt>
      <trkpt lat="45.81305" lon="4.65256">
        <ele>330.7</ele>
        <time>2017-10-01T10:01:26Z</time>
      </trkpt>
      <trkpt lat="45.81291" lon="4.6526">
        <ele>332.9</ele>
        <time>2017-10-01T10:01:32Z</time>
      </trkpt>
      <trkpt lat="45.81289" lon="4.6526">
        <ele>333.2</ele>
        <time>2017-10-01T10:01:33Z</time>
      </trkpt>
      <trkpt lat="45.81277" lon="4.65263">
        <ele>334.7</ele>
        <time>2017-10-01T10:01:40Z</time>
      </trkpt>
      <trkpt lat="45.81275" lon="4.65264">
        <ele>334.7</ele>
        <time>2017-10-01T10:01:41Z</time>
      </trkpt>
      <trkpt lat="45.81268" lon="4.65267">
        <ele>334.9</ele>
        <time>2017-10-01T10:01:45Z</time>
      </trkpt>
      <trkpt lat="45.81261" lon="4.65269">
        <ele>335.7</ele>
        <time>2017-10-01T10:01:50Z</time>
      </trkpt>
      <trkpt lat="45.81258" lon="4.6527">
        <ele>335.9</ele>
        <time>2017-10-01T10:01:52Z</time>
      </trkpt>
      <trkpt lat="45.8125" lon="4.65272">
        <ele>336.4</ele>
        <time>2017-10-01T10:01:57Z</time>
      </trkpt>
      <trkpt lat="45.81249" lon="4.65273">
        <ele>336.5</ele>
        <time>2017-10-01T10:01:58Z</time>
      </trkpt>
      <trkpt lat="45.81241" lon="4.65276">
        <ele>337.1</ele>
        <time>2017-10-01T10:02:04Z</time>
      </trkpt>
      <trkpt lat="45.81239" lon="4.65277">
        <ele>337.2</ele>
        <time>2017-10-01T10:02:05Z</time>
      </trkpt>
      <trkpt lat="45.81231" lon="4.65279">
        <ele>337.7</ele>
        <time>2017-10-01T10:02:10Z</time>
      </trkpt>
      <trkpt lat="45.81228" lon="4.6528">
        <ele>337.7</ele>
        <time>2017-10-01T10:02:12Z</time>
      </trkpt>
      <trkpt lat="45.81223" lon="4.65282">
        <ele>337.9</ele>
        <time>2017-10-01T10:02:16Z</time>
      </trkpt>
      <trkpt lat="45.81217" lon="4.65283">
        <ele>338.1</ele>
        <time>2017-10-01T10:02:20Z</time>
      </trkpt>
      <trkpt lat="45.81214" lon="4.65283">
        <ele>338.3</ele>
        <time>2017-10-01T10:02:22Z</time>
      </trkpt>
      <trkpt lat="45.81207" lon="4.65285">
        <ele>338.7</ele>
        <time>2017-10-01T10:02:27Z</time>
      </trkpt>
      <trkpt lat="45.81204" lon="4.65286">
        <ele>338.8</ele>
        <time>2017-10-01T10:02:29Z</time>
      </trkpt>
      <trkpt lat="45.812" lon="4.65287">
        <ele>339</ele>
        <time>2017-10-01T10:02:32Z</time>
      </trkpt>
      <trkpt lat="45.81193" lon="4.65288">
        <ele>339</ele>
        <time>2017-10-01T10:02:36Z</time>
      </trkpt>
      <trkpt lat="45.81189" lon="4.6529">
        <ele>339.2</ele>
        <time>2017-10-01T10:02:38Z</time>
      </trkpt>
      <trkpt lat="45.81184" lon="4.65291">
        <ele>339.4</ele>
        <time>2017-10-01T10:02:41Z</time>
      </trkpt>
      <trkpt lat="45.81179" lon="4.65292">
        <ele>339.8</ele>
        <time>2017-10-01T10:02:44Z</time>
      </trkpt>
      <trkpt lat="45.8117" lon="4.65296">
        <ele>340.7</ele>
        <time>2017-10-01T10:02:49Z</time>
      </trkpt>
      <trkpt lat="45.81162" lon="4.65299">
        <ele>341.9</ele>
        <time>2017-10-01T10:02:53Z</time>
      </trkpt>
      <trkpt lat="45.81151" lon="4.65301">
        <ele>344</ele>
        <time>2017-10-01T10:02:59Z</time>
      </trkpt>
      <trkpt lat="45.81146" lon="4.65304">
        <ele>344.7</ele>
        <time>2017-10-01T10:03:02Z</time>
      </trkpt>
      <trkpt lat="45.81142" lon="4.65305">
        <ele>345</ele>
        <time>2017-10-01T10:03:04Z</time>
      </trkpt>
      <trkpt lat="45.81135" lon="4.65312">
        <ele>345.4</ele>
        <time>2017-10-01T10:03:09Z</time>
      </trkpt>
      <trkpt lat="45.81123" lon="4.65326">
        <ele>346.4</ele>
        <time>2017-10-01T10:03:17Z</time>
      </trkpt>
      <trkpt lat="45.81121" lon="4.65328">
        <ele>347</ele>
        <time>2017-10-01T10:03:18Z</time>
      </trkpt>
      <trkpt lat="45.8111" lon="4.65331">
        <ele>347</ele>
        <time>2017-10-01T10:03:24Z</time>
      </trkpt>
      <trkpt lat="45.81103" lon="4.65325">
        <ele>347</ele>
        <time>2017-10-01T10:03:28Z</time>
      </trkpt>
      <trkpt lat="45.81098" lon="4.6532">
        <ele>347.3</ele>
        <time>2017-10-01T10:03:31Z</time>
      </trkpt>
      <trkpt lat="45.81093" lon="4.65315">
        <ele>347.8</ele>
        <time>2017-10-01T10:03:34Z</time>
      </trkpt>
      <trkpt lat="45.81086" lon="4.65307">
        <ele>348.6</ele>
        <time>2017-10-01T10:03:38Z</time>
      </trkpt>
      <trkpt lat="45.81084" lon="4.65305">
        <ele>348.8</ele>
        <time>2017-10-01T10:03:39Z</time>
      </trkpt>
      <trkpt lat="45.81074" lon="4.65297">
        <ele>350</ele>
        <time>2017-10-01T10:03:44Z</time>
      </trkpt>
      <trkpt lat="45.81066" lon="4.65291">
        <ele>351.8</ele>
        <time>2017-10-01T10:03:48Z</time>
      </trkpt>
      <trkpt lat="45.81049" lon="4.65283">
        <ele>355</ele>
        <time>2017-10-01T10:03:55Z</time>
      </trkpt>
      <trkpt lat="45.81047" lon="4.65283">
        <ele>355</ele>
        <time>2017-10-01T10:03:56Z</time>
      </trkpt>
      <trkpt lat="45.81024" lon="4.65277">
        <ele>355.9</ele>
        <time>2017-10-01T10:04:04Z</time>
      </trkpt>
      <trkpt lat="45.81018" lon="4.65275">
        <ele>356.4</ele>
        <time>2017-10-01T10:04:06Z</time>
      </trkpt>
      <trkpt lat="45.80997" lon="4.65271">
        <ele>357.7</ele>
        <time>2017-10-01T10:04:13Z</time>
      </trkpt>
      <trkpt lat="45.80985" lon="4.65268">
        <ele>358</ele>
        <time>2017-10-01T10:04:17Z</time>
      </trkpt>
      <trkpt lat="45.80977" lon="4.65271">
        <ele>357.8</ele>
        <time>2017-10-01T10:04:20Z</time>
      </trkpt>
      <trkpt lat="45.80953" lon="4.6528">
        <ele>357.9</ele>
        <time>2017-10-01T10:04:28Z</time>
      </trkpt>
      <trkpt lat="45.80942" lon="4.65285">
        <ele>358</ele>
        <time>2017-10-01T10:04:31Z</time>
      </trkpt>
      <trkpt lat="45.80926" lon="4.65294">
        <ele>358</ele>
        <time>2017-10-01T10:04:36Z</time>
      </trkpt>
      <trkpt lat="45.80896" lon="4.65309">
        <ele>358</ele>
        <time>2017-10-01T10:04:45Z</time>
      </trkpt>
      <trkpt lat="45.8089" lon="4.65311">
        <ele>358</ele>
        <time>2017-10-01T10:04:47Z</time>
      </trkpt>
      <trkpt lat="45.8088" lon="4.65322">
        <ele>358.3</ele>
        <time>2017-10-01T10:04:51Z</time>
      </trkpt>
      <trkpt lat="45.80875" lon="4.65339">
        <ele>358.8</ele>
        <time>2017-10-01T10:04:56Z</time>
      </trkpt>
      <trkpt lat="45.80874" lon="4.65342">
        <ele>358.9</ele>
        <time>2017-10-01T10:04:57Z</time>
      </trkpt>
      <trkpt lat="45.8087" lon="4.65364">
        <ele>359.5</ele>
        <time>2017-10-01T10:05:03Z</time>
      </trkpt>
      <trkpt lat="45.80865" lon="4.65385">
        <ele>360</ele>
        <time>2017-10-01T10:05:09Z</time>
      </trkpt>
      <trkpt lat="45.80864" lon="4.65389">
        <ele>360.1</ele>
        <time>2017-10-01T10:05:10Z</time>
      </trkpt>
      <trkpt lat="45.80857" lon="4.6542">
        <ele>360.9</ele>
        <time>2017-10-01T10:05:17Z</time>
      </trkpt>
      <trkpt lat="45.80847" lon="4.65453">
        <ele>361.1</ele>
        <time>2017-10-01T10:05:25Z</time>
      </trkpt>
      <trkpt lat="45.80841" lon="4.65471">
        <ele>361</ele>
        <time>2017-10-01T10:05:31Z</time>
      </trkpt>
      <trkpt lat="45.80831" lon="4.65505">
        <ele>359.9</ele>
        <time>2017-10-01T10:05:38Z</time>
      </trkpt>
      <trkpt lat="45.80826" lon="4.6552">
        <ele>359.2</ele>
        <time>2017-10-01T10:05:40Z</time>
      </trkpt>
      <trkpt lat="45.80821" lon="4.65539">
        <ele>358.1</ele>
        <time>2017-10-01T10:05:42Z</time>
      </trkpt>
      <trkpt lat="45.80814" lon="4.65559">
        <ele>356.8</ele>
        <time>2017-10-01T10:05:44Z</time>
      </trkpt>
      <trkpt lat="45.8081" lon="4.6558">
        <ele>355.5</ele>
        <time>2017-10-01T10:05:46Z</time>
      </trkpt>
      <trkpt lat="45.80809" lon="4.65591">
        <ele>354.9</ele>
        <time>2017-10-01T10:05:47Z</time>
      </trkpt>
      <trkpt lat="45.80808" lon="4.65612">
        <ele>354</ele>
        <time>2017-10-01T10:05:49Z</time>
      </trkpt>
      <trkpt lat="45.80808" lon="4.65644">
        <ele>352.7</ele>
        <time>2017-10-01T10:05:52Z</time>
      </trkpt>
      <trkpt lat="45.80809" lon="4.65677">
        <ele>351.3</ele>
        <time>2017-10-01T10:05:55Z</time>
      </trkpt>
      <trkpt lat="45.80809" lon="4.65687">
        <ele>350.8</ele>
        <time>2017-10-01T10:05:56Z</time>
      </trkpt>
      <trkpt lat="45.80809" lon="4.65706">
        <ele>349.4</ele>
        <time>2017-10-01T10:05:58Z</time>
      </trkpt>
      <trkpt lat="45.80808" lon="4.65726">
        <ele>348</ele>
        <time>2017-10-01T10:06:00Z</time>
      </trkpt>
      <trkpt lat="45.80808" lon="4.65748">
        <ele>347</ele>
        <time>2017-10-01T10:06:02Z</time>
      </trkpt>
      <trkpt lat="45.80809" lon="4.6577">
        <ele>345.9</ele>
        <time>2017-10-01T10:06:04Z</time>
      </trkpt>
      <trkpt lat="45.8081" lon="4.6578">
        <ele>345.3</ele>
        <time>2017-10-01T10:06:05Z</time>
      </trkpt>
      <trkpt lat="45.80814" lon="4.65788">
        <ele>344.9</ele>
        <time>2017-10-01T10:06:06Z</time>
      </trkpt>
      <trkpt lat="45.80818" lon="4.65794">
        <ele>344.6</ele>
        <time>2017-10-01T10:06:07Z</time>
      </trkpt>
      <trkpt lat="45.80826" lon="4.65806">
        <ele>344.3</ele>
        <time>2017-10-01T10:06:09Z</time>
      </trkpt>
      <trkpt lat="45.80833" lon="4.65817">
        <ele>344.1</ele>
        <time>2017-10-01T10:06:11Z</time>
      </trkpt>
      <trkpt lat="45.80839" lon="4.65837">
        <ele>344.2</ele>
        <time>2017-10-01T10:06:14Z</time>
      </trkpt>
      <trkpt lat="45.80838" lon="4.65867">
        <ele>344.5</ele>
        <time>2017-10-01T10:06:18Z</time>
      </trkpt>
      <trkpt lat="45.80837" lon="4.65875">
        <ele>344.7</ele>
        <time>2017-10-01T10:06:19Z</time>
      </trkpt>
      <trkpt lat="45.80835" lon="4.65906">
        <ele>345.3</ele>
        <time>2017-10-01T10:06:23Z</time>
      </trkpt>
      <trkpt lat="45.80835" lon="4.65915">
        <ele>345.4</ele>
        <time>2017-10-01T10:06:24Z</time>
      </trkpt>
      <trkpt lat="45.80836" lon="4.65923">
        <ele>345.8</ele>
        <time>2017-10-01T10:06:25Z</time>
      </trkpt>
      <trkpt lat="45.80842" lon="4.65963">
        <ele>346.6</ele>
        <time>2017-10-01T10:06:30Z</time>
      </trkpt>
      <trkpt lat="45.80844" lon="4.65977">
        <ele>347</ele>
        <time>2017-10-01T10:06:32Z</time>
      </trkpt>
      <trkpt lat="45.80846" lon="4.65992">
        <ele>347.7</ele>
        <time>2017-10-01T10:06:34Z</time>
      </trkpt>
      <trkpt lat="45.80846" lon="4.65999">
        <ele>348.1</ele>
        <time>2017-10-01T10:06:35Z</time>
      </trkpt>
      <trkpt lat="45.80846" lon="4.66012">
        <ele>349</ele>
        <time>2017-10-01T10:06:37Z</time>
      </trkpt>
      <trkpt lat="45.80846" lon="4.66018">
        <ele>349.4</ele>
        <time>2017-10-01T10:06:38Z</time>
      </trkpt>
      <trkpt lat="45.80846" lon="4.66036">
        <ele>351.1</ele>
        <time>2017-10-01T10:06:41Z</time>
      </trkpt>
      <trkpt lat="45.80847" lon="4.66057">
        <ele>352.1</ele>
        <time>2017-10-01T10:06:45Z</time>
      </trkpt>
      <trkpt lat="45.80847" lon="4.66071">
        <ele>352.7</ele>
        <time>2017-10-01T10:06:48Z</time>
      </trkpt>
      <trkpt lat="45.80846" lon="4.66094">
        <ele>353.6</ele>
        <time>2017-10-01T10:06:53Z</time>
      </trkpt>
      <trkpt lat="45.80847" lon="4.66124">
        <ele>354.3</ele>
        <time>2017-10-01T10:07:00Z</time>
      </trkpt>
      <trkpt lat="45.80849" lon="4.6615">
        <ele>354.8</ele>
        <time>2017-10-01T10:07:06Z</time>
      </trkpt>
      <trkpt lat="45.80847" lon="4.66183">
        <ele>355.6</ele>
        <time>2017-10-01T10:07:13Z</time>
      </trkpt>
      <trkpt lat="45.80847" lon="4.66217">
        <ele>356.5</ele>
        <time>2017-10-01T10:07:20Z</time>
      </trkpt>
      <trkpt lat="45.80848" lon="4.66227">
        <ele>356.6</ele>
        <time>2017-10-01T10:07:22Z</time>
      </trkpt>
      <trkpt lat="45.80851" lon="4.6625">
        <ele>357.4</ele>
        <time>2017-10-01T10:07:27Z</time>
      </trkpt>
      <trkpt lat="45.80845" lon="4.66272">
        <ele>362.6</ele>
        <time>2017-10-01T10:07:32Z</time>
      </trkpt>
      <trkpt lat="45.8084" lon="4.66285">
        <ele>363.6</ele>
        <time>2017-10-01T10:07:35Z</time>
      </trkpt>
      <trkpt lat="45.80829" lon="4.66316">
        <ele>366.9</ele>
        <time>2017-10-01T10:07:41Z</time>
      </trkpt>
      <trkpt lat="45.80827" lon="4.6632">
        <ele>367.2</ele>
        <time>2017-10-01T10:07:42Z</time>
      </trkpt>
      <trkpt lat="45.80821" lon="4.66339">
        <ele>368.3</ele>
        <time>2017-10-01T10:07:46Z</time>
      </trkpt>
      <trkpt lat="45.80817" lon="4.66352">
        <ele>369.9</ele>
        <time>2017-10-01T10:07:49Z</time>
      </trkpt>
      <trkpt lat="45.80811" lon="4.6637">
        <ele>371.3</ele>
        <time>2017-10-01T10:07:53Z</time>
      </trkpt>
      <trkpt lat="45.80805" lon="4.66388">
        <ele>372</ele>
        <time>2017-10-01T10:07:57Z</time>
      </trkpt>
      <trkpt lat="45.80798" lon="4.66406">
        <ele>372</ele>
        <time>2017-10-01T10:08:01Z</time>
      </trkpt>
      <trkpt lat="45.80795" lon="4.66418">
        <ele>372</ele>
        <time>2017-10-01T10:08:04Z</time>
      </trkpt>
      <trkpt lat="45.80793" lon="4.66422">
        <ele>372</ele>
        <time>2017-10-01T10:08:05Z</time>
      </trkpt>
      <trkpt lat="45.80786" lon="4.66441">
        <ele>372</ele>
        <time>2017-10-01T10:08:11Z</time>
      </trkpt>
      <trkpt lat="45.80786" lon="4.66445">
        <ele>372</ele>
        <time>2017-10-01T10:08:13Z</time>
      </trkpt>
      <trkpt lat="45.80786" lon="4.66449">
        <ele>372</ele>
        <time>2017-10-01T10:08:17Z</time>
      </trkpt>
      <trkpt lat="45.80786" lon="4.66452">
        <ele>371.9</ele>
        <time>2017-10-01T10:08:21Z</time>
      </trkpt>
      <trkpt lat="45.80786" lon="4.66454">
        <ele>371.8</ele>
        <time>2017-10-01T10:08:22Z</time>
      </trkpt>
      <trkpt lat="45.80786" lon="4.66472">
        <ele>370.8</ele>
        <time>2017-10-01T10:08:27Z</time>
      </trkpt>
      <trkpt lat="45.80785" lon="4.66504">
        <ele>370.3</ele>
        <time>2017-10-01T10:08:33Z</time>
      </trkpt>
      <trkpt lat="45.80784" lon="4.66552">
        <ele>369.2</ele>
        <time>2017-10-01T10:08:40Z</time>
      </trkpt>
      <trkpt lat="45.80781" lon="4.66573">
        <ele>368.6</ele>
        <time>2017-10-01T10:08:43Z</time>
      </trkpt>
      <trkpt lat="45.80777" lon="4.66586">
        <ele>368.2</ele>
        <time>2017-10-01T10:08:45Z</time>
      </trkpt>
      <trkpt lat="45.80766" lon="4.66604">
        <ele>367.6</ele>
        <time>2017-10-01T10:08:48Z</time>
      </trkpt>
      <trkpt lat="45.80762" lon="4.66609">
        <ele>367.4</ele>
        <time>2017-10-01T10:08:49Z</time>
      </trkpt>
      <trkpt lat="45.80749" lon="4.66626">
        <ele>366.8</ele>
        <time>2017-10-01T10:08:52Z</time>
      </trkpt>
      <trkpt lat="45.80742" lon="4.66638">
        <ele>366.7</ele>
        <time>2017-10-01T10:08:54Z</time>
      </trkpt>
      <trkpt lat="45.80736" lon="4.66653">
        <ele>367</ele>
        <time>2017-10-01T10:08:56Z</time>
      </trkpt>
      <trkpt lat="45.80735" lon="4.66679">
        <ele>367.6</ele>
        <time>2017-10-01T10:08:59Z</time>
      </trkpt>
      <trkpt lat="45.8074" lon="4.66702">
        <ele>367.9</ele>
        <time>2017-10-01T10:09:02Z</time>
      </trkpt>
      <trkpt lat="45.80744" lon="4.66715">
        <ele>368</ele>
        <time>2017-10-01T10:09:04Z</time>
      </trkpt>
      <trkpt lat="45.8075" lon="4.66729">
        <ele>368</ele>
        <time>2017-10-01T10:09:07Z</time>
      </trkpt>
      <trkpt lat="45.80755" lon="4.66734">
        <ele>368</ele>
        <time>2017-10-01T10:09:09Z</time>
      </trkpt>
      <trkpt lat="45.80766" lon="4.6674">
        <ele>366.9</ele>
        <time>2017-10-01T10:09:12Z</time>
      </trkpt>
      <trkpt lat="45.8077" lon="4.66741">
        <ele>366.3</ele>
        <time>2017-10-01T10:09:13Z</time>
      </trkpt>
      <trkpt lat="45.80775" lon="4.66741">
        <ele>365.8</ele>
        <time>2017-10-01T10:09:14Z</time>
      </trkpt>
      <trkpt lat="45.80788" lon="4.66735">
        <ele>365.1</ele>
        <time>2017-10-01T10:09:16Z</time>
      </trkpt>
      <trkpt lat="45.80801" lon="4.66726">
        <ele>363.5</ele>
        <time>2017-10-01T10:09:18Z</time>
      </trkpt>
      <trkpt lat="45.80808" lon="4.6672">
        <ele>363</ele>
        <time>2017-10-01T10:09:19Z</time>
      </trkpt>
      <trkpt lat="45.80815" lon="4.66714">
        <ele>362.2</ele>
        <time>2017-10-01T10:09:20Z</time>
      </trkpt>
      <trkpt lat="45.80823" lon="4.66708">
        <ele>361.4</ele>
        <time>2017-10-01T10:09:21Z</time>
      </trkpt>
      <trkpt lat="45.80831" lon="4.66703">
        <ele>360.8</ele>
        <time>2017-10-01T10:09:22Z</time>
      </trkpt>
      <trkpt lat="45.8084" lon="4.66699">
        <ele>359.7</ele>
        <time>2017-10-01T10:09:23Z</time>
      </trkpt>
      <trkpt lat="45.80849" lon="4.66695">
        <ele>358.8</ele>
        <time>2017-10-01T10:09:24Z</time>
      </trkpt>
      <trkpt lat="45.80859" lon="4.66691">
        <ele>357.9</ele>
        <time>2017-10-01T10:09:25Z</time>
      </trkpt>
      <trkpt lat="45.80879" lon="4.66683">
        <ele>355.7</ele>
        <time>2017-10-01T10:09:27Z</time>
      </trkpt>
      <trkpt lat="45.80889" lon="4.66677">
        <ele>354.3</ele>
        <time>2017-10-01T10:09:28Z</time>
      </trkpt>
      <trkpt lat="45.80899" lon="4.6667">
        <ele>353.5</ele>
        <time>2017-10-01T10:09:29Z</time>
      </trkpt>
      <trkpt lat="45.80919" lon="4.66664">
        <ele>351.6</ele>
        <time>2017-10-01T10:09:31Z</time>
      </trkpt>
      <trkpt lat="45.80929" lon="4.66664">
        <ele>351</ele>
        <time>2017-10-01T10:09:32Z</time>
      </trkpt>
      <trkpt lat="45.8094" lon="4.66663">
        <ele>349.8</ele>
        <time>2017-10-01T10:09:33Z</time>
      </trkpt>
      <trkpt lat="45.80962" lon="4.66664">
        <ele>348.8</ele>
        <time>2017-10-01T10:09:35Z</time>
      </trkpt>
      <trkpt lat="45.80984" lon="4.66662">
        <ele>347</ele>
        <time>2017-10-01T10:09:37Z</time>
      </trkpt>
      <trkpt lat="45.80995" lon="4.6666">
        <ele>346.7</ele>
        <time>2017-10-01T10:09:38Z</time>
      </trkpt>
      <trkpt lat="45.81005" lon="4.66659">
        <ele>346.3</ele>
        <time>2017-10-01T10:09:39Z</time>
      </trkpt>
      <trkpt lat="45.81027" lon="4.66657">
        <ele>344.8</ele>
        <time>2017-10-01T10:09:41Z</time>
      </trkpt>
      <trkpt lat="45.81047" lon="4.66654">
        <ele>344.2</ele>
        <time>2017-10-01T10:09:43Z</time>
      </trkpt>
      <trkpt lat="45.81056" lon="4.6665">
        <ele>343.7</ele>
        <time>2017-10-01T10:09:44Z</time>
      </trkpt>
      <trkpt lat="45.81065" lon="4.66649">
        <ele>342.9</ele>
        <time>2017-10-01T10:09:45Z</time>
      </trkpt>
      <trkpt lat="45.81082" lon="4.66654">
        <ele>342.3</ele>
        <time>2017-10-01T10:09:47Z</time>
      </trkpt>
      <trkpt lat="45.81091" lon="4.66657">
        <ele>341.6</ele>
        <time>2017-10-01T10:09:48Z</time>
      </trkpt>
      <trkpt lat="45.81101" lon="4.66661">
        <ele>340.9</ele>
        <time>2017-10-01T10:09:49Z</time>
      </trkpt>
      <trkpt lat="45.81121" lon="4.66669">
        <ele>339.8</ele>
        <time>2017-10-01T10:09:51Z</time>
      </trkpt>
      <trkpt lat="45.81132" lon="4.66673">
        <ele>339.3</ele>
        <time>2017-10-01T10:09:52Z</time>
      </trkpt>
      <trkpt lat="45.81143" lon="4.66678">
        <ele>339</ele>
        <time>2017-10-01T10:09:53Z</time>
      </trkpt>
      <trkpt lat="45.81165" lon="4.66687">
        <ele>338</ele>
        <time>2017-10-01T10:09:55Z</time>
      </trkpt>
      <trkpt lat="45.81187" lon="4.66696">
        <ele>337.7</ele>
        <time>2017-10-01T10:09:57Z</time>
      </trkpt>
      <trkpt lat="45.81199" lon="4.66701">
        <ele>337.8</ele>
        <time>2017-10-01T10:09:58Z</time>
      </trkpt>
      <trkpt lat="45.81211" lon="4.66706">
        <ele>337.8</ele>
        <time>2017-10-01T10:09:59Z</time>
      </trkpt>
      <trkpt lat="45.81228" lon="4.66712">
        <ele>338.6</ele>
        <time>2017-10-01T10:10:01Z</time>
      </trkpt>
      <trkpt lat="45.81232" lon="4.66716">
        <ele>338.9</ele>
        <time>2017-10-01T10:10:02Z</time>
      </trkpt>
      <trkpt lat="45.81234" lon="4.66723">
        <ele>339.1</ele>
        <time>2017-10-01T10:10:04Z</time>
      </trkpt>
      <trkpt lat="45.81235" lon="4.66732">
        <ele>339.3</ele>
        <time>2017-10-01T10:10:08Z</time>
      </trkpt>
      <trkpt lat="45.81242" lon="4.66749">
        <ele>340</ele>
        <time>2017-10-01T10:10:13Z</time>
      </trkpt>
      <trkpt lat="45.81247" lon="4.66762">
        <ele>340.7</ele>
        <time>2017-10-01T10:10:16Z</time>
      </trkpt>
      <trkpt lat="45.81252" lon="4.66775">
        <ele>341.3</ele>
        <time>2017-10-01T10:10:19Z</time>
      </trkpt>
      <trkpt lat="45.81259" lon="4.66792">
        <ele>342.2</ele>
        <time>2017-10-01T10:10:23Z</time>
      </trkpt>
      <trkpt lat="45.81264" lon="4.66804">
        <ele>342.9</ele>
        <time>2017-10-01T10:10:26Z</time>
      </trkpt>
      <trkpt lat="45.81268" lon="4.66812">
        <ele>343.1</ele>
        <time>2017-10-01T10:10:28Z</time>
      </trkpt>
      <trkpt lat="45.81271" lon="4.6682">
        <ele>343.3</ele>
        <time>2017-10-01T10:10:30Z</time>
      </trkpt>
      <trkpt lat="45.81282" lon="4.66847">
        <ele>343.9</ele>
        <time>2017-10-01T10:10:36Z</time>
      </trkpt>
      <trkpt lat="45.81297" lon="4.66883">
        <ele>344.6</ele>
        <time>2017-10-01T10:10:44Z</time>
      </trkpt>
      <trkpt lat="45.81302" lon="4.66896">
        <ele>344.8</ele>
        <time>2017-10-01T10:10:47Z</time>
      </trkpt>
      <trkpt lat="45.8131" lon="4.6692">
        <ele>345</ele>
        <time>2017-10-01T10:10:52Z</time>
      </trkpt>
      <trkpt lat="45.81321" lon="4.66947">
        <ele>344.5</ele>
        <time>2017-10-01T10:10:58Z</time>
      </trkpt>
      <trkpt lat="45.81333" lon="4.66974">
        <ele>343.6</ele>
        <time>2017-10-01T10:11:03Z</time>
      </trkpt>
      <trkpt lat="45.81337" lon="4.66987">
        <ele>343</ele>
        <time>2017-10-01T10:11:05Z</time>
      </trkpt>
      <trkpt lat="45.8134" lon="4.66994">
        <ele>342.7</ele>
        <time>2017-10-01T10:11:06Z</time>
      </trkpt>
      <trkpt lat="45.81342" lon="4.67002">
        <ele>342.3</ele>
        <time>2017-10-01T10:11:07Z</time>
      </trkpt>
      <trkpt lat="45.81349" lon="4.6702">
        <ele>341.1</ele>
        <time>2017-10-01T10:11:09Z</time>
      </trkpt>
      <trkpt lat="45.81353" lon="4.6703">
        <ele>340.5</ele>
        <time>2017-10-01T10:11:10Z</time>
      </trkpt>
      <trkpt lat="45.81361" lon="4.6705">
        <ele>339.2</ele>
        <time>2017-10-01T10:11:12Z</time>
      </trkpt>
      <trkpt lat="45.81369" lon="4.67073">
        <ele>338</ele>
        <time>2017-10-01T10:11:14Z</time>
      </trkpt>
      <trkpt lat="45.81372" lon="4.67084">
        <ele>337.2</ele>
        <time>2017-10-01T10:11:15Z</time>
      </trkpt>
      <trkpt lat="45.81376" lon="4.67096">
        <ele>336.4</ele>
        <time>2017-10-01T10:11:16Z</time>
      </trkpt>
      <trkpt lat="45.81383" lon="4.67118">
        <ele>335.3</ele>
        <time>2017-10-01T10:11:18Z</time>
      </trkpt>
      <trkpt lat="45.81395" lon="4.67151">
        <ele>333.8</ele>
        <time>2017-10-01T10:11:21Z</time>
      </trkpt>
      <trkpt lat="45.81405" lon="4.67171">
        <ele>332.7</ele>
        <time>2017-10-01T10:11:23Z</time>
      </trkpt>
      <trkpt lat="45.81411" lon="4.6718">
        <ele>332.2</ele>
        <time>2017-10-01T10:11:24Z</time>
      </trkpt>
      <trkpt lat="45.81428" lon="4.67205">
        <ele>330.6</ele>
        <time>2017-10-01T10:11:27Z</time>
      </trkpt>
      <trkpt lat="45.81435" lon="4.67213">
        <ele>330.1</ele>
        <time>2017-10-01T10:11:28Z</time>
      </trkpt>
      <trkpt lat="45.81448" lon="4.67231">
        <ele>329.3</ele>
        <time>2017-10-01T10:11:30Z</time>
      </trkpt>
      <trkpt lat="45.81467" lon="4.67257">
        <ele>327.6</ele>
        <time>2017-10-01T10:11:33Z</time>
      </trkpt>
      <trkpt lat="45.81474" lon="4.67265">
        <ele>327.1</ele>
        <time>2017-10-01T10:11:34Z</time>
      </trkpt>
      <trkpt lat="45.81491" lon="4.67291">
        <ele>325.6</ele>
        <time>2017-10-01T10:11:37Z</time>
      </trkpt>
      <trkpt lat="45.81493" lon="4.67301">
        <ele>325.2</ele>
        <time>2017-10-01T10:11:38Z</time>
      </trkpt>
      <trkpt lat="45.8149" lon="4.67333">
        <ele>324.5</ele>
        <time>2017-10-01T10:11:41Z</time>
      </trkpt>
      <trkpt lat="45.81487" lon="4.67344">
        <ele>324.1</ele>
        <time>2017-10-01T10:11:42Z</time>
      </trkpt>
      <trkpt lat="45.81484" lon="4.67355">
        <ele>323.8</ele>
        <time>2017-10-01T10:11:43Z</time>
      </trkpt>
      <trkpt lat="45.81482" lon="4.67377">
        <ele>323.2</ele>
        <time>2017-10-01T10:11:45Z</time>
      </trkpt>
      <trkpt lat="45.81483" lon="4.67386">
        <ele>323</ele>
        <time>2017-10-01T10:11:46Z</time>
      </trkpt>
      <trkpt lat="45.81472" lon="4.67402">
        <ele>323.9</ele>
        <time>2017-10-01T10:11:49Z</time>
      </trkpt>
      <trkpt lat="45.81461" lon="4.6741">
        <ele>324.9</ele>
        <time>2017-10-01T10:11:51Z</time>
      </trkpt>
      <trkpt lat="45.81439" lon="4.67429">
        <ele>326</ele>
        <time>2017-10-01T10:11:55Z</time>
      </trkpt>
      <trkpt lat="45.81414" lon="4.67466">
        <ele>328.6</ele>
        <time>2017-10-01T10:12:01Z</time>
      </trkpt>
      <trkpt lat="45.81411" lon="4.67473">
        <ele>328.7</ele>
        <time>2017-10-01T10:12:02Z</time>
      </trkpt>
      <trkpt lat="45.81401" lon="4.67495">
        <ele>329.1</ele>
        <time>2017-10-01T10:12:05Z</time>
      </trkpt>
      <trkpt lat="45.81387" lon="4.67524">
        <ele>329.9</ele>
        <time>2017-10-01T10:12:09Z</time>
      </trkpt>
      <trkpt lat="45.81374" lon="4.6756">
        <ele>331.8</ele>
        <time>2017-10-01T10:12:14Z</time>
      </trkpt>
      <trkpt lat="45.81369" lon="4.67574">
        <ele>332.2</ele>
        <time>2017-10-01T10:12:16Z</time>
      </trkpt>
      <trkpt lat="45.81353" lon="4.67633">
        <ele>334.9</ele>
        <time>2017-10-01T10:12:24Z</time>
      </trkpt>
      <trkpt lat="45.81335" lon="4.67691">
        <ele>337.1</ele>
        <time>2017-10-01T10:12:32Z</time>
      </trkpt>
      <trkpt lat="45.81333" lon="4.67698">
        <ele>337.8</ele>
        <time>2017-10-01T10:12:33Z</time>
      </trkpt>
      <trkpt lat="45.81323" lon="4.67725">
        <ele>338</ele>
        <time>2017-10-01T10:12:37Z</time>
      </trkpt>
      <trkpt lat="45.81319" lon="4.67737">
        <ele>338</ele>
        <time>2017-10-01T10:12:39Z</time>
      </trkpt>
      <trkpt lat="45.81318" lon="4.67744">
        <ele>338</ele>
        <time>2017-10-01T10:12:40Z</time>
      </trkpt>
      <trkpt lat="45.81318" lon="4.6775">
        <ele>337.9</ele>
        <time>2017-10-01T10:12:41Z</time>
      </trkpt>
      <trkpt lat="45.81317" lon="4.67769">
        <ele>337.6</ele>
        <time>2017-10-01T10:12:44Z</time>
      </trkpt>
      <trkpt lat="45.81314" lon="4.67781">
        <ele>337.4</ele>
        <time>2017-10-01T10:12:46Z</time>
      </trkpt>
      <trkpt lat="45.8131" lon="4.67814">
        <ele>336.8</ele>
        <time>2017-10-01T10:12:52Z</time>
      </trkpt>
      <trkpt lat="45.81307" lon="4.6786">
        <ele>335.8</ele>
        <time>2017-10-01T10:12:59Z</time>
      </trkpt>
      <trkpt lat="45.81305" lon="4.6791">
        <ele>334.5</ele>
        <time>2017-10-01T10:13:05Z</time>
      </trkpt>
      <trkpt lat="45.81303" lon="4.67929">
        <ele>333.9</ele>
        <time>2017-10-01T10:13:07Z</time>
      </trkpt>
      <trkpt lat="45.81302" lon="4.67938">
        <ele>333.6</ele>
        <time>2017-10-01T10:13:08Z</time>
      </trkpt>
      <trkpt lat="45.81295" lon="4.67954">
        <ele>332.8</ele>
        <time>2017-10-01T10:13:10Z</time>
      </trkpt>
      <trkpt lat="45.8129" lon="4.67962">
        <ele>332.7</ele>
        <time>2017-10-01T10:13:11Z</time>
      </trkpt>
      <trkpt lat="45.8128" lon="4.67976">
        <ele>332.3</ele>
        <time>2017-10-01T10:13:13Z</time>
      </trkpt>
      <trkpt lat="45.81269" lon="4.67992">
        <ele>332</ele>
        <time>2017-10-01T10:13:15Z</time>
      </trkpt>
      <trkpt lat="45.81263" lon="4.67999">
        <ele>331.8</ele>
        <time>2017-10-01T10:13:16Z</time>
      </trkpt>
      <trkpt lat="45.81236" lon="4.6804">
        <ele>330.7</ele>
        <time>2017-10-01T10:13:21Z</time>
      </trkpt>
      <trkpt lat="45.81219" lon="4.68065">
        <ele>329.9</ele>
        <time>2017-10-01T10:13:24Z</time>
      </trkpt>
      <trkpt lat="45.81208" lon="4.68082">
        <ele>329.4</ele>
        <time>2017-10-01T10:13:26Z</time>
      </trkpt>
      <trkpt lat="45.8119" lon="4.68108">
        <ele>328.9</ele>
        <time>2017-10-01T10:13:29Z</time>
      </trkpt>
      <trkpt lat="45.81183" lon="4.68116">
        <ele>328.7</ele>
        <time>2017-10-01T10:13:30Z</time>
      </trkpt>
      <trkpt lat="45.81134" lon="4.6817">
        <ele>327.8</ele>
        <time>2017-10-01T10:13:37Z</time>
      </trkpt>
      <trkpt lat="45.81129" lon="4.68181">
        <ele>327.6</ele>
        <time>2017-10-01T10:13:38Z</time>
      </trkpt>
      <trkpt lat="45.81126" lon="4.68194">
        <ele>327.2</ele>
        <time>2017-10-01T10:13:39Z</time>
      </trkpt>
      <trkpt lat="45.81123" lon="4.68223">
        <ele>326.1</ele>
        <time>2017-10-01T10:13:41Z</time>
      </trkpt>
      <trkpt lat="45.81121" lon="4.68237">
        <ele>325.5</ele>
        <time>2017-10-01T10:13:42Z</time>
      </trkpt>
      <trkpt lat="45.81118" lon="4.68267">
        <ele>324.3</ele>
        <time>2017-10-01T10:13:44Z</time>
      </trkpt>
      <trkpt lat="45.81113" lon="4.68312">
        <ele>322.6</ele>
        <time>2017-10-01T10:13:47Z</time>
      </trkpt>
      <trkpt lat="45.81107" lon="4.68356">
        <ele>321.4</ele>
        <time>2017-10-01T10:13:50Z</time>
      </trkpt>
      <trkpt lat="45.81104" lon="4.68385">
        <ele>320.8</ele>
        <time>2017-10-01T10:13:52Z</time>
      </trkpt>
      <trkpt lat="45.81103" lon="4.68427">
        <ele>319.9</ele>
        <time>2017-10-01T10:13:55Z</time>
      </trkpt>
      <trkpt lat="45.81101" lon="4.68508">
        <ele>319.3</ele>
        <time>2017-10-01T10:14:01Z</time>
      </trkpt>
      <trkpt lat="45.811" lon="4.68522">
        <ele>319.2</ele>
        <time>2017-10-01T10:14:02Z</time>
      </trkpt>
      <trkpt lat="45.81092" lon="4.68609">
        <ele>318</ele>
        <time>2017-10-01T10:14:09Z</time>
      </trkpt>
      <trkpt lat="45.81089" lon="4.68619">
        <ele>318.2</ele>
        <time>2017-10-01T10:14:10Z</time>
      </trkpt>
      <trkpt lat="45.81078" lon="4.68632">
        <ele>318.9</ele>
        <time>2017-10-01T10:14:12Z</time>
      </trkpt>
      <trkpt lat="45.81056" lon="4.68634">
        <ele>320.1</ele>
        <time>2017-10-01T10:14:15Z</time>
      </trkpt>
      <trkpt lat="45.81042" lon="4.68632">
        <ele>320.6</ele>
        <time>2017-10-01T10:14:17Z</time>
      </trkpt>
      <trkpt lat="45.81015" lon="4.68626">
        <ele>321.7</ele>
        <time>2017-10-01T10:14:21Z</time>
      </trkpt>
      <trkpt lat="45.8099" lon="4.68624">
        <ele>322.9</ele>
        <time>2017-10-01T10:14:25Z</time>
      </trkpt>
      <trkpt lat="45.80978" lon="4.68628">
        <ele>323.4</ele>
        <time>2017-10-01T10:14:27Z</time>
      </trkpt>
      <trkpt lat="45.80964" lon="4.68644">
        <ele>324.3</ele>
        <time>2017-10-01T10:14:30Z</time>
      </trkpt>
      <trkpt lat="45.80957" lon="4.68659">
        <ele>324.8</ele>
        <time>2017-10-01T10:14:32Z</time>
      </trkpt>
      <trkpt lat="45.80947" lon="4.68682">
        <ele>325.4</ele>
        <time>2017-10-01T10:14:35Z</time>
      </trkpt>
      <trkpt lat="45.80927" lon="4.68737">
        <ele>326.3</ele>
        <time>2017-10-01T10:14:42Z</time>
      </trkpt>
      <trkpt lat="45.80898" lon="4.68799">
        <ele>327.4</ele>
        <time>2017-10-01T10:14:50Z</time>
      </trkpt>
      <trkpt lat="45.80879" lon="4.68835">
        <ele>328</ele>
        <time>2017-10-01T10:14:55Z</time>
      </trkpt>
      <trkpt lat="45.80873" lon="4.68839">
        <ele>323.4</ele>
        <time>2017-10-01T10:14:56Z</time>
      </trkpt>
      <trkpt lat="45.80841" lon="4.68857">
        <ele>322.3</ele>
        <time>2017-10-01T10:15:01Z</time>
      </trkpt>
      <trkpt lat="45.80822" lon="4.68871">
        <ele>322</ele>
        <time>2017-10-01T10:15:04Z</time>
      </trkpt>
      <trkpt lat="45.80817" lon="4.68878">
        <ele>321.9</ele>
        <time>2017-10-01T10:15:05Z</time>
      </trkpt>
      <trkpt lat="45.80806" lon="4.68893">
        <ele>321.8</ele>
        <time>2017-10-01T10:15:07Z</time>
      </trkpt>
      <trkpt lat="45.80801" lon="4.68902">
        <ele>321.7</ele>
        <time>2017-10-01T10:15:08Z</time>
      </trkpt>
      <trkpt lat="45.80791" lon="4.68918">
        <ele>321.6</ele>
        <time>2017-10-01T10:15:10Z</time>
      </trkpt>
      <trkpt lat="45.80769" lon="4.68948">
        <ele>321.6</ele>
        <time>2017-10-01T10:15:14Z</time>
      </trkpt>
      <trkpt lat="45.80765" lon="4.68956">
        <ele>321.6</ele>
        <time>2017-10-01T10:15:15Z</time>
      </trkpt>
      <trkpt lat="45.80742" lon="4.68988">
        <ele>321.3</ele>
        <time>2017-10-01T10:15:20Z</time>
      </trkpt>
      <trkpt lat="45.8072" lon="4.69006">
        <ele>320.3</ele>
        <time>2017-10-01T10:15:24Z</time>
      </trkpt>
      <trkpt lat="45.80703" lon="4.6902">
        <ele>319.3</ele>
        <time>2017-10-01T10:15:27Z</time>
      </trkpt>
      <trkpt lat="45.80688" lon="4.69038">
        <ele>318.4</ele>
        <time>2017-10-01T10:15:30Z</time>
      </trkpt>
      <trkpt lat="45.80682" lon="4.69052">
        <ele>318.1</ele>
        <time>2017-10-01T10:15:32Z</time>
      </trkpt>
      <trkpt lat="45.80677" lon="4.69067">
        <ele>317.8</ele>
        <time>2017-10-01T10:15:34Z</time>
      </trkpt>
      <trkpt lat="45.80669" lon="4.69085">
        <ele>317.4</ele>
        <time>2017-10-01T10:15:37Z</time>
      </trkpt>
      <trkpt lat="45.80665" lon="4.69097">
        <ele>317.4</ele>
        <time>2017-10-01T10:15:39Z</time>
      </trkpt>
      <trkpt lat="45.80659" lon="4.69113">
        <ele>317.3</ele>
        <time>2017-10-01T10:15:43Z</time>
      </trkpt>
      <trkpt lat="45.80657" lon="4.69116">
        <ele>317.3</ele>
        <time>2017-10-01T10:15:44Z</time>
      </trkpt>
      <trkpt lat="45.80652" lon="4.69126">
        <ele>317.3</ele>
        <time>2017-10-01T10:15:48Z</time>
      </trkpt>
      <trkpt lat="45.80644" lon="4.69146">
        <ele>317.4</ele>
        <time>2017-10-01T10:15:53Z</time>
      </trkpt>
      <trkpt lat="45.80634" lon="4.6918">
        <ele>317.3</ele>
        <time>2017-10-01T10:15:58Z</time>
      </trkpt>
      <trkpt lat="45.80631" lon="4.69187">
        <ele>317.3</ele>
        <time>2017-10-01T10:15:59Z</time>
      </trkpt>
      <trkpt lat="45.80616" lon="4.69218">
        <ele>317</ele>
        <time>2017-10-01T10:16:03Z</time>
      </trkpt>
      <trkpt lat="45.80597" lon="4.69265">
        <ele>316.6</ele>
        <time>2017-10-01T10:16:08Z</time>
      </trkpt>
      <trkpt lat="45.80575" lon="4.69321">
        <ele>316.2</ele>
        <time>2017-10-01T10:16:14Z</time>
      </trkpt>
      <trkpt lat="45.80552" lon="4.69378">
        <ele>315.4</ele>
        <time>2017-10-01T10:16:20Z</time>
      </trkpt>
      <trkpt lat="45.80536" lon="4.6942">
        <ele>314.3</ele>
        <time>2017-10-01T10:16:24Z</time>
      </trkpt>
      <trkpt lat="45.80528" lon="4.69441">
        <ele>313.8</ele>
        <time>2017-10-01T10:16:26Z</time>
      </trkpt>
      <trkpt lat="45.80524" lon="4.69451">
        <ele>313.6</ele>
        <time>2017-10-01T10:16:27Z</time>
      </trkpt>
      <trkpt lat="45.80516" lon="4.69477">
        <ele>313.2</ele>
        <time>2017-10-01T10:16:30Z</time>
      </trkpt>
      <trkpt lat="45.80515" lon="4.69484">
        <ele>313.5</ele>
        <time>2017-10-01T10:16:31Z</time>
      </trkpt>
      <trkpt lat="45.80515" lon="4.6949">
        <ele>313.7</ele>
        <time>2017-10-01T10:16:32Z</time>
      </trkpt>
      <trkpt lat="45.80517" lon="4.69495">
        <ele>314</ele>
        <time>2017-10-01T10:16:34Z</time>
      </trkpt>
      <trkpt lat="45.80519" lon="4.69497">
        <ele>314.1</ele>
        <time>2017-10-01T10:16:35Z</time>
      </trkpt>
      <trkpt lat="45.80529" lon="4.69509">
        <ele>314.6</ele>
        <time>2017-10-01T10:16:38Z</time>
      </trkpt>
      <trkpt lat="45.80533" lon="4.69513">
        <ele>314.7</ele>
        <time>2017-10-01T10:16:39Z</time>
      </trkpt>
      <trkpt lat="45.80546" lon="4.69522">
        <ele>314.8</ele>
        <time>2017-10-01T10:16:42Z</time>
      </trkpt>
      <trkpt lat="45.80551" lon="4.69525">
        <ele>314.9</ele>
        <time>2017-10-01T10:16:43Z</time>
      </trkpt>
      <trkpt lat="45.80561" lon="4.69531">
        <ele>314.8</ele>
        <time>2017-10-01T10:16:45Z</time>
      </trkpt>
      <trkpt lat="45.80568" lon="4.69541">
        <ele>314.7</ele>
        <time>2017-10-01T10:16:47Z</time>
      </trkpt>
      <trkpt lat="45.80575" lon="4.69554">
        <ele>314.5</ele>
        <time>2017-10-01T10:16:49Z</time>
      </trkpt>
      <trkpt lat="45.80581" lon="4.69564">
        <ele>314.3</ele>
        <time>2017-10-01T10:16:51Z</time>
      </trkpt>
      <trkpt lat="45.80584" lon="4.69568">
        <ele>314.2</ele>
        <time>2017-10-01T10:16:52Z</time>
      </trkpt>
      <trkpt lat="45.80589" lon="4.69582">
        <ele>314.1</ele>
        <time>2017-10-01T10:16:54Z</time>
      </trkpt>
      <trkpt lat="45.80594" lon="4.69598">
        <ele>313.7</ele>
        <time>2017-10-01T10:16:56Z</time>
      </trkpt>
      <trkpt lat="45.80613" lon="4.69653">
        <ele>312.8</ele>
        <time>2017-10-01T10:17:02Z</time>
      </trkpt>
      <trkpt lat="45.80619" lon="4.69685">
        <ele>314.3</ele>
        <time>2017-10-01T10:17:05Z</time>
      </trkpt>
      <trkpt lat="45.80623" lon="4.69693">
        <ele>315.1</ele>
        <time>2017-10-01T10:17:06Z</time>
      </trkpt>
      <trkpt lat="45.80638" lon="4.69726">
        <ele>316.6</ele>
        <time>2017-10-01T10:17:10Z</time>
      </trkpt>
      <trkpt lat="45.80648" lon="4.69747">
        <ele>315.7</ele>
        <time>2017-10-01T10:17:14Z</time>
      </trkpt>
      <trkpt lat="45.80651" lon="4.69753">
        <ele>315.2</ele>
        <time>2017-10-01T10:17:16Z</time>
      </trkpt>
      <trkpt lat="45.80657" lon="4.69756">
        <ele>314.2</ele>
        <time>2017-10-01T10:17:18Z</time>
      </trkpt>
      <trkpt lat="45.80672" lon="4.69769">
        <ele>312.1</ele>
        <time>2017-10-01T10:17:22Z</time>
      </trkpt>
      <trkpt lat="45.80698" lon="4.69796">
        <ele>312</ele>
        <time>2017-10-01T10:17:28Z</time>
      </trkpt>
      <trkpt lat="45.8073" lon="4.69837">
        <ele>309.4</ele>
        <time>2017-10-01T10:17:35Z</time>
      </trkpt>
      <trkpt lat="45.80733" lon="4.69846">
        <ele>309</ele>
        <time>2017-10-01T10:17:37Z</time>
      </trkpt>
      <trkpt lat="45.80734" lon="4.69849">
        <ele>308.8</ele>
        <time>2017-10-01T10:17:38Z</time>
      </trkpt>
      <trkpt lat="45.80735" lon="4.69855">
        <ele>308.6</ele>
        <time>2017-10-01T10:17:40Z</time>
      </trkpt>
      <trkpt lat="45.80736" lon="4.69867">
        <ele>308.1</ele>
        <time>2017-10-01T10:17:43Z</time>
      </trkpt>
      <trkpt lat="45.80736" lon="4.6987">
        <ele>307.9</ele>
        <time>2017-10-01T10:17:44Z</time>
      </trkpt>
      <trkpt lat="45.80737" lon="4.69885">
        <ele>307.3</ele>
        <time>2017-10-01T10:17:48Z</time>
      </trkpt>
      <trkpt lat="45.80737" lon="4.69893">
        <ele>306.9</ele>
        <time>2017-10-01T10:17:50Z</time>
      </trkpt>
      <trkpt lat="45.80738" lon="4.69904">
        <ele>306.5</ele>
        <time>2017-10-01T10:17:53Z</time>
      </trkpt>
      <trkpt lat="45.80738" lon="4.69912">
        <ele>306.1</ele>
        <time>2017-10-01T10:17:55Z</time>
      </trkpt>
      <trkpt lat="45.80737" lon="4.69928">
        <ele>305.5</ele>
        <time>2017-10-01T10:17:58Z</time>
      </trkpt>
      <trkpt lat="45.80735" lon="4.6994">
        <ele>304.9</ele>
        <time>2017-10-01T10:18:00Z</time>
      </trkpt>
      <trkpt lat="45.80735" lon="4.69953">
        <ele>304.2</ele>
        <time>2017-10-01T10:18:02Z</time>
      </trkpt>
      <trkpt lat="45.80738" lon="4.69961">
        <ele>303.9</ele>
        <time>2017-10-01T10:18:04Z</time>
      </trkpt>
      <trkpt lat="45.80739" lon="4.69965">
        <ele>303.8</ele>
        <time>2017-10-01T10:18:05Z</time>
      </trkpt>
      <trkpt lat="45.80741" lon="4.69976">
        <ele>302.1</ele>
        <time>2017-10-01T10:18:07Z</time>
      </trkpt>
      <trkpt lat="45.80742" lon="4.69982">
        <ele>301.9</ele>
        <time>2017-10-01T10:18:08Z</time>
      </trkpt>
      <trkpt lat="45.80744" lon="4.69987">
        <ele>301.4</ele>
        <time>2017-10-01T10:18:09Z</time>
      </trkpt>
      <trkpt lat="45.80748" lon="4.69991">
        <ele>301.3</ele>
        <time>2017-10-01T10:18:11Z</time>
      </trkpt>
      <trkpt lat="45.80751" lon="4.69993">
        <ele>300.9</ele>
        <time>2017-10-01T10:18:12Z</time>
      </trkpt>
      <trkpt lat="45.80754" lon="4.69994">
        <ele>301</ele>
        <time>2017-10-01T10:18:13Z</time>
      </trkpt>
      <trkpt lat="45.80763" lon="4.69997">
        <ele>299.8</ele>
        <time>2017-10-01T10:18:15Z</time>
      </trkpt>
      <trkpt lat="45.80768" lon="4.7">
        <ele>298.9</ele>
        <time>2017-10-01T10:18:16Z</time>
      </trkpt>
      <trkpt lat="45.80773" lon="4.70004">
        <ele>298</ele>
        <time>2017-10-01T10:18:17Z</time>
      </trkpt>
      <trkpt lat="45.80777" lon="4.70008">
        <ele>297</ele>
        <time>2017-10-01T10:18:18Z</time>
      </trkpt>
      <trkpt lat="45.80781" lon="4.70012">
        <ele>295.4</ele>
        <time>2017-10-01T10:18:19Z</time>
      </trkpt>
      <trkpt lat="45.80785" lon="4.70017">
        <ele>294.5</ele>
        <time>2017-10-01T10:18:20Z</time>
      </trkpt>
      <trkpt lat="45.8079" lon="4.70023">
        <ele>293.1</ele>
        <time>2017-10-01T10:18:21Z</time>
      </trkpt>
      <trkpt lat="45.80799" lon="4.70037">
        <ele>292.4</ele>
        <time>2017-10-01T10:18:23Z</time>
      </trkpt>
      <trkpt lat="45.80805" lon="4.70049">
        <ele>292.9</ele>
        <time>2017-10-01T10:18:25Z</time>
      </trkpt>
      <trkpt lat="45.80807" lon="4.70054">
        <ele>292.9</ele>
        <time>2017-10-01T10:18:26Z</time>
      </trkpt>
      <trkpt lat="45.80807" lon="4.70058">
        <ele>292.9</ele>
        <time>2017-10-01T10:18:27Z</time>
      </trkpt>
      <trkpt lat="45.80807" lon="4.7007">
        <ele>293</ele>
        <time>2017-10-01T10:18:29Z</time>
      </trkpt>
      <trkpt lat="45.80807" lon="4.70076">
        <ele>293</ele>
        <time>2017-10-01T10:18:30Z</time>
      </trkpt>
      <trkpt lat="45.80806" lon="4.70081">
        <ele>293</ele>
        <time>2017-10-01T10:18:31Z</time>
      </trkpt>
      <trkpt lat="45.80805" lon="4.70093">
        <ele>293.9</ele>
        <time>2017-10-01T10:18:33Z</time>
      </trkpt>
      <trkpt lat="45.80804" lon="4.70107">
        <ele>295.2</ele>
        <time>2017-10-01T10:18:35Z</time>
      </trkpt>
      <trkpt lat="45.80803" lon="4.70114">
        <ele>295.2</ele>
        <time>2017-10-01T10:18:36Z</time>
      </trkpt>
      <trkpt lat="45.80803" lon="4.70122">
        <ele>295.3</ele>
        <time>2017-10-01T10:18:37Z</time>
      </trkpt>
      <trkpt lat="45.80804" lon="4.70138">
        <ele>295.5</ele>
        <time>2017-10-01T10:18:39Z</time>
      </trkpt>
      <trkpt lat="45.80806" lon="4.70157">
        <ele>295.6</ele>
        <time>2017-10-01T10:18:41Z</time>
      </trkpt>
      <trkpt lat="45.80808" lon="4.70175">
        <ele>295.6</ele>
        <time>2017-10-01T10:18:43Z</time>
      </trkpt>
      <trkpt lat="45.80806" lon="4.70205">
        <ele>295.4</ele>
        <time>2017-10-01T10:18:46Z</time>
      </trkpt>
      <trkpt lat="45.80801" lon="4.7025">
        <ele>294.6</ele>
        <time>2017-10-01T10:18:51Z</time>
      </trkpt>
      <trkpt lat="45.80797" lon="4.70281">
        <ele>290.4</ele>
        <time>2017-10-01T10:18:54Z</time>
      </trkpt>
      <trkpt lat="45.80796" lon="4.703">
        <ele>287</ele>
        <time>2017-10-01T10:18:56Z</time>
      </trkpt>
      <trkpt lat="45.808" lon="4.70308">
        <ele>287</ele>
        <time>2017-10-01T10:18:57Z</time>
      </trkpt>
      <trkpt lat="45.80815" lon="4.7033">
        <ele>287</ele>
        <time>2017-10-01T10:19:01Z</time>
      </trkpt>
      <trkpt lat="45.80814" lon="4.70346">
        <ele>282.4</ele>
        <time>2017-10-01T10:19:04Z</time>
      </trkpt>
      <trkpt lat="45.80809" lon="4.70353">
        <ele>284.9</ele>
        <time>2017-10-01T10:19:06Z</time>
      </trkpt>
      <trkpt lat="45.80807" lon="4.70355">
        <ele>285.4</ele>
        <time>2017-10-01T10:19:07Z</time>
      </trkpt>
      <trkpt lat="45.80805" lon="4.70358">
        <ele>285.9</ele>
        <time>2017-10-01T10:19:08Z</time>
      </trkpt>
      <trkpt lat="45.80802" lon="4.70363">
        <ele>286.8</ele>
        <time>2017-10-01T10:19:10Z</time>
      </trkpt>
      <trkpt lat="45.80798" lon="4.70372">
        <ele>287.9</ele>
        <time>2017-10-01T10:19:13Z</time>
      </trkpt>
      <trkpt lat="45.80798" lon="4.70376">
        <ele>288.3</ele>
        <time>2017-10-01T10:19:14Z</time>
      </trkpt>
      <trkpt lat="45.80798" lon="4.7038">
        <ele>288.7</ele>
        <time>2017-10-01T10:19:15Z</time>
      </trkpt>
      <trkpt lat="45.80802" lon="4.70388">
        <ele>289.6</ele>
        <time>2017-10-01T10:19:18Z</time>
      </trkpt>
      <trkpt lat="45.80804" lon="4.7039">
        <ele>289.9</ele>
        <time>2017-10-01T10:19:19Z</time>
      </trkpt>
      <trkpt lat="45.80806" lon="4.70391">
        <ele>290.2</ele>
        <time>2017-10-01T10:19:20Z</time>
      </trkpt>
      <trkpt lat="45.8081" lon="4.70392">
        <ele>290.8</ele>
        <time>2017-10-01T10:19:22Z</time>
      </trkpt>
      <trkpt lat="45.80815" lon="4.70392">
        <ele>291.4</ele>
        <time>2017-10-01T10:19:24Z</time>
      </trkpt>
      <trkpt lat="45.80817" lon="4.70393">
        <ele>291.7</ele>
        <time>2017-10-01T10:19:25Z</time>
      </trkpt>
      <trkpt lat="45.80826" lon="4.70396">
        <ele>292.8</ele>
        <time>2017-10-01T10:19:29Z</time>
      </trkpt>
      <trkpt lat="45.8083" lon="4.70396">
        <ele>293.4</ele>
        <time>2017-10-01T10:19:31Z</time>
      </trkpt>
      <trkpt lat="45.80832" lon="4.70398">
        <ele>293.7</ele>
        <time>2017-10-01T10:19:32Z</time>
      </trkpt>
      <trkpt lat="45.80837" lon="4.70402">
        <ele>294.4</ele>
        <time>2017-10-01T10:19:35Z</time>
      </trkpt>
      <trkpt lat="45.80839" lon="4.70403">
        <ele>294.7</ele>
        <time>2017-10-01T10:19:36Z</time>
      </trkpt>
      <trkpt lat="45.80843" lon="4.70406">
        <ele>295.3</ele>
        <time>2017-10-01T10:19:38Z</time>
      </trkpt>
      <trkpt lat="45.8085" lon="4.70414">
        <ele>296.5</ele>
        <time>2017-10-01T10:19:42Z</time>
      </trkpt>
      <trkpt lat="45.80853" lon="4.70417">
        <ele>297.1</ele>
        <time>2017-10-01T10:19:44Z</time>
      </trkpt>
      <trkpt lat="45.80855" lon="4.70421">
        <ele>297.7</ele>
        <time>2017-10-01T10:19:46Z</time>
      </trkpt>
      <trkpt lat="45.80861" lon="4.70427">
        <ele>298.6</ele>
        <time>2017-10-01T10:19:50Z</time>
      </trkpt>
      <trkpt lat="45.80868" lon="4.7044">
        <ele>300.4</ele>
        <time>2017-10-01T10:19:56Z</time>
      </trkpt>
      <trkpt lat="45.80869" lon="4.70442">
        <ele>300.7</ele>
        <time>2017-10-01T10:19:57Z</time>
      </trkpt>
      <trkpt lat="45.80872" lon="4.70453">
        <ele>301.8</ele>
        <time>2017-10-01T10:20:02Z</time>
      </trkpt>
      <trkpt lat="45.80873" lon="4.70459">
        <ele>302.4</ele>
        <time>2017-10-01T10:20:05Z</time>
      </trkpt>
      <trkpt lat="45.80874" lon="4.70466">
        <ele>303</ele>
        <time>2017-10-01T10:20:09Z</time>
      </trkpt>
      <trkpt lat="45.80874" lon="4.7047">
        <ele>303.3</ele>
        <time>2017-10-01T10:20:11Z</time>
      </trkpt>
      <trkpt lat="45.80875" lon="4.70474">
        <ele>303.6</ele>
        <time>2017-10-01T10:20:13Z</time>
      </trkpt>
      <trkpt lat="45.80875" lon="4.70479">
        <ele>304</ele>
        <time>2017-10-01T10:20:16Z</time>
      </trkpt>
      <trkpt lat="45.80875" lon="4.70484">
        <ele>304.4</ele>
        <time>2017-10-01T10:20:19Z</time>
      </trkpt>
      <trkpt lat="45.80875" lon="4.70486">
        <ele>304.5</ele>
        <time>2017-10-01T10:20:20Z</time>
      </trkpt>
      <trkpt lat="45.80876" lon="4.7049">
        <ele>304.8</ele>
        <time>2017-10-01T10:20:22Z</time>
      </trkpt>
      <trkpt lat="45.80876" lon="4.70496">
        <ele>305.3</ele>
        <time>2017-10-01T10:20:25Z</time>
      </trkpt>
      <trkpt lat="45.80876" lon="4.70504">
        <ele>305.8</ele>
        <time>2017-10-01T10:20:28Z</time>
      </trkpt>
      <trkpt lat="45.80876" lon="4.70512">
        <ele>306.3</ele>
        <time>2017-10-01T10:20:31Z</time>
      </trkpt>
      <trkpt lat="45.80876" lon="4.70519">
        <ele>306.8</ele>
        <time>2017-10-01T10:20:34Z</time>
      </trkpt>
      <trkpt lat="45.80876" lon="4.70524">
        <ele>307</ele>
        <time>2017-10-01T10:20:36Z</time>
      </trkpt>
      <trkpt lat="45.80876" lon="4.70526">
        <ele>307.2</ele>
        <time>2017-10-01T10:20:37Z</time>
      </trkpt>
      <trkpt lat="45.80875" lon="4.70534">
        <ele>307.6</ele>
        <time>2017-10-01T10:20:40Z</time>
      </trkpt>
      <trkpt lat="45.80875" lon="4.70541">
        <ele>308</ele>
        <time>2017-10-01T10:20:43Z</time>
      </trkpt>
      <trkpt lat="45.80875" lon="4.70544">
        <ele>308.1</ele>
        <time>2017-10-01T10:20:44Z</time>
      </trkpt>
      <trkpt lat="45.80875" lon="4.70551">
        <ele>308.5</ele>
        <time>2017-10-01T10:20:47Z</time>
      </trkpt>
      <trkpt lat="45.80876" lon="4.70563">
        <ele>309.2</ele>
        <time>2017-10-01T10:20:52Z</time>
      </trkpt>
      <trkpt lat="45.80876" lon="4.70565">
        <ele>309.3</ele>
        <time>2017-10-01T10:20:53Z</time>
      </trkpt>
      <trkpt lat="45.80876" lon="4.70574">
        <ele>309.7</ele>
        <time>2017-10-01T10:20:57Z</time>
      </trkpt>
      <trkpt lat="45.80876" lon="4.70591">
        <ele>310.5</ele>
        <time>2017-10-01T10:21:03Z</time>
      </trkpt>
      <trkpt lat="45.80875" lon="4.70604">
        <ele>311.2</ele>
        <time>2017-10-01T10:21:08Z</time>
      </trkpt>
      <trkpt lat="45.80875" lon="4.7061">
        <ele>311.4</ele>
        <time>2017-10-01T10:21:10Z</time>
      </trkpt>
      <trkpt lat="45.80874" lon="4.70621">
        <ele>311.9</ele>
        <time>2017-10-01T10:21:14Z</time>
      </trkpt>
      <trkpt lat="45.80876" lon="4.70631">
        <ele>312.4</ele>
        <time>2017-10-01T10:21:18Z</time>
      </trkpt>
      <trkpt lat="45.80877" lon="4.70636">
        <ele>312.6</ele>
        <time>2017-10-01T10:21:20Z</time>
      </trkpt>
      <trkpt lat="45.80882" lon="4.7065">
        <ele>313.2</ele>
        <time>2017-10-01T10:21:26Z</time>
      </trkpt>
      <trkpt lat="45.80883" lon="4.70652">
        <ele>313.2</ele>
        <time>2017-10-01T10:21:27Z</time>
      </trkpt>
      <trkpt lat="45.80889" lon="4.70665">
        <ele>313.7</ele>
        <time>2017-10-01T10:21:33Z</time>
      </trkpt>
      <trkpt lat="45.80891" lon="4.70669">
        <ele>313.9</ele>
        <time>2017-10-01T10:21:35Z</time>
      </trkpt>
      <trkpt lat="45.80895" lon="4.70676">
        <ele>314.1</ele>
        <time>2017-10-01T10:21:38Z</time>
      </trkpt>
      <trkpt lat="45.80902" lon="4.70688">
        <ele>314.6</ele>
        <time>2017-10-01T10:21:43Z</time>
      </trkpt>
      <trkpt lat="45.80907" lon="4.70699">
        <ele>315</ele>
        <time>2017-10-01T10:21:47Z</time>
      </trkpt>
      <trkpt lat="45.80914" lon="4.70714">
        <ele>315.5</ele>
        <time>2017-10-01T10:21:52Z</time>
      </trkpt>
      <trkpt lat="45.80921" lon="4.70737">
        <ele>316.3</ele>
        <time>2017-10-01T10:21:59Z</time>
      </trkpt>
      <trkpt lat="45.80922" lon="4.70744">
        <ele>316.6</ele>
        <time>2017-10-01T10:22:01Z</time>
      </trkpt>
      <trkpt lat="45.80928" lon="4.70773">
        <ele>317.7</ele>
        <time>2017-10-01T10:22:08Z</time>
      </trkpt>
      <trkpt lat="45.80929" lon="4.70785">
        <ele>318.2</ele>
        <time>2017-10-01T10:22:11Z</time>
      </trkpt>
      <trkpt lat="45.80933" lon="4.70822">
        <ele>319.7</ele>
        <time>2017-10-01T10:22:20Z</time>
      </trkpt>
      <trkpt lat="45.80935" lon="4.70841">
        <ele>320.6</ele>
        <time>2017-10-01T10:22:25Z</time>
      </trkpt>
      <trkpt lat="45.80935" lon="4.70844">
        <ele>320.7</ele>
        <time>2017-10-01T10:22:26Z</time>
      </trkpt>
      <trkpt lat="45.80932" lon="4.70851">
        <ele>321.7</ele>
        <time>2017-10-01T10:22:28Z</time>
      </trkpt>
      <trkpt lat="45.80927" lon="4.7086">
        <ele>322.7</ele>
        <time>2017-10-01T10:22:31Z</time>
      </trkpt>
      <trkpt lat="45.8092" lon="4.70874">
        <ele>323.9</ele>
        <time>2017-10-01T10:22:35Z</time>
      </trkpt>
      <trkpt lat="45.80915" lon="4.70891">
        <ele>325.1</ele>
        <time>2017-10-01T10:22:39Z</time>
      </trkpt>
      <trkpt lat="45.80911" lon="4.70912">
        <ele>326.4</ele>
        <time>2017-10-01T10:22:44Z</time>
      </trkpt>
      <trkpt lat="45.80907" lon="4.70926">
        <ele>327.1</ele>
        <time>2017-10-01T10:22:47Z</time>
      </trkpt>
      <trkpt lat="45.80906" lon="4.7094">
        <ele>327.8</ele>
        <time>2017-10-01T10:22:50Z</time>
      </trkpt>
      <trkpt lat="45.80906" lon="4.70963">
        <ele>328.9</ele>
        <time>2017-10-01T10:22:55Z</time>
      </trkpt>
      <trkpt lat="45.80906" lon="4.70967">
        <ele>329.2</ele>
        <time>2017-10-01T10:22:56Z</time>
      </trkpt>
      <trkpt lat="45.80911" lon="4.71">
        <ele>330.7</ele>
        <time>2017-10-01T10:23:03Z</time>
      </trkpt>
      <trkpt lat="45.80912" lon="4.71005">
        <ele>330.9</ele>
        <time>2017-10-01T10:23:04Z</time>
      </trkpt>
      <trkpt lat="45.80918" lon="4.71032">
        <ele>331.9</ele>
        <time>2017-10-01T10:23:10Z</time>
      </trkpt>
      <trkpt lat="45.8092" lon="4.71041">
        <ele>332.1</ele>
        <time>2017-10-01T10:23:12Z</time>
      </trkpt>
      <trkpt lat="45.80926" lon="4.71062">
        <ele>332.4</ele>
        <time>2017-10-01T10:23:17Z</time>
      </trkpt>
      <trkpt lat="45.80931" lon="4.7108">
        <ele>332.7</ele>
        <time>2017-10-01T10:23:21Z</time>
      </trkpt>
      <trkpt lat="45.8094" lon="4.71116">
        <ele>333.2</ele>
        <time>2017-10-01T10:23:29Z</time>
      </trkpt>
      <trkpt lat="45.80952" lon="4.71154">
        <ele>333.7</ele>
        <time>2017-10-01T10:23:37Z</time>
      </trkpt>
      <trkpt lat="45.80965" lon="4.71187">
        <ele>334.2</ele>
        <time>2017-10-01T10:23:44Z</time>
      </trkpt>
      <trkpt lat="45.80984" lon="4.71229">
        <ele>334.9</ele>
        <time>2017-10-01T10:23:53Z</time>
      </trkpt>
      <trkpt lat="45.80998" lon="4.71259">
        <ele>335.3</ele>
        <time>2017-10-01T10:23:59Z</time>
      </trkpt>
      <trkpt lat="45.81003" lon="4.71271">
        <ele>336</ele>
        <time>2017-10-01T10:24:01Z</time>
      </trkpt>
      <trkpt lat="45.81017" lon="4.71301">
        <ele>335.5</ele>
        <time>2017-10-01T10:24:06Z</time>
      </trkpt>
      <trkpt lat="45.81024" lon="4.71309">
        <ele>334.9</ele>
        <time>2017-10-01T10:24:08Z</time>
      </trkpt>
      <trkpt lat="45.81031" lon="4.71318">
        <ele>334.4</ele>
        <time>2017-10-01T10:24:10Z</time>
      </trkpt>
      <trkpt lat="45.81045" lon="4.71335">
        <ele>333.4</ele>
        <time>2017-10-01T10:24:14Z</time>
      </trkpt>
      <trkpt lat="45.81058" lon="4.71352">
        <ele>332.6</ele>
        <time>2017-10-01T10:24:18Z</time>
      </trkpt>
      <trkpt lat="45.81071" lon="4.71369">
        <ele>333.8</ele>
        <time>2017-10-01T10:24:22Z</time>
      </trkpt>
      <trkpt lat="45.81081" lon="4.71388">
        <ele>339.1</ele>
        <time>2017-10-01T10:24:26Z</time>
      </trkpt>
      <trkpt lat="45.81085" lon="4.71397">
        <ele>339.9</ele>
        <time>2017-10-01T10:24:28Z</time>
      </trkpt>
      <trkpt lat="45.81095" lon="4.71415">
        <ele>339.5</ele>
        <time>2017-10-01T10:24:32Z</time>
      </trkpt>
      <trkpt lat="45.81104" lon="4.71435">
        <ele>339.1</ele>
        <time>2017-10-01T10:24:36Z</time>
      </trkpt>
      <trkpt lat="45.81108" lon="4.71446">
        <ele>338.9</ele>
        <time>2017-10-01T10:24:38Z</time>
      </trkpt>
      <trkpt lat="45.81113" lon="4.7146">
        <ele>338.5</ele>
        <time>2017-10-01T10:24:41Z</time>
      </trkpt>
      <trkpt lat="45.81117" lon="4.71469">
        <ele>338.2</ele>
        <time>2017-10-01T10:24:43Z</time>
      </trkpt>
      <trkpt lat="45.81126" lon="4.71492">
        <ele>338.4</ele>
        <time>2017-10-01T10:24:48Z</time>
      </trkpt>
      <trkpt lat="45.81132" lon="4.7151">
        <ele>338.8</ele>
        <time>2017-10-01T10:24:52Z</time>
      </trkpt>
      <trkpt lat="45.8114" lon="4.7153">
        <ele>339.2</ele>
        <time>2017-10-01T10:24:56Z</time>
      </trkpt>
      <trkpt lat="45.81147" lon="4.71545">
        <ele>339.5</ele>
        <time>2017-10-01T10:24:59Z</time>
      </trkpt>
      <trkpt lat="45.81149" lon="4.7155">
        <ele>339.6</ele>
        <time>2017-10-01T10:25:00Z</time>
      </trkpt>
      <trkpt lat="45.81158" lon="4.71578">
        <ele>340.3</ele>
        <time>2017-10-01T10:25:05Z</time>
      </trkpt>
      <trkpt lat="45.81159" lon="4.71583">
        <ele>340.7</ele>
        <time>2017-10-01T10:25:06Z</time>
      </trkpt>
      <trkpt lat="45.81176" lon="4.71623">
        <ele>344</ele>
        <time>2017-10-01T10:25:14Z</time>
      </trkpt>
      <trkpt lat="45.81189" lon="4.71662">
        <ele>342.4</ele>
        <time>2017-10-01T10:25:20Z</time>
      </trkpt>
      <trkpt lat="45.81197" lon="4.71688">
        <ele>341.3</ele>
        <time>2017-10-01T10:25:23Z</time>
      </trkpt>
      <trkpt lat="45.812" lon="4.71707">
        <ele>340.5</ele>
        <time>2017-10-01T10:25:25Z</time>
      </trkpt>
      <trkpt lat="45.81202" lon="4.71728">
        <ele>339.7</ele>
        <time>2017-10-01T10:25:27Z</time>
      </trkpt>
      <trkpt lat="45.81202" lon="4.71739">
        <ele>339.3</ele>
        <time>2017-10-01T10:25:28Z</time>
      </trkpt>
      <trkpt lat="45.81201" lon="4.71751">
        <ele>338.7</ele>
        <time>2017-10-01T10:25:29Z</time>
      </trkpt>
      <trkpt lat="45.812" lon="4.71762">
        <ele>338.1</ele>
        <time>2017-10-01T10:25:30Z</time>
      </trkpt>
      <trkpt lat="45.81199" lon="4.71784">
        <ele>337</ele>
        <time>2017-10-01T10:25:32Z</time>
      </trkpt>
      <trkpt lat="45.81198" lon="4.71796">
        <ele>336.3</ele>
        <time>2017-10-01T10:25:34Z</time>
      </trkpt>
      <trkpt lat="45.81196" lon="4.71801">
        <ele>336</ele>
        <time>2017-10-01T10:25:36Z</time>
      </trkpt>
      <trkpt lat="45.81193" lon="4.71803">
        <ele>336</ele>
        <time>2017-10-01T10:25:37Z</time>
      </trkpt>
      <trkpt lat="45.81191" lon="4.71805">
        <ele>336</ele>
        <time>2017-10-01T10:25:38Z</time>
      </trkpt>
      <trkpt lat="45.81185" lon="4.7181">
        <ele>334.9</ele>
        <time>2017-10-01T10:25:40Z</time>
      </trkpt>
      <trkpt lat="45.81176" lon="4.71815">
        <ele>334.2</ele>
        <time>2017-10-01T10:25:42Z</time>
      </trkpt>
      <trkpt lat="45.81171" lon="4.71817">
        <ele>333.8</ele>
        <time>2017-10-01T10:25:43Z</time>
      </trkpt>
      <trkpt lat="45.81154" lon="4.71827">
        <ele>332.5</ele>
        <time>2017-10-01T10:25:46Z</time>
      </trkpt>
      <trkpt lat="45.81147" lon="4.7183">
        <ele>332</ele>
        <time>2017-10-01T10:25:47Z</time>
      </trkpt>
      <trkpt lat="45.81133" lon="4.71837">
        <ele>331.1</ele>
        <time>2017-10-01T10:25:49Z</time>
      </trkpt>
      <trkpt lat="45.81111" lon="4.7185">
        <ele>329.4</ele>
        <time>2017-10-01T10:25:52Z</time>
      </trkpt>
      <trkpt lat="45.81103" lon="4.71854">
        <ele>328.9</ele>
        <time>2017-10-01T10:25:53Z</time>
      </trkpt>
      <trkpt lat="45.81087" lon="4.71863">
        <ele>327.6</ele>
        <time>2017-10-01T10:25:55Z</time>
      </trkpt>
      <trkpt lat="45.81062" lon="4.71876">
        <ele>325.8</ele>
        <time>2017-10-01T10:25:58Z</time>
      </trkpt>
      <trkpt lat="45.81045" lon="4.71883">
        <ele>324.6</ele>
        <time>2017-10-01T10:26:00Z</time>
      </trkpt>
      <trkpt lat="45.81037" lon="4.71886">
        <ele>324</ele>
        <time>2017-10-01T10:26:01Z</time>
      </trkpt>
      <trkpt lat="45.81012" lon="4.71894">
        <ele>322.6</ele>
        <time>2017-10-01T10:26:04Z</time>
      </trkpt>
      <trkpt lat="45.81003" lon="4.71896">
        <ele>321.7</ele>
        <time>2017-10-01T10:26:05Z</time>
      </trkpt>
      <trkpt lat="45.80985" lon="4.719">
        <ele>321</ele>
        <time>2017-10-01T10:26:07Z</time>
      </trkpt>
      <trkpt lat="45.80959" lon="4.71903">
        <ele>320.7</ele>
        <time>2017-10-01T10:26:10Z</time>
      </trkpt>
      <trkpt lat="45.80941" lon="4.71904">
        <ele>319.7</ele>
        <time>2017-10-01T10:26:12Z</time>
      </trkpt>
      <trkpt lat="45.80924" lon="4.71905">
        <ele>318.8</ele>
        <time>2017-10-01T10:26:14Z</time>
      </trkpt>
      <trkpt lat="45.80888" lon="4.71909">
        <ele>317.1</ele>
        <time>2017-10-01T10:26:18Z</time>
      </trkpt>
      <trkpt lat="45.80854" lon="4.71914">
        <ele>315.5</ele>
        <time>2017-10-01T10:26:22Z</time>
      </trkpt>
      <trkpt lat="45.80845" lon="4.71916">
        <ele>315.1</ele>
        <time>2017-10-01T10:26:23Z</time>
      </trkpt>
      <trkpt lat="45.80805" lon="4.71925">
        <ele>315</ele>
        <time>2017-10-01T10:26:28Z</time>
      </trkpt>
      <trkpt lat="45.80799" lon="4.71925">
        <ele>316</ele>
        <time>2017-10-01T10:26:29Z</time>
      </trkpt>
      <trkpt lat="45.80782" lon="4.71915">
        <ele>314.9</ele>
        <time>2017-10-01T10:26:32Z</time>
      </trkpt>
      <trkpt lat="45.8077" lon="4.71925">
        <ele>314</ele>
        <time>2017-10-01T10:26:34Z</time>
      </trkpt>
      <trkpt lat="45.80766" lon="4.71931">
        <ele>314</ele>
        <time>2017-10-01T10:26:35Z</time>
      </trkpt>
      <trkpt lat="45.80748" lon="4.71944">
        <ele>313.5</ele>
        <time>2017-10-01T10:26:38Z</time>
      </trkpt>
      <trkpt lat="45.80741" lon="4.71946">
        <ele>313.4</ele>
        <time>2017-10-01T10:26:39Z</time>
      </trkpt>
      <trkpt lat="45.807" lon="4.71954">
        <ele>312.6</ele>
        <time>2017-10-01T10:26:45Z</time>
      </trkpt>
      <trkpt lat="45.80694" lon="4.71955">
        <ele>312.4</ele>
        <time>2017-10-01T10:26:46Z</time>
      </trkpt>
      <trkpt lat="45.80656" lon="4.71964">
        <ele>311</ele>
        <time>2017-10-01T10:26:52Z</time>
      </trkpt>
      <trkpt lat="45.80644" lon="4.71967">
        <ele>311</ele>
        <time>2017-10-01T10:26:54Z</time>
      </trkpt>
      <trkpt lat="45.80604" lon="4.71977">
        <ele>310.4</ele>
        <time>2017-10-01T10:27:01Z</time>
      </trkpt>
      <trkpt lat="45.80594" lon="4.71979">
        <ele>309.5</ele>
        <time>2017-10-01T10:27:03Z</time>
      </trkpt>
      <trkpt lat="45.80562" lon="4.71986">
        <ele>308</ele>
        <time>2017-10-01T10:27:10Z</time>
      </trkpt>
      <trkpt lat="45.80554" lon="4.71996">
        <ele>308.9</ele>
        <time>2017-10-01T10:27:14Z</time>
      </trkpt>
      <trkpt lat="45.80552" lon="4.72006">
        <ele>309</ele>
        <time>2017-10-01T10:27:19Z</time>
      </trkpt>
      <trkpt lat="45.8055" lon="4.72008">
        <ele>309</ele>
        <time>2017-10-01T10:28:55Z</time>
      </trkpt>
      <trkpt lat="45.80547" lon="4.72011">
        <ele>309</ele>
        <time>2017-10-01T10:28:57Z</time>
      </trkpt>
      <trkpt lat="45.80544" lon="4.72018">
        <ele>309</ele>
        <time>2017-10-01T10:29:00Z</time>
      </trkpt>
      <trkpt lat="45.80545" lon="4.72021">
        <ele>309</ele>
        <time>2017-10-01T10:29:03Z</time>
      </trkpt>
      <trkpt lat="45.80544" lon="4.72026">
        <ele>309</ele>
        <time>2017-10-01T10:29:14Z</time>
      </trkpt>
      <trkpt lat="45.80543" lon="4.72028">
        <ele>309</ele>
        <time>2017-10-01T10:29:15Z</time>
      </trkpt>
      <trkpt lat="45.80542" lon="4.7203">
        <ele>309</ele>
        <time>2017-10-01T10:29:16Z</time>
      </trkpt>
      <trkpt lat="45.80538" lon="4.7205">
        <ele>309</ele>
        <time>2017-10-01T10:29:21Z</time>
      </trkpt>
      <trkpt lat="45.80536" lon="4.72062">
        <ele>309</ele>
        <time>2017-10-01T10:29:23Z</time>
      </trkpt>
      <trkpt lat="45.80536" lon="4.72085">
        <ele>308.3</ele>
        <time>2017-10-01T10:29:27Z</time>
      </trkpt>
      <trkpt lat="45.80543" lon="4.72113">
        <ele>306.6</ele>
        <time>2017-10-01T10:29:34Z</time>
      </trkpt>
    </trkseg>
  </trk>
</gpx>